<?xml version='1.0' encoding='UTF-8'?><gpx version="1.1" creator="JPX - https://github.com/jenetics/jpx" xmlns="http://www.topografix.com/GPX/1/1"><trk><trkseg><trkpt lat="44.03749795948075" lon="10.842607100914405"><ele>786.9999999999999</ele><time>2026-05-03T12:10:34.999Z</time></trkpt><trkpt lat="44.0375269450831" lon="10.842528103270446"><ele>787.0</ele><time>2026-05-03T12:10:43.999Z</time></trkpt><trkpt lat="44.037524157245585" lon="10.842437688322303"><ele>787.0</ele><time>2026-05-03T12:10:54.156Z</time></trkpt><trkpt lat="44.03754270406725" lon="10.842353899434023"><ele>787.0</ele><time>2026-05-03T12:10:57.999Z</time></trkpt><trkpt lat="44.037606413190716" lon="10.842309580597428"><ele>786.9999999999999</ele><time>2026-05-03T12:11:07.999Z</time></trkpt><trkpt lat="44.037690280968825" lon="10.84224158312795"><ele>787.0</ele><time>2026-05-03T12:11:15.999Z</time></trkpt><trkpt lat="44.03777269298272" lon="10.842165169998529"><ele>787.0</ele><time>2026-05-03T12:11:17.999Z</time></trkpt><trkpt lat="44.03786018226956" lon="10.842024931577336"><ele>787.0</ele><time>2026-05-03T12:11:19.999Z</time></trkpt><trkpt lat="44.037913378042774" lon="10.841915477059837"><ele>787.0</ele><time>2026-05-03T12:11:20.999Z</time></trkpt><trkpt lat="44.03802640942667" lon="10.841828593957912"><ele>787.0</ele><time>2026-05-03T12:11:22.999Z</time></trkpt><trkpt lat="44.038103942050384" lon="10.841747409437772"><ele>787.2</ele><time>2026-05-03T12:11:24.999Z</time></trkpt><trkpt lat="44.0382133711422" lon="10.84166787681448"><ele>787.4000000000001</ele><time>2026-05-03T12:11:26.999Z</time></trkpt><trkpt lat="44.03828377282558" lon="10.841637280024"><ele>787.5999999999999</ele><time>2026-05-03T12:11:27.999Z</time></trkpt><trkpt lat="44.03838215634902" lon="10.841551100234621"><ele>787.8</ele><time>2026-05-03T12:11:28.999Z</time></trkpt><trkpt lat="44.03849690045473" lon="10.841463578198894"><ele>788.0</ele><time>2026-05-03T12:11:29.999Z</time></trkpt><trkpt lat="44.03859833302194" lon="10.841390281652044"><ele>785.8</ele><time>2026-05-03T12:11:30.999Z</time></trkpt><trkpt lat="44.03869013344323" lon="10.841312239186449"><ele>783.5999999999999</ele><time>2026-05-03T12:11:31.999Z</time></trkpt><trkpt lat="44.038759847022355" lon="10.841230915161361"><ele>781.4000000000001</ele><time>2026-05-03T12:11:32.999Z</time></trkpt><trkpt lat="44.03882645380192" lon="10.841150424271087"><ele>779.2</ele><time>2026-05-03T12:11:33.999Z</time></trkpt><trkpt lat="44.03888828586335" lon="10.84106333168814"><ele>777.0</ele><time>2026-05-03T12:11:34.999Z</time></trkpt><trkpt lat="44.0389453917133" lon="10.840981349604947"><ele>778.8333333333334</ele><time>2026-05-03T12:11:35.999Z</time></trkpt><trkpt lat="44.03899947803438" lon="10.840890874942291"><ele>780.6666666666667</ele><time>2026-05-03T12:11:36.999Z</time></trkpt><trkpt lat="44.0390407999359" lon="10.840789777768773"><ele>782.5</ele><time>2026-05-03T12:11:37.999Z</time></trkpt><trkpt lat="44.03908250029351" lon="10.840689789384195"><ele>784.3333333333334</ele><time>2026-05-03T12:11:38.999Z</time></trkpt><trkpt lat="44.03910786042289" lon="10.840584764735253"><ele>786.1666666666667</ele><time>2026-05-03T12:11:39.999Z</time></trkpt><trkpt lat="44.03912525723863" lon="10.84048379946613"><ele>788.0</ele><time>2026-05-03T12:11:40.999Z</time></trkpt><trkpt lat="44.03913012958345" lon="10.840385861067206"><ele>788.0000000000001</ele><time>2026-05-03T12:11:41.999Z</time></trkpt><trkpt lat="44.03913653838099" lon="10.840279669948071"><ele>788.0</ele><time>2026-05-03T12:11:42.999Z</time></trkpt><trkpt lat="44.03912606087082" lon="10.84018114294271"><ele>788.0</ele><time>2026-05-03T12:11:43.999Z</time></trkpt><trkpt lat="44.03911402513165" lon="10.840083039994257"><ele>788.0</ele><time>2026-05-03T12:11:44.999Z</time></trkpt><trkpt lat="44.03909581103515" lon="10.839986679579217"><ele>788.0000000000001</ele><time>2026-05-03T12:11:45.999Z</time></trkpt><trkpt lat="44.03906199583827" lon="10.839890832314124"><ele>788.0</ele><time>2026-05-03T12:11:46.999Z</time></trkpt><trkpt lat="44.039026474970065" lon="10.839730687906824"><ele>789.4</ele><time>2026-05-03T12:11:48.999Z</time></trkpt><trkpt lat="44.03908055216674" lon="10.839636526500682"><ele>790.8</ele><time>2026-05-03T12:11:50.999Z</time></trkpt><trkpt lat="44.03917641271905" lon="10.83969440297432"><ele>792.2</ele><time>2026-05-03T12:11:52.999Z</time></trkpt><trkpt lat="44.03922738230453" lon="10.83978517735422"><ele>793.6</ele><time>2026-05-03T12:11:53.999Z</time></trkpt><trkpt lat="44.03926068970038" lon="10.839909311692589"><ele>795.0</ele><time>2026-05-03T12:11:54.999Z</time></trkpt><trkpt lat="44.03929493606177" lon="10.840061449356211"><ele>787.25</ele><time>2026-05-03T12:11:55.999Z</time></trkpt><trkpt lat="44.039330293898" lon="10.84022996873275"><ele>779.5</ele><time>2026-05-03T12:11:56.999Z</time></trkpt><trkpt lat="44.03937208676154" lon="10.840404612912451"><ele>771.75</ele><time>2026-05-03T12:11:57.999Z</time></trkpt><trkpt lat="44.0394049119423" lon="10.84056474033657"><ele>764.0</ele><time>2026-05-03T12:11:58.999Z</time></trkpt><trkpt lat="44.03942873400702" lon="10.840719184630915"><ele>764.0</ele><time>2026-05-03T12:11:59.999Z</time></trkpt><trkpt lat="44.03944287235443" lon="10.840865962836958"><ele>764.0</ele><time>2026-05-03T12:12:00.999Z</time></trkpt><trkpt lat="44.039459667257546" lon="10.840984006823197"><ele>764.0</ele><time>2026-05-03T12:12:01.999Z</time></trkpt><trkpt lat="44.03947818028621" lon="10.841098134101909"><ele>764.0</ele><time>2026-05-03T12:12:02.999Z</time></trkpt><trkpt lat="44.03950409881213" lon="10.841212697791414"><ele>764.0</ele><time>2026-05-03T12:12:03.999Z</time></trkpt><trkpt lat="44.03953577818961" lon="10.841311331566368"><ele>764.0</ele><time>2026-05-03T12:12:04.999Z</time></trkpt><trkpt lat="44.039575446324086" lon="10.841422133745464"><ele>763.2</ele><time>2026-05-03T12:12:05.999Z</time></trkpt><trkpt lat="44.03959618109205" lon="10.841541942070164"><ele>762.4000000000001</ele><time>2026-05-03T12:12:06.999Z</time></trkpt><trkpt lat="44.03961639724476" lon="10.841648876870927"><ele>761.6</ele><time>2026-05-03T12:12:07.999Z</time></trkpt><trkpt lat="44.03963707266462" lon="10.8417877299045"><ele>760.8</ele><time>2026-05-03T12:12:09.999Z</time></trkpt><trkpt lat="44.039639164595116" lon="10.84193132129726"><ele>760.0</ele><time>2026-05-03T12:12:11.999Z</time></trkpt><trkpt lat="44.039694284999015" lon="10.842040239230624"><ele>759.3333333333334</ele><time>2026-05-03T12:12:13.999Z</time></trkpt><trkpt lat="44.03975210568353" lon="10.842106950788613"><ele>758.6666666666667</ele><time>2026-05-03T12:12:14.999Z</time></trkpt><trkpt lat="44.03980876572854" lon="10.842173685817766"><ele>758.0</ele><time>2026-05-03T12:12:15.999Z</time></trkpt><trkpt lat="44.039890573200594" lon="10.842224586993236"><ele>757.3333333333334</ele><time>2026-05-03T12:12:16.999Z</time></trkpt><trkpt lat="44.03997590736438" lon="10.842283873106306"><ele>756.6666666666666</ele><time>2026-05-03T12:12:17.999Z</time></trkpt><trkpt lat="44.0400182442359" lon="10.842349083956897"><ele>756.0</ele><time>2026-05-03T12:12:18.999Z</time></trkpt><trkpt lat="44.04003252216379" lon="10.842523090942237"><ele>752.1999999999999</ele><time>2026-05-03T12:12:20.999Z</time></trkpt><trkpt lat="44.040012785105574" lon="10.842635687349672"><ele>748.4</ele><time>2026-05-03T12:12:21.999Z</time></trkpt><trkpt lat="44.03998733152962" lon="10.84274660062672"><ele>744.6</ele><time>2026-05-03T12:12:22.999Z</time></trkpt><trkpt lat="44.039968359005115" lon="10.842831732257862"><ele>740.8</ele><time>2026-05-03T12:12:23.999Z</time></trkpt><trkpt lat="44.040016713509424" lon="10.843011210192815"><ele>737.0</ele><time>2026-05-03T12:12:25.999Z</time></trkpt><trkpt lat="44.04009044508358" lon="10.843104497013863"><ele>737.0</ele><time>2026-05-03T12:12:26.999Z</time></trkpt><trkpt lat="44.04016252220159" lon="10.843173645207504"><ele>737.0</ele><time>2026-05-03T12:12:27.999Z</time></trkpt><trkpt lat="44.040228864535216" lon="10.843244314220561"><ele>737.0</ele><time>2026-05-03T12:12:28.999Z</time></trkpt><trkpt lat="44.04027794565701" lon="10.843313516889694"><ele>737.0</ele><time>2026-05-03T12:12:29.999Z</time></trkpt><trkpt lat="44.040321507384355" lon="10.843405730476901"><ele>737.0</ele><time>2026-05-03T12:12:30.999Z</time></trkpt><trkpt lat="44.04033400679224" lon="10.843519731622566"><ele>737.0</ele><time>2026-05-03T12:12:31.999Z</time></trkpt><trkpt lat="44.04035473550847" lon="10.84371356444109"><ele>736.6</ele><time>2026-05-03T12:12:32.999Z</time></trkpt><trkpt lat="44.04035752397547" lon="10.843871002362627"><ele>736.2</ele><time>2026-05-03T12:12:33.999Z</time></trkpt><trkpt lat="44.04039806453709" lon="10.844024654933854"><ele>735.8</ele><time>2026-05-03T12:12:34.999Z</time></trkpt><trkpt lat="44.04044040644827" lon="10.844167252735057"><ele>735.4</ele><time>2026-05-03T12:12:35.999Z</time></trkpt><trkpt lat="44.04047750701773" lon="10.84428514696798"><ele>735.0</ele><time>2026-05-03T12:12:36.999Z</time></trkpt><trkpt lat="44.04048102961335" lon="10.84442432338646"><ele>734.2</ele><time>2026-05-03T12:12:37.999Z</time></trkpt><trkpt lat="44.040473350330004" lon="10.84454485454129"><ele>733.4</ele><time>2026-05-03T12:12:38.999Z</time></trkpt><trkpt lat="44.04046746563117" lon="10.844657322294154"><ele>732.5999999999999</ele><time>2026-05-03T12:12:39.999Z</time></trkpt><trkpt lat="44.04044853843157" lon="10.844777365503496"><ele>731.8</ele><time>2026-05-03T12:12:40.999Z</time></trkpt><trkpt lat="44.040405935114485" lon="10.84492316787164"><ele>731.0</ele><time>2026-05-03T12:12:41.999Z</time></trkpt><trkpt lat="44.04035530102023" lon="10.845085178606743"><ele>731.0</ele><time>2026-05-03T12:12:42.999Z</time></trkpt><trkpt lat="44.04027685374093" lon="10.845236349424388"><ele>731.0</ele><time>2026-05-03T12:12:43.999Z</time></trkpt><trkpt lat="44.040206941124005" lon="10.845384529825065"><ele>731.0</ele><time>2026-05-03T12:12:44.999Z</time></trkpt><trkpt lat="44.040122574086766" lon="10.845534379958067"><ele>731.0</ele><time>2026-05-03T12:12:45.999Z</time></trkpt><trkpt lat="44.04003071951222" lon="10.845687154292689"><ele>730.25</ele><time>2026-05-03T12:12:46.999Z</time></trkpt><trkpt lat="44.0399418907755" lon="10.84585530425408"><ele>729.5</ele><time>2026-05-03T12:12:47.999Z</time></trkpt><trkpt lat="44.03987141446178" lon="10.846031436325491"><ele>728.75</ele><time>2026-05-03T12:12:48.999Z</time></trkpt><trkpt lat="44.03980483046276" lon="10.846189726371845"><ele>728.0</ele><time>2026-05-03T12:12:49.999Z</time></trkpt><trkpt lat="44.03973722463358" lon="10.846348077645004"><ele>728.0</ele><time>2026-05-03T12:12:50.999Z</time></trkpt><trkpt lat="44.03967338131227" lon="10.846500582327605"><ele>728.0</ele><time>2026-05-03T12:12:51.999Z</time></trkpt><trkpt lat="44.039604700910395" lon="10.846615621405524"><ele>728.0</ele><time>2026-05-03T12:12:52.999Z</time></trkpt><trkpt lat="44.03953253654558" lon="10.846738435116336"><ele>728.0</ele><time>2026-05-03T12:12:53.999Z</time></trkpt><trkpt lat="44.0394419540162" lon="10.846840551885196"><ele>728.0</ele><time>2026-05-03T12:12:54.999Z</time></trkpt><trkpt lat="44.039337616954604" lon="10.84694766284274"><ele>728.0</ele><time>2026-05-03T12:12:55.999Z</time></trkpt><trkpt lat="44.03925426527113" lon="10.847069750178273"><ele>728.0</ele><time>2026-05-03T12:12:56.999Z</time></trkpt><trkpt lat="44.03918200396113" lon="10.847188074545985"><ele>728.0</ele><time>2026-05-03T12:12:57.999Z</time></trkpt><trkpt lat="44.039104504219" lon="10.847277163162074"><ele>727.0</ele><time>2026-05-03T12:12:58.999Z</time></trkpt><trkpt lat="44.03905312425212" lon="10.84738393925125"><ele>726.0</ele><time>2026-05-03T12:12:59.999Z</time></trkpt><trkpt lat="44.03900988665845" lon="10.847482204592808"><ele>725.0</ele><time>2026-05-03T12:13:00.999Z</time></trkpt><trkpt lat="44.03898711847707" lon="10.847570755778063"><ele>724.0</ele><time>2026-05-03T12:13:01.999Z</time></trkpt><trkpt lat="44.0389743146319" lon="10.847658717035992"><ele>723.0</ele><time>2026-05-03T12:13:02.999Z</time></trkpt><trkpt lat="44.03896663993309" lon="10.84781707514089"><ele>722.0</ele><time>2026-05-03T12:13:04.999Z</time></trkpt><trkpt lat="44.038904178002596" lon="10.847986773679832"><ele>722.25</ele><time>2026-05-03T12:13:06.999Z</time></trkpt><trkpt lat="44.038852111035276" lon="10.848104378379947"><ele>722.5</ele><time>2026-05-03T12:13:07.999Z</time></trkpt><trkpt lat="44.03878614896439" lon="10.848239299062175"><ele>722.75</ele><time>2026-05-03T12:13:08.999Z</time></trkpt><trkpt lat="44.03869864004489" lon="10.848406949998546"><ele>723.0</ele><time>2026-05-03T12:13:09.999Z</time></trkpt><trkpt lat="44.03860019880359" lon="10.848569279343542"><ele>723.0</ele><time>2026-05-03T12:13:10.999Z</time></trkpt><trkpt lat="44.03851045978077" lon="10.848736453055665"><ele>723.0</ele><time>2026-05-03T12:13:11.999Z</time></trkpt><trkpt lat="44.03842275626302" lon="10.848921591627429"><ele>723.0</ele><time>2026-05-03T12:13:12.999Z</time></trkpt><trkpt lat="44.03833525374526" lon="10.84909345901986"><ele>719.6666666666666</ele><time>2026-05-03T12:13:13.999Z</time></trkpt><trkpt lat="44.038241792915585" lon="10.849273981079412"><ele>716.3333333333333</ele><time>2026-05-03T12:13:14.999Z</time></trkpt><trkpt lat="44.03814426997156" lon="10.849460624895714"><ele>713.0</ele><time>2026-05-03T12:13:15.999Z</time></trkpt><trkpt lat="44.03804648711936" lon="10.849642072419677"><ele>713.0</ele><time>2026-05-03T12:13:16.999Z</time></trkpt><trkpt lat="44.03795754991359" lon="10.8498085475843"><ele>713.0</ele><time>2026-05-03T12:13:17.999Z</time></trkpt><trkpt lat="44.03788377735192" lon="10.84999253125241"><ele>713.0</ele><time>2026-05-03T12:13:18.999Z</time></trkpt><trkpt lat="44.03781621045314" lon="10.850189753505347"><ele>713.0</ele><time>2026-05-03T12:13:19.999Z</time></trkpt><trkpt lat="44.037759863542604" lon="10.850388186133419"><ele>713.0</ele><time>2026-05-03T12:13:20.999Z</time></trkpt><trkpt lat="44.03771295740558" lon="10.850576414934537"><ele>713.0</ele><time>2026-05-03T12:13:21.999Z</time></trkpt><trkpt lat="44.03766104616904" lon="10.850768547119596"><ele>713.0</ele><time>2026-05-03T12:13:22.999Z</time></trkpt><trkpt lat="44.03761731196577" lon="10.850948176336635"><ele>712.8</ele><time>2026-05-03T12:13:23.999Z</time></trkpt><trkpt lat="44.03758119665282" lon="10.851100410215055"><ele>712.5999999999999</ele><time>2026-05-03T12:13:24.999Z</time></trkpt><trkpt lat="44.03754156985945" lon="10.851243119877768"><ele>712.4000000000001</ele><time>2026-05-03T12:13:25.999Z</time></trkpt><trkpt lat="44.037522258192766" lon="10.851380071814509"><ele>712.2</ele><time>2026-05-03T12:13:26.999Z</time></trkpt><trkpt lat="44.03753946201513" lon="10.851529834355029"><ele>712.0</ele><time>2026-05-03T12:13:27.999Z</time></trkpt><trkpt lat="44.03757496532376" lon="10.851701472536138"><ele>712.0</ele><time>2026-05-03T12:13:28.999Z</time></trkpt><trkpt lat="44.03762101657845" lon="10.85189557548834"><ele>712.0</ele><time>2026-05-03T12:13:29.999Z</time></trkpt><trkpt lat="44.03766135927132" lon="10.852089474258246"><ele>712.0</ele><time>2026-05-03T12:13:30.999Z</time></trkpt><trkpt lat="44.03770489187046" lon="10.852281049820306"><ele>712.0</ele><time>2026-05-03T12:13:31.999Z</time></trkpt><trkpt lat="44.03774731895228" lon="10.852472435708945"><ele>711.0</ele><time>2026-05-03T12:13:32.999Z</time></trkpt><trkpt lat="44.037785709962385" lon="10.852652534403324"><ele>710.0</ele><time>2026-05-03T12:13:33.999Z</time></trkpt><trkpt lat="44.03781989578663" lon="10.852813833665943"><ele>709.0</ele><time>2026-05-03T12:13:34.999Z</time></trkpt><trkpt lat="44.0378289034354" lon="10.852963414421616"><ele>708.0</ele><time>2026-05-03T12:13:35.999Z</time></trkpt><trkpt lat="44.03780529850345" lon="10.85311292471757"><ele>708.0</ele><time>2026-05-03T12:13:36.999Z</time></trkpt><trkpt lat="44.037762150409776" lon="10.853240846866873"><ele>708.0</ele><time>2026-05-03T12:13:37.999Z</time></trkpt><trkpt lat="44.0376709915389" lon="10.853364525336213"><ele>708.0</ele><time>2026-05-03T12:13:38.999Z</time></trkpt><trkpt lat="44.03756372475738" lon="10.853444224332495"><ele>708.0</ele><time>2026-05-03T12:13:39.999Z</time></trkpt><trkpt lat="44.03745750055073" lon="10.85352767806544"><ele>710.0</ele><time>2026-05-03T12:13:40.999Z</time></trkpt><trkpt lat="44.03739576827758" lon="10.853631937882124"><ele>712.0</ele><time>2026-05-03T12:13:41.999Z</time></trkpt><trkpt lat="44.03736089546408" lon="10.85377155855722"><ele>714.0</ele><time>2026-05-03T12:13:42.999Z</time></trkpt><trkpt lat="44.03734590030058" lon="10.85394874094674"><ele>716.0</ele><time>2026-05-03T12:13:43.999Z</time></trkpt><trkpt lat="44.03735395371955" lon="10.854100729439763"><ele>718.0</ele><time>2026-05-03T12:13:44.999Z</time></trkpt><trkpt lat="44.03738239431568" lon="10.854243054066568"><ele>716.75</ele><time>2026-05-03T12:13:45.999Z</time></trkpt><trkpt lat="44.037448181025916" lon="10.854388371721369"><ele>715.5</ele><time>2026-05-03T12:13:46.999Z</time></trkpt><trkpt lat="44.03753304454458" lon="10.854535401131525"><ele>714.25</ele><time>2026-05-03T12:13:47.999Z</time></trkpt><trkpt lat="44.037642176626775" lon="10.854699771112639"><ele>713.0</ele><time>2026-05-03T12:13:48.999Z</time></trkpt><trkpt lat="44.037713933188094" lon="10.854871008650244"><ele>713.0</ele><time>2026-05-03T12:13:49.999Z</time></trkpt><trkpt lat="44.03776298703788" lon="10.855055291090673"><ele>713.0</ele><time>2026-05-03T12:13:50.999Z</time></trkpt><trkpt lat="44.03777432978464" lon="10.85527187460593"><ele>713.0</ele><time>2026-05-03T12:13:51.999Z</time></trkpt><trkpt lat="44.03778516004658" lon="10.85549768559963"><ele>713.6666666666666</ele><time>2026-05-03T12:13:52.999Z</time></trkpt><trkpt lat="44.037791464316975" lon="10.855721193040274"><ele>714.3333333333334</ele><time>2026-05-03T12:13:53.999Z</time></trkpt><trkpt lat="44.037811766204" lon="10.85595296857779"><ele>715.0</ele><time>2026-05-03T12:13:54.999Z</time></trkpt><trkpt lat="44.03782849722379" lon="10.856170055701046"><ele>715.0</ele><time>2026-05-03T12:13:55.999Z</time></trkpt><trkpt lat="44.03783775343975" lon="10.85636961713806"><ele>715.0</ele><time>2026-05-03T12:13:56.999Z</time></trkpt><trkpt lat="44.03785716249104" lon="10.856535618776647"><ele>715.0</ele><time>2026-05-03T12:13:57.999Z</time></trkpt><trkpt lat="44.03786739095671" lon="10.856705434500203"><ele>715.0</ele><time>2026-05-03T12:13:58.999Z</time></trkpt><trkpt lat="44.03788240611742" lon="10.856855822158098"><ele>715.4</ele><time>2026-05-03T12:13:59.999Z</time></trkpt><trkpt lat="44.03792844738503" lon="10.856983952988584"><ele>715.8</ele><time>2026-05-03T12:14:00.999Z</time></trkpt><trkpt lat="44.03800062744806" lon="10.85708460196526"><ele>716.2</ele><time>2026-05-03T12:14:01.999Z</time></trkpt><trkpt lat="44.038091889147275" lon="10.857173521738353"><ele>716.6</ele><time>2026-05-03T12:14:02.999Z</time></trkpt><trkpt lat="44.0382062382236" lon="10.85724082943944"><ele>717.0</ele><time>2026-05-03T12:14:03.999Z</time></trkpt><trkpt lat="44.038316877877094" lon="10.857331741357386"><ele>714.75</ele><time>2026-05-03T12:14:04.999Z</time></trkpt><trkpt lat="44.03837927641948" lon="10.85746754343286"><ele>712.5</ele><time>2026-05-03T12:14:05.999Z</time></trkpt><trkpt lat="44.038440134137794" lon="10.857637403688258"><ele>710.25</ele><time>2026-05-03T12:14:06.999Z</time></trkpt><trkpt lat="44.038486731238336" lon="10.85783180597899"><ele>708.0</ele><time>2026-05-03T12:14:07.999Z</time></trkpt><trkpt lat="44.038501972188755" lon="10.858024736423157"><ele>708.0</ele><time>2026-05-03T12:14:08.999Z</time></trkpt><trkpt lat="44.03854635625077" lon="10.858232437168873"><ele>708.0</ele><time>2026-05-03T12:14:09.999Z</time></trkpt><trkpt lat="44.03859309460263" lon="10.858419791539212"><ele>708.0</ele><time>2026-05-03T12:14:10.999Z</time></trkpt><trkpt lat="44.03862184107466" lon="10.858624833872698"><ele>708.0</ele><time>2026-05-03T12:14:11.999Z</time></trkpt><trkpt lat="44.03866733797166" lon="10.858817166734836"><ele>708.25</ele><time>2026-05-03T12:14:12.999Z</time></trkpt><trkpt lat="44.038704474574416" lon="10.859002925799544"><ele>708.5</ele><time>2026-05-03T12:14:13.999Z</time></trkpt><trkpt lat="44.03873651547856" lon="10.859192797534753"><ele>708.75</ele><time>2026-05-03T12:14:14.999Z</time></trkpt><trkpt lat="44.038765788133645" lon="10.859394418242394"><ele>709.0</ele><time>2026-05-03T12:14:15.999Z</time></trkpt><trkpt lat="44.038779584215284" lon="10.859596281797128"><ele>706.75</ele><time>2026-05-03T12:14:16.999Z</time></trkpt><trkpt lat="44.03878078773553" lon="10.859815939841047"><ele>704.5</ele><time>2026-05-03T12:14:17.999Z</time></trkpt><trkpt lat="44.03877465549257" lon="10.860000500045466"><ele>702.25</ele><time>2026-05-03T12:14:18.999Z</time></trkpt><trkpt lat="44.038771761491354" lon="10.860164409758003"><ele>700.0</ele><time>2026-05-03T12:14:19.999Z</time></trkpt><trkpt lat="44.03878757072352" lon="10.860317318190608"><ele>698.6</ele><time>2026-05-03T12:14:20.999Z</time></trkpt><trkpt lat="44.03881536557167" lon="10.860453587629951"><ele>697.2</ele><time>2026-05-03T12:14:21.999Z</time></trkpt><trkpt lat="44.0388503954342" lon="10.860605758874904"><ele>695.8</ele><time>2026-05-03T12:14:22.999Z</time></trkpt><trkpt lat="44.03888647200923" lon="10.860743669890885"><ele>694.4</ele><time>2026-05-03T12:14:23.999Z</time></trkpt><trkpt lat="44.03891282860335" lon="10.860879090250354"><ele>693.0</ele><time>2026-05-03T12:14:24.999Z</time></trkpt><trkpt lat="44.03890409088037" lon="10.861014857609842"><ele>693.0</ele><time>2026-05-03T12:14:25.999Z</time></trkpt><trkpt lat="44.038864553047496" lon="10.861162454295732"><ele>693.0</ele><time>2026-05-03T12:14:26.999Z</time></trkpt><trkpt lat="44.038807443341774" lon="10.86132705148291"><ele>693.0</ele><time>2026-05-03T12:14:27.999Z</time></trkpt><trkpt lat="44.03873473038045" lon="10.861499952720488"><ele>693.0</ele><time>2026-05-03T12:14:28.999Z</time></trkpt><trkpt lat="44.03866777041502" lon="10.86166948542162"><ele>693.25</ele><time>2026-05-03T12:14:29.999Z</time></trkpt><trkpt lat="44.03863145707546" lon="10.861850604871416"><ele>693.5</ele><time>2026-05-03T12:14:30.999Z</time></trkpt><trkpt lat="44.038623607287306" lon="10.862040339120062"><ele>693.75</ele><time>2026-05-03T12:14:31.999Z</time></trkpt><trkpt lat="44.0386365395789" lon="10.862243896852846"><ele>694.0</ele><time>2026-05-03T12:14:32.999Z</time></trkpt><trkpt lat="44.038664295047695" lon="10.862449696864953"><ele>694.6666666666667</ele><time>2026-05-03T12:14:33.999Z</time></trkpt><trkpt lat="44.038697238623165" lon="10.8626565244336"><ele>695.3333333333334</ele><time>2026-05-03T12:14:34.999Z</time></trkpt><trkpt lat="44.03872616085325" lon="10.862880010908126"><ele>696.0</ele><time>2026-05-03T12:14:35.999Z</time></trkpt><trkpt lat="44.03874292194452" lon="10.863087364832467"><ele>696.0</ele><time>2026-05-03T12:14:36.999Z</time></trkpt><trkpt lat="44.038749229904774" lon="10.863265952716423"><ele>696.0</ele><time>2026-05-03T12:14:37.999Z</time></trkpt><trkpt lat="44.0387341442932" lon="10.863428503459902"><ele>696.0</ele><time>2026-05-03T12:14:38.999Z</time></trkpt><trkpt lat="44.038710610872236" lon="10.863577927012976"><ele>696.0</ele><time>2026-05-03T12:14:39.999Z</time></trkpt><trkpt lat="44.038698818216346" lon="10.86375231667045"><ele>696.5</ele><time>2026-05-03T12:14:40.999Z</time></trkpt><trkpt lat="44.03868234511414" lon="10.863910067696654"><ele>697.0</ele><time>2026-05-03T12:14:41.999Z</time></trkpt><trkpt lat="44.03866391566781" lon="10.864102522261616"><ele>697.5</ele><time>2026-05-03T12:14:42.999Z</time></trkpt><trkpt lat="44.0386349054036" lon="10.86431329579152"><ele>698.0</ele><time>2026-05-03T12:14:43.999Z</time></trkpt><trkpt lat="44.038611496796754" lon="10.864504938257305"><ele>698.0</ele><time>2026-05-03T12:14:44.999Z</time></trkpt><trkpt lat="44.03858580919163" lon="10.864705685592904"><ele>698.0</ele><time>2026-05-03T12:14:45.999Z</time></trkpt><trkpt lat="44.03856632650654" lon="10.864920570993302"><ele>698.0</ele><time>2026-05-03T12:14:46.999Z</time></trkpt><trkpt lat="44.03854956551654" lon="10.865146452198015"><ele>698.0</ele><time>2026-05-03T12:14:47.999Z</time></trkpt><trkpt lat="44.038523501345935" lon="10.865375030436836"><ele>698.0</ele><time>2026-05-03T12:14:48.999Z</time></trkpt><trkpt lat="44.038494869848265" lon="10.865612024878862"><ele>698.0</ele><time>2026-05-03T12:14:49.999Z</time></trkpt><trkpt lat="44.03846330062813" lon="10.865853515263174"><ele>698.3333333333333</ele><time>2026-05-03T12:14:50.999Z</time></trkpt><trkpt lat="44.0384373347365" lon="10.866081210165547"><ele>698.6666666666666</ele><time>2026-05-03T12:14:51.999Z</time></trkpt><trkpt lat="44.03841021570386" lon="10.866289880859043"><ele>699.0</ele><time>2026-05-03T12:14:52.999Z</time></trkpt><trkpt lat="44.038381549187534" lon="10.86650233722754"><ele>699.0</ele><time>2026-05-03T12:14:53.999Z</time></trkpt><trkpt lat="44.03834905327149" lon="10.866741655895295"><ele>699.0</ele><time>2026-05-03T12:14:54.999Z</time></trkpt><trkpt lat="44.03832618189858" lon="10.866959911262134"><ele>699.0</ele><time>2026-05-03T12:14:55.999Z</time></trkpt><trkpt lat="44.03830044333232" lon="10.867189012438706"><ele>699.0</ele><time>2026-05-03T12:14:56.999Z</time></trkpt><trkpt lat="44.038273052021644" lon="10.867413909836495"><ele>699.0</ele><time>2026-05-03T12:14:57.999Z</time></trkpt><trkpt lat="44.03824889160331" lon="10.867622207810005"><ele>699.0</ele><time>2026-05-03T12:14:58.999Z</time></trkpt><trkpt lat="44.03822529201056" lon="10.867834746926306"><ele>696.0</ele><time>2026-05-03T12:14:59.999Z</time></trkpt><trkpt lat="44.038191465101804" lon="10.868052187833143"><ele>693.0</ele><time>2026-05-03T12:15:00.999Z</time></trkpt><trkpt lat="44.03816433444273" lon="10.868270969537123"><ele>690.0</ele><time>2026-05-03T12:15:01.999Z</time></trkpt><trkpt lat="44.03814185472315" lon="10.868494503569627"><ele>689.0</ele><time>2026-05-03T12:15:02.999Z</time></trkpt><trkpt lat="44.03811364494129" lon="10.868703697487335"><ele>688.0</ele><time>2026-05-03T12:15:03.999Z</time></trkpt><trkpt lat="44.03809624693189" lon="10.868904603530789"><ele>687.0</ele><time>2026-05-03T12:15:04.999Z</time></trkpt><trkpt lat="44.03808167268978" lon="10.869100519173953"><ele>686.0</ele><time>2026-05-03T12:15:05.999Z</time></trkpt><trkpt lat="44.03807757266025" lon="10.86931176556889"><ele>685.0</ele><time>2026-05-03T12:15:06.999Z</time></trkpt><trkpt lat="44.03809446236255" lon="10.869523225514357"><ele>684.0</ele><time>2026-05-03T12:15:07.999Z</time></trkpt><trkpt lat="44.03812563108757" lon="10.869741077410529"><ele>683.0</ele><time>2026-05-03T12:15:08.999Z</time></trkpt><trkpt lat="44.03814273924145" lon="10.869964395836377"><ele>681.6666666666666</ele><time>2026-05-03T12:15:09.999Z</time></trkpt><trkpt lat="44.038140026567476" lon="10.870201310219198"><ele>680.3333333333334</ele><time>2026-05-03T12:15:10.999Z</time></trkpt><trkpt lat="44.03812336150039" lon="10.870442253674653"><ele>679.0</ele><time>2026-05-03T12:15:11.999Z</time></trkpt><trkpt lat="44.038089693410484" lon="10.870681468606104"><ele>679.0</ele><time>2026-05-03T12:15:12.999Z</time></trkpt><trkpt lat="44.03806214286488" lon="10.870932406456943"><ele>679.0</ele><time>2026-05-03T12:15:13.999Z</time></trkpt><trkpt lat="44.03803425007169" lon="10.871161170832188"><ele>679.0</ele><time>2026-05-03T12:15:14.999Z</time></trkpt><trkpt lat="44.03800666834314" lon="10.87138552784084"><ele>678.6666666666667</ele><time>2026-05-03T12:15:15.999Z</time></trkpt><trkpt lat="44.03798548372071" lon="10.871597846824105"><ele>678.3333333333334</ele><time>2026-05-03T12:15:16.999Z</time></trkpt><trkpt lat="44.03796141248321" lon="10.871824292575882"><ele>678.0</ele><time>2026-05-03T12:15:17.999Z</time></trkpt><trkpt lat="44.0379448024179" lon="10.872054031938635"><ele>678.0</ele><time>2026-05-03T12:15:18.999Z</time></trkpt><trkpt lat="44.03792145525414" lon="10.87229699708665"><ele>678.0</ele><time>2026-05-03T12:15:19.999Z</time></trkpt><trkpt lat="44.03789674350861" lon="10.872538475951101"><ele>678.0</ele><time>2026-05-03T12:15:20.999Z</time></trkpt><trkpt lat="44.037877635797" lon="10.87277879868135"><ele>677.3333333333334</ele><time>2026-05-03T12:15:21.999Z</time></trkpt><trkpt lat="44.03787914221507" lon="10.872998960370962"><ele>676.6666666666667</ele><time>2026-05-03T12:15:22.999Z</time></trkpt><trkpt lat="44.037874042452486" lon="10.87322233219352"><ele>676.0</ele><time>2026-05-03T12:15:23.999Z</time></trkpt><trkpt lat="44.03787454114561" lon="10.873448221016305"><ele>675.75</ele><time>2026-05-03T12:15:24.999Z</time></trkpt><trkpt lat="44.037889157404805" lon="10.87366152795762"><ele>675.5</ele><time>2026-05-03T12:15:25.999Z</time></trkpt><trkpt lat="44.037906827357425" lon="10.873880037990714"><ele>675.25</ele><time>2026-05-03T12:15:26.999Z</time></trkpt><trkpt lat="44.03791770800246" lon="10.87406867365564"><ele>675.0</ele><time>2026-05-03T12:15:27.999Z</time></trkpt><trkpt lat="44.03792481799754" lon="10.87425478190116"><ele>676.8</ele><time>2026-05-03T12:15:28.999Z</time></trkpt><trkpt lat="44.03793888061909" lon="10.874421118188037"><ele>678.6</ele><time>2026-05-03T12:15:29.999Z</time></trkpt><trkpt lat="44.03797937597185" lon="10.874559353947326"><ele>680.4000000000001</ele><time>2026-05-03T12:15:30.999Z</time></trkpt><trkpt lat="44.038046730072665" lon="10.87466850246743"><ele>682.2</ele><time>2026-05-03T12:15:31.999Z</time></trkpt><trkpt lat="44.03813626073914" lon="10.874768629048503"><ele>684.0</ele><time>2026-05-03T12:15:32.999Z</time></trkpt><trkpt lat="44.03824419158794" lon="10.874847344945287"><ele>681.5</ele><time>2026-05-03T12:15:33.999Z</time></trkpt><trkpt lat="44.03838248528354" lon="10.87493394456682"><ele>679.0</ele><time>2026-05-03T12:15:34.999Z</time></trkpt><trkpt lat="44.03848928067475" lon="10.875053602134315"><ele>676.5</ele><time>2026-05-03T12:15:35.999Z</time></trkpt><trkpt lat="44.03855431834318" lon="10.875202108898247"><ele>674.0</ele><time>2026-05-03T12:15:36.999Z</time></trkpt><trkpt lat="44.038594592368455" lon="10.875352606668612"><ele>673.25</ele><time>2026-05-03T12:15:37.999Z</time></trkpt><trkpt lat="44.03858699654569" lon="10.875516881331707"><ele>672.5</ele><time>2026-05-03T12:15:38.999Z</time></trkpt><trkpt lat="44.03854790050796" lon="10.875684491265563"><ele>671.75</ele><time>2026-05-03T12:15:39.999Z</time></trkpt><trkpt lat="44.03847612398499" lon="10.875837688184026"><ele>671.0</ele><time>2026-05-03T12:15:40.999Z</time></trkpt><trkpt lat="44.038379528205645" lon="10.875968303522502"><ele>677.75</ele><time>2026-05-03T12:15:41.999Z</time></trkpt><trkpt lat="44.038265907360035" lon="10.87607940416755"><ele>684.5</ele><time>2026-05-03T12:15:42.999Z</time></trkpt><trkpt lat="44.03814211756259" lon="10.876187821207042"><ele>691.25</ele><time>2026-05-03T12:15:43.998Z</time></trkpt><trkpt lat="44.03803764718497" lon="10.876298225029888"><ele>698.0</ele><time>2026-05-03T12:15:44.998Z</time></trkpt><trkpt lat="44.03796356957944" lon="10.87641472700379"><ele>698.0</ele><time>2026-05-03T12:15:45.998Z</time></trkpt><trkpt lat="44.03793349399223" lon="10.876583339928079"><ele>698.0</ele><time>2026-05-03T12:15:46.998Z</time></trkpt><trkpt lat="44.037924005464674" lon="10.87679555159709"><ele>698.0</ele><time>2026-05-03T12:15:47.998Z</time></trkpt><trkpt lat="44.03792451091554" lon="10.87704406847884"><ele>697.6666666666666</ele><time>2026-05-03T12:15:48.998Z</time></trkpt><trkpt lat="44.03792862400271" lon="10.877280028027062"><ele>697.3333333333334</ele><time>2026-05-03T12:15:49.998Z</time></trkpt><trkpt lat="44.037917827201625" lon="10.877539505147487"><ele>697.0</ele><time>2026-05-03T12:15:50.998Z</time></trkpt><trkpt lat="44.03789104189976" lon="10.877824871089619"><ele>696.6666666666667</ele><time>2026-05-03T12:15:51.998Z</time></trkpt><trkpt lat="44.03785615941617" lon="10.878110497370649"><ele>696.3333333333334</ele><time>2026-05-03T12:15:52.998Z</time></trkpt><trkpt lat="44.0378282717425" lon="10.878384004747675"><ele>696.0</ele><time>2026-05-03T12:15:53.998Z</time></trkpt><trkpt lat="44.037804420377654" lon="10.878646049142375"><ele>695.0</ele><time>2026-05-03T12:15:54.998Z</time></trkpt><trkpt lat="44.03779275643011" lon="10.878919321356385"><ele>694.0</ele><time>2026-05-03T12:15:55.998Z</time></trkpt><trkpt lat="44.0377813367342" lon="10.879192587882637"><ele>693.0</ele><time>2026-05-03T12:15:56.998Z</time></trkpt><trkpt lat="44.0377814134447" lon="10.879450842507836"><ele>688.6666666666666</ele><time>2026-05-03T12:15:57.998Z</time></trkpt><trkpt lat="44.03779924933324" lon="10.879715566711072"><ele>684.3333333333333</ele><time>2026-05-03T12:15:58.998Z</time></trkpt><trkpt lat="44.03783276238098" lon="10.879981058099512"><ele>680.0</ele><time>2026-05-03T12:15:59.998Z</time></trkpt><trkpt lat="44.03786538447699" lon="10.880250207266148"><ele>679.6666666666666</ele><time>2026-05-03T12:16:00.998Z</time></trkpt><trkpt lat="44.03789259910527" lon="10.880535595672779"><ele>679.3333333333334</ele><time>2026-05-03T12:16:01.998Z</time></trkpt><trkpt lat="44.037921165908855" lon="10.880802202051763"><ele>679.0</ele><time>2026-05-03T12:16:02.998Z</time></trkpt><trkpt lat="44.03794127932146" lon="10.881062900741696"><ele>678.3333333333334</ele><time>2026-05-03T12:16:03.998Z</time></trkpt><trkpt lat="44.03795954042428" lon="10.881294597784057"><ele>677.6666666666666</ele><time>2026-05-03T12:16:04.998Z</time></trkpt><trkpt lat="44.037978926401095" lon="10.881520385243812"><ele>677.0</ele><time>2026-05-03T12:16:05.998Z</time></trkpt><trkpt lat="44.037994339694734" lon="10.881726025419301"><ele>674.25</ele><time>2026-05-03T12:16:06.998Z</time></trkpt><trkpt lat="44.038012114388444" lon="10.881904028926956"><ele>671.5</ele><time>2026-05-03T12:16:07.998Z</time></trkpt><trkpt lat="44.038018788305386" lon="10.88207081396427"><ele>668.75</ele><time>2026-05-03T12:16:08.998Z</time></trkpt><trkpt lat="44.038036216253964" lon="10.882224712782374"><ele>666.0</ele><time>2026-05-03T12:16:09.998Z</time></trkpt><trkpt lat="44.038051482900755" lon="10.882370172773296"><ele>666.0</ele><time>2026-05-03T12:16:10.998Z</time></trkpt><trkpt lat="44.038060612891364" lon="10.882489653683802"><ele>666.0</ele><time>2026-05-03T12:16:11.998Z</time></trkpt><trkpt lat="44.03806727221483" lon="10.882602821894631"><ele>666.0</ele><time>2026-05-03T12:16:12.998Z</time></trkpt><trkpt lat="44.038092704290364" lon="10.882755609633255"><ele>666.0</ele><time>2026-05-03T12:16:14.998Z</time></trkpt><trkpt lat="44.03821067682876" lon="10.882836385179138"><ele>666.0</ele><time>2026-05-03T12:16:16.998Z</time></trkpt><trkpt lat="44.038277152152986" lon="10.882892885178157"><ele>664.6666666666666</ele><time>2026-05-03T12:16:17.998Z</time></trkpt><trkpt lat="44.03836656203729" lon="10.883021449986808"><ele>663.3333333333333</ele><time>2026-05-03T12:16:18.998Z</time></trkpt><trkpt lat="44.03847678782023" lon="10.883191701276035"><ele>662.0</ele><time>2026-05-03T12:16:19.998Z</time></trkpt><trkpt lat="44.0385788644604" lon="10.88336216387777"><ele>661.3333333333333</ele><time>2026-05-03T12:16:20.998Z</time></trkpt><trkpt lat="44.038680373681835" lon="10.883531221754271"><ele>660.6666666666666</ele><time>2026-05-03T12:16:21.998Z</time></trkpt><trkpt lat="44.038785148012316" lon="10.883691799638335"><ele>660.0</ele><time>2026-05-03T12:16:22.998Z</time></trkpt><trkpt lat="44.0388936981998" lon="10.883858183451371"><ele>660.0</ele><time>2026-05-03T12:16:23.998Z</time></trkpt><trkpt lat="44.03900505102821" lon="10.884038326732655"><ele>660.0</ele><time>2026-05-03T12:16:24.998Z</time></trkpt><trkpt lat="44.03911069434844" lon="10.884209784480035"><ele>660.0</ele><time>2026-05-03T12:16:25.998Z</time></trkpt><trkpt lat="44.03920740632724" lon="10.884373385490154"><ele>659.75</ele><time>2026-05-03T12:16:26.998Z</time></trkpt><trkpt lat="44.03930001554122" lon="10.884501938448466"><ele>659.5</ele><time>2026-05-03T12:16:27.998Z</time></trkpt><trkpt lat="44.03940300207628" lon="10.884613386947715"><ele>659.25</ele><time>2026-05-03T12:16:28.998Z</time></trkpt><trkpt lat="44.03951500913991" lon="10.884691665192904"><ele>659.0</ele><time>2026-05-03T12:16:29.998Z</time></trkpt><trkpt lat="44.039636277399445" lon="10.884727432233081"><ele>659.0</ele><time>2026-05-03T12:16:30.998Z</time></trkpt><trkpt lat="44.03977737664248" lon="10.884727780997473"><ele>659.0</ele><time>2026-05-03T12:16:31.998Z</time></trkpt><trkpt lat="44.03991708370458" lon="10.884684709824093"><ele>659.0</ele><time>2026-05-03T12:16:32.998Z</time></trkpt><trkpt lat="44.04002940807761" lon="10.884630180378116"><ele>659.0</ele><time>2026-05-03T12:16:33.998Z</time></trkpt><trkpt lat="44.040123168993915" lon="10.884590573281224"><ele>658.8000000000001</ele><time>2026-05-03T12:16:34.998Z</time></trkpt><trkpt lat="44.04021463964048" lon="10.884611496776145"><ele>658.6</ele><time>2026-05-03T12:16:35.998Z</time></trkpt><trkpt lat="44.040289719496364" lon="10.884672463143065"><ele>658.4</ele><time>2026-05-03T12:16:36.998Z</time></trkpt><trkpt lat="44.04031584599371" lon="10.884807781885481"><ele>658.2</ele><time>2026-05-03T12:16:37.998Z</time></trkpt><trkpt lat="44.040316082471776" lon="10.884946642032446"><ele>658.0</ele><time>2026-05-03T12:16:38.998Z</time></trkpt><trkpt lat="44.04030953556391" lon="10.885152725827474"><ele>658.0</ele><time>2026-05-03T12:16:39.998Z</time></trkpt><trkpt lat="44.04031519779647" lon="10.88535066457321"><ele>658.0</ele><time>2026-05-03T12:16:40.998Z</time></trkpt><trkpt lat="44.04032785660529" lon="10.885546279060229"><ele>658.0</ele><time>2026-05-03T12:16:41.998Z</time></trkpt><trkpt lat="44.04038197838632" lon="10.885715358173742"><ele>658.0</ele><time>2026-05-03T12:16:42.998Z</time></trkpt><trkpt lat="44.04045964535513" lon="10.885831517695753"><ele>659.25</ele><time>2026-05-03T12:16:43.998Z</time></trkpt><trkpt lat="44.04054429246657" lon="10.885928658128051"><ele>660.5</ele><time>2026-05-03T12:16:44.998Z</time></trkpt><trkpt lat="44.040671602468706" lon="10.88598441643139"><ele>661.75</ele><time>2026-05-03T12:16:45.998Z</time></trkpt><trkpt lat="44.04082527287787" lon="10.886051459364204"><ele>663.0</ele><time>2026-05-03T12:16:46.998Z</time></trkpt><trkpt lat="44.04101315346101" lon="10.886108957680126"><ele>663.0</ele><time>2026-05-03T12:16:47.998Z</time></trkpt><trkpt lat="44.0411935749232" lon="10.88618492300684"><ele>663.0</ele><time>2026-05-03T12:16:48.998Z</time></trkpt><trkpt lat="44.041359249632" lon="10.886293978615344"><ele>663.0</ele><time>2026-05-03T12:16:49.998Z</time></trkpt><trkpt lat="44.0415241287771" lon="10.88641053173243"><ele>662.3333333333334</ele><time>2026-05-03T12:16:50.998Z</time></trkpt><trkpt lat="44.04167918809878" lon="10.886576869321313"><ele>661.6666666666667</ele><time>2026-05-03T12:16:51.998Z</time></trkpt><trkpt lat="44.0418055587414" lon="10.886757570404875"><ele>661.0</ele><time>2026-05-03T12:16:52.998Z</time></trkpt><trkpt lat="44.04193576731734" lon="10.886953706354827"><ele>661.0</ele><time>2026-05-03T12:16:53.998Z</time></trkpt><trkpt lat="44.04206949761412" lon="10.887185104837604"><ele>661.0</ele><time>2026-05-03T12:16:54.998Z</time></trkpt><trkpt lat="44.04219324215686" lon="10.887434093888379"><ele>661.0</ele><time>2026-05-03T12:16:55.998Z</time></trkpt><trkpt lat="44.042308677609235" lon="10.887671467562264"><ele>661.0</ele><time>2026-05-03T12:16:56.998Z</time></trkpt><trkpt lat="44.04241911769528" lon="10.887886822037911"><ele>661.0</ele><time>2026-05-03T12:16:57.998Z</time></trkpt><trkpt lat="44.042528512037556" lon="10.88810790863625"><ele>661.0</ele><time>2026-05-03T12:16:58.998Z</time></trkpt><trkpt lat="44.042634724123026" lon="10.888322324217992"><ele>657.6666666666667</ele><time>2026-05-03T12:16:59.998Z</time></trkpt><trkpt lat="44.04272406992662" lon="10.888533074680144"><ele>654.3333333333334</ele><time>2026-05-03T12:17:00.998Z</time></trkpt><trkpt lat="44.042800218991665" lon="10.888753168934654"><ele>651.0</ele><time>2026-05-03T12:17:01.998Z</time></trkpt><trkpt lat="44.042845316999994" lon="10.888981993204794"><ele>651.0</ele><time>2026-05-03T12:17:02.998Z</time></trkpt><trkpt lat="44.04288538171519" lon="10.88923204875775"><ele>651.0</ele><time>2026-05-03T12:17:03.998Z</time></trkpt><trkpt lat="44.04290730907107" lon="10.88947177198439"><ele>651.0</ele><time>2026-05-03T12:17:04.998Z</time></trkpt><trkpt lat="44.04290356445742" lon="10.889698290177526"><ele>651.3333333333334</ele><time>2026-05-03T12:17:05.998Z</time></trkpt><trkpt lat="44.04287792782727" lon="10.889907005209865"><ele>651.6666666666667</ele><time>2026-05-03T12:17:06.998Z</time></trkpt><trkpt lat="44.042808477131544" lon="10.89013209619603"><ele>652.0</ele><time>2026-05-03T12:17:07.998Z</time></trkpt><trkpt lat="44.04272269130734" lon="10.890352083679982"><ele>654.0</ele><time>2026-05-03T12:17:08.998Z</time></trkpt><trkpt lat="44.04263597024869" lon="10.890562457825542"><ele>656.0</ele><time>2026-05-03T12:17:09.998Z</time></trkpt><trkpt lat="44.042547236168936" lon="10.890770071594954"><ele>658.0</ele><time>2026-05-03T12:17:10.998Z</time></trkpt><trkpt lat="44.042469134040324" lon="10.890964994545106"><ele>655.25</ele><time>2026-05-03T12:17:11.998Z</time></trkpt><trkpt lat="44.04238829450316" lon="10.891155226889692"><ele>652.5</ele><time>2026-05-03T12:17:12.998Z</time></trkpt><trkpt lat="44.042340425454405" lon="10.891337195671033"><ele>649.75</ele><time>2026-05-03T12:17:13.998Z</time></trkpt><trkpt lat="44.042352546268134" lon="10.891530130909791"><ele>647.0</ele><time>2026-05-03T12:17:14.998Z</time></trkpt><trkpt lat="44.04237309327777" lon="10.891722533537996"><ele>648.0</ele><time>2026-05-03T12:17:15.998Z</time></trkpt><trkpt lat="44.04244803890657" lon="10.891900174394918"><ele>649.0</ele><time>2026-05-03T12:17:16.998Z</time></trkpt><trkpt lat="44.0425422000404" lon="10.892084627794324"><ele>650.0</ele><time>2026-05-03T12:17:17.998Z</time></trkpt><trkpt lat="44.042675602227504" lon="10.89227500535554"><ele>650.0</ele><time>2026-05-03T12:17:18.998Z</time></trkpt><trkpt lat="44.04283330478252" lon="10.89242990932012"><ele>650.0</ele><time>2026-05-03T12:17:19.998Z</time></trkpt><trkpt lat="44.04299677363451" lon="10.892591709481808"><ele>650.0</ele><time>2026-05-03T12:17:20.998Z</time></trkpt><trkpt lat="44.04314231395699" lon="10.892764539803341"><ele>650.6666666666666</ele><time>2026-05-03T12:17:21.998Z</time></trkpt><trkpt lat="44.043263747488034" lon="10.892968231747389"><ele>651.3333333333334</ele><time>2026-05-03T12:17:22.998Z</time></trkpt><trkpt lat="44.04338188385746" lon="10.893157132909657"><ele>652.0</ele><time>2026-05-03T12:17:23.998Z</time></trkpt><trkpt lat="44.04349713457443" lon="10.893333092200745"><ele>651.0</ele><time>2026-05-03T12:17:24.998Z</time></trkpt><trkpt lat="44.04361348120818" lon="10.89351510842101"><ele>650.0</ele><time>2026-05-03T12:17:25.998Z</time></trkpt><trkpt lat="44.04373361436385" lon="10.893674066965998"><ele>649.0</ele><time>2026-05-03T12:17:26.998Z</time></trkpt><trkpt lat="44.043902427449694" lon="10.89382296395629"><ele>649.0</ele><time>2026-05-03T12:17:27.998Z</time></trkpt><trkpt lat="44.044087354604734" lon="10.893956150614965"><ele>649.0</ele><time>2026-05-03T12:17:28.998Z</time></trkpt><trkpt lat="44.04426262916014" lon="10.894149970510675"><ele>649.0</ele><time>2026-05-03T12:17:29.998Z</time></trkpt><trkpt lat="44.04439921883876" lon="10.894321482299222"><ele>648.3333333333334</ele><time>2026-05-03T12:17:30.998Z</time></trkpt><trkpt lat="44.04452956424839" lon="10.894503559324786"><ele>647.6666666666666</ele><time>2026-05-03T12:17:31.998Z</time></trkpt><trkpt lat="44.04466598800144" lon="10.894666613699442"><ele>647.0</ele><time>2026-05-03T12:17:32.998Z</time></trkpt><trkpt lat="44.04476341343999" lon="10.894815564362728"><ele>647.0</ele><time>2026-05-03T12:17:33.998Z</time></trkpt><trkpt lat="44.04484914056476" lon="10.894995007689273"><ele>647.0</ele><time>2026-05-03T12:17:34.998Z</time></trkpt><trkpt lat="44.044899350716534" lon="10.895185453791408"><ele>647.0</ele><time>2026-05-03T12:17:35.998Z</time></trkpt><trkpt lat="44.04494575647042" lon="10.8954087995971"><ele>648.3333333333333</ele><time>2026-05-03T12:17:36.998Z</time></trkpt><trkpt lat="44.04503414464185" lon="10.895618236332284"><ele>649.6666666666666</ele><time>2026-05-03T12:17:37.998Z</time></trkpt><trkpt lat="44.04513128663278" lon="10.89580632561872"><ele>651.0</ele><time>2026-05-03T12:17:38.998Z</time></trkpt><trkpt lat="44.0452587030048" lon="10.895981160858573"><ele>655.0</ele><time>2026-05-03T12:17:39.998Z</time></trkpt><trkpt lat="44.04541675670485" lon="10.896109030606643"><ele>659.0</ele><time>2026-05-03T12:17:40.998Z</time></trkpt><trkpt lat="44.0455982115381" lon="10.896255911126909"><ele>663.0</ele><time>2026-05-03T12:17:41.998Z</time></trkpt><trkpt lat="44.04577923051821" lon="10.896383128312642"><ele>658.3333333333334</ele><time>2026-05-03T12:17:42.998Z</time></trkpt><trkpt lat="44.04592729933999" lon="10.896574002101998"><ele>653.6666666666667</ele><time>2026-05-03T12:17:43.998Z</time></trkpt><trkpt lat="44.04605776852225" lon="10.896753880186385"><ele>649.0</ele><time>2026-05-03T12:17:44.998Z</time></trkpt><trkpt lat="44.04619121452991" lon="10.896980049977055"><ele>646.6666666666667</ele><time>2026-05-03T12:17:45.998Z</time></trkpt><trkpt lat="44.04628355644741" lon="10.897191332072737"><ele>644.3333333333334</ele><time>2026-05-03T12:17:46.998Z</time></trkpt><trkpt lat="44.046358752360355" lon="10.897419476574006"><ele>642.0</ele><time>2026-05-03T12:17:47.998Z</time></trkpt><trkpt lat="44.0464038719023" lon="10.897672399806696"><ele>642.0</ele><time>2026-05-03T12:17:48.998Z</time></trkpt><trkpt lat="44.04642465217841" lon="10.89793324097026"><ele>642.0</ele><time>2026-05-03T12:17:49.998Z</time></trkpt><trkpt lat="44.04642009631497" lon="10.898194118943287"><ele>642.0</ele><time>2026-05-03T12:17:50.998Z</time></trkpt><trkpt lat="44.046397678786605" lon="10.898469582890472"><ele>644.0</ele><time>2026-05-03T12:17:51.998Z</time></trkpt><trkpt lat="44.04637423225027" lon="10.898726314981678"><ele>646.0</ele><time>2026-05-03T12:17:52.998Z</time></trkpt><trkpt lat="44.04635292523518" lon="10.898950894865282"><ele>648.0</ele><time>2026-05-03T12:17:53.998Z</time></trkpt><trkpt lat="44.046331135226445" lon="10.89915486720431"><ele>650.5</ele><time>2026-05-03T12:17:54.998Z</time></trkpt><trkpt lat="44.04633288715516" lon="10.89935216081796"><ele>653.0</ele><time>2026-05-03T12:17:55.998Z</time></trkpt><trkpt lat="44.046372728728535" lon="10.899535132995258"><ele>655.5</ele><time>2026-05-03T12:17:56.998Z</time></trkpt><trkpt lat="44.04646262962715" lon="10.899696796659219"><ele>658.0</ele><time>2026-05-03T12:17:57.998Z</time></trkpt><trkpt lat="44.04656982641836" lon="10.899858561546447"><ele>656.0</ele><time>2026-05-03T12:17:58.998Z</time></trkpt><trkpt lat="44.04668053990639" lon="10.89997072040199"><ele>654.0</ele><time>2026-05-03T12:17:59.998Z</time></trkpt><trkpt lat="44.04678772977386" lon="10.90006684532209"><ele>652.0</ele><time>2026-05-03T12:18:00.998Z</time></trkpt><trkpt lat="44.0469182656146" lon="10.90013815764347"><ele>650.0</ele><time>2026-05-03T12:18:01.998Z</time></trkpt><trkpt lat="44.04711175453892" lon="10.900186966599085"><ele>650.0</ele><time>2026-05-03T12:18:02.998Z</time></trkpt><trkpt lat="44.04731702340851" lon="10.900241672548475"><ele>650.0</ele><time>2026-05-03T12:18:03.998Z</time></trkpt><trkpt lat="44.047515562647654" lon="10.900308795532546"><ele>650.0</ele><time>2026-05-03T12:18:04.998Z</time></trkpt><trkpt lat="44.04770459061162" lon="10.900370497195693"><ele>645.3333333333333</ele><time>2026-05-03T12:18:05.998Z</time></trkpt><trkpt lat="44.04789594371696" lon="10.900435910608534"><ele>640.6666666666666</ele><time>2026-05-03T12:18:06.998Z</time></trkpt><trkpt lat="44.04810651831252" lon="10.900503627220541"><ele>636.0</ele><time>2026-05-03T12:18:07.998Z</time></trkpt><trkpt lat="44.048315468340306" lon="10.900559979193316"><ele>634.6666666666666</ele><time>2026-05-03T12:18:08.998Z</time></trkpt><trkpt lat="44.04851175740248" lon="10.900627059938124"><ele>633.3333333333333</ele><time>2026-05-03T12:18:09.998Z</time></trkpt><trkpt lat="44.048704608765114" lon="10.900704835509549"><ele>632.0</ele><time>2026-05-03T12:18:10.998Z</time></trkpt><trkpt lat="44.04886075068935" lon="10.90080416910878"><ele>631.0</ele><time>2026-05-03T12:18:11.998Z</time></trkpt><trkpt lat="44.04900623061748" lon="10.900934896902996"><ele>630.0</ele><time>2026-05-03T12:18:12.998Z</time></trkpt><trkpt lat="44.049144160607824" lon="10.901079231323674"><ele>629.0</ele><time>2026-05-03T12:18:13.998Z</time></trkpt><trkpt lat="44.049264122340496" lon="10.901211481382862"><ele>629.0</ele><time>2026-05-03T12:18:14.998Z</time></trkpt><trkpt lat="44.04938498584329" lon="10.9013705698505"><ele>629.0</ele><time>2026-05-03T12:18:15.998Z</time></trkpt><trkpt lat="44.049517894542284" lon="10.901552760698532"><ele>629.0</ele><time>2026-05-03T12:18:16.998Z</time></trkpt><trkpt lat="44.04964745408545" lon="10.901757221207529"><ele>629.3333333333333</ele><time>2026-05-03T12:18:17.998Z</time></trkpt><trkpt lat="44.049770623648584" lon="10.901953157946004"><ele>629.6666666666666</ele><time>2026-05-03T12:18:18.998Z</time></trkpt><trkpt lat="44.049884509493076" lon="10.902161852935325"><ele>630.0</ele><time>2026-05-03T12:18:19.998Z</time></trkpt><trkpt lat="44.04999631268675" lon="10.902328900905196"><ele>630.0</ele><time>2026-05-03T12:18:20.998Z</time></trkpt><trkpt lat="44.050106520873676" lon="10.902495955145604"><ele>630.0</ele><time>2026-05-03T12:18:21.998Z</time></trkpt><trkpt lat="44.05020506519965" lon="10.902660831911502"><ele>630.0</ele><time>2026-05-03T12:18:22.998Z</time></trkpt><trkpt lat="44.050287437614884" lon="10.902826171053128"><ele>631.0</ele><time>2026-05-03T12:18:23.998Z</time></trkpt><trkpt lat="44.05035550854542" lon="10.902986388531133"><ele>632.0</ele><time>2026-05-03T12:18:24.998Z</time></trkpt><trkpt lat="44.050430783623526" lon="10.903141818826413"><ele>633.0</ele><time>2026-05-03T12:18:25.998Z</time></trkpt><trkpt lat="44.05052019759609" lon="10.90327033721872"><ele>634.0</ele><time>2026-05-03T12:18:26.998Z</time></trkpt><trkpt lat="44.05062804570498" lon="10.903362341003474"><ele>634.5</ele><time>2026-05-03T12:18:27.998Z</time></trkpt><trkpt lat="44.05074784254196" lon="10.903415992148984"><ele>635.0</ele><time>2026-05-03T12:18:28.998Z</time></trkpt><trkpt lat="44.05088898773424" lon="10.903468450181842"><ele>635.5</ele><time>2026-05-03T12:18:29.998Z</time></trkpt><trkpt lat="44.05104925423561" lon="10.903525014581584"><ele>636.0</ele><time>2026-05-03T12:18:30.998Z</time></trkpt><trkpt lat="44.05122664584522" lon="10.903607950237465"><ele>636.0</ele><time>2026-05-03T12:18:31.998Z</time></trkpt><trkpt lat="44.05140738455605" lon="10.903687697539661"><ele>636.0</ele><time>2026-05-03T12:18:32.998Z</time></trkpt><trkpt lat="44.051590176664455" lon="10.903765071333721"><ele>636.0</ele><time>2026-05-03T12:18:33.998Z</time></trkpt><trkpt lat="44.051777782930166" lon="10.90383680094823"><ele>632.6666666666666</ele><time>2026-05-03T12:18:34.998Z</time></trkpt><trkpt lat="44.05197966069508" lon="10.903902479050831"><ele>629.3333333333333</ele><time>2026-05-03T12:18:35.998Z</time></trkpt><trkpt lat="44.05218674643366" lon="10.903963640728506"><ele>626.0</ele><time>2026-05-03T12:18:36.998Z</time></trkpt><trkpt lat="44.05239875206887" lon="10.903996783802858"><ele>624.3333333333333</ele><time>2026-05-03T12:18:37.998Z</time></trkpt><trkpt lat="44.052608707110075" lon="10.904056810975895"><ele>622.6666666666666</ele><time>2026-05-03T12:18:38.998Z</time></trkpt><trkpt lat="44.05278700119401" lon="10.904109485969546"><ele>621.0</ele><time>2026-05-03T12:18:39.998Z</time></trkpt><trkpt lat="44.05298506042525" lon="10.904171154189196"><ele>622.6666666666666</ele><time>2026-05-03T12:18:40.998Z</time></trkpt><trkpt lat="44.0531710076504" lon="10.904251268027439"><ele>624.3333333333333</ele><time>2026-05-03T12:18:41.998Z</time></trkpt><trkpt lat="44.05332763694395" lon="10.904337727708603"><ele>626.0</ele><time>2026-05-03T12:18:42.998Z</time></trkpt><trkpt lat="44.05348303115648" lon="10.904432940095814"><ele>622.3333333333333</ele><time>2026-05-03T12:18:43.998Z</time></trkpt><trkpt lat="44.05363772214332" lon="10.904527098474613"><ele>618.6666666666666</ele><time>2026-05-03T12:18:44.998Z</time></trkpt><trkpt lat="44.053792771920804" lon="10.904674959402389"><ele>615.0</ele><time>2026-05-03T12:18:45.998Z</time></trkpt><trkpt lat="44.053950636790155" lon="10.90483914053278"><ele>615.0</ele><time>2026-05-03T12:18:46.998Z</time></trkpt><trkpt lat="44.05411392639163" lon="10.905028915164104"><ele>615.0</ele><time>2026-05-03T12:18:47.998Z</time></trkpt><trkpt lat="44.05427151707986" lon="10.905202642954276"><ele>615.0</ele><time>2026-05-03T12:18:48.998Z</time></trkpt><trkpt lat="44.05442363876292" lon="10.905382326615529"><ele>614.6666666666666</ele><time>2026-05-03T12:18:49.998Z</time></trkpt><trkpt lat="44.05456247193544" lon="10.905567851411663"><ele>614.3333333333333</ele><time>2026-05-03T12:18:50.998Z</time></trkpt><trkpt lat="44.054629883522395" lon="10.905717322221065"><ele>614.0</ele><time>2026-05-03T12:18:51.998Z</time></trkpt><trkpt lat="44.05474141436402" lon="10.90586137555915"><ele>614.3333333333333</ele><time>2026-05-03T12:18:52.998Z</time></trkpt><trkpt lat="44.0548697600116" lon="10.905985736916653"><ele>614.6666666666666</ele><time>2026-05-03T12:18:53.998Z</time></trkpt><trkpt lat="44.055014745679706" lon="10.906084420420083"><ele>615.0</ele><time>2026-05-03T12:18:54.998Z</time></trkpt><trkpt lat="44.05513945817314" lon="10.906193028080827"><ele>615.0</ele><time>2026-05-03T12:18:55.998Z</time></trkpt><trkpt lat="44.05523593150953" lon="10.906252189624189"><ele>615.0</ele><time>2026-05-03T12:18:56.998Z</time></trkpt><trkpt lat="44.05530886393928" lon="10.90631614279886"><ele>615.0</ele><time>2026-05-03T12:18:57.998Z</time></trkpt><trkpt lat="44.055381067035476" lon="10.906344355786018"><ele>615.0</ele><time>2026-05-03T12:18:58.998Z</time></trkpt><trkpt lat="44.05543316646572" lon="10.90640157467618"><ele>615.0</ele><time>2026-05-03T12:18:59.998Z</time></trkpt><trkpt lat="44.05542050523114" lon="10.906489994456887"><ele>615.0</ele><time>2026-05-03T12:19:00.998Z</time></trkpt><trkpt lat="44.05538377983026" lon="10.90657963769406"><ele>615.0</ele><time>2026-05-03T12:19:01.998Z</time></trkpt><trkpt lat="44.05535341147146" lon="10.906680836610603"><ele>615.0</ele><time>2026-05-03T12:19:02.998Z</time></trkpt><trkpt lat="44.05543925557522" lon="10.906846717470225"><ele>615.0</ele><time>2026-05-03T12:19:04.998Z</time></trkpt><trkpt lat="44.05554827513058" lon="10.906930906392994"><ele>615.0</ele><time>2026-05-03T12:19:05.998Z</time></trkpt><trkpt lat="44.055707170347034" lon="10.906994693209047"><ele>614.3333333333334</ele><time>2026-05-03T12:19:06.998Z</time></trkpt><trkpt lat="44.05584577165323" lon="10.90709448146636"><ele>613.6666666666667</ele><time>2026-05-03T12:19:07.998Z</time></trkpt><trkpt lat="44.05598705872991" lon="10.907206027342577"><ele>613.0</ele><time>2026-05-03T12:19:08.998Z</time></trkpt><trkpt lat="44.05613192770391" lon="10.907320413654492"><ele>613.0</ele><time>2026-05-03T12:19:09.998Z</time></trkpt><trkpt lat="44.05627623840068" lon="10.907442633654078"><ele>613.0</ele><time>2026-05-03T12:19:10.998Z</time></trkpt><trkpt lat="44.05641782070292" lon="10.907564275502626"><ele>613.0</ele><time>2026-05-03T12:19:11.998Z</time></trkpt><trkpt lat="44.05657164020333" lon="10.907711068557512"><ele>613.0</ele><time>2026-05-03T12:19:12.998Z</time></trkpt><trkpt lat="44.05671260917126" lon="10.907884716690596"><ele>613.0</ele><time>2026-05-03T12:19:13.998Z</time></trkpt><trkpt lat="44.056866452579655" lon="10.908066522814552"><ele>613.0</ele><time>2026-05-03T12:19:14.998Z</time></trkpt><trkpt lat="44.05700529223131" lon="10.908237758362544"><ele>613.0</ele><time>2026-05-03T12:19:15.998Z</time></trkpt><trkpt lat="44.057149185919585" lon="10.908397503898028"><ele>613.0</ele><time>2026-05-03T12:19:16.998Z</time></trkpt><trkpt lat="44.05729183007855" lon="10.90856390700074"><ele>613.0</ele><time>2026-05-03T12:19:17.998Z</time></trkpt><trkpt lat="44.05742947325592" lon="10.908729952276325"><ele>613.3333333333334</ele><time>2026-05-03T12:19:18.998Z</time></trkpt><trkpt lat="44.057559425649686" lon="10.90888678725647"><ele>613.6666666666666</ele><time>2026-05-03T12:19:19.998Z</time></trkpt><trkpt lat="44.0576801845159" lon="10.909029525131592"><ele>614.0</ele><time>2026-05-03T12:19:20.998Z</time></trkpt><trkpt lat="44.057794568716496" lon="10.90917572703031"><ele>619.3333333333333</ele><time>2026-05-03T12:19:21.998Z</time></trkpt><trkpt lat="44.05789636130937" lon="10.909328530155369"><ele>624.6666666666666</ele><time>2026-05-03T12:19:22.998Z</time></trkpt><trkpt lat="44.05799835373677" lon="10.909486207995373"><ele>630.0</ele><time>2026-05-03T12:19:23.998Z</time></trkpt><trkpt lat="44.05808803586579" lon="10.909653665330763"><ele>630.0</ele><time>2026-05-03T12:19:24.998Z</time></trkpt><trkpt lat="44.05818837130162" lon="10.909852092341541"><ele>630.0</ele><time>2026-05-03T12:19:25.998Z</time></trkpt><trkpt lat="44.05828392644823" lon="10.910045414008776"><ele>630.0</ele><time>2026-05-03T12:19:26.998Z</time></trkpt><trkpt lat="44.05835632517494" lon="10.910254787532786"><ele>625.75</ele><time>2026-05-03T12:19:27.998Z</time></trkpt><trkpt lat="44.05842250996219" lon="10.910471062649389"><ele>621.5</ele><time>2026-05-03T12:19:28.998Z</time></trkpt><trkpt lat="44.058466246898675" lon="10.910647503830267"><ele>617.25</ele><time>2026-05-03T12:19:29.998Z</time></trkpt><trkpt lat="44.05851373755183" lon="10.910802082503134"><ele>613.0</ele><time>2026-05-03T12:19:30.998Z</time></trkpt><trkpt lat="44.05855587999145" lon="10.91094670732589"><ele>613.0</ele><time>2026-05-03T12:19:31.998Z</time></trkpt><trkpt lat="44.05859382697259" lon="10.911082639474781"><ele>613.0</ele><time>2026-05-03T12:19:32.998Z</time></trkpt><trkpt lat="44.058629541844084" lon="10.91119877592518"><ele>613.0</ele><time>2026-05-03T12:19:33.998Z</time></trkpt><trkpt lat="44.05868344598986" lon="10.911287717065504"><ele>613.0</ele><time>2026-05-03T12:19:34.998Z</time></trkpt><trkpt lat="44.05876197360189" lon="10.911353728642707"><ele>613.0</ele><time>2026-05-03T12:19:36.998Z</time></trkpt><trkpt lat="44.05883026177225" lon="10.911360706753861"><ele>613.0</ele><time>2026-05-03T12:19:38.998Z</time></trkpt><trkpt lat="44.05890387960025" lon="10.911385408047614"><ele>613.0</ele><time>2026-05-03T12:19:41.998Z</time></trkpt><trkpt lat="44.05899035715061" lon="10.911383987538986"><ele>613.0</ele><time>2026-05-03T12:20:28.998Z</time></trkpt><trkpt lat="44.059081771951774" lon="10.911451166703673"><ele>613.0</ele><time>2026-05-03T12:20:30.998Z</time></trkpt><trkpt lat="44.059193757899884" lon="10.911544921731231"><ele>613.0</ele><time>2026-05-03T12:20:32.998Z</time></trkpt><trkpt lat="44.059247011751644" lon="10.91161955984292"><ele>613.0</ele><time>2026-05-03T12:20:33.998Z</time></trkpt><trkpt lat="44.059300423901064" lon="10.911717446785675"><ele>611.5</ele><time>2026-05-03T12:20:34.998Z</time></trkpt><trkpt lat="44.05932858198543" lon="10.911864867731246"><ele>610.0</ele><time>2026-05-03T12:20:35.998Z</time></trkpt><trkpt lat="44.05933737306108" lon="10.912061051061245"><ele>608.5</ele><time>2026-05-03T12:20:36.998Z</time></trkpt><trkpt lat="44.05933721121983" lon="10.912245168152221"><ele>607.0</ele><time>2026-05-03T12:20:37.998Z</time></trkpt><trkpt lat="44.059349097191244" lon="10.912433417068684"><ele>607.75</ele><time>2026-05-03T12:20:38.998Z</time></trkpt><trkpt lat="44.0593819319179" lon="10.912612981704696"><ele>608.5</ele><time>2026-05-03T12:20:39.998Z</time></trkpt><trkpt lat="44.05937249438487" lon="10.91281701633368"><ele>609.25</ele><time>2026-05-03T12:20:40.998Z</time></trkpt><trkpt lat="44.05944842765943" lon="10.913010872748307"><ele>610.0</ele><time>2026-05-03T12:20:41.998Z</time></trkpt><trkpt lat="44.05953942347469" lon="10.913173881566578"><ele>610.0</ele><time>2026-05-03T12:20:42.998Z</time></trkpt><trkpt lat="44.05963382391118" lon="10.913329780636033"><ele>610.0</ele><time>2026-05-03T12:20:43.998Z</time></trkpt><trkpt lat="44.059733152782556" lon="10.913500591479703"><ele>610.0</ele><time>2026-05-03T12:20:44.998Z</time></trkpt><trkpt lat="44.0598279795979" lon="10.913673667685213"><ele>611.6666666666667</ele><time>2026-05-03T12:20:45.998Z</time></trkpt><trkpt lat="44.05992165019571" lon="10.91384677250633"><ele>613.3333333333334</ele><time>2026-05-03T12:20:46.998Z</time></trkpt><trkpt lat="44.06001498911596" lon="10.914019320844972"><ele>615.0</ele><time>2026-05-03T12:20:47.998Z</time></trkpt><trkpt lat="44.060122562335685" lon="10.914214836061475"><ele>614.3333333333334</ele><time>2026-05-03T12:20:48.998Z</time></trkpt><trkpt lat="44.0602289631966" lon="10.914404671271626"><ele>613.6666666666667</ele><time>2026-05-03T12:20:49.998Z</time></trkpt><trkpt lat="44.06034497013934" lon="10.914611210650863"><ele>613.0</ele><time>2026-05-03T12:20:50.998Z</time></trkpt><trkpt lat="44.06044098809737" lon="10.914775012822538"><ele>613.0</ele><time>2026-05-03T12:20:51.998Z</time></trkpt><trkpt lat="44.06054929697811" lon="10.914938862310693"><ele>613.0</ele><time>2026-05-03T12:20:52.998Z</time></trkpt><trkpt lat="44.06064045715324" lon="10.915065013337506"><ele>613.0</ele><time>2026-05-03T12:20:53.998Z</time></trkpt><trkpt lat="44.06072614966424" lon="10.915191947882725"><ele>613.0</ele><time>2026-05-03T12:20:54.998Z</time></trkpt><trkpt lat="44.06079438933808" lon="10.915337523247876"><ele>612.5</ele><time>2026-05-03T12:20:55.998Z</time></trkpt><trkpt lat="44.060842716171614" lon="10.91548224713202"><ele>612.0</ele><time>2026-05-03T12:20:56.998Z</time></trkpt><trkpt lat="44.06086400872504" lon="10.915604988296492"><ele>611.5</ele><time>2026-05-03T12:20:57.998Z</time></trkpt><trkpt lat="44.060861017956675" lon="10.91578408732689"><ele>611.0</ele><time>2026-05-03T12:20:58.998Z</time></trkpt><trkpt lat="44.06083306394261" lon="10.915987158588836"><ele>611.0</ele><time>2026-05-03T12:20:59.998Z</time></trkpt><trkpt lat="44.06081096255108" lon="10.916168092452233"><ele>611.0</ele><time>2026-05-03T12:21:00.998Z</time></trkpt><trkpt lat="44.06081865768731" lon="10.916329102753664"><ele>611.0</ele><time>2026-05-03T12:21:01.998Z</time></trkpt><trkpt lat="44.060840909761886" lon="10.916455158759318"><ele>611.0</ele><time>2026-05-03T12:21:02.998Z</time></trkpt><trkpt lat="44.06089254851537" lon="10.916567931461188"><ele>611.0</ele><time>2026-05-03T12:21:03.998Z</time></trkpt><trkpt lat="44.06097578913387" lon="10.916678172019385"><ele>612.6</ele><time>2026-05-03T12:21:04.998Z</time></trkpt><trkpt lat="44.06104949712877" lon="10.91678393039475"><ele>614.2</ele><time>2026-05-03T12:21:05.998Z</time></trkpt><trkpt lat="44.0611374956306" lon="10.916849599953427"><ele>615.8</ele><time>2026-05-03T12:21:06.998Z</time></trkpt><trkpt lat="44.061240047152104" lon="10.91688596869208"><ele>617.4</ele><time>2026-05-03T12:21:07.998Z</time></trkpt><trkpt lat="44.06136092157742" lon="10.916903571863552"><ele>619.0</ele><time>2026-05-03T12:21:08.998Z</time></trkpt><trkpt lat="44.06149943533519" lon="10.916898448121964"><ele>616.0</ele><time>2026-05-03T12:21:09.998Z</time></trkpt><trkpt lat="44.06164815880037" lon="10.916897573937456"><ele>613.0</ele><time>2026-05-03T12:21:10.998Z</time></trkpt><trkpt lat="44.06178070292084" lon="10.916917618073407"><ele>610.0</ele><time>2026-05-03T12:21:11.998Z</time></trkpt><trkpt lat="44.06190209265556" lon="10.916919776150872"><ele>607.0</ele><time>2026-05-03T12:21:12.998Z</time></trkpt><trkpt lat="44.062055548585704" lon="10.916926771677701"><ele>607.0</ele><time>2026-05-03T12:21:13.998Z</time></trkpt><trkpt lat="44.06219130747508" lon="10.916938807320594"><ele>607.0</ele><time>2026-05-03T12:21:14.998Z</time></trkpt><trkpt lat="44.062355498072634" lon="10.916961002188708"><ele>607.0</ele><time>2026-05-03T12:21:15.998Z</time></trkpt><trkpt lat="44.06251611609839" lon="10.916956785919337"><ele>606.25</ele><time>2026-05-03T12:21:16.998Z</time></trkpt><trkpt lat="44.06265738505213" lon="10.91696813268974"><ele>605.5</ele><time>2026-05-03T12:21:17.998Z</time></trkpt><trkpt lat="44.062801271666565" lon="10.916930401607386"><ele>604.75</ele><time>2026-05-03T12:21:18.998Z</time></trkpt><trkpt lat="44.062925740841614" lon="10.916871120743894"><ele>604.0</ele><time>2026-05-03T12:21:19.998Z</time></trkpt><trkpt lat="44.06303101542311" lon="10.916820404672515"><ele>604.0</ele><time>2026-05-03T12:21:20.998Z</time></trkpt><trkpt lat="44.06313158659101" lon="10.916831816086694"><ele>604.0</ele><time>2026-05-03T12:21:21.998Z</time></trkpt><trkpt lat="44.06322581585943" lon="10.916923211175174"><ele>604.0</ele><time>2026-05-03T12:21:22.998Z</time></trkpt><trkpt lat="44.06332150716173" lon="10.917057316447023"><ele>604.0</ele><time>2026-05-03T12:21:23.998Z</time></trkpt><trkpt lat="44.06341980470483" lon="10.917194609859822"><ele>603.25</ele><time>2026-05-03T12:21:24.998Z</time></trkpt><trkpt lat="44.06353270786684" lon="10.917336245759598"><ele>602.5</ele><time>2026-05-03T12:21:25.998Z</time></trkpt><trkpt lat="44.06364915056498" lon="10.917478935242666"><ele>601.75</ele><time>2026-05-03T12:21:26.998Z</time></trkpt><trkpt lat="44.06375248214526" lon="10.917614444352228"><ele>601.0</ele><time>2026-05-03T12:21:27.998Z</time></trkpt><trkpt lat="44.0638722547059" lon="10.917729068887155"><ele>602.75</ele><time>2026-05-03T12:21:28.998Z</time></trkpt><trkpt lat="44.06399563118306" lon="10.917816534034673"><ele>604.5</ele><time>2026-05-03T12:21:29.998Z</time></trkpt><trkpt lat="44.06411592082207" lon="10.917908692065254"><ele>606.25</ele><time>2026-05-03T12:21:30.998Z</time></trkpt><trkpt lat="44.064240145300325" lon="10.917984792252595"><ele>608.0</ele><time>2026-05-03T12:21:31.998Z</time></trkpt><trkpt lat="44.0643420495044" lon="10.918073752939303"><ele>605.1999999999999</ele><time>2026-05-03T12:21:32.998Z</time></trkpt><trkpt lat="44.06444480925941" lon="10.918146213344418"><ele>602.4</ele><time>2026-05-03T12:21:33.998Z</time></trkpt><trkpt lat="44.06455103618301" lon="10.918178865246128"><ele>599.5999999999999</ele><time>2026-05-03T12:21:34.998Z</time></trkpt><trkpt lat="44.06464756436145" lon="10.918246606397043"><ele>596.8</ele><time>2026-05-03T12:21:35.998Z</time></trkpt><trkpt lat="44.064731054555644" lon="10.91826344048783"><ele>594.0</ele><time>2026-05-03T12:21:36.998Z</time></trkpt><trkpt lat="44.06484115500825" lon="10.918286910523351"><ele>594.5</ele><time>2026-05-03T12:21:37.998Z</time></trkpt><trkpt lat="44.06495611392361" lon="10.91834009041094"><ele>595.0</ele><time>2026-05-03T12:21:38.998Z</time></trkpt><trkpt lat="44.065066044532024" lon="10.91841128189852"><ele>595.5</ele><time>2026-05-03T12:21:39.998Z</time></trkpt><trkpt lat="44.065158269369526" lon="10.918522318401806"><ele>596.0</ele><time>2026-05-03T12:21:40.998Z</time></trkpt><trkpt lat="44.06527152864231" lon="10.918639384877023"><ele>596.0</ele><time>2026-05-03T12:21:41.998Z</time></trkpt><trkpt lat="44.065399658065616" lon="10.918740810460973"><ele>596.0</ele><time>2026-05-03T12:21:42.998Z</time></trkpt><trkpt lat="44.06554487359242" lon="10.918820560231252"><ele>596.0</ele><time>2026-05-03T12:21:43.998Z</time></trkpt><trkpt lat="44.065678095713736" lon="10.91889625302774"><ele>596.0</ele><time>2026-05-03T12:21:44.998Z</time></trkpt><trkpt lat="44.065799447264936" lon="10.91897570784603"><ele>598.5</ele><time>2026-05-03T12:21:45.998Z</time></trkpt><trkpt lat="44.06589023291027" lon="10.919131425468432"><ele>601.0</ele><time>2026-05-03T12:21:46.998Z</time></trkpt><trkpt lat="44.065990034757114" lon="10.919285995564776"><ele>603.5</ele><time>2026-05-03T12:21:47.998Z</time></trkpt><trkpt lat="44.06609793017953" lon="10.919439858903905"><ele>606.0</ele><time>2026-05-03T12:21:48.998Z</time></trkpt><trkpt lat="44.066239576067076" lon="10.919579128545548"><ele>606.0</ele><time>2026-05-03T12:21:49.998Z</time></trkpt><trkpt lat="44.0663743045309" lon="10.919722838606502"><ele>606.0</ele><time>2026-05-03T12:21:50.998Z</time></trkpt><trkpt lat="44.06652821875366" lon="10.919821749949024"><ele>606.0</ele><time>2026-05-03T12:21:51.998Z</time></trkpt><trkpt lat="44.06668387645722" lon="10.919896095075291"><ele>601.6666666666666</ele><time>2026-05-03T12:21:52.998Z</time></trkpt><trkpt lat="44.06684423504826" lon="10.919967759420487"><ele>597.3333333333333</ele><time>2026-05-03T12:21:53.998Z</time></trkpt><trkpt lat="44.06701941564131" lon="10.9200185474006"><ele>593.0</ele><time>2026-05-03T12:21:54.998Z</time></trkpt><trkpt lat="44.06719147584928" lon="10.920048497382355"><ele>593.0</ele><time>2026-05-03T12:21:55.998Z</time></trkpt><trkpt lat="44.067362441812456" lon="10.92009216827246"><ele>593.0</ele><time>2026-05-03T12:21:56.998Z</time></trkpt><trkpt lat="44.06755080735147" lon="10.920109581876803"><ele>593.0</ele><time>2026-05-03T12:21:57.998Z</time></trkpt><trkpt lat="44.0677200795309" lon="10.920134986151874"><ele>593.0</ele><time>2026-05-03T12:21:58.998Z</time></trkpt><trkpt lat="44.06787060515834" lon="10.920171498516913"><ele>593.0</ele><time>2026-05-03T12:21:59.998Z</time></trkpt><trkpt lat="44.06800749657362" lon="10.920237199753437"><ele>593.0</ele><time>2026-05-03T12:22:00.998Z</time></trkpt><trkpt lat="44.06813962366846" lon="10.920307835510053"><ele>593.0</ele><time>2026-05-03T12:22:01.998Z</time></trkpt><trkpt lat="44.06827311546201" lon="10.920445456912034"><ele>592.3333333333333</ele><time>2026-05-03T12:22:02.998Z</time></trkpt><trkpt lat="44.068390024271594" lon="10.92059199938349"><ele>591.6666666666666</ele><time>2026-05-03T12:22:03.998Z</time></trkpt><trkpt lat="44.068505948303766" lon="10.92075831062936"><ele>591.0</ele><time>2026-05-03T12:22:04.998Z</time></trkpt><trkpt lat="44.06863249564203" lon="10.920920426886285"><ele>593.3333333333334</ele><time>2026-05-03T12:22:05.998Z</time></trkpt><trkpt lat="44.068768120260664" lon="10.921074944658443"><ele>595.6666666666667</ele><time>2026-05-03T12:22:06.998Z</time></trkpt><trkpt lat="44.06889224526484" lon="10.92123818674496"><ele>598.0</ele><time>2026-05-03T12:22:07.998Z</time></trkpt><trkpt lat="44.06901159198323" lon="10.921404636957103"><ele>598.3333333333334</ele><time>2026-05-03T12:22:08.998Z</time></trkpt><trkpt lat="44.06911116932445" lon="10.921603457694257"><ele>598.6666666666666</ele><time>2026-05-03T12:22:09.998Z</time></trkpt><trkpt lat="44.06922115797292" lon="10.921802241625866"><ele>599.0</ele><time>2026-05-03T12:22:10.998Z</time></trkpt><trkpt lat="44.06932340922201" lon="10.921984367055908"><ele>596.3333333333333</ele><time>2026-05-03T12:22:11.998Z</time></trkpt><trkpt lat="44.06942540448924" lon="10.922161178880478"><ele>593.6666666666666</ele><time>2026-05-03T12:22:12.998Z</time></trkpt><trkpt lat="44.069550943273136" lon="10.922313166094371"><ele>591.0</ele><time>2026-05-03T12:22:13.998Z</time></trkpt><trkpt lat="44.06968692620861" lon="10.922463334680646"><ele>591.0</ele><time>2026-05-03T12:22:14.998Z</time></trkpt><trkpt lat="44.06983740541226" lon="10.922593727341015"><ele>591.0</ele><time>2026-05-03T12:22:15.998Z</time></trkpt><trkpt lat="44.0700051039156" lon="10.922718477880602"><ele>591.0</ele><time>2026-05-03T12:22:16.998Z</time></trkpt><trkpt lat="44.07018005306004" lon="10.92283476387501"><ele>591.0</ele><time>2026-05-03T12:22:17.998Z</time></trkpt><trkpt lat="44.07035993697315" lon="10.922956483158789"><ele>591.0</ele><time>2026-05-03T12:22:18.998Z</time></trkpt><trkpt lat="44.070548859004184" lon="10.923065656095547"><ele>591.0</ele><time>2026-05-03T12:22:19.998Z</time></trkpt><trkpt lat="44.0707355332672" lon="10.92319732510372"><ele>590.3333333333334</ele><time>2026-05-03T12:22:20.998Z</time></trkpt><trkpt lat="44.070925944526" lon="10.923310877126521"><ele>589.6666666666667</ele><time>2026-05-03T12:22:21.998Z</time></trkpt><trkpt lat="44.071107092518744" lon="10.9234208207206"><ele>589.0</ele><time>2026-05-03T12:22:22.998Z</time></trkpt><trkpt lat="44.07130824071097" lon="10.9235163625854"><ele>586.3333333333334</ele><time>2026-05-03T12:22:23.998Z</time></trkpt><trkpt lat="44.071494365936445" lon="10.923650172006667"><ele>583.6666666666666</ele><time>2026-05-03T12:22:24.998Z</time></trkpt><trkpt lat="44.07167806518565" lon="10.923759313795237"><ele>581.0</ele><time>2026-05-03T12:22:25.998Z</time></trkpt><trkpt lat="44.0718630414189" lon="10.923877653484626"><ele>581.0</ele><time>2026-05-03T12:22:26.998Z</time></trkpt><trkpt lat="44.07203558453089" lon="10.924006585437986"><ele>581.0</ele><time>2026-05-03T12:22:27.998Z</time></trkpt><trkpt lat="44.07219445045644" lon="10.924152706890927"><ele>581.0</ele><time>2026-05-03T12:22:28.998Z</time></trkpt><trkpt lat="44.07234918145502" lon="10.924304046854266"><ele>580.0</ele><time>2026-05-03T12:22:29.998Z</time></trkpt><trkpt lat="44.07248703262516" lon="10.924441259506695"><ele>579.0</ele><time>2026-05-03T12:22:30.998Z</time></trkpt><trkpt lat="44.072621190249436" lon="10.924580734419418"><ele>578.0</ele><time>2026-05-03T12:22:31.998Z</time></trkpt><trkpt lat="44.07274849168526" lon="10.924718514964816"><ele>578.0</ele><time>2026-05-03T12:22:32.998Z</time></trkpt><trkpt lat="44.07285800558001" lon="10.924844608042877"><ele>578.0</ele><time>2026-05-03T12:22:33.998Z</time></trkpt><trkpt lat="44.072961805674744" lon="10.924968865532174"><ele>578.0</ele><time>2026-05-03T12:22:34.998Z</time></trkpt><trkpt lat="44.07306569565281" lon="10.925083994592704"><ele>578.0</ele><time>2026-05-03T12:22:35.998Z</time></trkpt><trkpt lat="44.073170921102175" lon="10.925176416993"><ele>577.6</ele><time>2026-05-03T12:22:36.998Z</time></trkpt><trkpt lat="44.07325371121548" lon="10.925242920095277"><ele>577.1999999999999</ele><time>2026-05-03T12:22:37.998Z</time></trkpt><trkpt lat="44.073304032190684" lon="10.92533989944796"><ele>576.8</ele><time>2026-05-03T12:22:38.998Z</time></trkpt><trkpt lat="44.073370223705" lon="10.925440881125793"><ele>576.4</ele><time>2026-05-03T12:22:39.998Z</time></trkpt><trkpt lat="44.073454026654495" lon="10.925502724807124"><ele>576.0</ele><time>2026-05-03T12:22:40.998Z</time></trkpt><trkpt lat="44.073559779197424" lon="10.925524590330436"><ele>576.0</ele><time>2026-05-03T12:22:41.998Z</time></trkpt><trkpt lat="44.07366926252578" lon="10.925494703460142"><ele>576.0</ele><time>2026-05-03T12:22:42.998Z</time></trkpt><trkpt lat="44.07379225471143" lon="10.92548795574095"><ele>576.0</ele><time>2026-05-03T12:22:43.998Z</time></trkpt><trkpt lat="44.07391968581711" lon="10.925510830164914"><ele>576.0</ele><time>2026-05-03T12:22:44.998Z</time></trkpt><trkpt lat="44.07406659820932" lon="10.925511839314762"><ele>576.3333333333334</ele><time>2026-05-03T12:22:45.998Z</time></trkpt><trkpt lat="44.07421861708955" lon="10.925536032548681"><ele>576.6666666666667</ele><time>2026-05-03T12:22:46.998Z</time></trkpt><trkpt lat="44.074372732174204" lon="10.925550981803134"><ele>577.0</ele><time>2026-05-03T12:22:47.998Z</time></trkpt><trkpt lat="44.074515615267046" lon="10.925554684964977"><ele>577.0</ele><time>2026-05-03T12:22:48.998Z</time></trkpt><trkpt lat="44.07464336992932" lon="10.925559730146672"><ele>577.0</ele><time>2026-05-03T12:22:49.998Z</time></trkpt><trkpt lat="44.074758088062666" lon="10.92560014813761"><ele>577.0</ele><time>2026-05-03T12:22:50.998Z</time></trkpt><trkpt lat="44.074868173340306" lon="10.925669215493862"><ele>577.0</ele><time>2026-05-03T12:22:51.998Z</time></trkpt><trkpt lat="44.074973179973675" lon="10.925713836350784"><ele>579.75</ele><time>2026-05-03T12:22:52.998Z</time></trkpt><trkpt lat="44.07510461878492" lon="10.925720564185724"><ele>582.5</ele><time>2026-05-03T12:22:53.998Z</time></trkpt><trkpt lat="44.07523730226342" lon="10.925686157010981"><ele>585.25</ele><time>2026-05-03T12:22:54.998Z</time></trkpt><trkpt lat="44.07534081250442" lon="10.925648557124877"><ele>588.0</ele><time>2026-05-03T12:22:55.998Z</time></trkpt><trkpt lat="44.07543074337171" lon="10.925649756693922"><ele>588.0</ele><time>2026-05-03T12:22:56.998Z</time></trkpt><trkpt lat="44.07549879238019" lon="10.92576058989449"><ele>588.0</ele><time>2026-05-03T12:22:57.998Z</time></trkpt><trkpt lat="44.07559760224384" lon="10.925872804941356"><ele>588.0</ele><time>2026-05-03T12:22:58.998Z</time></trkpt><trkpt lat="44.07571366008226" lon="10.925942429113467"><ele>588.0</ele><time>2026-05-03T12:22:59.998Z</time></trkpt><trkpt lat="44.07583990198202" lon="10.925989785191137"><ele>585.8</ele><time>2026-05-03T12:23:00.998Z</time></trkpt><trkpt lat="44.07594513585972" lon="10.926026454239473"><ele>583.5999999999999</ele><time>2026-05-03T12:23:01.998Z</time></trkpt><trkpt lat="44.07604115387894" lon="10.92604582206294"><ele>581.4000000000001</ele><time>2026-05-03T12:23:02.998Z</time></trkpt><trkpt lat="44.0761072544462" lon="10.926151443233728"><ele>579.2</ele><time>2026-05-03T12:23:03.998Z</time></trkpt><trkpt lat="44.07613840824931" lon="10.926305112715225"><ele>577.0</ele><time>2026-05-03T12:23:04.998Z</time></trkpt><trkpt lat="44.076197424189836" lon="10.926458639541119"><ele>577.0</ele><time>2026-05-03T12:23:05.998Z</time></trkpt><trkpt lat="44.076292011085656" lon="10.926569906361417"><ele>577.0</ele><time>2026-05-03T12:23:06.998Z</time></trkpt><trkpt lat="44.07637701589499" lon="10.926679287042443"><ele>577.0</ele><time>2026-05-03T12:23:07.998Z</time></trkpt><trkpt lat="44.07645163689389" lon="10.926773958098904"><ele>577.0</ele><time>2026-05-03T12:23:08.998Z</time></trkpt><trkpt lat="44.076556337346155" lon="10.92678854163188"><ele>577.0</ele><time>2026-05-03T12:23:09.998Z</time></trkpt><trkpt lat="44.07666595735767" lon="10.926798551206337"><ele>578.25</ele><time>2026-05-03T12:23:10.998Z</time></trkpt><trkpt lat="44.076784694082605" lon="10.926822278185446"><ele>579.5</ele><time>2026-05-03T12:23:11.998Z</time></trkpt><trkpt lat="44.07690137489347" lon="10.926823982142468"><ele>580.75</ele><time>2026-05-03T12:23:12.998Z</time></trkpt><trkpt lat="44.07702528156642" lon="10.926780978906518"><ele>582.0</ele><time>2026-05-03T12:23:13.998Z</time></trkpt><trkpt lat="44.077132597818924" lon="10.926725213454315"><ele>583.8333333333334</ele><time>2026-05-03T12:23:14.998Z</time></trkpt><trkpt lat="44.07722754807006" lon="10.926688906468858"><ele>585.6666666666666</ele><time>2026-05-03T12:23:15.998Z</time></trkpt><trkpt lat="44.077301044426356" lon="10.92664118940646"><ele>587.5</ele><time>2026-05-03T12:23:16.998Z</time></trkpt><trkpt lat="44.07737285034269" lon="10.926661261040408"><ele>589.3333333333333</ele><time>2026-05-03T12:23:17.998Z</time></trkpt><trkpt lat="44.07743199636159" lon="10.926720722507188"><ele>591.1666666666666</ele><time>2026-05-03T12:23:18.998Z</time></trkpt><trkpt lat="44.0774747580602" lon="10.926820155673408"><ele>593.0</ele><time>2026-05-03T12:23:19.998Z</time></trkpt><trkpt lat="44.07750344050969" lon="10.926935781402152"><ele>590.25</ele><time>2026-05-03T12:23:20.998Z</time></trkpt><trkpt lat="44.07746956620013" lon="10.927044083135856"><ele>587.5</ele><time>2026-05-03T12:23:21.998Z</time></trkpt><trkpt lat="44.077384725063304" lon="10.927138568846289"><ele>584.75</ele><time>2026-05-03T12:23:22.998Z</time></trkpt><trkpt lat="44.07727952602562" lon="10.927244647067036"><ele>582.0</ele><time>2026-05-03T12:23:23.998Z</time></trkpt><trkpt lat="44.077154313672786" lon="10.927324582037853"><ele>582.0</ele><time>2026-05-03T12:23:24.998Z</time></trkpt><trkpt lat="44.07701627692451" lon="10.9273926483231"><ele>582.0</ele><time>2026-05-03T12:23:25.998Z</time></trkpt><trkpt lat="44.07688140882779" lon="10.927459890289743"><ele>582.0</ele><time>2026-05-03T12:23:26.998Z</time></trkpt><trkpt lat="44.07678588424746" lon="10.927520231793993"><ele>582.0</ele><time>2026-05-03T12:23:27.998Z</time></trkpt><trkpt lat="44.07671763064692" lon="10.92760940102459"><ele>583.0</ele><time>2026-05-03T12:23:28.998Z</time></trkpt><trkpt lat="44.07668446831341" lon="10.92772851359516"><ele>584.0</ele><time>2026-05-03T12:23:29.998Z</time></trkpt><trkpt lat="44.07667658351065" lon="10.92789823930239"><ele>585.0</ele><time>2026-05-03T12:23:30.998Z</time></trkpt><trkpt lat="44.07667417071296" lon="10.928103138135514"><ele>586.0</ele><time>2026-05-03T12:23:31.998Z</time></trkpt><trkpt lat="44.076691801464165" lon="10.928333876926102"><ele>586.0</ele><time>2026-05-03T12:23:32.998Z</time></trkpt><trkpt lat="44.076733117068684" lon="10.928561254566178"><ele>586.0</ele><time>2026-05-03T12:23:33.998Z</time></trkpt><trkpt lat="44.076770667111056" lon="10.928779704729001"><ele>586.0</ele><time>2026-05-03T12:23:34.998Z</time></trkpt><trkpt lat="44.07679120702363" lon="10.929004814689463"><ele>585.3333333333334</ele><time>2026-05-03T12:23:35.998Z</time></trkpt><trkpt lat="44.07678475547329" lon="10.929255189425426"><ele>584.6666666666666</ele><time>2026-05-03T12:23:36.998Z</time></trkpt><trkpt lat="44.076787609356714" lon="10.929525111346843"><ele>584.0</ele><time>2026-05-03T12:23:37.998Z</time></trkpt><trkpt lat="44.076793541097835" lon="10.929794352268312"><ele>584.0</ele><time>2026-05-03T12:23:38.998Z</time></trkpt><trkpt lat="44.07680029390529" lon="10.930048727624959"><ele>584.0</ele><time>2026-05-03T12:23:39.998Z</time></trkpt><trkpt lat="44.07680536996285" lon="10.930269546522158"><ele>584.0</ele><time>2026-05-03T12:23:40.998Z</time></trkpt><trkpt lat="44.076822356095334" lon="10.93045703022204"><ele>582.75</ele><time>2026-05-03T12:23:41.998Z</time></trkpt><trkpt lat="44.07683099026166" lon="10.930636589808373"><ele>581.5</ele><time>2026-05-03T12:23:42.998Z</time></trkpt><trkpt lat="44.076871720251106" lon="10.930817988228192"><ele>580.25</ele><time>2026-05-03T12:23:43.998Z</time></trkpt><trkpt lat="44.076931591263566" lon="10.93101970841415"><ele>579.0</ele><time>2026-05-03T12:23:44.998Z</time></trkpt><trkpt lat="44.07697240323963" lon="10.931238701727331"><ele>577.25</ele><time>2026-05-03T12:23:45.998Z</time></trkpt><trkpt lat="44.07701690389162" lon="10.931456038027635"><ele>575.5</ele><time>2026-05-03T12:23:46.998Z</time></trkpt><trkpt lat="44.077085978247474" lon="10.931643681378114"><ele>573.75</ele><time>2026-05-03T12:23:47.998Z</time></trkpt><trkpt lat="44.077149700631715" lon="10.931806244247197"><ele>572.0</ele><time>2026-05-03T12:23:48.998Z</time></trkpt><trkpt lat="44.07722644344308" lon="10.931936481806936"><ele>572.0</ele><time>2026-05-03T12:23:49.998Z</time></trkpt><trkpt lat="44.07731601870185" lon="10.932057207527379"><ele>572.0</ele><time>2026-05-03T12:23:50.998Z</time></trkpt><trkpt lat="44.07745079284742" lon="10.932112773758343"><ele>572.0</ele><time>2026-05-03T12:23:51.998Z</time></trkpt><trkpt lat="44.07756905799469" lon="10.932188095599551"><ele>572.0</ele><time>2026-05-03T12:23:52.998Z</time></trkpt><trkpt lat="44.07767113986015" lon="10.932292111591643"><ele>573.0</ele><time>2026-05-03T12:23:53.998Z</time></trkpt><trkpt lat="44.0777257237249" lon="10.93243860635799"><ele>574.0</ele><time>2026-05-03T12:23:54.998Z</time></trkpt><trkpt lat="44.077799852187965" lon="10.932587313805827"><ele>575.0</ele><time>2026-05-03T12:23:55.998Z</time></trkpt><trkpt lat="44.077919350963" lon="10.932691805014679"><ele>576.0</ele><time>2026-05-03T12:23:56.998Z</time></trkpt><trkpt lat="44.07801777573329" lon="10.932770032073728"><ele>571.0</ele><time>2026-05-03T12:23:57.998Z</time></trkpt><trkpt lat="44.07810580213682" lon="10.932915887795753"><ele>566.0</ele><time>2026-05-03T12:23:58.998Z</time></trkpt><trkpt lat="44.0781581617857" lon="10.933127182340654"><ele>561.0</ele><time>2026-05-03T12:23:59.997Z</time></trkpt><trkpt lat="44.07822417237672" lon="10.933337646347473"><ele>565.0</ele><time>2026-05-03T12:24:00.997Z</time></trkpt><trkpt lat="44.07827367685699" lon="10.933563840658097"><ele>569.0</ele><time>2026-05-03T12:24:01.997Z</time></trkpt><trkpt lat="44.07831391189948" lon="10.93381184184272"><ele>573.0</ele><time>2026-05-03T12:24:02.997Z</time></trkpt><trkpt lat="44.0783376910808" lon="10.934054137481803"><ele>569.0</ele><time>2026-05-03T12:24:03.997Z</time></trkpt><trkpt lat="44.07839498657155" lon="10.934293132834066"><ele>565.0</ele><time>2026-05-03T12:24:04.997Z</time></trkpt><trkpt lat="44.07847653541197" lon="10.934520449701125"><ele>561.0</ele><time>2026-05-03T12:24:05.997Z</time></trkpt><trkpt lat="44.07856357728042" lon="10.934765285125854"><ele>561.0</ele><time>2026-05-03T12:24:06.997Z</time></trkpt><trkpt lat="44.078651533467855" lon="10.934984215678618"><ele>561.0</ele><time>2026-05-03T12:24:07.997Z</time></trkpt><trkpt lat="44.07872070986989" lon="10.935181237422903"><ele>561.0</ele><time>2026-05-03T12:24:08.997Z</time></trkpt><trkpt lat="44.078779164135675" lon="10.935337918697993"><ele>561.8</ele><time>2026-05-03T12:24:09.997Z</time></trkpt><trkpt lat="44.078836362955364" lon="10.935469379042507"><ele>562.6</ele><time>2026-05-03T12:24:10.997Z</time></trkpt><trkpt lat="44.07890499166341" lon="10.935570994841907"><ele>563.4</ele><time>2026-05-03T12:24:11.997Z</time></trkpt><trkpt lat="44.07899468216826" lon="10.935625518067948"><ele>564.2</ele><time>2026-05-03T12:24:12.997Z</time></trkpt><trkpt lat="44.07910171759818" lon="10.93562992648369"><ele>565.0</ele><time>2026-05-03T12:24:13.997Z</time></trkpt><trkpt lat="44.079221141755" lon="10.935567805953559"><ele>565.0</ele><time>2026-05-03T12:24:14.997Z</time></trkpt><trkpt lat="44.0793330754792" lon="10.935504257005293"><ele>565.0</ele><time>2026-05-03T12:24:15.997Z</time></trkpt><trkpt lat="44.079427523840856" lon="10.935483634841862"><ele>565.0</ele><time>2026-05-03T12:24:16.997Z</time></trkpt><trkpt lat="44.07951750195355" lon="10.93552829517781"><ele>565.0</ele><time>2026-05-03T12:24:17.997Z</time></trkpt><trkpt lat="44.07958858428532" lon="10.93561748388938"><ele>565.0</ele><time>2026-05-03T12:24:18.997Z</time></trkpt><trkpt lat="44.079653593967954" lon="10.935723363549988"><ele>565.0</ele><time>2026-05-03T12:24:19.997Z</time></trkpt><trkpt lat="44.07967612997057" lon="10.935835330289123"><ele>565.0</ele><time>2026-05-03T12:24:20.997Z</time></trkpt><trkpt lat="44.079625015901314" lon="10.93596308559711"><ele>565.0</ele><time>2026-05-03T12:24:21.997Z</time></trkpt><trkpt lat="44.07956080870393" lon="10.936092100571448"><ele>565.0</ele><time>2026-05-03T12:24:22.997Z</time></trkpt><trkpt lat="44.07949909774545" lon="10.936233071184848"><ele>565.0</ele><time>2026-05-03T12:24:23.997Z</time></trkpt><trkpt lat="44.0794477651131" lon="10.936361221335574"><ele>563.0</ele><time>2026-05-03T12:24:24.997Z</time></trkpt><trkpt lat="44.079448584712026" lon="10.936499379146955"><ele>561.0</ele><time>2026-05-03T12:24:25.997Z</time></trkpt><trkpt lat="44.07947359962544" lon="10.936634590028568"><ele>559.0</ele><time>2026-05-03T12:24:26.997Z</time></trkpt><trkpt lat="44.07954500485354" lon="10.936784139083214"><ele>557.0</ele><time>2026-05-03T12:24:27.997Z</time></trkpt><trkpt lat="44.07963510114694" lon="10.936961337885908"><ele>555.3333333333333</ele><time>2026-05-03T12:24:28.997Z</time></trkpt><trkpt lat="44.07972610399594" lon="10.937153495990719"><ele>553.6666666666666</ele><time>2026-05-03T12:24:29.997Z</time></trkpt><trkpt lat="44.079823737238584" lon="10.937356995249738"><ele>552.0</ele><time>2026-05-03T12:24:30.997Z</time></trkpt><trkpt lat="44.07992530494812" lon="10.937551016213485"><ele>553.0</ele><time>2026-05-03T12:24:31.997Z</time></trkpt><trkpt lat="44.08003199537019" lon="10.937738861572718"><ele>554.0</ele><time>2026-05-03T12:24:32.997Z</time></trkpt><trkpt lat="44.0801277066755" lon="10.937901614945558"><ele>555.0</ele><time>2026-05-03T12:24:33.997Z</time></trkpt><trkpt lat="44.08021781540567" lon="10.938025817687961"><ele>555.0</ele><time>2026-05-03T12:24:34.997Z</time></trkpt><trkpt lat="44.080311081265805" lon="10.938108809856896"><ele>555.0</ele><time>2026-05-03T12:24:35.997Z</time></trkpt><trkpt lat="44.080398359251866" lon="10.938183114629354"><ele>555.0</ele><time>2026-05-03T12:24:36.997Z</time></trkpt><trkpt lat="44.08049215762911" lon="10.93825944777603"><ele>555.0</ele><time>2026-05-03T12:24:37.997Z</time></trkpt><trkpt lat="44.08055568991586" lon="10.938376616346442"><ele>555.0</ele><time>2026-05-03T12:24:38.997Z</time></trkpt><trkpt lat="44.080558335339944" lon="10.938554117447278"><ele>553.6</ele><time>2026-05-03T12:24:39.997Z</time></trkpt><trkpt lat="44.08055910051587" lon="10.938738978281181"><ele>552.2</ele><time>2026-05-03T12:24:40.997Z</time></trkpt><trkpt lat="44.08059669711995" lon="10.93886467752044"><ele>550.8</ele><time>2026-05-03T12:24:41.997Z</time></trkpt><trkpt lat="44.08063587909581" lon="10.938993438887112"><ele>549.4</ele><time>2026-05-03T12:24:42.997Z</time></trkpt><trkpt lat="44.080652705331296" lon="10.93911960631694"><ele>548.0</ele><time>2026-05-03T12:24:43.997Z</time></trkpt><trkpt lat="44.080628139857644" lon="10.939243175248029"><ele>547.25</ele><time>2026-05-03T12:24:44.997Z</time></trkpt><trkpt lat="44.080580514814734" lon="10.939367460840092"><ele>546.5</ele><time>2026-05-03T12:24:45.997Z</time></trkpt><trkpt lat="44.0805653999831" lon="10.939502753808588"><ele>545.75</ele><time>2026-05-03T12:24:46.997Z</time></trkpt><trkpt lat="44.080574475853716" lon="10.939662071866085"><ele>545.0</ele><time>2026-05-03T12:24:47.997Z</time></trkpt><trkpt lat="44.080615094115004" lon="10.939849272337218"><ele>546.0</ele><time>2026-05-03T12:24:48.997Z</time></trkpt><trkpt lat="44.08065064394726" lon="10.94005293373535"><ele>547.0</ele><time>2026-05-03T12:24:49.997Z</time></trkpt><trkpt lat="44.0806781009907" lon="10.940259968150862"><ele>548.0</ele><time>2026-05-03T12:24:50.997Z</time></trkpt><trkpt lat="44.080680447078336" lon="10.9404712013571"><ele>548.0</ele><time>2026-05-03T12:24:51.997Z</time></trkpt><trkpt lat="44.080664533157744" lon="10.940692355115225"><ele>548.0</ele><time>2026-05-03T12:24:52.997Z</time></trkpt><trkpt lat="44.080651644259056" lon="10.940899355699486"><ele>548.0</ele><time>2026-05-03T12:24:53.997Z</time></trkpt><trkpt lat="44.080639194804355" lon="10.941125795276255"><ele>547.6</ele><time>2026-05-03T12:24:54.997Z</time></trkpt><trkpt lat="44.08062497772732" lon="10.941293718110481"><ele>547.1999999999999</ele><time>2026-05-03T12:24:55.997Z</time></trkpt><trkpt lat="44.080602901107945" lon="10.941431396733515"><ele>546.8</ele><time>2026-05-03T12:24:56.997Z</time></trkpt><trkpt lat="44.08059234034559" lon="10.941574572976508"><ele>546.4</ele><time>2026-05-03T12:24:57.997Z</time></trkpt><trkpt lat="44.08062702146402" lon="10.94171671475001"><ele>546.0</ele><time>2026-05-03T12:24:58.997Z</time></trkpt><trkpt lat="44.08068737957288" lon="10.941889536118016"><ele>547.3333333333334</ele><time>2026-05-03T12:24:59.997Z</time></trkpt><trkpt lat="44.08075402039139" lon="10.942072599657642"><ele>548.6666666666667</ele><time>2026-05-03T12:25:00.997Z</time></trkpt><trkpt lat="44.08084149884218" lon="10.942240854886684"><ele>550.0</ele><time>2026-05-03T12:25:01.997Z</time></trkpt><trkpt lat="44.08094439907076" lon="10.94240235943541"><ele>549.0</ele><time>2026-05-03T12:25:02.997Z</time></trkpt><trkpt lat="44.08106231654233" lon="10.942556668765782"><ele>548.0</ele><time>2026-05-03T12:25:03.997Z</time></trkpt><trkpt lat="44.08119770041979" lon="10.942721012748457"><ele>547.0</ele><time>2026-05-03T12:25:04.997Z</time></trkpt><trkpt lat="44.08134686886216" lon="10.942845833504677"><ele>547.0</ele><time>2026-05-03T12:25:05.997Z</time></trkpt><trkpt lat="44.08148244926908" lon="10.942970743732166"><ele>547.0</ele><time>2026-05-03T12:25:06.997Z</time></trkpt><trkpt lat="44.08159308797782" lon="10.943067118881949"><ele>547.0</ele><time>2026-05-03T12:25:07.997Z</time></trkpt><trkpt lat="44.08170616960473" lon="10.943126551399875"><ele>547.0</ele><time>2026-05-03T12:25:08.997Z</time></trkpt><trkpt lat="44.081793033766644" lon="10.943178582297833"><ele>547.4</ele><time>2026-05-03T12:25:09.997Z</time></trkpt><trkpt lat="44.08188159360208" lon="10.943171398926633"><ele>547.8000000000001</ele><time>2026-05-03T12:25:10.997Z</time></trkpt><trkpt lat="44.08198702196381" lon="10.943138957559757"><ele>548.2</ele><time>2026-05-03T12:25:11.997Z</time></trkpt><trkpt lat="44.08208846621972" lon="10.943082769717448"><ele>548.6</ele><time>2026-05-03T12:25:12.997Z</time></trkpt><trkpt lat="44.0821918919664" lon="10.943117994409947"><ele>549.0</ele><time>2026-05-03T12:25:13.997Z</time></trkpt><trkpt lat="44.082262767396564" lon="10.94325122604693"><ele>549.0</ele><time>2026-05-03T12:25:14.997Z</time></trkpt><trkpt lat="44.08231096719496" lon="10.943364930838277"><ele>549.0</ele><time>2026-05-03T12:25:15.997Z</time></trkpt><trkpt lat="44.08241238164178" lon="10.943479708664439"><ele>549.0</ele><time>2026-05-03T12:25:16.997Z</time></trkpt><trkpt lat="44.08255308478806" lon="10.943573605001976"><ele>549.0</ele><time>2026-05-03T12:25:17.997Z</time></trkpt><trkpt lat="44.08272716409882" lon="10.943636150692495"><ele>545.0</ele><time>2026-05-03T12:25:18.997Z</time></trkpt><trkpt lat="44.08289904195862" lon="10.94372402105862"><ele>541.0</ele><time>2026-05-03T12:25:19.997Z</time></trkpt><trkpt lat="44.08305315083108" lon="10.943819157272058"><ele>537.0</ele><time>2026-05-03T12:25:20.997Z</time></trkpt><trkpt lat="44.083204493861906" lon="10.943898785136806"><ele>536.5</ele><time>2026-05-03T12:25:21.997Z</time></trkpt><trkpt lat="44.083352640436814" lon="10.943924166316041"><ele>536.0</ele><time>2026-05-03T12:25:22.997Z</time></trkpt><trkpt lat="44.083484366520715" lon="10.943957360031648"><ele>535.5</ele><time>2026-05-03T12:25:23.997Z</time></trkpt><trkpt lat="44.083597299091586" lon="10.944073428959854"><ele>535.0</ele><time>2026-05-03T12:25:24.997Z</time></trkpt><trkpt lat="44.08370919944251" lon="10.944225187218656"><ele>535.0</ele><time>2026-05-03T12:25:25.997Z</time></trkpt><trkpt lat="44.083828039991836" lon="10.94440127315887"><ele>535.0</ele><time>2026-05-03T12:25:26.997Z</time></trkpt><trkpt lat="44.083945987429075" lon="10.944576573944879"><ele>535.0</ele><time>2026-05-03T12:25:27.997Z</time></trkpt><trkpt lat="44.084064353434925" lon="10.944775004071866"><ele>535.3333333333334</ele><time>2026-05-03T12:25:28.997Z</time></trkpt><trkpt lat="44.08418954005501" lon="10.94496415190424"><ele>535.6666666666666</ele><time>2026-05-03T12:25:29.997Z</time></trkpt><trkpt lat="44.08430387331671" lon="10.945126105185537"><ele>536.0</ele><time>2026-05-03T12:25:30.997Z</time></trkpt><trkpt lat="44.08440056364437" lon="10.945280774266836"><ele>536.0</ele><time>2026-05-03T12:25:31.997Z</time></trkpt><trkpt lat="44.084479999584964" lon="10.94541405213714"><ele>536.0</ele><time>2026-05-03T12:25:32.997Z</time></trkpt><trkpt lat="44.084531985884574" lon="10.945587592768476"><ele>536.0</ele><time>2026-05-03T12:25:33.997Z</time></trkpt><trkpt lat="44.084568562986476" lon="10.945782244099696"><ele>536.0</ele><time>2026-05-03T12:25:34.997Z</time></trkpt><trkpt lat="44.08459492503533" lon="10.945969652111692"><ele>536.0</ele><time>2026-05-03T12:25:35.997Z</time></trkpt><trkpt lat="44.08461628295004" lon="10.946093702685085"><ele>536.0</ele><time>2026-05-03T12:25:36.997Z</time></trkpt><trkpt lat="44.08463818532852" lon="10.946226210304765"><ele>536.0</ele><time>2026-05-03T12:25:37.997Z</time></trkpt><trkpt lat="44.08470372245223" lon="10.946318935453222"><ele>536.0</ele><time>2026-05-03T12:25:38.997Z</time></trkpt><trkpt lat="44.08477975475498" lon="10.946409650215754"><ele>536.0</ele><time>2026-05-03T12:25:39.997Z</time></trkpt><trkpt lat="44.08485545717749" lon="10.946499944446035"><ele>536.0</ele><time>2026-05-03T12:25:40.997Z</time></trkpt><trkpt lat="44.08487681121975" lon="10.946613081795938"><ele>536.0</ele><time>2026-05-03T12:25:41.997Z</time></trkpt><trkpt lat="44.08487059008118" lon="10.946767410334202"><ele>536.0</ele><time>2026-05-03T12:25:42.997Z</time></trkpt><trkpt lat="44.08489653425199" lon="10.946937088223992"><ele>536.0</ele><time>2026-05-03T12:25:43.997Z</time></trkpt><trkpt lat="44.084952677887664" lon="10.947084796487106"><ele>536.0</ele><time>2026-05-03T12:25:44.997Z</time></trkpt><trkpt lat="44.085054840947514" lon="10.947242437272006"><ele>535.75</ele><time>2026-05-03T12:25:45.997Z</time></trkpt><trkpt lat="44.085169556953694" lon="10.94739404560565"><ele>535.5</ele><time>2026-05-03T12:25:46.997Z</time></trkpt><trkpt lat="44.085292377838755" lon="10.94752113849746"><ele>535.25</ele><time>2026-05-03T12:25:47.997Z</time></trkpt><trkpt lat="44.08538281848593" lon="10.947641168820505"><ele>535.0</ele><time>2026-05-03T12:25:48.997Z</time></trkpt><trkpt lat="44.08549465860111" lon="10.947709228831036"><ele>534.5</ele><time>2026-05-03T12:25:49.997Z</time></trkpt><trkpt lat="44.0856235873044" lon="10.947709608805363"><ele>534.0</ele><time>2026-05-03T12:25:50.996Z</time></trkpt><trkpt lat="44.08576566543891" lon="10.947703446348973"><ele>533.5</ele><time>2026-05-03T12:25:51.996Z</time></trkpt><trkpt lat="44.085920568898615" lon="10.94771377804739"><ele>533.0</ele><time>2026-05-03T12:25:52.996Z</time></trkpt><trkpt lat="44.08608841972752" lon="10.947690326974348"><ele>532.5</ele><time>2026-05-03T12:25:53.996Z</time></trkpt><trkpt lat="44.08624810814307" lon="10.947657885015676"><ele>532.0</ele><time>2026-05-03T12:25:54.996Z</time></trkpt><trkpt lat="44.086381109589155" lon="10.947613400154063"><ele>531.5</ele><time>2026-05-03T12:25:55.996Z</time></trkpt><trkpt lat="44.08648137047393" lon="10.94762132514039"><ele>531.0</ele><time>2026-05-03T12:25:56.996Z</time></trkpt><trkpt lat="44.08659538459877" lon="10.947695880527352"><ele>531.0</ele><time>2026-05-03T12:25:57.996Z</time></trkpt><trkpt lat="44.086708559643725" lon="10.94783106750699"><ele>531.0</ele><time>2026-05-03T12:25:58.996Z</time></trkpt><trkpt lat="44.086816290943375" lon="10.94795273934478"><ele>531.0</ele><time>2026-05-03T12:25:59.996Z</time></trkpt><trkpt lat="44.08692548987342" lon="10.948061516560474"><ele>531.0</ele><time>2026-05-03T12:26:00.996Z</time></trkpt><trkpt lat="44.0870215839637" lon="10.9481277159478"><ele>531.0</ele><time>2026-05-03T12:26:01.996Z</time></trkpt><trkpt lat="44.087099610882504" lon="10.948179490420904"><ele>531.0</ele><time>2026-05-03T12:26:02.996Z</time></trkpt><trkpt lat="44.08717070907742" lon="10.948286035576755"><ele>531.0</ele><time>2026-05-03T12:26:03.996Z</time></trkpt><trkpt lat="44.08721469811697" lon="10.94845300339194"><ele>531.0</ele><time>2026-05-03T12:26:04.996Z</time></trkpt><trkpt lat="44.08724697026425" lon="10.948625958757008"><ele>531.0</ele><time>2026-05-03T12:26:05.996Z</time></trkpt><trkpt lat="44.08730936480748" lon="10.948797394390082"><ele>529.75</ele><time>2026-05-03T12:26:06.996Z</time></trkpt><trkpt lat="44.08737387944398" lon="10.948990373783191"><ele>528.5</ele><time>2026-05-03T12:26:07.996Z</time></trkpt><trkpt lat="44.08740663310912" lon="10.949155194292652"><ele>527.25</ele><time>2026-05-03T12:26:08.996Z</time></trkpt><trkpt lat="44.087370792055886" lon="10.949288474534965"><ele>526.0</ele><time>2026-05-03T12:26:09.996Z</time></trkpt><trkpt lat="44.087330979934755" lon="10.949456166794498"><ele>525.2</ele><time>2026-05-03T12:26:10.996Z</time></trkpt><trkpt lat="44.087313520470566" lon="10.94958811960467"><ele>524.4000000000001</ele><time>2026-05-03T12:26:11.996Z</time></trkpt><trkpt lat="44.087338019825864" lon="10.949705031044546"><ele>523.6</ele><time>2026-05-03T12:26:12.996Z</time></trkpt><trkpt lat="44.0874136189832" lon="10.949794387828563"><ele>522.8000000000001</ele><time>2026-05-03T12:26:13.996Z</time></trkpt><trkpt lat="44.087499157247805" lon="10.949846603140246"><ele>522.0</ele><time>2026-05-03T12:26:14.996Z</time></trkpt><trkpt lat="44.087632450081365" lon="10.949865341729396"><ele>522.0</ele><time>2026-05-03T12:26:15.996Z</time></trkpt><trkpt lat="44.08779786332365" lon="10.949882086341015"><ele>522.0</ele><time>2026-05-03T12:26:16.996Z</time></trkpt><trkpt lat="44.087971051113996" lon="10.949920077885146"><ele>522.0</ele><time>2026-05-03T12:26:17.996Z</time></trkpt><trkpt lat="44.08813481945302" lon="10.949951905230158"><ele>521.25</ele><time>2026-05-03T12:26:18.996Z</time></trkpt><trkpt lat="44.08828090188969" lon="10.950006514764983"><ele>520.5</ele><time>2026-05-03T12:26:19.996Z</time></trkpt><trkpt lat="44.088411963364806" lon="10.950105127014622"><ele>519.75</ele><time>2026-05-03T12:26:20.996Z</time></trkpt><trkpt lat="44.08853571166787" lon="10.950200454032814"><ele>519.0</ele><time>2026-05-03T12:26:21.996Z</time></trkpt><trkpt lat="44.08865333258104" lon="10.950268839886466"><ele>519.0</ele><time>2026-05-03T12:26:22.996Z</time></trkpt><trkpt lat="44.08875564436454" lon="10.950321079717735"><ele>519.0</ele><time>2026-05-03T12:26:23.996Z</time></trkpt><trkpt lat="44.08884180919251" lon="10.950400228515303"><ele>519.0</ele><time>2026-05-03T12:26:24.996Z</time></trkpt><trkpt lat="44.08889789940138" lon="10.950493495229097"><ele>519.0</ele><time>2026-05-03T12:26:25.996Z</time></trkpt><trkpt lat="44.088951941322996" lon="10.95054437874064"><ele>519.0</ele><time>2026-05-03T12:26:26.996Z</time></trkpt><trkpt lat="44.08909486544001" lon="10.95053784674493"><ele>518.6</ele><time>2026-05-03T12:26:28.996Z</time></trkpt><trkpt lat="44.08919740415211" lon="10.950552714182432"><ele>518.2</ele><time>2026-05-03T12:26:29.996Z</time></trkpt><trkpt lat="44.089316895728174" lon="10.950598532365644"><ele>517.8000000000001</ele><time>2026-05-03T12:26:30.996Z</time></trkpt><trkpt lat="44.089403842621856" lon="10.950669832540237"><ele>517.4</ele><time>2026-05-03T12:26:31.996Z</time></trkpt><trkpt lat="44.089481204667166" lon="10.950774366606094"><ele>517.0</ele><time>2026-05-03T12:26:32.996Z</time></trkpt><trkpt lat="44.089536049282174" lon="10.950890787381937"><ele>517.0</ele><time>2026-05-03T12:26:33.996Z</time></trkpt><trkpt lat="44.08956917648667" lon="10.951005208774738"><ele>517.0</ele><time>2026-05-03T12:26:34.996Z</time></trkpt><trkpt lat="44.08955204434443" lon="10.951137279377166"><ele>517.0</ele><time>2026-05-03T12:26:35.996Z</time></trkpt><trkpt lat="44.08947675963539" lon="10.95122017303093"><ele>517.0</ele><time>2026-05-03T12:26:36.996Z</time></trkpt><trkpt lat="44.08938580939039" lon="10.951258389825247"><ele>517.0</ele><time>2026-05-03T12:26:37.996Z</time></trkpt><trkpt lat="44.08930007169102" lon="10.951295243240407"><ele>517.0</ele><time>2026-05-03T12:26:38.996Z</time></trkpt><trkpt lat="44.08921949294411" lon="10.951379121612293"><ele>517.0</ele><time>2026-05-03T12:26:39.996Z</time></trkpt><trkpt lat="44.08917666724608" lon="10.951526230861102"><ele>517.0</ele><time>2026-05-03T12:26:40.996Z</time></trkpt><trkpt lat="44.08915573580337" lon="10.951730769559877"><ele>517.0</ele><time>2026-05-03T12:26:41.996Z</time></trkpt><trkpt lat="44.08915430443516" lon="10.951956533432803"><ele>517.6666666666667</ele><time>2026-05-03T12:26:42.996Z</time></trkpt><trkpt lat="44.08914347949689" lon="10.952184196959841"><ele>518.3333333333334</ele><time>2026-05-03T12:26:43.996Z</time></trkpt><trkpt lat="44.08914269631571" lon="10.952400926982834"><ele>519.0</ele><time>2026-05-03T12:26:44.996Z</time></trkpt><trkpt lat="44.08915629877794" lon="10.952635836063305"><ele>519.0</ele><time>2026-05-03T12:26:45.996Z</time></trkpt><trkpt lat="44.089175753169386" lon="10.952878905914071"><ele>519.0</ele><time>2026-05-03T12:26:46.996Z</time></trkpt><trkpt lat="44.08922366419304" lon="10.953104431609686"><ele>519.0</ele><time>2026-05-03T12:26:47.996Z</time></trkpt><trkpt lat="44.08929365062352" lon="10.953330840757305"><ele>518.3333333333334</ele><time>2026-05-03T12:26:48.996Z</time></trkpt><trkpt lat="44.08937984806879" lon="10.953572763400029"><ele>517.6666666666667</ele><time>2026-05-03T12:26:49.996Z</time></trkpt><trkpt lat="44.08946454670405" lon="10.95378138894895"><ele>517.0</ele><time>2026-05-03T12:26:50.996Z</time></trkpt><trkpt lat="44.08954596340374" lon="10.953969616258213"><ele>517.0</ele><time>2026-05-03T12:26:51.996Z</time></trkpt><trkpt lat="44.08962817148498" lon="10.9541251941804"><ele>517.0</ele><time>2026-05-03T12:26:52.996Z</time></trkpt><trkpt lat="44.08972444832156" lon="10.954266865372476"><ele>517.0</ele><time>2026-05-03T12:26:53.996Z</time></trkpt><trkpt lat="44.08984375635908" lon="10.954383346601933"><ele>517.0</ele><time>2026-05-03T12:26:54.996Z</time></trkpt><trkpt lat="44.08998461801452" lon="10.954503002419573"><ele>516.3333333333334</ele><time>2026-05-03T12:26:55.996Z</time></trkpt><trkpt lat="44.09016291767256" lon="10.954627868395955"><ele>515.6666666666666</ele><time>2026-05-03T12:26:56.996Z</time></trkpt><trkpt lat="44.090282900974664" lon="10.954747690315536"><ele>515.0</ele><time>2026-05-03T12:26:57.996Z</time></trkpt><trkpt lat="44.09040315132048" lon="10.95485498455073"><ele>515.0</ele><time>2026-05-03T12:26:58.996Z</time></trkpt><trkpt lat="44.09053482122685" lon="10.954938122430464"><ele>515.0</ele><time>2026-05-03T12:26:59.996Z</time></trkpt><trkpt lat="44.0906807000015" lon="10.955023634554648"><ele>515.0</ele><time>2026-05-03T12:27:00.996Z</time></trkpt><trkpt lat="44.090844393847036" lon="10.955079916972542"><ele>518.6666666666666</ele><time>2026-05-03T12:27:01.996Z</time></trkpt><trkpt lat="44.09101120674043" lon="10.95514515667203"><ele>522.3333333333334</ele><time>2026-05-03T12:27:02.996Z</time></trkpt><trkpt lat="44.091180285073136" lon="10.955179180648782"><ele>526.0</ele><time>2026-05-03T12:27:03.996Z</time></trkpt><trkpt lat="44.09134362500393" lon="10.955202300185366"><ele>526.0</ele><time>2026-05-03T12:27:04.996Z</time></trkpt><trkpt lat="44.09149887844009" lon="10.955221288554005"><ele>526.0</ele><time>2026-05-03T12:27:05.996Z</time></trkpt><trkpt lat="44.09164597064275" lon="10.955227850776803"><ele>526.0</ele><time>2026-05-03T12:27:06.996Z</time></trkpt><trkpt lat="44.091817804822035" lon="10.955218194160361"><ele>522.3333333333334</ele><time>2026-05-03T12:27:07.996Z</time></trkpt><trkpt lat="44.09198475875547" lon="10.955192521759212"><ele>518.6666666666666</ele><time>2026-05-03T12:27:08.996Z</time></trkpt><trkpt lat="44.09214376804496" lon="10.955147480187089"><ele>515.0</ele><time>2026-05-03T12:27:09.996Z</time></trkpt><trkpt lat="44.09233251606363" lon="10.955105106415276"><ele>514.6666666666666</ele><time>2026-05-03T12:27:10.996Z</time></trkpt><trkpt lat="44.09251986377191" lon="10.955074521334291"><ele>514.3333333333334</ele><time>2026-05-03T12:27:11.996Z</time></trkpt><trkpt lat="44.092694486079395" lon="10.955074438209191"><ele>514.0</ele><time>2026-05-03T12:27:12.996Z</time></trkpt><trkpt lat="44.09286111209843" lon="10.955063250616305"><ele>514.0</ele><time>2026-05-03T12:27:13.996Z</time></trkpt><trkpt lat="44.09301339632319" lon="10.955041716473275"><ele>514.0</ele><time>2026-05-03T12:27:14.996Z</time></trkpt><trkpt lat="44.093157392679664" lon="10.955017874995713"><ele>514.0</ele><time>2026-05-03T12:27:15.996Z</time></trkpt><trkpt lat="44.09331180403511" lon="10.955021370033043"><ele>511.6666666666667</ele><time>2026-05-03T12:27:16.996Z</time></trkpt><trkpt lat="44.09347423779164" lon="10.955058966486583"><ele>509.33333333333337</ele><time>2026-05-03T12:27:17.996Z</time></trkpt><trkpt lat="44.09361754958289" lon="10.95510566188098"><ele>507.0</ele><time>2026-05-03T12:27:18.996Z</time></trkpt><trkpt lat="44.09375885913484" lon="10.955138617159616"><ele>507.0</ele><time>2026-05-03T12:27:19.996Z</time></trkpt><trkpt lat="44.093922502229454" lon="10.95522128434388"><ele>507.0</ele><time>2026-05-03T12:27:20.996Z</time></trkpt><trkpt lat="44.094068925070815" lon="10.955306433193108"><ele>507.0</ele><time>2026-05-03T12:27:21.996Z</time></trkpt><trkpt lat="44.0941935316459" lon="10.955391840086959"><ele>508.66666666666663</ele><time>2026-05-03T12:27:22.996Z</time></trkpt><trkpt lat="44.094326832255945" lon="10.955463389813476"><ele>510.3333333333333</ele><time>2026-05-03T12:27:23.996Z</time></trkpt><trkpt lat="44.094470435316246" lon="10.955601541825786"><ele>512.0</ele><time>2026-05-03T12:27:24.996Z</time></trkpt><trkpt lat="44.094601141872886" lon="10.955734818524018"><ele>512.0</ele><time>2026-05-03T12:27:25.996Z</time></trkpt><trkpt lat="44.09470228824597" lon="10.955839119503773"><ele>512.0</ele><time>2026-05-03T12:27:26.996Z</time></trkpt><trkpt lat="44.09480632468376" lon="10.95592717169606"><ele>512.0</ele><time>2026-05-03T12:27:27.996Z</time></trkpt><trkpt lat="44.09489581385837" lon="10.956043507613414"><ele>512.0</ele><time>2026-05-03T12:27:28.996Z</time></trkpt><trkpt lat="44.09494975195657" lon="10.956202767088401"><ele>511.0</ele><time>2026-05-03T12:27:29.996Z</time></trkpt><trkpt lat="44.09497914084058" lon="10.956419032592347"><ele>510.0</ele><time>2026-05-03T12:27:30.996Z</time></trkpt><trkpt lat="44.09501751364842" lon="10.956645098097757"><ele>509.0</ele><time>2026-05-03T12:27:31.996Z</time></trkpt><trkpt lat="44.09502697886379" lon="10.956811272763995"><ele>508.0</ele><time>2026-05-03T12:27:32.996Z</time></trkpt><trkpt lat="44.095010456187744" lon="10.956991648870037"><ele>508.0</ele><time>2026-05-03T12:27:33.996Z</time></trkpt><trkpt lat="44.095020645185784" lon="10.957166522917605"><ele>508.0</ele><time>2026-05-03T12:27:34.996Z</time></trkpt><trkpt lat="44.09510010793904" lon="10.957335447714348"><ele>508.0</ele><time>2026-05-03T12:27:35.996Z</time></trkpt><trkpt lat="44.0951700066647" lon="10.95749050025398"><ele>508.0</ele><time>2026-05-03T12:27:36.996Z</time></trkpt><trkpt lat="44.09521113157691" lon="10.957673067868035"><ele>507.0</ele><time>2026-05-03T12:27:37.996Z</time></trkpt><trkpt lat="44.09520352241708" lon="10.957841041785993"><ele>506.0</ele><time>2026-05-03T12:27:38.996Z</time></trkpt><trkpt lat="44.095223802553704" lon="10.957998675733958"><ele>505.0</ele><time>2026-05-03T12:27:39.996Z</time></trkpt><trkpt lat="44.095280789223914" lon="10.958138198315549"><ele>504.0</ele><time>2026-05-03T12:27:40.996Z</time></trkpt><trkpt lat="44.09537417507352" lon="10.958274788683333"><ele>503.66666666666663</ele><time>2026-05-03T12:27:41.996Z</time></trkpt><trkpt lat="44.09551294043877" lon="10.958399925643217"><ele>503.3333333333333</ele><time>2026-05-03T12:27:42.996Z</time></trkpt><trkpt lat="44.09568148085751" lon="10.958530162614817"><ele>503.0</ele><time>2026-05-03T12:27:43.996Z</time></trkpt><trkpt lat="44.09583873634674" lon="10.958644082459667"><ele>503.0</ele><time>2026-05-03T12:27:44.996Z</time></trkpt><trkpt lat="44.09600993728431" lon="10.9587962531451"><ele>503.0</ele><time>2026-05-03T12:27:45.996Z</time></trkpt><trkpt lat="44.09617911936012" lon="10.958943884894909"><ele>503.0</ele><time>2026-05-03T12:27:46.996Z</time></trkpt><trkpt lat="44.096348988965595" lon="10.959101654439307"><ele>501.0</ele><time>2026-05-03T12:27:47.996Z</time></trkpt><trkpt lat="44.09653510913333" lon="10.959228888402981"><ele>499.0</ele><time>2026-05-03T12:27:48.996Z</time></trkpt><trkpt lat="44.0967178853627" lon="10.959346967759945"><ele>497.0</ele><time>2026-05-03T12:27:49.996Z</time></trkpt><trkpt lat="44.09690173853664" lon="10.959455827087575"><ele>497.0</ele><time>2026-05-03T12:27:50.996Z</time></trkpt><trkpt lat="44.09707987176728" lon="10.959559443244117"><ele>497.0</ele><time>2026-05-03T12:27:51.996Z</time></trkpt><trkpt lat="44.09725180313002" lon="10.959652246533965"><ele>497.0</ele><time>2026-05-03T12:27:52.996Z</time></trkpt><trkpt lat="44.09741399606929" lon="10.95975662071179"><ele>497.66666666666663</ele><time>2026-05-03T12:27:53.996Z</time></trkpt><trkpt lat="44.09758370668528" lon="10.959839881851249"><ele>498.33333333333337</ele><time>2026-05-03T12:27:54.996Z</time></trkpt><trkpt lat="44.09775304617891" lon="10.959944799207399"><ele>499.0</ele><time>2026-05-03T12:27:55.996Z</time></trkpt><trkpt lat="44.097906220781" lon="10.96005544244519"><ele>499.6666666666667</ele><time>2026-05-03T12:27:56.996Z</time></trkpt><trkpt lat="44.09804860639897" lon="10.960152447340645"><ele>500.33333333333337</ele><time>2026-05-03T12:27:57.996Z</time></trkpt><trkpt lat="44.098199045399966" lon="10.960226690483758"><ele>501.0</ele><time>2026-05-03T12:27:58.996Z</time></trkpt><trkpt lat="44.09834451753649" lon="10.960238033796927"><ele>498.66666666666663</ele><time>2026-05-03T12:27:59.996Z</time></trkpt><trkpt lat="44.09849378577291" lon="10.96023859062191"><ele>496.3333333333333</ele><time>2026-05-03T12:28:00.996Z</time></trkpt><trkpt lat="44.09865612650572" lon="10.960216327669603"><ele>494.0</ele><time>2026-05-03T12:28:01.996Z</time></trkpt><trkpt lat="44.0988373380423" lon="10.960233872272429"><ele>494.0</ele><time>2026-05-03T12:28:02.996Z</time></trkpt><trkpt lat="44.09899181046211" lon="10.960258966763583"><ele>494.0</ele><time>2026-05-03T12:28:03.996Z</time></trkpt><trkpt lat="44.099131172291344" lon="10.960308668900417"><ele>494.0</ele><time>2026-05-03T12:28:04.996Z</time></trkpt><trkpt lat="44.09926813784696" lon="10.96035441445607"><ele>494.0</ele><time>2026-05-03T12:28:05.996Z</time></trkpt><trkpt lat="44.09939929688071" lon="10.960402482433619"><ele>493.75</ele><time>2026-05-03T12:28:06.996Z</time></trkpt><trkpt lat="44.0995086273743" lon="10.960483289387993"><ele>493.5</ele><time>2026-05-03T12:28:07.996Z</time></trkpt><trkpt lat="44.09963798763697" lon="10.960527475127805"><ele>493.25</ele><time>2026-05-03T12:28:08.996Z</time></trkpt><trkpt lat="44.099772315781955" lon="10.960606172225956"><ele>493.0</ele><time>2026-05-03T12:28:09.996Z</time></trkpt><trkpt lat="44.099895718612686" lon="10.960678307250115"><ele>491.75</ele><time>2026-05-03T12:28:10.996Z</time></trkpt><trkpt lat="44.100018427590925" lon="10.960754406371693"><ele>490.5</ele><time>2026-05-03T12:28:11.996Z</time></trkpt><trkpt lat="44.100126568160675" lon="10.960833099338007"><ele>489.25</ele><time>2026-05-03T12:28:12.996Z</time></trkpt><trkpt lat="44.10023552416531" lon="10.960902278524667"><ele>488.0</ele><time>2026-05-03T12:28:13.996Z</time></trkpt><trkpt lat="44.100353886421715" lon="10.96095596854057"><ele>488.0</ele><time>2026-05-03T12:28:14.996Z</time></trkpt><trkpt lat="44.100478419361366" lon="10.961049283860495"><ele>488.0</ele><time>2026-05-03T12:28:15.996Z</time></trkpt><trkpt lat="44.10055322880497" lon="10.961180719482584"><ele>488.0</ele><time>2026-05-03T12:28:16.996Z</time></trkpt><trkpt lat="44.10062794785877" lon="10.96129810828499"><ele>488.0</ele><time>2026-05-03T12:28:17.996Z</time></trkpt><trkpt lat="44.10074992787077" lon="10.961347938508831"><ele>490.0</ele><time>2026-05-03T12:28:18.996Z</time></trkpt><trkpt lat="44.10088032829174" lon="10.961411090631954"><ele>492.0</ele><time>2026-05-03T12:28:19.996Z</time></trkpt><trkpt lat="44.10102181687406" lon="10.961491855477181"><ele>494.0</ele><time>2026-05-03T12:28:20.996Z</time></trkpt><trkpt lat="44.10118255122612" lon="10.961566586321387"><ele>494.0</ele><time>2026-05-03T12:28:21.996Z</time></trkpt><trkpt lat="44.101338102678575" lon="10.961644030323862"><ele>494.0</ele><time>2026-05-03T12:28:22.996Z</time></trkpt><trkpt lat="44.10147425126375" lon="10.961756767402795"><ele>494.0</ele><time>2026-05-03T12:28:23.996Z</time></trkpt><trkpt lat="44.1016000182046" lon="10.96189963985072"><ele>494.3333333333333</ele><time>2026-05-03T12:28:24.996Z</time></trkpt><trkpt lat="44.10173403693616" lon="10.962057068139716"><ele>494.66666666666663</ele><time>2026-05-03T12:28:25.996Z</time></trkpt><trkpt lat="44.101853401160646" lon="10.962219593615263"><ele>495.0</ele><time>2026-05-03T12:28:26.996Z</time></trkpt><trkpt lat="44.101963522466804" lon="10.962390824081945"><ele>492.33333333333337</ele><time>2026-05-03T12:28:27.996Z</time></trkpt><trkpt lat="44.102079522920995" lon="10.96257884984175"><ele>489.6666666666667</ele><time>2026-05-03T12:28:28.996Z</time></trkpt><trkpt lat="44.10218746731341" lon="10.962767673683784"><ele>487.0</ele><time>2026-05-03T12:28:29.996Z</time></trkpt><trkpt lat="44.1022863924909" lon="10.962983576716347"><ele>487.0</ele><time>2026-05-03T12:28:30.996Z</time></trkpt><trkpt lat="44.10236819164048" lon="10.963182588938219"><ele>487.0</ele><time>2026-05-03T12:28:31.996Z</time></trkpt><trkpt lat="44.102436916257" lon="10.963369443544881"><ele>487.0</ele><time>2026-05-03T12:28:32.996Z</time></trkpt><trkpt lat="44.1024933481344" lon="10.963558517026623"><ele>491.33333333333337</ele><time>2026-05-03T12:28:33.996Z</time></trkpt><trkpt lat="44.102538579092325" lon="10.963750870554748"><ele>495.66666666666663</ele><time>2026-05-03T12:28:34.996Z</time></trkpt><trkpt lat="44.10256776351041" lon="10.96395509680594"><ele>500.0</ele><time>2026-05-03T12:28:35.996Z</time></trkpt><trkpt lat="44.102627752061444" lon="10.96415518887792"><ele>497.0</ele><time>2026-05-03T12:28:36.996Z</time></trkpt><trkpt lat="44.10267653309958" lon="10.964347601916629"><ele>494.0</ele><time>2026-05-03T12:28:37.996Z</time></trkpt><trkpt lat="44.10273905013648" lon="10.964538252408168"><ele>491.0</ele><time>2026-05-03T12:28:38.996Z</time></trkpt><trkpt lat="44.102823640546134" lon="10.964724619657218"><ele>491.0</ele><time>2026-05-03T12:28:39.996Z</time></trkpt><trkpt lat="44.102882847566896" lon="10.964907261871682"><ele>491.0</ele><time>2026-05-03T12:28:40.996Z</time></trkpt><trkpt lat="44.102948921888206" lon="10.96507133176216"><ele>491.0</ele><time>2026-05-03T12:28:41.996Z</time></trkpt><trkpt lat="44.10300129275234" lon="10.965214572742918"><ele>491.0</ele><time>2026-05-03T12:28:42.996Z</time></trkpt><trkpt lat="44.103067038207236" lon="10.965318772766853"><ele>491.6</ele><time>2026-05-03T12:28:43.996Z</time></trkpt><trkpt lat="44.10314699310821" lon="10.965412314373914"><ele>492.20000000000005</ele><time>2026-05-03T12:28:44.996Z</time></trkpt><trkpt lat="44.10322878151384" lon="10.965444590151318"><ele>492.79999999999995</ele><time>2026-05-03T12:28:45.996Z</time></trkpt><trkpt lat="44.103365503496526" lon="10.965416179467974"><ele>493.4</ele><time>2026-05-03T12:28:46.996Z</time></trkpt><trkpt lat="44.103476968765236" lon="10.965401533354536"><ele>494.0</ele><time>2026-05-03T12:28:47.996Z</time></trkpt><trkpt lat="44.1035642285303" lon="10.965453732352037"><ele>494.0</ele><time>2026-05-03T12:28:48.996Z</time></trkpt><trkpt lat="44.103647383894014" lon="10.965549004914976"><ele>494.0</ele><time>2026-05-03T12:28:49.996Z</time></trkpt><trkpt lat="44.10371671394659" lon="10.96567323441787"><ele>494.0</ele><time>2026-05-03T12:28:50.996Z</time></trkpt><trkpt lat="44.103740197892684" lon="10.96578251051418"><ele>494.0</ele><time>2026-05-03T12:28:51.996Z</time></trkpt><trkpt lat="44.10373586152264" lon="10.965889723910246"><ele>494.0</ele><time>2026-05-03T12:28:52.996Z</time></trkpt><trkpt lat="44.10374473464093" lon="10.966011792490706"><ele>493.2</ele><time>2026-05-03T12:28:53.996Z</time></trkpt><trkpt lat="44.10379386364663" lon="10.966084297176652"><ele>492.4</ele><time>2026-05-03T12:28:54.996Z</time></trkpt><trkpt lat="44.10389188173583" lon="10.966099423229034"><ele>491.6</ele><time>2026-05-03T12:28:55.996Z</time></trkpt><trkpt lat="44.10400945585784" lon="10.966090923673107"><ele>490.8</ele><time>2026-05-03T12:28:56.996Z</time></trkpt><trkpt lat="44.104164779403824" lon="10.966071389158035"><ele>490.0</ele><time>2026-05-03T12:28:57.996Z</time></trkpt><trkpt lat="44.10433660231406" lon="10.96603663633901"><ele>488.6666666666667</ele><time>2026-05-03T12:28:58.996Z</time></trkpt><trkpt lat="44.104501943368334" lon="10.966024976222531"><ele>487.33333333333337</ele><time>2026-05-03T12:28:59.996Z</time></trkpt><trkpt lat="44.104678582398066" lon="10.966025681626538"><ele>486.0</ele><time>2026-05-03T12:29:00.996Z</time></trkpt><trkpt lat="44.1048371927739" lon="10.966025290278862"><ele>488.66666666666663</ele><time>2026-05-03T12:29:01.996Z</time></trkpt><trkpt lat="44.10501981240106" lon="10.966037320142767"><ele>491.3333333333333</ele><time>2026-05-03T12:29:02.996Z</time></trkpt><trkpt lat="44.10520927249909" lon="10.96599500624083"><ele>494.0</ele><time>2026-05-03T12:29:03.996Z</time></trkpt><trkpt lat="44.10537184502297" lon="10.965996211057766"><ele>494.0</ele><time>2026-05-03T12:29:04.996Z</time></trkpt><trkpt lat="44.10551436022178" lon="10.966007325879842"><ele>494.0</ele><time>2026-05-03T12:29:05.996Z</time></trkpt><trkpt lat="44.105661644836125" lon="10.966023744188334"><ele>494.0</ele><time>2026-05-03T12:29:06.996Z</time></trkpt><trkpt lat="44.1058149753175" lon="10.966007506062242"><ele>494.0</ele><time>2026-05-03T12:29:07.996Z</time></trkpt><trkpt lat="44.10594113409557" lon="10.966038854138759"><ele>495.5</ele><time>2026-05-03T12:29:08.996Z</time></trkpt><trkpt lat="44.10606638768026" lon="10.966123034533007"><ele>497.0</ele><time>2026-05-03T12:29:09.996Z</time></trkpt><trkpt lat="44.106205819810675" lon="10.96619844792659"><ele>498.5</ele><time>2026-05-03T12:29:10.996Z</time></trkpt><trkpt lat="44.10633834306419" lon="10.966309881827518"><ele>500.0</ele><time>2026-05-03T12:29:11.996Z</time></trkpt><trkpt lat="44.1064783431338" lon="10.96643667104783"><ele>500.3333333333333</ele><time>2026-05-03T12:29:12.996Z</time></trkpt><trkpt lat="44.10660114008301" lon="10.966604926596546"><ele>500.66666666666663</ele><time>2026-05-03T12:29:13.996Z</time></trkpt><trkpt lat="44.10670551740645" lon="10.96674693368451"><ele>501.0</ele><time>2026-05-03T12:29:14.996Z</time></trkpt><trkpt lat="44.10681495833813" lon="10.966911231734983"><ele>501.0</ele><time>2026-05-03T12:29:15.996Z</time></trkpt><trkpt lat="44.10692679463871" lon="10.967102292053482"><ele>501.0</ele><time>2026-05-03T12:29:16.996Z</time></trkpt><trkpt lat="44.10700108153823" lon="10.967311922074774"><ele>501.0</ele><time>2026-05-03T12:29:17.996Z</time></trkpt><trkpt lat="44.1070712425707" lon="10.967550979870042"><ele>496.0</ele><time>2026-05-03T12:29:18.996Z</time></trkpt><trkpt lat="44.107135676651374" lon="10.967762320470095"><ele>491.0</ele><time>2026-05-03T12:29:19.996Z</time></trkpt><trkpt lat="44.10718432515004" lon="10.967962045767207"><ele>486.0</ele><time>2026-05-03T12:29:20.996Z</time></trkpt><trkpt lat="44.10721173628685" lon="10.968166034180104"><ele>486.0</ele><time>2026-05-03T12:29:21.996Z</time></trkpt><trkpt lat="44.10724580263144" lon="10.96833645025919"><ele>486.0</ele><time>2026-05-03T12:29:22.996Z</time></trkpt><trkpt lat="44.10730820207328" lon="10.968440190288998"><ele>486.0</ele><time>2026-05-03T12:29:23.996Z</time></trkpt><trkpt lat="44.10737775560497" lon="10.96852739296404"><ele>486.0</ele><time>2026-05-03T12:29:24.996Z</time></trkpt><trkpt lat="44.10748109093618" lon="10.96851846831397"><ele>486.0</ele><time>2026-05-03T12:29:25.996Z</time></trkpt><trkpt lat="44.10757191367293" lon="10.968466528604628"><ele>484.75</ele><time>2026-05-03T12:29:26.996Z</time></trkpt><trkpt lat="44.10767830262924" lon="10.968363105443888"><ele>483.5</ele><time>2026-05-03T12:29:27.996Z</time></trkpt><trkpt lat="44.10776366508928" lon="10.968190386368015"><ele>482.25</ele><time>2026-05-03T12:29:28.996Z</time></trkpt><trkpt lat="44.10783617013653" lon="10.967978426865743"><ele>481.0</ele><time>2026-05-03T12:29:29.996Z</time></trkpt><trkpt lat="44.1078993715514" lon="10.967798239805331"><ele>490.33333333333337</ele><time>2026-05-03T12:29:30.996Z</time></trkpt><trkpt lat="44.10795520271012" lon="10.967606447896133"><ele>499.66666666666663</ele><time>2026-05-03T12:29:31.996Z</time></trkpt><trkpt lat="44.10801270695397" lon="10.967387952708034"><ele>509.0</ele><time>2026-05-03T12:29:32.996Z</time></trkpt><trkpt lat="44.108049318599775" lon="10.967156216155814"><ele>516.6666666666666</ele><time>2026-05-03T12:29:33.996Z</time></trkpt><trkpt lat="44.108065496750655" lon="10.966935990455726"><ele>524.3333333333334</ele><time>2026-05-03T12:29:34.996Z</time></trkpt><trkpt lat="44.10811629177569" lon="10.966735324927859"><ele>532.0</ele><time>2026-05-03T12:29:35.996Z</time></trkpt><trkpt lat="44.10817540627994" lon="10.966523948029154"><ele>528.75</ele><time>2026-05-03T12:29:36.996Z</time></trkpt><trkpt lat="44.10825801083687" lon="10.966349910382297"><ele>525.5</ele><time>2026-05-03T12:29:37.996Z</time></trkpt><trkpt lat="44.10835304731348" lon="10.966200232516726"><ele>522.25</ele><time>2026-05-03T12:29:38.996Z</time></trkpt><trkpt lat="44.10842822498485" lon="10.966077138482929"><ele>519.0</ele><time>2026-05-03T12:29:39.996Z</time></trkpt><trkpt lat="44.10849206382154" lon="10.965955458783485"><ele>524.6</ele><time>2026-05-03T12:29:40.996Z</time></trkpt><trkpt lat="44.108550290460904" lon="10.965807017225933"><ele>530.2</ele><time>2026-05-03T12:29:41.996Z</time></trkpt><trkpt lat="44.10856756310417" lon="10.965652609287483"><ele>535.8000000000001</ele><time>2026-05-03T12:29:42.996Z</time></trkpt><trkpt lat="44.10855208224131" lon="10.965495303547588"><ele>541.4</ele><time>2026-05-03T12:29:43.996Z</time></trkpt><trkpt lat="44.10854665627701" lon="10.96537490219211"><ele>547.0</ele><time>2026-05-03T12:29:44.996Z</time></trkpt><trkpt lat="44.10864670140626" lon="10.965309012884324"><ele>547.0</ele><time>2026-05-03T12:29:46.996Z</time></trkpt><trkpt lat="44.10874945506652" lon="10.965345011150944"><ele>547.0</ele><time>2026-05-03T12:29:47.996Z</time></trkpt><trkpt lat="44.10884936828733" lon="10.965412611037129"><ele>547.0</ele><time>2026-05-03T12:29:48.996Z</time></trkpt><trkpt lat="44.10890009192097" lon="10.96551083133215"><ele>547.0</ele><time>2026-05-03T12:29:49.996Z</time></trkpt><trkpt lat="44.10893667424307" lon="10.965667077577965"><ele>547.0</ele><time>2026-05-03T12:29:50.996Z</time></trkpt><trkpt lat="44.10893374435631" lon="10.965933594355946"><ele>540.0</ele><time>2026-05-03T12:29:51.995Z</time></trkpt><trkpt lat="44.108957155914446" lon="10.966174094813859"><ele>533.0</ele><time>2026-05-03T12:29:52.995Z</time></trkpt><trkpt lat="44.108962313025856" lon="10.966347230762715"><ele>526.0</ele><time>2026-05-03T12:29:53.995Z</time></trkpt><trkpt lat="44.10897090677755" lon="10.966479520852902"><ele>519.0</ele><time>2026-05-03T12:29:54.995Z</time></trkpt><trkpt lat="44.10899537126078" lon="10.96657468158962"><ele>519.0</ele><time>2026-05-03T12:29:55.995Z</time></trkpt><trkpt lat="44.10904973739903" lon="10.966622010355982"><ele>519.0</ele><time>2026-05-03T12:29:56.995Z</time></trkpt><trkpt lat="44.109150058227584" lon="10.96661933757469"><ele>519.0</ele><time>2026-05-03T12:29:57.995Z</time></trkpt><trkpt lat="44.10924459714313" lon="10.966597576347372"><ele>519.0</ele><time>2026-05-03T12:29:58.995Z</time></trkpt><trkpt lat="44.109375280636186" lon="10.966544604578727"><ele>519.0</ele><time>2026-05-03T12:29:59.995Z</time></trkpt><trkpt lat="44.10950257520532" lon="10.966455193490376"><ele>520.8</ele><time>2026-05-03T12:30:00.995Z</time></trkpt><trkpt lat="44.10961673464317" lon="10.966341890989717"><ele>522.5999999999999</ele><time>2026-05-03T12:30:01.995Z</time></trkpt><trkpt lat="44.10969802745973" lon="10.966293934277846"><ele>524.4</ele><time>2026-05-03T12:30:02.995Z</time></trkpt><trkpt lat="44.10980191301678" lon="10.966292441811918"><ele>526.1999999999999</ele><time>2026-05-03T12:30:03.995Z</time></trkpt><trkpt lat="44.10990328054714" lon="10.966346175143652"><ele>528.0</ele><time>2026-05-03T12:30:04.995Z</time></trkpt><trkpt lat="44.11001951710669" lon="10.966441645429205"><ele>528.0</ele><time>2026-05-03T12:30:05.995Z</time></trkpt><trkpt lat="44.110145627945975" lon="10.96655514542539"><ele>528.0</ele><time>2026-05-03T12:30:06.995Z</time></trkpt><trkpt lat="44.110264795142044" lon="10.96666675582528"><ele>528.0</ele><time>2026-05-03T12:30:07.995Z</time></trkpt><trkpt lat="44.110355267331066" lon="10.966772638560366"><ele>528.0</ele><time>2026-05-03T12:30:08.995Z</time></trkpt><trkpt lat="44.11044662249246" lon="10.966846866991606"><ele>517.5</ele><time>2026-05-03T12:30:09.995Z</time></trkpt><trkpt lat="44.110523212550696" lon="10.966966660372483"><ele>507.0</ele><time>2026-05-03T12:30:10.995Z</time></trkpt><trkpt lat="44.11058021797617" lon="10.967097582879584"><ele>496.5</ele><time>2026-05-03T12:30:11.995Z</time></trkpt><trkpt lat="44.11061681872506" lon="10.967268382641834"><ele>486.0</ele><time>2026-05-03T12:30:12.995Z</time></trkpt><trkpt lat="44.11066526935115" lon="10.967461539300714"><ele>482.75</ele><time>2026-05-03T12:30:13.995Z</time></trkpt><trkpt lat="44.11072316820667" lon="10.967689896280627"><ele>479.5</ele><time>2026-05-03T12:30:14.995Z</time></trkpt><trkpt lat="44.11079479489601" lon="10.967868673212983"><ele>476.25</ele><time>2026-05-03T12:30:15.995Z</time></trkpt><trkpt lat="44.11086690868374" lon="10.96798964027699"><ele>473.0</ele><time>2026-05-03T12:30:16.995Z</time></trkpt><trkpt lat="44.11092478495172" lon="10.968098562154928"><ele>481.0</ele><time>2026-05-03T12:30:17.995Z</time></trkpt><trkpt lat="44.111004916338345" lon="10.968144157435216"><ele>488.99999999999994</ele><time>2026-05-03T12:30:18.995Z</time></trkpt><trkpt lat="44.1110754704556" lon="10.968172171445955"><ele>496.99999999999994</ele><time>2026-05-03T12:30:19.995Z</time></trkpt><trkpt lat="44.11117655677422" lon="10.968137713649549"><ele>505.0</ele><time>2026-05-03T12:30:20.995Z</time></trkpt><trkpt lat="44.111249595067505" lon="10.96805548414434"><ele>513.0</ele><time>2026-05-03T12:30:21.995Z</time></trkpt><trkpt lat="44.111330171547884" lon="10.967910726069768"><ele>513.0</ele><time>2026-05-03T12:30:22.995Z</time></trkpt><trkpt lat="44.11142360566858" lon="10.967753095183152"><ele>513.0</ele><time>2026-05-03T12:30:23.995Z</time></trkpt><trkpt lat="44.11151108569962" lon="10.96757507292592"><ele>513.0</ele><time>2026-05-03T12:30:24.995Z</time></trkpt><trkpt lat="44.1116020177103" lon="10.967407403691979"><ele>516.0</ele><time>2026-05-03T12:30:25.995Z</time></trkpt><trkpt lat="44.11170220184843" lon="10.967246666970201"><ele>519.0</ele><time>2026-05-03T12:30:26.995Z</time></trkpt><trkpt lat="44.1117781985351" lon="10.967153675265225"><ele>522.0</ele><time>2026-05-03T12:30:27.995Z</time></trkpt><trkpt lat="44.11185758717171" lon="10.967097324613869"><ele>525.0</ele><time>2026-05-03T12:30:28.995Z</time></trkpt><trkpt lat="44.11197401638335" lon="10.967112891441714"><ele>525.0</ele><time>2026-05-03T12:30:29.995Z</time></trkpt><trkpt lat="44.11210120242608" lon="10.967128104961686"><ele>525.0</ele><time>2026-05-03T12:30:30.995Z</time></trkpt><trkpt lat="44.11223875723912" lon="10.9671626497442"><ele>525.0</ele><time>2026-05-03T12:30:31.995Z</time></trkpt><trkpt lat="44.11235707768394" lon="10.967188632816583"><ele>525.0</ele><time>2026-05-03T12:30:32.995Z</time></trkpt><trkpt lat="44.112461896750744" lon="10.967195949855087"><ele>523.5</ele><time>2026-05-03T12:30:33.995Z</time></trkpt><trkpt lat="44.112561838750295" lon="10.967163287516495"><ele>522.0</ele><time>2026-05-03T12:30:34.995Z</time></trkpt><trkpt lat="44.112661612737625" lon="10.967108032838565"><ele>520.5</ele><time>2026-05-03T12:30:35.995Z</time></trkpt><trkpt lat="44.112771591087544" lon="10.967059356374255"><ele>519.0</ele><time>2026-05-03T12:30:36.995Z</time></trkpt><trkpt lat="44.11289471809839" lon="10.967028900305314"><ele>519.0</ele><time>2026-05-03T12:30:37.995Z</time></trkpt><trkpt lat="44.113015421231665" lon="10.967036099319541"><ele>519.0</ele><time>2026-05-03T12:30:38.995Z</time></trkpt><trkpt lat="44.11312395973348" lon="10.967043308528586"><ele>519.0</ele><time>2026-05-03T12:30:39.995Z</time></trkpt><trkpt lat="44.11321726809597" lon="10.967039140440193"><ele>519.0</ele><time>2026-05-03T12:30:40.995Z</time></trkpt><trkpt lat="44.113316652598364" lon="10.967010993256823"><ele>519.0</ele><time>2026-05-03T12:30:41.995Z</time></trkpt><trkpt lat="44.113408614055544" lon="10.966996316046483"><ele>518.8333333333334</ele><time>2026-05-03T12:30:42.995Z</time></trkpt><trkpt lat="44.11348046716491" lon="10.966935950898426"><ele>518.6666666666666</ele><time>2026-05-03T12:30:43.995Z</time></trkpt><trkpt lat="44.113537576805854" lon="10.966885966251551"><ele>518.5</ele><time>2026-05-03T12:30:44.995Z</time></trkpt><trkpt lat="44.11361017854055" lon="10.96681667717339"><ele>518.3333333333333</ele><time>2026-05-03T12:30:45.995Z</time></trkpt><trkpt lat="44.1136594453361" lon="10.966688801306255"><ele>518.1666666666666</ele><time>2026-05-03T12:30:46.995Z</time></trkpt><trkpt lat="44.113713199763694" lon="10.966592079401684"><ele>518.0</ele><time>2026-05-03T12:30:47.995Z</time></trkpt><trkpt lat="44.11376862800826" lon="10.96652148072288"><ele>521.8</ele><time>2026-05-03T12:30:48.995Z</time></trkpt><trkpt lat="44.11384904470022" lon="10.966456779664817"><ele>525.5999999999999</ele><time>2026-05-03T12:30:49.995Z</time></trkpt><trkpt lat="44.11392948712981" lon="10.966401096731824"><ele>529.4000000000001</ele><time>2026-05-03T12:30:50.995Z</time></trkpt><trkpt lat="44.11399063348622" lon="10.966353984759344"><ele>533.2</ele><time>2026-05-03T12:30:51.995Z</time></trkpt><trkpt lat="44.11404993238023" lon="10.966275611296764"><ele>537.0</ele><time>2026-05-03T12:30:52.995Z</time></trkpt><trkpt lat="44.11417038403718" lon="10.966250594454316"><ele>537.0</ele><time>2026-05-03T12:30:54.995Z</time></trkpt><trkpt lat="44.11424923138916" lon="10.966291558878154"><ele>537.0</ele><time>2026-05-03T12:30:55.995Z</time></trkpt><trkpt lat="44.114311032084316" lon="10.966452248875221"><ele>537.0</ele><time>2026-05-03T12:30:57.995Z</time></trkpt><trkpt lat="44.114324156240926" lon="10.96659804308734"><ele>537.0</ele><time>2026-05-03T12:30:58.995Z</time></trkpt><trkpt lat="44.11434064056147" lon="10.966786540923438"><ele>531.0</ele><time>2026-05-03T12:30:59.995Z</time></trkpt><trkpt lat="44.11436283140382" lon="10.96701253566096"><ele>525.0</ele><time>2026-05-03T12:31:00.995Z</time></trkpt><trkpt lat="44.11442494109649" lon="10.967230834994753"><ele>519.0</ele><time>2026-05-03T12:31:01.995Z</time></trkpt><trkpt lat="44.1145017784184" lon="10.967449384530813"><ele>510.25</ele><time>2026-05-03T12:31:02.995Z</time></trkpt><trkpt lat="44.114559994685465" lon="10.967634343525253"><ele>501.5</ele><time>2026-05-03T12:31:03.995Z</time></trkpt><trkpt lat="44.11459336726667" lon="10.967805627693275"><ele>492.75</ele><time>2026-05-03T12:31:04.995Z</time></trkpt><trkpt lat="44.11460411447917" lon="10.967986986264576"><ele>484.0</ele><time>2026-05-03T12:31:05.995Z</time></trkpt><trkpt lat="44.114608343598306" lon="10.968152040158005"><ele>484.0</ele><time>2026-05-03T12:31:06.995Z</time></trkpt><trkpt lat="44.11461287974546" lon="10.968328227775958"><ele>484.0</ele><time>2026-05-03T12:31:07.995Z</time></trkpt><trkpt lat="44.114655417539126" lon="10.968545285531606"><ele>484.0</ele><time>2026-05-03T12:31:08.995Z</time></trkpt><trkpt lat="44.11471105199375" lon="10.968717439042019"><ele>484.0</ele><time>2026-05-03T12:31:09.995Z</time></trkpt><trkpt lat="44.11477209528378" lon="10.968874313188687"><ele>485.6666666666667</ele><time>2026-05-03T12:31:10.995Z</time></trkpt><trkpt lat="44.1148151212319" lon="10.969035155702377"><ele>487.33333333333337</ele><time>2026-05-03T12:31:11.995Z</time></trkpt><trkpt lat="44.114829013034836" lon="10.969141451565697"><ele>489.0</ele><time>2026-05-03T12:31:12.995Z</time></trkpt><trkpt lat="44.11485963218039" lon="10.969221545377412"><ele>490.66666666666663</ele><time>2026-05-03T12:31:13.995Z</time></trkpt><trkpt lat="44.11493278008544" lon="10.969254504107797"><ele>492.3333333333333</ele><time>2026-05-03T12:31:14.995Z</time></trkpt><trkpt lat="44.11502682922573" lon="10.969192065399797"><ele>494.0</ele><time>2026-05-03T12:31:15.995Z</time></trkpt><trkpt lat="44.115137172356995" lon="10.969119802715761"><ele>494.0</ele><time>2026-05-03T12:31:16.995Z</time></trkpt><trkpt lat="44.11527955515274" lon="10.969059949358538"><ele>494.0</ele><time>2026-05-03T12:31:17.995Z</time></trkpt><trkpt lat="44.11541674454753" lon="10.968955895292837"><ele>494.0</ele><time>2026-05-03T12:31:18.995Z</time></trkpt><trkpt lat="44.115542176119526" lon="10.968853466451579"><ele>493.99999999999994</ele><time>2026-05-03T12:31:19.995Z</time></trkpt><trkpt lat="44.11564656939657" lon="10.968776161841511"><ele>494.0</ele><time>2026-05-03T12:31:20.995Z</time></trkpt><trkpt lat="44.115718133033695" lon="10.968701940063074"><ele>494.0</ele><time>2026-05-03T12:31:21.995Z</time></trkpt><trkpt lat="44.11578993811193" lon="10.968695160169046"><ele>494.0</ele><time>2026-05-03T12:31:22.995Z</time></trkpt><trkpt lat="44.115852014922226" lon="10.96872734388989"><ele>493.99999999999994</ele><time>2026-05-03T12:31:23.995Z</time></trkpt><trkpt lat="44.11589955014786" lon="10.968797885177969"><ele>494.0</ele><time>2026-05-03T12:31:24.995Z</time></trkpt><trkpt lat="44.11594681274214" lon="10.968931027146876"><ele>489.75</ele><time>2026-05-03T12:31:25.995Z</time></trkpt><trkpt lat="44.11596959919787" lon="10.969096762183717"><ele>485.5</ele><time>2026-05-03T12:31:26.995Z</time></trkpt><trkpt lat="44.11603941003957" lon="10.969210595900268"><ele>481.25</ele><time>2026-05-03T12:31:27.995Z</time></trkpt><trkpt lat="44.11614197106817" lon="10.96928827041323"><ele>477.0</ele><time>2026-05-03T12:31:28.995Z</time></trkpt><trkpt lat="44.116263244262115" lon="10.969357355565569"><ele>477.0</ele><time>2026-05-03T12:31:29.995Z</time></trkpt><trkpt lat="44.11639728423365" lon="10.969420109350226"><ele>477.0</ele><time>2026-05-03T12:31:30.995Z</time></trkpt><trkpt lat="44.116531396056374" lon="10.969496188617779"><ele>477.0</ele><time>2026-05-03T12:31:31.995Z</time></trkpt><trkpt lat="44.1166458201883" lon="10.969594582012096"><ele>477.0</ele><time>2026-05-03T12:31:32.995Z</time></trkpt><trkpt lat="44.11674062687886" lon="10.969713627384825"><ele>479.0</ele><time>2026-05-03T12:31:33.995Z</time></trkpt><trkpt lat="44.11683052195357" lon="10.969855020816144"><ele>481.0</ele><time>2026-05-03T12:31:34.995Z</time></trkpt><trkpt lat="44.11690377590568" lon="10.969994874161596"><ele>483.0</ele><time>2026-05-03T12:31:35.995Z</time></trkpt><trkpt lat="44.11696878819948" lon="10.970148059910708"><ele>485.0</ele><time>2026-05-03T12:31:36.995Z</time></trkpt><trkpt lat="44.117010585607204" lon="10.970335041856655"><ele>485.0</ele><time>2026-05-03T12:31:37.995Z</time></trkpt><trkpt lat="44.11705612120148" lon="10.97052573448317"><ele>485.0</ele><time>2026-05-03T12:31:38.995Z</time></trkpt><trkpt lat="44.11709929705386" lon="10.97072044705688"><ele>485.0</ele><time>2026-05-03T12:31:39.995Z</time></trkpt><trkpt lat="44.11713732598086" lon="10.970902203176895"><ele>485.0</ele><time>2026-05-03T12:31:40.995Z</time></trkpt><trkpt lat="44.11715914450919" lon="10.971070197008938"><ele>482.5</ele><time>2026-05-03T12:31:41.995Z</time></trkpt><trkpt lat="44.117159364301" lon="10.971254703802607"><ele>480.0</ele><time>2026-05-03T12:31:42.995Z</time></trkpt><trkpt lat="44.117166734808904" lon="10.97143364310868"><ele>477.5</ele><time>2026-05-03T12:31:43.995Z</time></trkpt><trkpt lat="44.117166368102815" lon="10.971629099117559"><ele>475.0</ele><time>2026-05-03T12:31:44.995Z</time></trkpt><trkpt lat="44.11718357659903" lon="10.971805667134852"><ele>473.0</ele><time>2026-05-03T12:31:45.995Z</time></trkpt><trkpt lat="44.11721065464118" lon="10.971951877432774"><ele>471.0</ele><time>2026-05-03T12:31:46.995Z</time></trkpt><trkpt lat="44.11726732799339" lon="10.972086811557867"><ele>469.0</ele><time>2026-05-03T12:31:47.995Z</time></trkpt><trkpt lat="44.11735958708582" lon="10.972222771484747"><ele>467.0</ele><time>2026-05-03T12:31:48.995Z</time></trkpt><trkpt lat="44.11747110104699" lon="10.972336830198662"><ele>465.66666666666663</ele><time>2026-05-03T12:31:49.995Z</time></trkpt><trkpt lat="44.11760911816546" lon="10.972426038216325"><ele>464.33333333333337</ele><time>2026-05-03T12:31:50.995Z</time></trkpt><trkpt lat="44.117764359286966" lon="10.972511146576064"><ele>463.0</ele><time>2026-05-03T12:31:51.995Z</time></trkpt><trkpt lat="44.117942304371546" lon="10.97261172386254"><ele>463.0</ele><time>2026-05-03T12:31:52.995Z</time></trkpt><trkpt lat="44.118108886694976" lon="10.972690120145792"><ele>463.0</ele><time>2026-05-03T12:31:53.995Z</time></trkpt><trkpt lat="44.118269655790975" lon="10.972762281614882"><ele>463.0</ele><time>2026-05-03T12:31:54.995Z</time></trkpt><trkpt lat="44.11840847247334" lon="10.972815032069809"><ele>469.0</ele><time>2026-05-03T12:31:55.995Z</time></trkpt><trkpt lat="44.11854693879273" lon="10.972897964535617"><ele>475.0</ele><time>2026-05-03T12:31:56.995Z</time></trkpt><trkpt lat="44.118651987834426" lon="10.972955527137742"><ele>481.0</ele><time>2026-05-03T12:31:57.995Z</time></trkpt><trkpt lat="44.11873602307123" lon="10.973039309129598"><ele>487.0</ele><time>2026-05-03T12:31:58.995Z</time></trkpt><trkpt lat="44.11880339995623" lon="10.973152416293052"><ele>487.0</ele><time>2026-05-03T12:31:59.995Z</time></trkpt><trkpt lat="44.11885070164369" lon="10.973293821453092"><ele>487.0</ele><time>2026-05-03T12:32:00.995Z</time></trkpt><trkpt lat="44.11887348588055" lon="10.973453821814612"><ele>487.0</ele><time>2026-05-03T12:32:01.995Z</time></trkpt><trkpt lat="44.118883330108744" lon="10.973613228597614"><ele>487.0</ele><time>2026-05-03T12:32:02.995Z</time></trkpt><trkpt lat="44.11889753557543" lon="10.973789676483067"><ele>483.8</ele><time>2026-05-03T12:32:03.995Z</time></trkpt><trkpt lat="44.1189131090709" lon="10.973963427413766"><ele>480.6</ele><time>2026-05-03T12:32:04.995Z</time></trkpt><trkpt lat="44.11891925911105" lon="10.97410527648202"><ele>477.40000000000003</ele><time>2026-05-03T12:32:05.995Z</time></trkpt><trkpt lat="44.11896385030425" lon="10.97423025329224"><ele>474.20000000000005</ele><time>2026-05-03T12:32:06.995Z</time></trkpt><trkpt lat="44.11901950581688" lon="10.97434055659175"><ele>471.0</ele><time>2026-05-03T12:32:07.995Z</time></trkpt><trkpt lat="44.1190907331132" lon="10.974420001530742"><ele>471.0</ele><time>2026-05-03T12:32:08.995Z</time></trkpt><trkpt lat="44.11918742617565" lon="10.974479911121588"><ele>471.0</ele><time>2026-05-03T12:32:09.995Z</time></trkpt><trkpt lat="44.119323348629045" lon="10.974502170574372"><ele>471.0</ele><time>2026-05-03T12:32:10.995Z</time></trkpt><trkpt lat="44.11949777668957" lon="10.974525285161928"><ele>471.0</ele><time>2026-05-03T12:32:11.995Z</time></trkpt><trkpt lat="44.11965343258301" lon="10.974559130831409"><ele>471.0</ele><time>2026-05-03T12:32:12.995Z</time></trkpt><trkpt lat="44.119806360787045" lon="10.974578817988741"><ele>471.0</ele><time>2026-05-03T12:32:13.995Z</time></trkpt><trkpt lat="44.11994868036935" lon="10.97461273848811"><ele>471.0</ele><time>2026-05-03T12:32:14.995Z</time></trkpt><trkpt lat="44.12004476676515" lon="10.974611615568413"><ele>471.0</ele><time>2026-05-03T12:32:15.995Z</time></trkpt><trkpt lat="44.120129666631684" lon="10.974660468107205"><ele>473.8</ele><time>2026-05-03T12:32:16.995Z</time></trkpt><trkpt lat="44.120203206496015" lon="10.974680417594415"><ele>476.6</ele><time>2026-05-03T12:32:17.995Z</time></trkpt><trkpt lat="44.12029360901989" lon="10.974741779575657"><ele>479.4</ele><time>2026-05-03T12:32:18.995Z</time></trkpt><trkpt lat="44.120374839259604" lon="10.974845011629824"><ele>482.2</ele><time>2026-05-03T12:32:19.995Z</time></trkpt><trkpt lat="44.120457506385115" lon="10.974967082423277"><ele>485.0</ele><time>2026-05-03T12:32:20.995Z</time></trkpt><trkpt lat="44.12053323300884" lon="10.975103982345892"><ele>486.8</ele><time>2026-05-03T12:32:21.995Z</time></trkpt><trkpt lat="44.12063242038526" lon="10.975210504188675"><ele>488.6</ele><time>2026-05-03T12:32:22.995Z</time></trkpt><trkpt lat="44.120721027162546" lon="10.975282322677339"><ele>490.4</ele><time>2026-05-03T12:32:23.995Z</time></trkpt><trkpt lat="44.12079319754436" lon="10.975360799519098"><ele>492.2</ele><time>2026-05-03T12:32:24.995Z</time></trkpt><trkpt lat="44.12080550438631" lon="10.975465292924595"><ele>494.0</ele><time>2026-05-03T12:32:25.995Z</time></trkpt><trkpt lat="44.12080388640295" lon="10.975577127453585"><ele>494.0</ele><time>2026-05-03T12:32:26.995Z</time></trkpt><trkpt lat="44.12078330708877" lon="10.975698742834501"><ele>494.0</ele><time>2026-05-03T12:32:27.995Z</time></trkpt><trkpt lat="44.12074926516831" lon="10.975856327977368"><ele>494.0</ele><time>2026-05-03T12:32:28.995Z</time></trkpt><trkpt lat="44.12071457808791" lon="10.976000138108038"><ele>494.0</ele><time>2026-05-03T12:32:29.995Z</time></trkpt><trkpt lat="44.120691531271014" lon="10.97613848757104"><ele>494.0</ele><time>2026-05-03T12:32:30.995Z</time></trkpt><trkpt lat="44.12067978159262" lon="10.976277821252696"><ele>486.25</ele><time>2026-05-03T12:32:31.995Z</time></trkpt><trkpt lat="44.12068103010852" lon="10.976432861413967"><ele>478.5</ele><time>2026-05-03T12:32:32.995Z</time></trkpt><trkpt lat="44.12070199504731" lon="10.976585458850883"><ele>470.75</ele><time>2026-05-03T12:32:33.995Z</time></trkpt><trkpt lat="44.120741542261186" lon="10.976733451631357"><ele>463.0</ele><time>2026-05-03T12:32:34.995Z</time></trkpt><trkpt lat="44.120794049923795" lon="10.976904120743205"><ele>463.0</ele><time>2026-05-03T12:32:35.995Z</time></trkpt><trkpt lat="44.12087426416025" lon="10.977087118673339"><ele>463.0</ele><time>2026-05-03T12:32:36.995Z</time></trkpt><trkpt lat="44.12094771249905" lon="10.977260283755829"><ele>463.0</ele><time>2026-05-03T12:32:37.995Z</time></trkpt><trkpt lat="44.12102376637293" lon="10.977425541296551"><ele>463.0</ele><time>2026-05-03T12:32:38.995Z</time></trkpt><trkpt lat="44.12114721017293" lon="10.977567191672513"><ele>459.0</ele><time>2026-05-03T12:32:39.995Z</time></trkpt><trkpt lat="44.121278675091595" lon="10.977672549279154"><ele>454.99999999999994</ele><time>2026-05-03T12:32:40.995Z</time></trkpt><trkpt lat="44.12137785438851" lon="10.977710626770387"><ele>450.99999999999994</ele><time>2026-05-03T12:32:41.995Z</time></trkpt><trkpt lat="44.12147786437454" lon="10.977734876791445"><ele>447.0</ele><time>2026-05-03T12:32:42.995Z</time></trkpt><trkpt lat="44.12155774322681" lon="10.977670666405821"><ele>443.0</ele><time>2026-05-03T12:32:43.995Z</time></trkpt><trkpt lat="44.121633625012045" lon="10.977550618459237"><ele>454.0</ele><time>2026-05-03T12:32:44.995Z</time></trkpt><trkpt lat="44.12172893280694" lon="10.977387984004759"><ele>465.0</ele><time>2026-05-03T12:32:45.995Z</time></trkpt><trkpt lat="44.121819754284545" lon="10.97721360149692"><ele>476.0</ele><time>2026-05-03T12:32:46.995Z</time></trkpt><trkpt lat="44.12192003009845" lon="10.977048519004832"><ele>476.0</ele><time>2026-05-03T12:32:47.995Z</time></trkpt><trkpt lat="44.12205226174012" lon="10.976911944642268"><ele>476.0</ele><time>2026-05-03T12:32:48.995Z</time></trkpt><trkpt lat="44.12218406898672" lon="10.976806296353105"><ele>476.0</ele><time>2026-05-03T12:32:49.995Z</time></trkpt><trkpt lat="44.12232271776254" lon="10.976700622665776"><ele>480.5</ele><time>2026-05-03T12:32:50.995Z</time></trkpt><trkpt lat="44.12243272385383" lon="10.976639706773055"><ele>485.0</ele><time>2026-05-03T12:32:51.995Z</time></trkpt><trkpt lat="44.12257216246237" lon="10.976614394688134"><ele>489.5</ele><time>2026-05-03T12:32:52.995Z</time></trkpt><trkpt lat="44.12273599710558" lon="10.976634529074534"><ele>494.0</ele><time>2026-05-03T12:32:53.995Z</time></trkpt><trkpt lat="44.1228796427817" lon="10.976654421188286"><ele>477.66666666666663</ele><time>2026-05-03T12:32:54.995Z</time></trkpt><trkpt lat="44.12302454080867" lon="10.97668675859034"><ele>461.33333333333337</ele><time>2026-05-03T12:32:55.995Z</time></trkpt><trkpt lat="44.12317837613581" lon="10.976751002091047"><ele>445.0</ele><time>2026-05-03T12:32:56.995Z</time></trkpt><trkpt lat="44.12332230756265" lon="10.976827199209662"><ele>445.0</ele><time>2026-05-03T12:32:57.995Z</time></trkpt><trkpt lat="44.123449622828026" lon="10.976891770317785"><ele>445.0</ele><time>2026-05-03T12:32:58.995Z</time></trkpt><trkpt lat="44.123570645704774" lon="10.9769522546829"><ele>445.0</ele><time>2026-05-03T12:32:59.995Z</time></trkpt><trkpt lat="44.12367709476092" lon="10.977053055713933"><ele>445.0</ele><time>2026-05-03T12:33:00.995Z</time></trkpt><trkpt lat="44.12375968139437" lon="10.977147612454939"><ele>445.00000000000006</ele><time>2026-05-03T12:33:01.995Z</time></trkpt><trkpt lat="44.12382775811813" lon="10.977211165283709"><ele>445.0</ele><time>2026-05-03T12:33:02.995Z</time></trkpt><trkpt lat="44.12391806557525" lon="10.977241816182538"><ele>445.0</ele><time>2026-05-03T12:33:03.995Z</time></trkpt><trkpt lat="44.124005816270135" lon="10.977172139875007"><ele>445.0</ele><time>2026-05-03T12:33:04.995Z</time></trkpt><trkpt lat="44.12408040502424" lon="10.977104573622212"><ele>445.00000000000006</ele><time>2026-05-03T12:33:05.995Z</time></trkpt><trkpt lat="44.12416018745976" lon="10.977065721884463"><ele>445.0</ele><time>2026-05-03T12:33:06.995Z</time></trkpt><trkpt lat="44.124234474983425" lon="10.977098055764156"><ele>450.6</ele><time>2026-05-03T12:33:07.995Z</time></trkpt><trkpt lat="44.12430622263999" lon="10.977177924782547"><ele>456.2</ele><time>2026-05-03T12:33:08.995Z</time></trkpt><trkpt lat="44.1243391525408" lon="10.977282412434935"><ele>461.79999999999995</ele><time>2026-05-03T12:33:09.995Z</time></trkpt><trkpt lat="44.124321582095114" lon="10.977428764123468"><ele>467.4</ele><time>2026-05-03T12:33:10.995Z</time></trkpt><trkpt lat="44.12428434022407" lon="10.977574845606924"><ele>473.0</ele><time>2026-05-03T12:33:11.995Z</time></trkpt><trkpt lat="44.12424382987871" lon="10.977747274511316"><ele>473.0</ele><time>2026-05-03T12:33:12.995Z</time></trkpt><trkpt lat="44.12417437704138" lon="10.977902063261103"><ele>472.99999999999994</ele><time>2026-05-03T12:33:13.995Z</time></trkpt><trkpt lat="44.12408565711696" lon="10.978022220456257"><ele>472.99999999999994</ele><time>2026-05-03T12:33:14.995Z</time></trkpt><trkpt lat="44.124020186039935" lon="10.978111517960846"><ele>473.0</ele><time>2026-05-03T12:33:15.995Z</time></trkpt><trkpt lat="44.12393532697261" lon="10.978192816216303"><ele>473.0</ele><time>2026-05-03T12:33:16.995Z</time></trkpt><trkpt lat="44.123917221321456" lon="10.978351345570852"><ele>457.66666666666663</ele><time>2026-05-03T12:33:17.995Z</time></trkpt><trkpt lat="44.12392283726207" lon="10.97855135633832"><ele>442.33333333333337</ele><time>2026-05-03T12:33:18.995Z</time></trkpt><trkpt lat="44.123947169877255" lon="10.978759116279887"><ele>427.0</ele><time>2026-05-03T12:33:19.995Z</time></trkpt><trkpt lat="44.123967933887975" lon="10.978977228259744"><ele>426.6666666666667</ele><time>2026-05-03T12:33:20.995Z</time></trkpt><trkpt lat="44.12398201342814" lon="10.979212148942667"><ele>426.33333333333337</ele><time>2026-05-03T12:33:21.995Z</time></trkpt><trkpt lat="44.12398563249885" lon="10.979448986358404"><ele>426.0</ele><time>2026-05-03T12:33:22.995Z</time></trkpt><trkpt lat="44.12399480545294" lon="10.979682953486455"><ele>426.0</ele><time>2026-05-03T12:33:23.995Z</time></trkpt><trkpt lat="44.12398466319086" lon="10.979892597128492"><ele>426.0</ele><time>2026-05-03T12:33:24.995Z</time></trkpt><trkpt lat="44.12396085937607" lon="10.980112375472542"><ele>426.0</ele><time>2026-05-03T12:33:25.995Z</time></trkpt><trkpt lat="44.12394292428011" lon="10.980326143153254"><ele>426.25</ele><time>2026-05-03T12:33:26.995Z</time></trkpt><trkpt lat="44.123899618745156" lon="10.980519635862644"><ele>426.5</ele><time>2026-05-03T12:33:27.995Z</time></trkpt><trkpt lat="44.12385328097194" lon="10.980709813751304"><ele>426.75</ele><time>2026-05-03T12:33:28.995Z</time></trkpt><trkpt lat="44.12380924982964" lon="10.98088261440653"><ele>427.0</ele><time>2026-05-03T12:33:29.995Z</time></trkpt><trkpt lat="44.123774214602165" lon="10.981035018979005"><ele>426.6</ele><time>2026-05-03T12:33:30.995Z</time></trkpt><trkpt lat="44.12377610525831" lon="10.981176947654927"><ele>426.20000000000005</ele><time>2026-05-03T12:33:31.995Z</time></trkpt><trkpt lat="44.12380718383634" lon="10.981274403943205"><ele>425.8</ele><time>2026-05-03T12:33:32.995Z</time></trkpt><trkpt lat="44.12386969972675" lon="10.981376871456156"><ele>425.4</ele><time>2026-05-03T12:33:33.995Z</time></trkpt><trkpt lat="44.12397818478484" lon="10.981494905869386"><ele>425.0</ele><time>2026-05-03T12:33:34.995Z</time></trkpt><trkpt lat="44.12409132066811" lon="10.981606967069235"><ele>423.0</ele><time>2026-05-03T12:33:35.995Z</time></trkpt><trkpt lat="44.124205512039595" lon="10.981721466067295"><ele>421.0</ele><time>2026-05-03T12:33:36.995Z</time></trkpt><trkpt lat="44.1243524123326" lon="10.981855320321595"><ele>419.0</ele><time>2026-05-03T12:33:37.995Z</time></trkpt><trkpt lat="44.124513549789555" lon="10.981960264989246"><ele>419.0</ele><time>2026-05-03T12:33:38.995Z</time></trkpt><trkpt lat="44.12468068592563" lon="10.982024089239445"><ele>419.0</ele><time>2026-05-03T12:33:39.995Z</time></trkpt><trkpt lat="44.124841338976026" lon="10.982080951174218"><ele>419.0</ele><time>2026-05-03T12:33:40.995Z</time></trkpt><trkpt lat="44.124948641346165" lon="10.982139682596497"><ele>418.75</ele><time>2026-05-03T12:33:41.995Z</time></trkpt><trkpt lat="44.125040810753234" lon="10.982233821363055"><ele>418.5</ele><time>2026-05-03T12:33:42.995Z</time></trkpt><trkpt lat="44.12512567194115" lon="10.982320528243454"><ele>418.25</ele><time>2026-05-03T12:33:43.995Z</time></trkpt><trkpt lat="44.12521228576989" lon="10.98244864500229"><ele>418.0</ele><time>2026-05-03T12:33:44.995Z</time></trkpt><trkpt lat="44.12525408720461" lon="10.982599888138008"><ele>418.0</ele><time>2026-05-03T12:33:45.995Z</time></trkpt><trkpt lat="44.12529892839479" lon="10.982800815551169"><ele>418.0</ele><time>2026-05-03T12:33:46.995Z</time></trkpt><trkpt lat="44.125349924702405" lon="10.982993982940375"><ele>418.0</ele><time>2026-05-03T12:33:47.995Z</time></trkpt><trkpt lat="44.125378459460194" lon="10.983166251900766"><ele>418.0</ele><time>2026-05-03T12:33:48.995Z</time></trkpt><trkpt lat="44.12541592412173" lon="10.983316334827068"><ele>420.59999999999997</ele><time>2026-05-03T12:33:49.995Z</time></trkpt><trkpt lat="44.12546656923249" lon="10.983421220695195"><ele>423.2</ele><time>2026-05-03T12:33:50.995Z</time></trkpt><trkpt lat="44.125536118570686" lon="10.983523531224474"><ele>425.8</ele><time>2026-05-03T12:33:51.995Z</time></trkpt><trkpt lat="44.125634063851166" lon="10.983621486181182"><ele>428.4</ele><time>2026-05-03T12:33:52.995Z</time></trkpt><trkpt lat="44.125709655228434" lon="10.98370517148373"><ele>431.0</ele><time>2026-05-03T12:33:53.995Z</time></trkpt><trkpt lat="44.12574516019689" lon="10.983856071962665"><ele>431.25</ele><time>2026-05-03T12:33:54.995Z</time></trkpt><trkpt lat="44.125736069060956" lon="10.984021966716908"><ele>431.5</ele><time>2026-05-03T12:33:55.995Z</time></trkpt><trkpt lat="44.12572298679668" lon="10.984210779129022"><ele>431.75</ele><time>2026-05-03T12:33:56.995Z</time></trkpt><trkpt lat="44.12572438828964" lon="10.984406389817648"><ele>432.0</ele><time>2026-05-03T12:33:57.995Z</time></trkpt><trkpt lat="44.12571915746558" lon="10.984631981495"><ele>430.66666666666663</ele><time>2026-05-03T12:33:58.995Z</time></trkpt><trkpt lat="44.12572953191258" lon="10.984858545760234"><ele>429.3333333333333</ele><time>2026-05-03T12:33:59.995Z</time></trkpt><trkpt lat="44.12575292893374" lon="10.985092775688603"><ele>428.0</ele><time>2026-05-03T12:34:00.995Z</time></trkpt><trkpt lat="44.12578138393289" lon="10.985316334440085"><ele>425.5</ele><time>2026-05-03T12:34:01.995Z</time></trkpt><trkpt lat="44.12582470961279" lon="10.985522232525964"><ele>423.0</ele><time>2026-05-03T12:34:02.994Z</time></trkpt><trkpt lat="44.125876898529796" lon="10.985717353490324"><ele>420.5</ele><time>2026-05-03T12:34:03.994Z</time></trkpt><trkpt lat="44.125918088235615" lon="10.985888157622577"><ele>418.0</ele><time>2026-05-03T12:34:04.994Z</time></trkpt><trkpt lat="44.12596727878908" lon="10.986026972567396"><ele>416.0</ele><time>2026-05-03T12:34:05.994Z</time></trkpt><trkpt lat="44.12604920992178" lon="10.986140089333535"><ele>414.0</ele><time>2026-05-03T12:34:06.995Z</time></trkpt><trkpt lat="44.12616253643082" lon="10.986250656351512"><ele>412.0</ele><time>2026-05-03T12:34:07.995Z</time></trkpt><trkpt lat="44.12630137068394" lon="10.98636061315468"><ele>410.0</ele><time>2026-05-03T12:34:08.994Z</time></trkpt><trkpt lat="44.126450537257995" lon="10.986494498035183"><ele>411.3333333333333</ele><time>2026-05-03T12:34:09.994Z</time></trkpt><trkpt lat="44.12659628748461" lon="10.986635555719358"><ele>412.66666666666663</ele><time>2026-05-03T12:34:10.994Z</time></trkpt><trkpt lat="44.12674142928187" lon="10.98677256089347"><ele>414.0</ele><time>2026-05-03T12:34:11.995Z</time></trkpt><trkpt lat="44.12689567923787" lon="10.986900063545475"><ele>410.66666666666663</ele><time>2026-05-03T12:34:12.994Z</time></trkpt><trkpt lat="44.12704057326927" lon="10.987029912621328"><ele>407.3333333333333</ele><time>2026-05-03T12:34:13.994Z</time></trkpt><trkpt lat="44.12715347565975" lon="10.987152812718783"><ele>404.0</ele><time>2026-05-03T12:34:14.995Z</time></trkpt><trkpt lat="44.127248976700876" lon="10.987294026730511"><ele>404.0</ele><time>2026-05-03T12:34:15.994Z</time></trkpt><trkpt lat="44.12734327939972" lon="10.987448499443355"><ele>404.0</ele><time>2026-05-03T12:34:16.994Z</time></trkpt><trkpt lat="44.12743979100762" lon="10.987613614271302"><ele>404.0</ele><time>2026-05-03T12:34:17.994Z</time></trkpt><trkpt lat="44.127539734009844" lon="10.987769704186178"><ele>404.0</ele><time>2026-05-03T12:34:18.994Z</time></trkpt><trkpt lat="44.12764574462032" lon="10.987875463339735"><ele>403.0</ele><time>2026-05-03T12:34:19.994Z</time></trkpt><trkpt lat="44.12774252332786" lon="10.987954646074483"><ele>402.0</ele><time>2026-05-03T12:34:20.994Z</time></trkpt><trkpt lat="44.12784553961194" lon="10.988035994688275"><ele>401.0</ele><time>2026-05-03T12:34:21.994Z</time></trkpt><trkpt lat="44.12796172171075" lon="10.98812622405026"><ele>400.0</ele><time>2026-05-03T12:34:22.994Z</time></trkpt><trkpt lat="44.12806105487074" lon="10.988256201951863"><ele>399.6666666666667</ele><time>2026-05-03T12:34:23.994Z</time></trkpt><trkpt lat="44.1281359329424" lon="10.98842084898056"><ele>399.33333333333337</ele><time>2026-05-03T12:34:24.994Z</time></trkpt><trkpt lat="44.128214200016984" lon="10.988624457243969"><ele>399.0</ele><time>2026-05-03T12:34:25.994Z</time></trkpt><trkpt lat="44.128308419249976" lon="10.98884120712751"><ele>399.66666666666663</ele><time>2026-05-03T12:34:26.994Z</time></trkpt><trkpt lat="44.1283915265822" lon="10.989061551036434"><ele>400.3333333333333</ele><time>2026-05-03T12:34:27.994Z</time></trkpt><trkpt lat="44.12847774861092" lon="10.989291307431895"><ele>401.0</ele><time>2026-05-03T12:34:28.994Z</time></trkpt><trkpt lat="44.128570423870265" lon="10.989516074827234"><ele>399.3333333333333</ele><time>2026-05-03T12:34:29.994Z</time></trkpt><trkpt lat="44.12864765515164" lon="10.989724879396388"><ele>397.66666666666663</ele><time>2026-05-03T12:34:30.994Z</time></trkpt><trkpt lat="44.128728991006604" lon="10.98992749760574"><ele>396.0</ele><time>2026-05-03T12:34:31.994Z</time></trkpt><trkpt lat="44.128808172993644" lon="10.990113401522217"><ele>396.0</ele><time>2026-05-03T12:34:32.994Z</time></trkpt><trkpt lat="44.12886514005944" lon="10.990297483355048"><ele>396.0</ele><time>2026-05-03T12:34:33.994Z</time></trkpt><trkpt lat="44.128929621812105" lon="10.990471378715903"><ele>396.0</ele><time>2026-05-03T12:34:34.994Z</time></trkpt><trkpt lat="44.12899261516646" lon="10.990626509100428"><ele>396.0</ele><time>2026-05-03T12:34:35.994Z</time></trkpt><trkpt lat="44.12904855990265" lon="10.99075883251672"><ele>396.6</ele><time>2026-05-03T12:34:36.994Z</time></trkpt><trkpt lat="44.12908994714935" lon="10.99088733355645"><ele>397.20000000000005</ele><time>2026-05-03T12:34:37.994Z</time></trkpt><trkpt lat="44.12912820124105" lon="10.99102297663096"><ele>397.79999999999995</ele><time>2026-05-03T12:34:38.994Z</time></trkpt><trkpt lat="44.12916636489323" lon="10.991157880814754"><ele>398.4</ele><time>2026-05-03T12:34:39.994Z</time></trkpt><trkpt lat="44.129199290137215" lon="10.991290267502187"><ele>399.0</ele><time>2026-05-03T12:34:40.994Z</time></trkpt><trkpt lat="44.12921807498078" lon="10.991382503030477"><ele>399.0</ele><time>2026-05-03T12:34:41.994Z</time></trkpt><trkpt lat="44.12922657551948" lon="10.991528100280684"><ele>399.0</ele><time>2026-05-03T12:34:43.994Z</time></trkpt><trkpt lat="44.12921606321308" lon="10.991633731391811"><ele>399.0</ele><time>2026-05-03T12:34:45.994Z</time></trkpt><trkpt lat="44.12922511561811" lon="10.991744886130538"><ele>399.0</ele><time>2026-05-03T12:34:47.994Z</time></trkpt><trkpt lat="44.12931178096927" lon="10.991739636173195"><ele>399.0</ele><time>2026-05-03T12:34:49.994Z</time></trkpt><trkpt lat="44.12937826525873" lon="10.991714072977794"><ele>399.0</ele><time>2026-05-03T12:34:50.994Z</time></trkpt><trkpt lat="44.129482023432075" lon="10.991662552047904"><ele>399.0</ele><time>2026-05-03T12:34:51.994Z</time></trkpt><trkpt lat="44.12958880857845" lon="10.991621984454255"><ele>399.0</ele><time>2026-05-03T12:34:52.994Z</time></trkpt><trkpt lat="44.129686359439134" lon="10.991594571457796"><ele>399.0</ele><time>2026-05-03T12:34:53.994Z</time></trkpt><trkpt lat="44.12979721504594" lon="10.991567391752733"><ele>399.0</ele><time>2026-05-03T12:34:54.994Z</time></trkpt><trkpt lat="44.12990442564034" lon="10.99154611081741"><ele>399.0</ele><time>2026-05-03T12:34:55.994Z</time></trkpt><trkpt lat="44.130021251503564" lon="10.99152175453449"><ele>400.5</ele><time>2026-05-03T12:34:56.994Z</time></trkpt><trkpt lat="44.13012377125722" lon="10.991492196264408"><ele>402.0</ele><time>2026-05-03T12:34:57.994Z</time></trkpt><trkpt lat="44.1302327437436" lon="10.991462432667815"><ele>403.5</ele><time>2026-05-03T12:34:58.994Z</time></trkpt><trkpt lat="44.13035842282029" lon="10.991435651670384"><ele>405.0</ele><time>2026-05-03T12:34:59.994Z</time></trkpt><trkpt lat="44.13049175695264" lon="10.991402436234234"><ele>405.0</ele><time>2026-05-03T12:35:00.994Z</time></trkpt><trkpt lat="44.130627081676195" lon="10.991374357620442"><ele>405.0</ele><time>2026-05-03T12:35:01.994Z</time></trkpt><trkpt lat="44.13076773826216" lon="10.991334835659863"><ele>405.0</ele><time>2026-05-03T12:35:02.994Z</time></trkpt><trkpt lat="44.13090205482462" lon="10.991285348874102"><ele>405.0</ele><time>2026-05-03T12:35:03.994Z</time></trkpt><trkpt lat="44.13104614538423" lon="10.991241121915458"><ele>404.0</ele><time>2026-05-03T12:35:04.994Z</time></trkpt><trkpt lat="44.131196766433746" lon="10.99120545560664"><ele>403.0</ele><time>2026-05-03T12:35:05.994Z</time></trkpt><trkpt lat="44.131351023121375" lon="10.991167861506762"><ele>402.0</ele><time>2026-05-03T12:35:06.994Z</time></trkpt><trkpt lat="44.13150385005326" lon="10.991124627575454"><ele>402.0</ele><time>2026-05-03T12:35:07.994Z</time></trkpt><trkpt lat="44.13164788813363" lon="10.99109041567355"><ele>402.0</ele><time>2026-05-03T12:35:08.994Z</time></trkpt><trkpt lat="44.13178500267593" lon="10.99103942702904"><ele>402.0</ele><time>2026-05-03T12:35:09.994Z</time></trkpt><trkpt lat="44.13190671717862" lon="10.99098585051309"><ele>402.0</ele><time>2026-05-03T12:35:10.994Z</time></trkpt><trkpt lat="44.13203108107763" lon="10.990908577796809"><ele>402.0</ele><time>2026-05-03T12:35:11.994Z</time></trkpt><trkpt lat="44.13215051185222" lon="10.990843046472616"><ele>402.0</ele><time>2026-05-03T12:35:12.994Z</time></trkpt><trkpt lat="44.13227290678894" lon="10.99077321789551"><ele>402.0</ele><time>2026-05-03T12:35:13.994Z</time></trkpt><trkpt lat="44.13240439046293" lon="10.990704520026705"><ele>402.0</ele><time>2026-05-03T12:35:14.994Z</time></trkpt><trkpt lat="44.13253462302648" lon="10.990630228036652"><ele>402.5</ele><time>2026-05-03T12:35:15.994Z</time></trkpt><trkpt lat="44.13265825337067" lon="10.990560452361798"><ele>403.0</ele><time>2026-05-03T12:35:16.994Z</time></trkpt><trkpt lat="44.13278172990993" lon="10.990470630379525"><ele>403.5</ele><time>2026-05-03T12:35:17.994Z</time></trkpt><trkpt lat="44.13291892304353" lon="10.990358031603577"><ele>404.0</ele><time>2026-05-03T12:35:18.994Z</time></trkpt><trkpt lat="44.133038077275096" lon="10.990210859662838"><ele>404.0</ele><time>2026-05-03T12:35:19.994Z</time></trkpt><trkpt lat="44.13313471508325" lon="10.990044361384259"><ele>404.0</ele><time>2026-05-03T12:35:20.994Z</time></trkpt><trkpt lat="44.13324550373351" lon="10.989899184264372"><ele>404.0</ele><time>2026-05-03T12:35:21.994Z</time></trkpt><trkpt lat="44.133372348928724" lon="10.989801684202176"><ele>403.25</ele><time>2026-05-03T12:35:22.994Z</time></trkpt><trkpt lat="44.13349923848016" lon="10.989702868006095"><ele>402.5</ele><time>2026-05-03T12:35:23.994Z</time></trkpt><trkpt lat="44.13362986220581" lon="10.989618931204546"><ele>401.75</ele><time>2026-05-03T12:35:24.994Z</time></trkpt><trkpt lat="44.133777244064774" lon="10.989534003788346"><ele>401.0</ele><time>2026-05-03T12:35:25.994Z</time></trkpt><trkpt lat="44.1339347948515" lon="10.989449403980245"><ele>397.3333333333333</ele><time>2026-05-03T12:35:26.994Z</time></trkpt><trkpt lat="44.13408912957857" lon="10.989357603512302"><ele>393.66666666666663</ele><time>2026-05-03T12:35:27.994Z</time></trkpt><trkpt lat="44.13423516216048" lon="10.989266240039315"><ele>390.0</ele><time>2026-05-03T12:35:28.994Z</time></trkpt><trkpt lat="44.13437878792595" lon="10.989200744012562"><ele>390.0</ele><time>2026-05-03T12:35:29.994Z</time></trkpt><trkpt lat="44.13452969239223" lon="10.989180772675214"><ele>390.0</ele><time>2026-05-03T12:35:30.994Z</time></trkpt><trkpt lat="44.13469448601717" lon="10.989180093468862"><ele>390.0</ele><time>2026-05-03T12:35:31.994Z</time></trkpt><trkpt lat="44.13485525776569" lon="10.989211894462192"><ele>390.0</ele><time>2026-05-03T12:35:32.994Z</time></trkpt><trkpt lat="44.134986857768126" lon="10.989265183865822"><ele>390.0</ele><time>2026-05-03T12:35:33.994Z</time></trkpt><trkpt lat="44.13512117840602" lon="10.989317541156185"><ele>390.0</ele><time>2026-05-03T12:35:34.994Z</time></trkpt><trkpt lat="44.13526443585023" lon="10.989359453499114"><ele>390.0</ele><time>2026-05-03T12:35:35.994Z</time></trkpt><trkpt lat="44.13542351356316" lon="10.989421201129282"><ele>390.0</ele><time>2026-05-03T12:35:36.994Z</time></trkpt><trkpt lat="44.135585874269275" lon="10.989487398484455"><ele>390.0</ele><time>2026-05-03T12:35:37.994Z</time></trkpt><trkpt lat="44.135755751041316" lon="10.989558088020216"><ele>390.0</ele><time>2026-05-03T12:35:38.994Z</time></trkpt><trkpt lat="44.13591717944579" lon="10.989609259197403"><ele>390.66666666666663</ele><time>2026-05-03T12:35:39.994Z</time></trkpt><trkpt lat="44.13607884616082" lon="10.989679608762666"><ele>391.3333333333333</ele><time>2026-05-03T12:35:40.994Z</time></trkpt><trkpt lat="44.13624139409373" lon="10.989769235405193"><ele>392.0</ele><time>2026-05-03T12:35:41.994Z</time></trkpt><trkpt lat="44.13640712096209" lon="10.989872624348646"><ele>394.66666666666663</ele><time>2026-05-03T12:35:42.994Z</time></trkpt><trkpt lat="44.13657546158128" lon="10.989982402025898"><ele>397.33333333333337</ele><time>2026-05-03T12:35:43.994Z</time></trkpt><trkpt lat="44.13672525981957" lon="10.99009648461196"><ele>400.0</ele><time>2026-05-03T12:35:44.994Z</time></trkpt><trkpt lat="44.1368752569183" lon="10.990219551852354"><ele>394.0</ele><time>2026-05-03T12:35:45.994Z</time></trkpt><trkpt lat="44.137030053224834" lon="10.990346181122982"><ele>388.0</ele><time>2026-05-03T12:35:46.994Z</time></trkpt><trkpt lat="44.13716353169827" lon="10.990455828694666"><ele>382.0</ele><time>2026-05-03T12:35:47.994Z</time></trkpt><trkpt lat="44.137302670245894" lon="10.990533402395783"><ele>385.66666666666663</ele><time>2026-05-03T12:35:48.994Z</time></trkpt><trkpt lat="44.13746418285005" lon="10.990574171694089"><ele>389.3333333333333</ele><time>2026-05-03T12:35:49.994Z</time></trkpt><trkpt lat="44.13764929993538" lon="10.990586759127401"><ele>393.0</ele><time>2026-05-03T12:35:50.994Z</time></trkpt><trkpt lat="44.13782391374369" lon="10.990647733749702"><ele>393.0</ele><time>2026-05-03T12:35:51.994Z</time></trkpt><trkpt lat="44.13797760731707" lon="10.990746601409343"><ele>393.0</ele><time>2026-05-03T12:35:52.994Z</time></trkpt><trkpt lat="44.13811210324797" lon="10.990854497871835"><ele>393.0</ele><time>2026-05-03T12:35:53.994Z</time></trkpt><trkpt lat="44.13822857794733" lon="10.99094942350264"><ele>388.75</ele><time>2026-05-03T12:35:54.994Z</time></trkpt><trkpt lat="44.138344574395155" lon="10.991028900851193"><ele>384.5</ele><time>2026-05-03T12:35:55.994Z</time></trkpt><trkpt lat="44.13847848602645" lon="10.991051209236037"><ele>380.25</ele><time>2026-05-03T12:35:56.994Z</time></trkpt><trkpt lat="44.13860994824209" lon="10.991013539994986"><ele>376.0</ele><time>2026-05-03T12:35:57.994Z</time></trkpt><trkpt lat="44.138754683704626" lon="10.99091448119711"><ele>381.66666666666663</ele><time>2026-05-03T12:35:58.994Z</time></trkpt><trkpt lat="44.13891074104735" lon="10.990798497316383"><ele>387.3333333333333</ele><time>2026-05-03T12:35:59.994Z</time></trkpt><trkpt lat="44.13906845963372" lon="10.990693598259274"><ele>393.0</ele><time>2026-05-03T12:36:00.994Z</time></trkpt><trkpt lat="44.13923358455706" lon="10.990600622713208"><ele>393.0</ele><time>2026-05-03T12:36:01.994Z</time></trkpt><trkpt lat="44.13939537889206" lon="10.990535994302048"><ele>393.0</ele><time>2026-05-03T12:36:02.994Z</time></trkpt><trkpt lat="44.13956565518184" lon="10.990477272254003"><ele>393.0</ele><time>2026-05-03T12:36:03.994Z</time></trkpt><trkpt lat="44.13972730649306" lon="10.99042629799735"><ele>393.0</ele><time>2026-05-03T12:36:04.994Z</time></trkpt><trkpt lat="44.139879608607764" lon="10.99035146000805"><ele>393.0</ele><time>2026-05-03T12:36:05.994Z</time></trkpt><trkpt lat="44.14003675125003" lon="10.99023980650023"><ele>393.0</ele><time>2026-05-03T12:36:06.994Z</time></trkpt><trkpt lat="44.14019297046904" lon="10.990091715847576"><ele>395.66666666666663</ele><time>2026-05-03T12:36:07.994Z</time></trkpt><trkpt lat="44.14032814674065" lon="10.989946755074001"><ele>398.3333333333333</ele><time>2026-05-03T12:36:08.994Z</time></trkpt><trkpt lat="44.14046309096215" lon="10.98981827643517"><ele>401.0</ele><time>2026-05-03T12:36:09.994Z</time></trkpt><trkpt lat="44.140608556208946" lon="10.989716425090974"><ele>396.66666666666663</ele><time>2026-05-03T12:36:10.994Z</time></trkpt><trkpt lat="44.14074066198902" lon="10.989632997016392"><ele>392.33333333333337</ele><time>2026-05-03T12:36:11.994Z</time></trkpt><trkpt lat="44.140885982365525" lon="10.989552485619072"><ele>388.0</ele><time>2026-05-03T12:36:12.994Z</time></trkpt><trkpt lat="44.14105627666294" lon="10.989485226423712"><ele>388.0</ele><time>2026-05-03T12:36:13.994Z</time></trkpt><trkpt lat="44.141200430160154" lon="10.98942183514164"><ele>388.0</ele><time>2026-05-03T12:36:14.994Z</time></trkpt><trkpt lat="44.141336430881545" lon="10.989332166150987"><ele>388.0</ele><time>2026-05-03T12:36:15.994Z</time></trkpt><trkpt lat="44.14146680885113" lon="10.98924397329614"><ele>388.0</ele><time>2026-05-03T12:36:16.994Z</time></trkpt><trkpt lat="44.141600310340934" lon="10.989128094860995"><ele>388.5</ele><time>2026-05-03T12:36:17.994Z</time></trkpt><trkpt lat="44.14171293146116" lon="10.989027422512002"><ele>389.0</ele><time>2026-05-03T12:36:18.994Z</time></trkpt><trkpt lat="44.14182664153995" lon="10.988945500677156"><ele>389.5</ele><time>2026-05-03T12:36:19.994Z</time></trkpt><trkpt lat="44.14192854900719" lon="10.988859164837518"><ele>390.0</ele><time>2026-05-03T12:36:20.994Z</time></trkpt><trkpt lat="44.14202005819282" lon="10.988761562140496"><ele>390.0</ele><time>2026-05-03T12:36:21.993Z</time></trkpt><trkpt lat="44.142125478712536" lon="10.988630661847214"><ele>390.0</ele><time>2026-05-03T12:36:22.993Z</time></trkpt><trkpt lat="44.142234995964785" lon="10.98845661120227"><ele>390.0</ele><time>2026-05-03T12:36:23.993Z</time></trkpt><trkpt lat="44.14233199739424" lon="10.988259575935187"><ele>388.66666666666663</ele><time>2026-05-03T12:36:24.993Z</time></trkpt><trkpt lat="44.14242411248741" lon="10.988046652951816"><ele>387.3333333333333</ele><time>2026-05-03T12:36:25.993Z</time></trkpt><trkpt lat="44.1425271375642" lon="10.987849380339387"><ele>386.0</ele><time>2026-05-03T12:36:26.993Z</time></trkpt><trkpt lat="44.142638890913744" lon="10.987677948671031"><ele>386.0</ele><time>2026-05-03T12:36:27.993Z</time></trkpt><trkpt lat="44.14276706953936" lon="10.987521990367117"><ele>386.0</ele><time>2026-05-03T12:36:28.993Z</time></trkpt><trkpt lat="44.14288832302156" lon="10.98739227417696"><ele>386.0</ele><time>2026-05-03T12:36:29.993Z</time></trkpt><trkpt lat="44.14302321815935" lon="10.987289645263829"><ele>383.0</ele><time>2026-05-03T12:36:30.993Z</time></trkpt><trkpt lat="44.1431523266475" lon="10.987193950590338"><ele>380.0</ele><time>2026-05-03T12:36:31.993Z</time></trkpt><trkpt lat="44.14328080783611" lon="10.987099631164913"><ele>377.0</ele><time>2026-05-03T12:36:32.993Z</time></trkpt><trkpt lat="44.14342658191446" lon="10.987012197134213"><ele>377.0</ele><time>2026-05-03T12:36:33.993Z</time></trkpt><trkpt lat="44.143570846035715" lon="10.98691447206238"><ele>377.0</ele><time>2026-05-03T12:36:34.993Z</time></trkpt><trkpt lat="44.143716584228436" lon="10.986814690263435"><ele>377.0</ele><time>2026-05-03T12:36:35.993Z</time></trkpt><trkpt lat="44.14383841454589" lon="10.986644156237169"><ele>377.0</ele><time>2026-05-03T12:36:36.993Z</time></trkpt><trkpt lat="44.143961175679046" lon="10.986493150610507"><ele>377.0</ele><time>2026-05-03T12:36:37.993Z</time></trkpt><trkpt lat="44.14408000321747" lon="10.986383735208507"><ele>377.0</ele><time>2026-05-03T12:36:38.993Z</time></trkpt><trkpt lat="44.14420553287291" lon="10.98629021171372"><ele>377.0</ele><time>2026-05-03T12:36:39.993Z</time></trkpt><trkpt lat="44.1443401633875" lon="10.98619979431402"><ele>377.0</ele><time>2026-05-03T12:36:40.993Z</time></trkpt><trkpt lat="44.14447823100102" lon="10.98611954734634"><ele>377.0</ele><time>2026-05-03T12:36:41.993Z</time></trkpt><trkpt lat="44.14459274264425" lon="10.986054167441027"><ele>377.0</ele><time>2026-05-03T12:36:42.993Z</time></trkpt><trkpt lat="44.14470559656532" lon="10.98600064780481"><ele>377.0</ele><time>2026-05-03T12:36:43.993Z</time></trkpt><trkpt lat="44.144803830687835" lon="10.985962118676566"><ele>378.5</ele><time>2026-05-03T12:36:44.993Z</time></trkpt><trkpt lat="44.144894418043386" lon="10.98592087308379"><ele>380.0</ele><time>2026-05-03T12:36:45.993Z</time></trkpt><trkpt lat="44.14498915161126" lon="10.985877841798967"><ele>381.5</ele><time>2026-05-03T12:36:46.993Z</time></trkpt><trkpt lat="44.14506583142977" lon="10.985829086541715"><ele>383.0</ele><time>2026-05-03T12:36:47.993Z</time></trkpt><trkpt lat="44.14512979927483" lon="10.985769384413276"><ele>384.49999999999994</ele><time>2026-05-03T12:36:48.993Z</time></trkpt><trkpt lat="44.145189010629025" lon="10.985708067748233"><ele>386.0</ele><time>2026-05-03T12:36:49.993Z</time></trkpt><trkpt lat="44.1452639330855" lon="10.985555356796812"><ele>386.0</ele><time>2026-05-03T12:36:51.993Z</time></trkpt><trkpt lat="44.14531510294428" lon="10.985443962919664"><ele>386.0</ele><time>2026-05-03T12:36:52.993Z</time></trkpt><trkpt lat="44.145370919065144" lon="10.985327545924084"><ele>386.0</ele><time>2026-05-03T12:36:53.993Z</time></trkpt><trkpt lat="44.14544494561261" lon="10.985197666008773"><ele>386.0</ele><time>2026-05-03T12:36:54.993Z</time></trkpt><trkpt lat="44.14551997952072" lon="10.985061421738123"><ele>386.0</ele><time>2026-05-03T12:36:55.993Z</time></trkpt><trkpt lat="44.14560558906273" lon="10.984921810827897"><ele>383.5</ele><time>2026-05-03T12:36:56.993Z</time></trkpt><trkpt lat="44.14567611259589" lon="10.984758495026998"><ele>381.0</ele><time>2026-05-03T12:36:57.993Z</time></trkpt><trkpt lat="44.14575883855276" lon="10.984590360898421"><ele>378.5</ele><time>2026-05-03T12:36:58.993Z</time></trkpt><trkpt lat="44.14585596067219" lon="10.984450921849804"><ele>376.0</ele><time>2026-05-03T12:36:59.993Z</time></trkpt><trkpt lat="44.14595573370682" lon="10.984300120696942"><ele>379.5</ele><time>2026-05-03T12:37:00.993Z</time></trkpt><trkpt lat="44.14605287232488" lon="10.984176176291475"><ele>383.0</ele><time>2026-05-03T12:37:01.993Z</time></trkpt><trkpt lat="44.14614844107498" lon="10.98406407784999"><ele>386.5</ele><time>2026-05-03T12:37:02.993Z</time></trkpt><trkpt lat="44.1462454558517" lon="10.983947435177663"><ele>390.0</ele><time>2026-05-03T12:37:03.993Z</time></trkpt><trkpt lat="44.14633976824131" lon="10.983844424095073"><ele>390.0</ele><time>2026-05-03T12:37:04.993Z</time></trkpt><trkpt lat="44.14643651260811" lon="10.98374358969554"><ele>390.0</ele><time>2026-05-03T12:37:05.993Z</time></trkpt><trkpt lat="44.14654726644213" lon="10.983627000713938"><ele>390.0</ele><time>2026-05-03T12:37:06.993Z</time></trkpt><trkpt lat="44.146679595402425" lon="10.983541894236854"><ele>390.0</ele><time>2026-05-03T12:37:07.993Z</time></trkpt><trkpt lat="44.14683306515233" lon="10.983480618266766"><ele>390.5</ele><time>2026-05-03T12:37:08.993Z</time></trkpt><trkpt lat="44.14697815500646" lon="10.98341678107235"><ele>391.0</ele><time>2026-05-03T12:37:09.993Z</time></trkpt><trkpt lat="44.14711667586577" lon="10.983370720316685"><ele>391.5</ele><time>2026-05-03T12:37:10.993Z</time></trkpt><trkpt lat="44.14725479579876" lon="10.983316847851853"><ele>392.0</ele><time>2026-05-03T12:37:11.993Z</time></trkpt><trkpt lat="44.147376258586625" lon="10.983256741647756"><ele>387.25</ele><time>2026-05-03T12:37:12.993Z</time></trkpt><trkpt lat="44.14751415225424" lon="10.9832065783913"><ele>382.5</ele><time>2026-05-03T12:37:13.993Z</time></trkpt><trkpt lat="44.14764397678935" lon="10.983170587870278"><ele>377.75</ele><time>2026-05-03T12:37:14.993Z</time></trkpt><trkpt lat="44.14776474439048" lon="10.983127104386648"><ele>373.0</ele><time>2026-05-03T12:37:15.993Z</time></trkpt><trkpt lat="44.147888120731594" lon="10.983112050237"><ele>373.0</ele><time>2026-05-03T12:37:16.993Z</time></trkpt><trkpt lat="44.14799543143147" lon="10.983139741799537"><ele>373.0</ele><time>2026-05-03T12:37:17.993Z</time></trkpt><trkpt lat="44.14809526712905" lon="10.983181495095687"><ele>373.0</ele><time>2026-05-03T12:37:18.993Z</time></trkpt><trkpt lat="44.148187810238035" lon="10.983244400549301"><ele>373.0</ele><time>2026-05-03T12:37:19.993Z</time></trkpt><trkpt lat="44.1482700788184" lon="10.983318251487313"><ele>373.0</ele><time>2026-05-03T12:37:20.993Z</time></trkpt><trkpt lat="44.148339305045354" lon="10.98340217765111"><ele>372.16666666666663</ele><time>2026-05-03T12:37:21.993Z</time></trkpt><trkpt lat="44.1483853271273" lon="10.983478814640915"><ele>371.3333333333333</ele><time>2026-05-03T12:37:22.993Z</time></trkpt><trkpt lat="44.14841428432451" lon="10.983560008267286"><ele>370.5</ele><time>2026-05-03T12:37:23.993Z</time></trkpt><trkpt lat="44.148468122820326" lon="10.983648325088554"><ele>369.6666666666667</ele><time>2026-05-03T12:37:24.993Z</time></trkpt><trkpt lat="44.14854227493324" lon="10.983709674630722"><ele>368.83333333333337</ele><time>2026-05-03T12:37:25.993Z</time></trkpt><trkpt lat="44.14864761858356" lon="10.983761633644164"><ele>368.0</ele><time>2026-05-03T12:37:26.993Z</time></trkpt><trkpt lat="44.14878173050552" lon="10.983809682478336"><ele>368.0</ele><time>2026-05-03T12:37:27.993Z</time></trkpt><trkpt lat="44.148895811892636" lon="10.983898745738818"><ele>368.0</ele><time>2026-05-03T12:37:28.993Z</time></trkpt><trkpt lat="44.14898714786823" lon="10.983964188551118"><ele>368.0</ele><time>2026-05-03T12:37:29.993Z</time></trkpt><trkpt lat="44.149066292680615" lon="10.983942268505398"><ele>368.0</ele><time>2026-05-03T12:37:30.993Z</time></trkpt><trkpt lat="44.149145656037554" lon="10.983906046320424"><ele>368.0</ele><time>2026-05-03T12:37:31.993Z</time></trkpt><trkpt lat="44.14922950368784" lon="10.983835439244643"><ele>368.5</ele><time>2026-05-03T12:37:32.993Z</time></trkpt><trkpt lat="44.149303774169645" lon="10.98374114191382"><ele>369.0</ele><time>2026-05-03T12:37:33.993Z</time></trkpt><trkpt lat="44.14936550146897" lon="10.983617234568863"><ele>369.5</ele><time>2026-05-03T12:37:34.993Z</time></trkpt><trkpt lat="44.14943313367606" lon="10.983469636688222"><ele>370.0</ele><time>2026-05-03T12:37:35.993Z</time></trkpt><trkpt lat="44.149503501593564" lon="10.98331852348813"><ele>369.25</ele><time>2026-05-03T12:37:36.993Z</time></trkpt><trkpt lat="44.149584706337926" lon="10.983158957175261"><ele>368.5</ele><time>2026-05-03T12:37:37.993Z</time></trkpt><trkpt lat="44.149685594049224" lon="10.983050965732023"><ele>367.75</ele><time>2026-05-03T12:37:38.993Z</time></trkpt><trkpt lat="44.14978271852588" lon="10.982949115253277"><ele>367.0</ele><time>2026-05-03T12:37:39.993Z</time></trkpt><trkpt lat="44.149876891221396" lon="10.982849774802094"><ele>367.0</ele><time>2026-05-03T12:37:40.993Z</time></trkpt><trkpt lat="44.1499665078344" lon="10.982756126039371"><ele>367.0</ele><time>2026-05-03T12:37:41.993Z</time></trkpt><trkpt lat="44.150068743281075" lon="10.982645294116306"><ele>367.0</ele><time>2026-05-03T12:37:42.993Z</time></trkpt><trkpt lat="44.150161694601174" lon="10.98253523508078"><ele>367.0</ele><time>2026-05-03T12:37:43.993Z</time></trkpt><trkpt lat="44.150242625568495" lon="10.982426226342033"><ele>370.0</ele><time>2026-05-03T12:37:44.993Z</time></trkpt><trkpt lat="44.150320421509456" lon="10.982303787761634"><ele>373.0</ele><time>2026-05-03T12:37:45.993Z</time></trkpt><trkpt lat="44.15038993877177" lon="10.982196104632443"><ele>376.0</ele><time>2026-05-03T12:37:46.993Z</time></trkpt><trkpt lat="44.15046822492187" lon="10.982082110490717"><ele>379.0</ele><time>2026-05-03T12:37:47.993Z</time></trkpt><trkpt lat="44.150535853824564" lon="10.98196221247931"><ele>382.0</ele><time>2026-05-03T12:37:48.993Z</time></trkpt><trkpt lat="44.15057919881813" lon="10.981846720624757"><ele>382.0</ele><time>2026-05-03T12:37:49.993Z</time></trkpt><trkpt lat="44.1506233412187" lon="10.981727586092553"><ele>382.0</ele><time>2026-05-03T12:37:50.993Z</time></trkpt><trkpt lat="44.15065467954593" lon="10.981620694787457"><ele>382.0</ele><time>2026-05-03T12:37:51.993Z</time></trkpt><trkpt lat="44.150698456161294" lon="10.98150952639604"><ele>382.0</ele><time>2026-05-03T12:37:52.993Z</time></trkpt><trkpt lat="44.1507548614214" lon="10.981406395224056"><ele>382.0</ele><time>2026-05-03T12:37:53.993Z</time></trkpt><trkpt lat="44.15084788713123" lon="10.98130887086291"><ele>377.0</ele><time>2026-05-03T12:37:54.993Z</time></trkpt><trkpt lat="44.15094389183917" lon="10.9812335215534"><ele>372.0</ele><time>2026-05-03T12:37:55.993Z</time></trkpt><trkpt lat="44.15104285775267" lon="10.981141908722424"><ele>367.0</ele><time>2026-05-03T12:37:56.993Z</time></trkpt><trkpt lat="44.15116485809584" lon="10.981052607922347"><ele>362.0</ele><time>2026-05-03T12:37:57.993Z</time></trkpt><trkpt lat="44.151282634660504" lon="10.980959060639158"><ele>362.0</ele><time>2026-05-03T12:37:58.993Z</time></trkpt><trkpt lat="44.15138019784584" lon="10.980881713915759"><ele>362.0</ele><time>2026-05-03T12:37:59.993Z</time></trkpt><trkpt lat="44.15146481043013" lon="10.980795496746186"><ele>362.0</ele><time>2026-05-03T12:38:00.993Z</time></trkpt><trkpt lat="44.15155463729953" lon="10.98072060279701"><ele>362.0</ele><time>2026-05-03T12:38:01.993Z</time></trkpt><trkpt lat="44.151663400610744" lon="10.980648715253748"><ele>362.0</ele><time>2026-05-03T12:38:02.993Z</time></trkpt><trkpt lat="44.15175417223979" lon="10.98058209208972"><ele>361.40000000000003</ele><time>2026-05-03T12:38:03.993Z</time></trkpt><trkpt lat="44.15184383688472" lon="10.980515485923844"><ele>360.8</ele><time>2026-05-03T12:38:04.993Z</time></trkpt><trkpt lat="44.151911677182405" lon="10.980445213450258"><ele>360.2</ele><time>2026-05-03T12:38:05.993Z</time></trkpt><trkpt lat="44.151976062823096" lon="10.980359303584581"><ele>359.6</ele><time>2026-05-03T12:38:06.993Z</time></trkpt><trkpt lat="44.15203541716065" lon="10.980275007830304"><ele>359.0</ele><time>2026-05-03T12:38:07.993Z</time></trkpt><trkpt lat="44.15206329153192" lon="10.980153736457055"><ele>360.25</ele><time>2026-05-03T12:38:08.993Z</time></trkpt><trkpt lat="44.152080131570166" lon="10.979996480246452"><ele>361.5</ele><time>2026-05-03T12:38:09.993Z</time></trkpt><trkpt lat="44.15210993052149" lon="10.97983364541125"><ele>362.75</ele><time>2026-05-03T12:38:10.993Z</time></trkpt><trkpt lat="44.152143133520156" lon="10.979689172359572"><ele>364.0</ele><time>2026-05-03T12:38:11.993Z</time></trkpt><trkpt lat="44.152177002230495" lon="10.979539460528905"><ele>364.0</ele><time>2026-05-03T12:38:12.993Z</time></trkpt><trkpt lat="44.15221078151514" lon="10.979407673345447"><ele>364.0</ele><time>2026-05-03T12:38:13.993Z</time></trkpt><trkpt lat="44.152237793317134" lon="10.979285528118872"><ele>364.0</ele><time>2026-05-03T12:38:14.993Z</time></trkpt><trkpt lat="44.152273529869404" lon="10.979162221455896"><ele>364.0</ele><time>2026-05-03T12:38:15.994Z</time></trkpt><trkpt lat="44.15230934854711" lon="10.979030944739796"><ele>364.0</ele><time>2026-05-03T12:38:16.994Z</time></trkpt><trkpt lat="44.15234448121505" lon="10.978899794487717"><ele>364.4</ele><time>2026-05-03T12:38:17.993Z</time></trkpt><trkpt lat="44.15237197125427" lon="10.978768830864553"><ele>364.79999999999995</ele><time>2026-05-03T12:38:18.993Z</time></trkpt><trkpt lat="44.15238956069827" lon="10.978634123713604"><ele>365.20000000000005</ele><time>2026-05-03T12:38:19.993Z</time></trkpt><trkpt lat="44.152421763482536" lon="10.978493008709027"><ele>365.6</ele><time>2026-05-03T12:38:20.993Z</time></trkpt><trkpt lat="44.15244390977247" lon="10.978361078342397"><ele>366.0</ele><time>2026-05-03T12:38:21.993Z</time></trkpt><trkpt lat="44.152473538846195" lon="10.97822970764851"><ele>365.20000000000005</ele><time>2026-05-03T12:38:22.993Z</time></trkpt><trkpt lat="44.15251769046473" lon="10.97810614768703"><ele>364.40000000000003</ele><time>2026-05-03T12:38:23.993Z</time></trkpt><trkpt lat="44.1525599020564" lon="10.977991103010876"><ele>363.6</ele><time>2026-05-03T12:38:24.993Z</time></trkpt><trkpt lat="44.152623112146344" lon="10.977908829642983"><ele>362.8</ele><time>2026-05-03T12:38:25.993Z</time></trkpt><trkpt lat="44.1527132515928" lon="10.97785445044927"><ele>362.0</ele><time>2026-05-03T12:38:26.993Z</time></trkpt><trkpt lat="44.15281212969521" lon="10.97779289186406"><ele>362.0</ele><time>2026-05-03T12:38:27.993Z</time></trkpt><trkpt lat="44.15290108557151" lon="10.977712099906121"><ele>362.0</ele><time>2026-05-03T12:38:28.993Z</time></trkpt><trkpt lat="44.153001222325244" lon="10.977643667065905"><ele>362.0</ele><time>2026-05-03T12:38:29.993Z</time></trkpt><trkpt lat="44.15309218047792" lon="10.977587682244497"><ele>362.0</ele><time>2026-05-03T12:38:30.993Z</time></trkpt><trkpt lat="44.15315379987775" lon="10.977559918451576"><ele>362.0</ele><time>2026-05-03T12:38:31.993Z</time></trkpt><trkpt lat="44.153270350214314" lon="10.977462278608716"><ele>360.83333333333337</ele><time>2026-05-03T12:38:33.993Z</time></trkpt><trkpt lat="44.1533791258123" lon="10.977409098596896"><ele>359.6666666666667</ele><time>2026-05-03T12:38:35.993Z</time></trkpt><trkpt lat="44.15345714469132" lon="10.977353412874274"><ele>358.5</ele><time>2026-05-03T12:38:37.993Z</time></trkpt><trkpt lat="44.153520569419115" lon="10.977311642090093"><ele>357.3333333333333</ele><time>2026-05-03T12:38:39.993Z</time></trkpt><trkpt lat="44.15357758111824" lon="10.977272613494879"><ele>356.16666666666663</ele><time>2026-05-03T12:38:43.993Z</time></trkpt><trkpt lat="44.15364781141752" lon="10.9772132557148"><ele>355.0</ele><time>2026-05-03T12:39:05.993Z</time></trkpt><trkpt lat="44.15372023534044" lon="10.977154900670062"><ele>355.0</ele><time>2026-05-03T12:39:07.993Z</time></trkpt><trkpt lat="44.15377796039318" lon="10.977118786681668"><ele>355.0</ele><time>2026-05-03T12:39:08.993Z</time></trkpt><trkpt lat="44.15383930286226" lon="10.977096541897472"><ele>355.0</ele><time>2026-05-03T12:39:09.993Z</time></trkpt><trkpt lat="44.153949701874446" lon="10.977048931047499"><ele>355.0</ele><time>2026-05-03T12:39:11.993Z</time></trkpt><trkpt lat="44.154033060125776" lon="10.977082586178142"><ele>355.0</ele><time>2026-05-03T12:39:12.993Z</time></trkpt><trkpt lat="44.1540981097072" lon="10.97704646224443"><ele>355.0</ele><time>2026-05-03T12:39:13.993Z</time></trkpt><trkpt lat="44.15417007451092" lon="10.97700649811216"><ele>354.16666666666663</ele><time>2026-05-03T12:39:14.993Z</time></trkpt><trkpt lat="44.15424742581155" lon="10.97696379951065"><ele>353.3333333333333</ele><time>2026-05-03T12:39:15.993Z</time></trkpt><trkpt lat="44.15432283463238" lon="10.976923406322006"><ele>352.5</ele><time>2026-05-03T12:39:16.993Z</time></trkpt><trkpt lat="44.154395298343935" lon="10.976884590694732"><ele>351.6666666666667</ele><time>2026-05-03T12:39:17.993Z</time></trkpt><trkpt lat="44.15448601479093" lon="10.976835997875451"><ele>350.83333333333337</ele><time>2026-05-03T12:39:18.993Z</time></trkpt><trkpt lat="44.154583966389026" lon="10.97678352951027"><ele>350.0</ele><time>2026-05-03T12:39:19.993Z</time></trkpt><trkpt lat="44.154669462676885" lon="10.976737732905777"><ele>350.0</ele><time>2026-05-03T12:39:20.993Z</time></trkpt><trkpt lat="44.1547610061703" lon="10.976688697075426"><ele>350.0</ele><time>2026-05-03T12:39:21.993Z</time></trkpt><trkpt lat="44.154832034674946" lon="10.976647068146436"><ele>350.0</ele><time>2026-05-03T12:39:22.993Z</time></trkpt><trkpt lat="44.154939161051864" lon="10.976579655540384"><ele>350.0</ele><time>2026-05-03T12:39:24.993Z</time></trkpt><trkpt lat="44.15504204311352" lon="10.976539693798975"><ele>350.0</ele><time>2026-05-03T12:39:26.993Z</time></trkpt><trkpt lat="44.15514837634977" lon="10.976557177140304"><ele>350.0</ele><time>2026-05-03T12:39:28.993Z</time></trkpt><trkpt lat="44.15525062228402" lon="10.976591245250649"><ele>350.0</ele><time>2026-05-03T12:39:30.993Z</time></trkpt><trkpt lat="44.15536595073626" lon="10.9766012616695"><ele>350.0</ele><time>2026-05-03T12:39:32.993Z</time></trkpt><trkpt lat="44.155456636142894" lon="10.976607647294685"><ele>350.0</ele><time>2026-05-03T12:39:34.993Z</time></trkpt><trkpt lat="44.155539769686015" lon="10.976619810491592"><ele>350.0</ele><time>2026-05-03T12:39:36.993Z</time></trkpt><trkpt lat="44.15557740424699" lon="10.97650382485884"><ele>350.0</ele><time>2026-05-03T12:39:37.993Z</time></trkpt><trkpt lat="44.15563664142201" lon="10.9763999225113"><ele>350.0</ele><time>2026-05-03T12:39:39.993Z</time></trkpt><trkpt lat="44.15570005128546" lon="10.97629856785427"><ele>350.0</ele><time>2026-05-03T12:39:41.993Z</time></trkpt><trkpt lat="44.1557317336132" lon="10.9762115403599"><ele>350.0</ele><time>2026-05-03T12:39:44.993Z</time></trkpt><trkpt lat="44.155677706237775" lon="10.9761379473428"><ele>350.0</ele><time>2026-05-03T12:39:46.993Z</time></trkpt><trkpt lat="44.15558549501793" lon="10.976123456418936"><ele>350.0</ele><time>2026-05-03T12:39:48.993Z</time></trkpt><trkpt lat="44.155516655719644" lon="10.976135115063595"><ele>350.0</ele><time>2026-05-03T12:39:49.993Z</time></trkpt><trkpt lat="44.15543899374695" lon="10.976169468075197"><ele>350.0</ele><time>2026-05-03T12:39:51.993Z</time></trkpt><trkpt lat="44.1553711273513" lon="10.976166915794678"><ele>350.0</ele><time>2026-05-03T12:39:54.993Z</time></trkpt><trkpt lat="44.15534211569185" lon="10.976086224191283"><ele>350.0</ele><time>2026-05-03T12:40:49.993Z</time></trkpt><trkpt lat="44.155372989999904" lon="10.976178137423156"><ele>350.0</ele><time>2026-05-03T12:41:03.993Z</time></trkpt><trkpt lat="44.15542042987679" lon="10.976116822926203"><ele>350.0</ele><time>2026-05-03T12:41:20.993Z</time></trkpt><trkpt lat="44.155463377728644" lon="10.976041186202833"><ele>350.0</ele><time>2026-05-03T12:41:32.993Z</time></trkpt><trkpt lat="44.155527501596026" lon="10.976066335710179"><ele>350.0</ele><time>2026-05-03T12:42:19.992Z</time></trkpt><trkpt lat="44.15564217189805" lon="10.976066568160002"><ele>350.0</ele><time>2026-05-03T12:43:55.992Z</time></trkpt><trkpt lat="44.15556057824078" lon="10.976001083804135"><ele>350.0</ele><time>2026-05-03T12:48:36.99Z</time></trkpt><trkpt lat="44.15549110298909" lon="10.976086869818166"><ele>350.0</ele><time>2026-05-03T12:59:27.987Z</time></trkpt><trkpt lat="44.15548159177206" lon="10.976180625782435"><ele>350.0</ele><time>2026-05-03T13:04:43.943Z</time></trkpt><trkpt lat="44.15543061815141" lon="10.976247118449248"><ele>350.0</ele><time>2026-05-03T13:04:53.943Z</time></trkpt><trkpt lat="44.15536429840487" lon="10.976281042548278"><ele>350.0</ele><time>2026-05-03T13:04:58.943Z</time></trkpt><trkpt lat="44.15529353969799" lon="10.976276367113003"><ele>350.0</ele><time>2026-05-03T13:05:31.942Z</time></trkpt><trkpt lat="44.15526221204991" lon="10.976182221591632"><ele>350.0</ele><time>2026-05-03T13:05:53.942Z</time></trkpt><trkpt lat="44.155359920329815" lon="10.97622263519741"><ele>350.0</ele><time>2026-05-03T13:06:43.941Z</time></trkpt><trkpt lat="44.155343212088624" lon="10.976323171824777"><ele>350.0</ele><time>2026-05-03T13:06:58.941Z</time></trkpt><trkpt lat="44.15524729158426" lon="10.976377161172431"><ele>350.0</ele><time>2026-05-03T13:07:00.941Z</time></trkpt><trkpt lat="44.15518768152171" lon="10.976430391497887"><ele>350.0</ele><time>2026-05-03T13:07:01.941Z</time></trkpt><trkpt lat="44.1551204715967" lon="10.976481870057158"><ele>350.0</ele><time>2026-05-03T13:07:02.941Z</time></trkpt><trkpt lat="44.15500361364282" lon="10.976531835323202"><ele>350.0</ele><time>2026-05-03T13:07:04.941Z</time></trkpt><trkpt lat="44.1549242184674" lon="10.976539425960368"><ele>350.0</ele><time>2026-05-03T13:07:05.941Z</time></trkpt><trkpt lat="44.154836066814696" lon="10.976596854692922"><ele>350.0</ele><time>2026-05-03T13:07:06.941Z</time></trkpt><trkpt lat="44.15473635184036" lon="10.976659408207361"><ele>350.0</ele><time>2026-05-03T13:07:07.941Z</time></trkpt><trkpt lat="44.154632192155084" lon="10.976716787518015"><ele>350.0</ele><time>2026-05-03T13:07:08.941Z</time></trkpt><trkpt lat="44.154519944840594" lon="10.976768254729398"><ele>350.0</ele><time>2026-05-03T13:07:09.941Z</time></trkpt><trkpt lat="44.15442291903499" lon="10.976843965258231"><ele>350.0</ele><time>2026-05-03T13:07:10.941Z</time></trkpt><trkpt lat="44.15433166346584" lon="10.976871156408771"><ele>350.0</ele><time>2026-05-03T13:07:11.941Z</time></trkpt><trkpt lat="44.154226805185544" lon="10.976911362470368"><ele>350.0</ele><time>2026-05-03T13:07:12.941Z</time></trkpt><trkpt lat="44.15411830728927" lon="10.976970309474627"><ele>350.0</ele><time>2026-05-03T13:07:13.941Z</time></trkpt><trkpt lat="44.153995665141856" lon="10.977056290445239"><ele>350.0</ele><time>2026-05-03T13:07:14.941Z</time></trkpt><trkpt lat="44.1538848575565" lon="10.977121925291065"><ele>350.0</ele><time>2026-05-03T13:07:15.941Z</time></trkpt><trkpt lat="44.15379895733539" lon="10.97716308072999"><ele>351.0</ele><time>2026-05-03T13:07:16.941Z</time></trkpt><trkpt lat="44.153721002684186" lon="10.977207976666824"><ele>352.0</ele><time>2026-05-03T13:07:17.941Z</time></trkpt><trkpt lat="44.153635443218306" lon="10.977243395042754"><ele>353.0</ele><time>2026-05-03T13:07:18.941Z</time></trkpt><trkpt lat="44.153541693813274" lon="10.97728906998226"><ele>354.0</ele><time>2026-05-03T13:07:19.941Z</time></trkpt><trkpt lat="44.15343792981159" lon="10.977353505214028"><ele>355.0</ele><time>2026-05-03T13:07:20.941Z</time></trkpt><trkpt lat="44.153340085702176" lon="10.97739985725027"><ele>355.0</ele><time>2026-05-03T13:07:21.941Z</time></trkpt><trkpt lat="44.15325818733084" lon="10.977440414905374"><ele>355.0</ele><time>2026-05-03T13:07:22.941Z</time></trkpt><trkpt lat="44.153179077631044" lon="10.977478338198058"><ele>355.0</ele><time>2026-05-03T13:07:23.941Z</time></trkpt><trkpt lat="44.15310695030955" lon="10.977503415363081"><ele>355.0</ele><time>2026-05-03T13:07:24.941Z</time></trkpt><trkpt lat="44.15300458820455" lon="10.977565860822558"><ele>355.0</ele><time>2026-05-03T13:07:25.941Z</time></trkpt><trkpt lat="44.15290667692149" lon="10.977626396047345"><ele>356.4</ele><time>2026-05-03T13:07:26.941Z</time></trkpt><trkpt lat="44.15281057163567" lon="10.977662245380326"><ele>357.8</ele><time>2026-05-03T13:07:27.941Z</time></trkpt><trkpt lat="44.152722082996355" lon="10.977721958123427"><ele>359.20000000000005</ele><time>2026-05-03T13:07:28.941Z</time></trkpt><trkpt lat="44.152644361682064" lon="10.977774429788763"><ele>360.6</ele><time>2026-05-03T13:07:29.941Z</time></trkpt><trkpt lat="44.152570543175365" lon="10.977831082403915"><ele>362.0</ele><time>2026-05-03T13:07:30.941Z</time></trkpt><trkpt lat="44.15251477146412" lon="10.9779185974838"><ele>362.0</ele><time>2026-05-03T13:07:31.941Z</time></trkpt><trkpt lat="44.152451405480264" lon="10.977996349588617"><ele>362.0</ele><time>2026-05-03T13:07:32.94Z</time></trkpt><trkpt lat="44.15240900368647" lon="10.978141109449458"><ele>362.0</ele><time>2026-05-03T13:07:33.94Z</time></trkpt><trkpt lat="44.152389349114586" lon="10.978280141980335"><ele>362.0</ele><time>2026-05-03T13:07:34.94Z</time></trkpt><trkpt lat="44.15237019866286" lon="10.97843830245406"><ele>362.0</ele><time>2026-05-03T13:07:35.94Z</time></trkpt><trkpt lat="44.15234227620423" lon="10.97859654454955"><ele>362.40000000000003</ele><time>2026-05-03T13:07:36.94Z</time></trkpt><trkpt lat="44.152331836787525" lon="10.978747803887895"><ele>362.8</ele><time>2026-05-03T13:07:37.94Z</time></trkpt><trkpt lat="44.152288257455155" lon="10.978898702042702"><ele>363.2</ele><time>2026-05-03T13:07:38.94Z</time></trkpt><trkpt lat="44.15225687994014" lon="10.97903335262968"><ele>363.6</ele><time>2026-05-03T13:07:39.939Z</time></trkpt><trkpt lat="44.152222444233345" lon="10.97916482153257"><ele>364.0</ele><time>2026-05-03T13:07:40.939Z</time></trkpt><trkpt lat="44.15218633685364" lon="10.979284827932371"><ele>364.0</ele><time>2026-05-03T13:07:41.94Z</time></trkpt><trkpt lat="44.15214773159706" lon="10.979411540319573"><ele>364.0</ele><time>2026-05-03T13:07:42.94Z</time></trkpt><trkpt lat="44.152128538210235" lon="10.979536596612952"><ele>364.0</ele><time>2026-05-03T13:07:43.94Z</time></trkpt><trkpt lat="44.15209707333036" lon="10.979656530989212"><ele>364.0</ele><time>2026-05-03T13:07:44.94Z</time></trkpt><trkpt lat="44.152074443694396" lon="10.979791768175232"><ele>364.0</ele><time>2026-05-03T13:07:45.939Z</time></trkpt><trkpt lat="44.152037924599774" lon="10.979914468620626"><ele>363.0</ele><time>2026-05-03T13:07:46.939Z</time></trkpt><trkpt lat="44.15200388552104" lon="10.980043065404912"><ele>362.0</ele><time>2026-05-03T13:07:47.94Z</time></trkpt><trkpt lat="44.151977339257826" lon="10.980159058485865"><ele>361.0</ele><time>2026-05-03T13:07:48.94Z</time></trkpt><trkpt lat="44.151950703456315" lon="10.9802607251173"><ele>360.0</ele><time>2026-05-03T13:07:49.94Z</time></trkpt><trkpt lat="44.15189722873901" lon="10.980377728165058"><ele>359.0</ele><time>2026-05-03T13:07:50.94Z</time></trkpt><trkpt lat="44.1518455125005" lon="10.98047758825289"><ele>359.0</ele><time>2026-05-03T13:07:51.94Z</time></trkpt><trkpt lat="44.15175686778393" lon="10.980520950480432"><ele>359.0</ele><time>2026-05-03T13:07:52.94Z</time></trkpt><trkpt lat="44.15164784488333" lon="10.980563440797306"><ele>359.0</ele><time>2026-05-03T13:07:53.94Z</time></trkpt><trkpt lat="44.15152715772215" lon="10.980632991727864"><ele>359.0</ele><time>2026-05-03T13:07:54.94Z</time></trkpt><trkpt lat="44.15140112136238" lon="10.98072801458794"><ele>359.6</ele><time>2026-05-03T13:07:55.94Z</time></trkpt><trkpt lat="44.1513006645782" lon="10.980817638814543"><ele>360.2</ele><time>2026-05-03T13:07:56.94Z</time></trkpt><trkpt lat="44.15121510953562" lon="10.980889806304297"><ele>360.8</ele><time>2026-05-03T13:07:57.94Z</time></trkpt><trkpt lat="44.151112536986425" lon="10.980936901784787"><ele>361.40000000000003</ele><time>2026-05-03T13:07:58.94Z</time></trkpt><trkpt lat="44.151003735545075" lon="10.981008473723051"><ele>362.0</ele><time>2026-05-03T13:07:59.94Z</time></trkpt><trkpt lat="44.150900173809454" lon="10.981083873886382"><ele>362.0</ele><time>2026-05-03T13:08:00.94Z</time></trkpt><trkpt lat="44.15078924715933" lon="10.981153585207265"><ele>362.0</ele><time>2026-05-03T13:08:01.94Z</time></trkpt><trkpt lat="44.150701556378664" lon="10.981237485328286"><ele>362.0</ele><time>2026-05-03T13:08:02.94Z</time></trkpt><trkpt lat="44.15062605081282" lon="10.981337649719597"><ele>362.0</ele><time>2026-05-03T13:08:03.94Z</time></trkpt><trkpt lat="44.1505693411104" lon="10.981445070831601"><ele>362.0</ele><time>2026-05-03T13:08:04.94Z</time></trkpt><trkpt lat="44.15051926565492" lon="10.98160412059542"><ele>367.0</ele><time>2026-05-03T13:08:05.94Z</time></trkpt><trkpt lat="44.15046072678669" lon="10.981746473867307"><ele>372.0</ele><time>2026-05-03T13:08:06.94Z</time></trkpt><trkpt lat="44.15040408133649" lon="10.981894220160308"><ele>377.0</ele><time>2026-05-03T13:08:07.94Z</time></trkpt><trkpt lat="44.15033444822142" lon="10.982066794864515"><ele>382.0</ele><time>2026-05-03T13:08:08.939Z</time></trkpt><trkpt lat="44.1502582286916" lon="10.982186604535244"><ele>382.0</ele><time>2026-05-03T13:08:09.939Z</time></trkpt><trkpt lat="44.15018885597404" lon="10.98231346610937"><ele>382.0</ele><time>2026-05-03T13:08:10.939Z</time></trkpt><trkpt lat="44.150112707106764" lon="10.98242671697809"><ele>382.0</ele><time>2026-05-03T13:08:11.939Z</time></trkpt><trkpt lat="44.15002860380189" lon="10.98255817679569"><ele>382.0</ele><time>2026-05-03T13:08:12.939Z</time></trkpt><trkpt lat="44.14994987007119" lon="10.982675843894798"><ele>382.25</ele><time>2026-05-03T13:08:13.939Z</time></trkpt><trkpt lat="44.14985003736299" lon="10.982786672859783"><ele>382.5</ele><time>2026-05-03T13:08:14.939Z</time></trkpt><trkpt lat="44.14974664921038" lon="10.98288101817197"><ele>382.75</ele><time>2026-05-03T13:08:15.939Z</time></trkpt><trkpt lat="44.149659739557045" lon="10.982992356558608"><ele>383.0</ele><time>2026-05-03T13:08:16.939Z</time></trkpt><trkpt lat="44.14957951199674" lon="10.983095558130774"><ele>383.0</ele><time>2026-05-03T13:08:17.939Z</time></trkpt><trkpt lat="44.14950035535921" lon="10.983192304307664"><ele>383.0</ele><time>2026-05-03T13:08:18.939Z</time></trkpt><trkpt lat="44.14942769255798" lon="10.983285075675074"><ele>383.0</ele><time>2026-05-03T13:08:19.939Z</time></trkpt><trkpt lat="44.14937514472329" lon="10.983369932562796"><ele>383.0</ele><time>2026-05-03T13:08:20.939Z</time></trkpt><trkpt lat="44.149319285023346" lon="10.98350790751187"><ele>383.0</ele><time>2026-05-03T13:08:21.939Z</time></trkpt><trkpt lat="44.149267715950124" lon="10.983636241235898"><ele>380.4</ele><time>2026-05-03T13:08:22.939Z</time></trkpt><trkpt lat="44.14920364336049" lon="10.983744218040444"><ele>377.79999999999995</ele><time>2026-05-03T13:08:23.939Z</time></trkpt><trkpt lat="44.14913681799829" lon="10.983834284344631"><ele>375.2</ele><time>2026-05-03T13:08:24.939Z</time></trkpt><trkpt lat="44.14906135176487" lon="10.983892819301824"><ele>372.6</ele><time>2026-05-03T13:08:25.939Z</time></trkpt><trkpt lat="44.14896130721879" lon="10.983907242890329"><ele>370.0</ele><time>2026-05-03T13:08:26.939Z</time></trkpt><trkpt lat="44.1488709013328" lon="10.983889989819694"><ele>369.6</ele><time>2026-05-03T13:08:27.939Z</time></trkpt><trkpt lat="44.14877877047724" lon="10.983824071536086"><ele>369.2</ele><time>2026-05-03T13:08:28.939Z</time></trkpt><trkpt lat="44.148694257760866" lon="10.983754022202621"><ele>368.79999999999995</ele><time>2026-05-03T13:08:29.939Z</time></trkpt><trkpt lat="44.14859662275959" lon="10.983704575416942"><ele>368.4</ele><time>2026-05-03T13:08:30.939Z</time></trkpt><trkpt lat="44.14849636713115" lon="10.98362988916561"><ele>368.0</ele><time>2026-05-03T13:08:31.939Z</time></trkpt><trkpt lat="44.14842069917261" lon="10.983584175794249"><ele>368.0</ele><time>2026-05-03T13:08:32.939Z</time></trkpt><trkpt lat="44.148379410037684" lon="10.98349834475341"><ele>368.0</ele><time>2026-05-03T13:08:33.939Z</time></trkpt><trkpt lat="44.14834561285103" lon="10.983422181372866"><ele>368.0</ele><time>2026-05-03T13:08:34.939Z</time></trkpt><trkpt lat="44.14826269105502" lon="10.983320504965572"><ele>368.0</ele><time>2026-05-03T13:08:36.939Z</time></trkpt><trkpt lat="44.14821120283975" lon="10.983256676686793"><ele>368.0</ele><time>2026-05-03T13:08:37.939Z</time></trkpt><trkpt lat="44.148152581551116" lon="10.983213848874597"><ele>368.0</ele><time>2026-05-03T13:08:38.939Z</time></trkpt><trkpt lat="44.14804372553964" lon="10.983156248879691"><ele>369.25</ele><time>2026-05-03T13:08:40.939Z</time></trkpt><trkpt lat="44.147927878973896" lon="10.983131442189073"><ele>370.5</ele><time>2026-05-03T13:08:42.939Z</time></trkpt><trkpt lat="44.1478208813129" lon="10.98314382846233"><ele>371.75</ele><time>2026-05-03T13:08:44.939Z</time></trkpt><trkpt lat="44.14771683639661" lon="10.983141865089296"><ele>373.0</ele><time>2026-05-03T13:08:47.939Z</time></trkpt><trkpt lat="44.14759032600671" lon="10.983203745233665"><ele>373.0</ele><time>2026-05-03T13:08:49.939Z</time></trkpt><trkpt lat="44.147503751308925" lon="10.983227647499266"><ele>373.0</ele><time>2026-05-03T13:08:50.939Z</time></trkpt><trkpt lat="44.14740160516216" lon="10.983257535754005"><ele>373.0</ele><time>2026-05-03T13:08:51.939Z</time></trkpt><trkpt lat="44.14727619824399" lon="10.983312983717818"><ele>373.0</ele><time>2026-05-03T13:08:52.939Z</time></trkpt><trkpt lat="44.1471417880817" lon="10.983382394509098"><ele>372.2</ele><time>2026-05-03T13:08:53.939Z</time></trkpt><trkpt lat="44.147021490804235" lon="10.983419187933878"><ele>371.4</ele><time>2026-05-03T13:08:54.939Z</time></trkpt><trkpt lat="44.14691351619331" lon="10.983476340670803"><ele>370.59999999999997</ele><time>2026-05-03T13:08:55.939Z</time></trkpt><trkpt lat="44.14681127714545" lon="10.983507913480022"><ele>369.79999999999995</ele><time>2026-05-03T13:08:56.939Z</time></trkpt><trkpt lat="44.14672388453175" lon="10.983548938720036"><ele>369.0</ele><time>2026-05-03T13:08:57.939Z</time></trkpt><trkpt lat="44.14663309632861" lon="10.983615397781117"><ele>369.0</ele><time>2026-05-03T13:08:58.939Z</time></trkpt><trkpt lat="44.14654975883099" lon="10.983673093904153"><ele>369.0</ele><time>2026-05-03T13:08:59.939Z</time></trkpt><trkpt lat="44.1464705691289" lon="10.983745257903882"><ele>369.0</ele><time>2026-05-03T13:09:00.939Z</time></trkpt><trkpt lat="44.14639897278726" lon="10.983799463002114"><ele>369.0</ele><time>2026-05-03T13:09:01.939Z</time></trkpt><trkpt lat="44.146346445910254" lon="10.983851782220489"><ele>369.0</ele><time>2026-05-03T13:09:02.939Z</time></trkpt><trkpt lat="44.14626383971867" lon="10.983917539496643"><ele>369.0</ele><time>2026-05-03T13:09:04.939Z</time></trkpt><trkpt lat="44.14622368888042" lon="10.983995648315583"><ele>370.4</ele><time>2026-05-03T13:09:05.939Z</time></trkpt><trkpt lat="44.1461742485179" lon="10.984056183296069"><ele>371.79999999999995</ele><time>2026-05-03T13:09:06.939Z</time></trkpt><trkpt lat="44.14610452483035" lon="10.984122500396552"><ele>373.20000000000005</ele><time>2026-05-03T13:09:07.939Z</time></trkpt><trkpt lat="44.146037085398035" lon="10.98422106152113"><ele>374.6</ele><time>2026-05-03T13:09:08.939Z</time></trkpt><trkpt lat="44.1459551084861" lon="10.98433687484709"><ele>376.0</ele><time>2026-05-03T13:09:09.939Z</time></trkpt><trkpt lat="44.14585713954074" lon="10.98448406660153"><ele>376.0</ele><time>2026-05-03T13:09:10.939Z</time></trkpt><trkpt lat="44.1457541203264" lon="10.984646905247462"><ele>376.0</ele><time>2026-05-03T13:09:11.938Z</time></trkpt><trkpt lat="44.145649971050894" lon="10.984829342904415"><ele>376.0</ele><time>2026-05-03T13:09:12.938Z</time></trkpt><trkpt lat="44.14553563091361" lon="10.985007464472204"><ele>378.5</ele><time>2026-05-03T13:09:13.938Z</time></trkpt><trkpt lat="44.14543614267954" lon="10.985171460232014"><ele>381.0</ele><time>2026-05-03T13:09:14.938Z</time></trkpt><trkpt lat="44.145341814952644" lon="10.98532103331114"><ele>383.5</ele><time>2026-05-03T13:09:15.938Z</time></trkpt><trkpt lat="44.14527782041075" lon="10.985434919653695"><ele>386.0</ele><time>2026-05-03T13:09:16.938Z</time></trkpt><trkpt lat="44.145216038982724" lon="10.985526604323296"><ele>386.0</ele><time>2026-05-03T13:09:17.938Z</time></trkpt><trkpt lat="44.145165597460164" lon="10.985605059813867"><ele>386.0</ele><time>2026-05-03T13:09:18.938Z</time></trkpt><trkpt lat="44.145119029852545" lon="10.985681731299973"><ele>386.0</ele><time>2026-05-03T13:09:19.938Z</time></trkpt><trkpt lat="44.14504571134163" lon="10.985763131649028"><ele>386.0</ele><time>2026-05-03T13:09:20.938Z</time></trkpt><trkpt lat="44.144954824714475" lon="10.985833870214584"><ele>386.0</ele><time>2026-05-03T13:09:21.938Z</time></trkpt><trkpt lat="44.14484906437744" lon="10.98587331865162"><ele>383.75</ele><time>2026-05-03T13:09:22.938Z</time></trkpt><trkpt lat="44.14474088052625" lon="10.985925306558638"><ele>381.5</ele><time>2026-05-03T13:09:23.938Z</time></trkpt><trkpt lat="44.14461287363951" lon="10.986000915156602"><ele>379.25</ele><time>2026-05-03T13:09:24.938Z</time></trkpt><trkpt lat="44.144474137403" lon="10.98607052703629"><ele>377.0</ele><time>2026-05-03T13:09:25.938Z</time></trkpt><trkpt lat="44.144328622946176" lon="10.986135011663931"><ele>377.0</ele><time>2026-05-03T13:09:26.938Z</time></trkpt><trkpt lat="44.144195558410516" lon="10.986231219120683"><ele>377.0</ele><time>2026-05-03T13:09:27.938Z</time></trkpt><trkpt lat="44.14405334767246" lon="10.986343349284743"><ele>377.0</ele><time>2026-05-03T13:09:28.938Z</time></trkpt><trkpt lat="44.14391988701805" lon="10.98645748864293"><ele>377.0</ele><time>2026-05-03T13:09:29.938Z</time></trkpt><trkpt lat="44.14379463382265" lon="10.986572367576038"><ele>377.0</ele><time>2026-05-03T13:09:30.938Z</time></trkpt><trkpt lat="44.14367875717975" lon="10.986680406276884"><ele>377.0</ele><time>2026-05-03T13:09:31.938Z</time></trkpt><trkpt lat="44.14358409035442" lon="10.986804254527627"><ele>377.0</ele><time>2026-05-03T13:09:32.938Z</time></trkpt><trkpt lat="44.1434920655151" lon="10.986921133067511"><ele>377.0</ele><time>2026-05-03T13:09:33.938Z</time></trkpt><trkpt lat="44.14338592373176" lon="10.987018833555256"><ele>377.0</ele><time>2026-05-03T13:09:34.938Z</time></trkpt><trkpt lat="44.14325716712371" lon="10.987106517901815"><ele>377.0</ele><time>2026-05-03T13:09:35.938Z</time></trkpt><trkpt lat="44.14311401905944" lon="10.987199531905354"><ele>377.0</ele><time>2026-05-03T13:09:36.938Z</time></trkpt><trkpt lat="44.142972247514145" lon="10.987301993136674"><ele>380.0</ele><time>2026-05-03T13:09:37.938Z</time></trkpt><trkpt lat="44.14284945254108" lon="10.987414728524348"><ele>383.0</ele><time>2026-05-03T13:09:38.938Z</time></trkpt><trkpt lat="44.14271995812761" lon="10.987550039789928"><ele>386.0</ele><time>2026-05-03T13:09:39.938Z</time></trkpt><trkpt lat="44.14260305063409" lon="10.98767878166942"><ele>386.0</ele><time>2026-05-03T13:09:40.938Z</time></trkpt><trkpt lat="44.14248331908657" lon="10.987837479719152"><ele>386.0</ele><time>2026-05-03T13:09:41.938Z</time></trkpt><trkpt lat="44.14237658427952" lon="10.988006871037033"><ele>386.0</ele><time>2026-05-03T13:09:42.938Z</time></trkpt><trkpt lat="44.14228248305435" lon="10.988217841282712"><ele>387.3333333333333</ele><time>2026-05-03T13:09:43.938Z</time></trkpt><trkpt lat="44.14219317117296" lon="10.988413762446546"><ele>388.66666666666663</ele><time>2026-05-03T13:09:44.937Z</time></trkpt><trkpt lat="44.14209390902279" lon="10.988591275148666"><ele>390.0</ele><time>2026-05-03T13:09:45.937Z</time></trkpt><trkpt lat="44.14199478157265" lon="10.988742679995"><ele>390.0</ele><time>2026-05-03T13:09:46.937Z</time></trkpt><trkpt lat="44.14189307813499" lon="10.988885443434121"><ele>390.0</ele><time>2026-05-03T13:09:47.937Z</time></trkpt><trkpt lat="44.14176306875183" lon="10.988990167200411"><ele>390.0</ele><time>2026-05-03T13:09:48.938Z</time></trkpt><trkpt lat="44.141631148585724" lon="10.98909001171949"><ele>390.0</ele><time>2026-05-03T13:09:49.938Z</time></trkpt><trkpt lat="44.14147912313987" lon="10.989174502554057"><ele>389.33333333333337</ele><time>2026-05-03T13:09:50.938Z</time></trkpt><trkpt lat="44.141317983399595" lon="10.989277093667463"><ele>388.6666666666667</ele><time>2026-05-03T13:09:51.938Z</time></trkpt><trkpt lat="44.14115501214209" lon="10.989373779563604"><ele>388.0</ele><time>2026-05-03T13:09:52.938Z</time></trkpt><trkpt lat="44.140992090078164" lon="10.989462651519815"><ele>388.0</ele><time>2026-05-03T13:09:53.937Z</time></trkpt><trkpt lat="44.14082751805621" lon="10.98955023403212"><ele>388.0</ele><time>2026-05-03T13:09:54.938Z</time></trkpt><trkpt lat="44.14065550039757" lon="10.989640821783295"><ele>388.0</ele><time>2026-05-03T13:09:55.938Z</time></trkpt><trkpt lat="44.140478289217555" lon="10.989730807537837"><ele>386.6666666666667</ele><time>2026-05-03T13:09:56.938Z</time></trkpt><trkpt lat="44.14031871119668" lon="10.98985622719216"><ele>385.33333333333337</ele><time>2026-05-03T13:09:57.937Z</time></trkpt><trkpt lat="44.14017318055492" lon="10.989978617540404"><ele>384.0</ele><time>2026-05-03T13:09:58.937Z</time></trkpt><trkpt lat="44.14003702936449" lon="10.990110367771154"><ele>384.0</ele><time>2026-05-03T13:09:59.937Z</time></trkpt><trkpt lat="44.139919444913666" lon="10.990230117184572"><ele>384.0</ele><time>2026-05-03T13:10:00.937Z</time></trkpt><trkpt lat="44.13979950137116" lon="10.990311180366632"><ele>384.0</ele><time>2026-05-03T13:10:01.937Z</time></trkpt><trkpt lat="44.13965696028692" lon="10.9903731676982"><ele>384.0</ele><time>2026-05-03T13:10:02.937Z</time></trkpt><trkpt lat="44.139501170167456" lon="10.990448919402427"><ele>387.0</ele><time>2026-05-03T13:10:03.937Z</time></trkpt><trkpt lat="44.139335187266425" lon="10.990502920417667"><ele>390.0</ele><time>2026-05-03T13:10:04.937Z</time></trkpt><trkpt lat="44.13917065451113" lon="10.990561317975398"><ele>393.0</ele><time>2026-05-03T13:10:05.937Z</time></trkpt><trkpt lat="44.13900118857517" lon="10.990637798243577"><ele>395.0</ele><time>2026-05-03T13:10:06.937Z</time></trkpt><trkpt lat="44.13885113070622" lon="10.99074786486398"><ele>397.0</ele><time>2026-05-03T13:10:07.937Z</time></trkpt><trkpt lat="44.1387165253239" lon="10.990836965418593"><ele>399.0</ele><time>2026-05-03T13:10:08.937Z</time></trkpt><trkpt lat="44.138592411976184" lon="10.990922065353454"><ele>393.5</ele><time>2026-05-03T13:10:09.937Z</time></trkpt><trkpt lat="44.13847359971363" lon="10.990994919604368"><ele>388.0</ele><time>2026-05-03T13:10:10.937Z</time></trkpt><trkpt lat="44.13835550704472" lon="10.991018328369314"><ele>382.5</ele><time>2026-05-03T13:10:11.937Z</time></trkpt><trkpt lat="44.13823690607371" lon="10.990989470180656"><ele>377.0</ele><time>2026-05-03T13:10:12.937Z</time></trkpt><trkpt lat="44.13810181154289" lon="10.990898010707848"><ele>382.33333333333337</ele><time>2026-05-03T13:10:13.937Z</time></trkpt><trkpt lat="44.13797159295216" lon="10.990793830712752"><ele>387.6666666666667</ele><time>2026-05-03T13:10:14.937Z</time></trkpt><trkpt lat="44.137824653649325" lon="10.99069402801557"><ele>393.0</ele><time>2026-05-03T13:10:15.937Z</time></trkpt><trkpt lat="44.13766302221891" lon="10.990614288139543"><ele>393.0</ele><time>2026-05-03T13:10:16.937Z</time></trkpt><trkpt lat="44.13749361400149" lon="10.990576874546594"><ele>393.0</ele><time>2026-05-03T13:10:17.937Z</time></trkpt><trkpt lat="44.13732479999718" lon="10.990536715863794"><ele>393.0</ele><time>2026-05-03T13:10:18.937Z</time></trkpt><trkpt lat="44.13715893189736" lon="10.990462442433685"><ele>389.3333333333333</ele><time>2026-05-03T13:10:19.937Z</time></trkpt><trkpt lat="44.137003195116336" lon="10.990381069000092"><ele>385.66666666666663</ele><time>2026-05-03T13:10:20.937Z</time></trkpt><trkpt lat="44.13687625669149" lon="10.990259600427974"><ele>382.0</ele><time>2026-05-03T13:10:21.937Z</time></trkpt><trkpt lat="44.136759053724084" lon="10.990168946358745"><ele>382.0</ele><time>2026-05-03T13:10:22.937Z</time></trkpt><trkpt lat="44.1366507948508" lon="10.990085210369655"><ele>382.0</ele><time>2026-05-03T13:10:23.937Z</time></trkpt><trkpt lat="44.13653442042412" lon="10.98999984556074"><ele>382.0</ele><time>2026-05-03T13:10:24.937Z</time></trkpt><trkpt lat="44.136420653581716" lon="10.989944609908196"><ele>382.0</ele><time>2026-05-03T13:10:25.937Z</time></trkpt><trkpt lat="44.13631234335402" lon="10.989892155861115"><ele>384.5</ele><time>2026-05-03T13:10:26.937Z</time></trkpt><trkpt lat="44.13620370388017" lon="10.989828611416927"><ele>387.0</ele><time>2026-05-03T13:10:27.937Z</time></trkpt><trkpt lat="44.13609330709914" lon="10.989765515522201"><ele>389.5</ele><time>2026-05-03T13:10:28.937Z</time></trkpt><trkpt lat="44.135975227476166" lon="10.98969182604891"><ele>392.0</ele><time>2026-05-03T13:10:29.937Z</time></trkpt><trkpt lat="44.13585373983419" lon="10.989621664401858"><ele>392.0</ele><time>2026-05-03T13:10:30.937Z</time></trkpt><trkpt lat="44.1357234846515" lon="10.989567889799078"><ele>392.0</ele><time>2026-05-03T13:10:31.937Z</time></trkpt><trkpt lat="44.13561222411075" lon="10.989506833279995"><ele>392.0</ele><time>2026-05-03T13:10:32.937Z</time></trkpt><trkpt lat="44.13550847512048" lon="10.989471466907172"><ele>392.0</ele><time>2026-05-03T13:10:33.937Z</time></trkpt><trkpt lat="44.13538998570467" lon="10.98942547978637"><ele>391.5</ele><time>2026-05-03T13:10:34.937Z</time></trkpt><trkpt lat="44.13525106019111" lon="10.989394453797399"><ele>391.0</ele><time>2026-05-03T13:10:35.937Z</time></trkpt><trkpt lat="44.135114532775596" lon="10.989318329055688"><ele>390.5</ele><time>2026-05-03T13:10:36.937Z</time></trkpt><trkpt lat="44.134971564927206" lon="10.989272839676808"><ele>390.0</ele><time>2026-05-03T13:10:37.937Z</time></trkpt><trkpt lat="44.134835887767224" lon="10.989245796927749"><ele>390.0</ele><time>2026-05-03T13:10:38.937Z</time></trkpt><trkpt lat="44.1347073025972" lon="10.989220549021672"><ele>390.0</ele><time>2026-05-03T13:10:39.937Z</time></trkpt><trkpt lat="44.13457201887007" lon="10.989212685301192"><ele>390.0</ele><time>2026-05-03T13:10:40.936Z</time></trkpt><trkpt lat="44.13444519472001" lon="10.98920950424237"><ele>390.0</ele><time>2026-05-03T13:10:41.936Z</time></trkpt><trkpt lat="44.134316934594764" lon="10.989235662639542"><ele>390.0</ele><time>2026-05-03T13:10:42.936Z</time></trkpt><trkpt lat="44.13418915661546" lon="10.989294452765657"><ele>390.0</ele><time>2026-05-03T13:10:43.936Z</time></trkpt><trkpt lat="44.13406355468322" lon="10.989347614745412"><ele>390.0</ele><time>2026-05-03T13:10:44.936Z</time></trkpt><trkpt lat="44.13393422548956" lon="10.989430034393036"><ele>390.0</ele><time>2026-05-03T13:10:45.936Z</time></trkpt><trkpt lat="44.133810957485096" lon="10.989510609508676"><ele>392.75</ele><time>2026-05-03T13:10:46.936Z</time></trkpt><trkpt lat="44.13369640182971" lon="10.98958609953244"><ele>395.5</ele><time>2026-05-03T13:10:47.936Z</time></trkpt><trkpt lat="44.13358780673453" lon="10.989651242069455"><ele>398.25</ele><time>2026-05-03T13:10:48.936Z</time></trkpt><trkpt lat="44.1334815251071" lon="10.989712301314006"><ele>401.0</ele><time>2026-05-03T13:10:49.936Z</time></trkpt><trkpt lat="44.1333826935649" lon="10.989772120585403"><ele>401.0</ele><time>2026-05-03T13:10:50.936Z</time></trkpt><trkpt lat="44.133280298905504" lon="10.989862022857274"><ele>401.0</ele><time>2026-05-03T13:10:51.936Z</time></trkpt><trkpt lat="44.13318027686198" lon="10.989971555959265"><ele>401.0</ele><time>2026-05-03T13:10:52.936Z</time></trkpt><trkpt lat="44.13308244188666" lon="10.990086113016096"><ele>401.0</ele><time>2026-05-03T13:10:53.936Z</time></trkpt><trkpt lat="44.132993672385076" lon="10.99020740219206"><ele>401.75</ele><time>2026-05-03T13:10:54.936Z</time></trkpt><trkpt lat="44.132902284467" lon="10.990318593150542"><ele>402.5</ele><time>2026-05-03T13:10:55.936Z</time></trkpt><trkpt lat="44.132806203141" lon="10.990433498844645"><ele>403.25</ele><time>2026-05-03T13:10:56.936Z</time></trkpt><trkpt lat="44.13270873997851" lon="10.99052407512425"><ele>404.0</ele><time>2026-05-03T13:10:57.936Z</time></trkpt><trkpt lat="44.132614622761196" lon="10.990584431977654"><ele>404.0</ele><time>2026-05-03T13:10:58.936Z</time></trkpt><trkpt lat="44.132517023329285" lon="10.99064239675608"><ele>404.0</ele><time>2026-05-03T13:10:59.936Z</time></trkpt><trkpt lat="44.132413333995316" lon="10.990691963418495"><ele>404.0</ele><time>2026-05-03T13:11:00.936Z</time></trkpt><trkpt lat="44.13230787947595" lon="10.990738683592207"><ele>404.0</ele><time>2026-05-03T13:11:01.936Z</time></trkpt><trkpt lat="44.13220876457476" lon="10.990792310691583"><ele>404.0</ele><time>2026-05-03T13:11:02.936Z</time></trkpt><trkpt lat="44.132101379813285" lon="10.990841851170718"><ele>403.6</ele><time>2026-05-03T13:11:03.936Z</time></trkpt><trkpt lat="44.132002206170945" lon="10.990894736487"><ele>403.2</ele><time>2026-05-03T13:11:04.936Z</time></trkpt><trkpt lat="44.1318983486801" lon="10.99094231467777"><ele>402.8</ele><time>2026-05-03T13:11:05.936Z</time></trkpt><trkpt lat="44.1317928229959" lon="10.990996810980818"><ele>402.40000000000003</ele><time>2026-05-03T13:11:06.936Z</time></trkpt><trkpt lat="44.1316985439227" lon="10.990996459875934"><ele>402.0</ele><time>2026-05-03T13:11:07.936Z</time></trkpt><trkpt lat="44.13161052274645" lon="10.991032062515709"><ele>402.0</ele><time>2026-05-03T13:11:08.936Z</time></trkpt><trkpt lat="44.13151426838591" lon="10.991063037901434"><ele>402.0</ele><time>2026-05-03T13:11:09.936Z</time></trkpt><trkpt lat="44.131413792145985" lon="10.991099001909607"><ele>402.0</ele><time>2026-05-03T13:11:10.936Z</time></trkpt><trkpt lat="44.13131712256715" lon="10.991129881459836"><ele>402.0</ele><time>2026-05-03T13:11:11.936Z</time></trkpt><trkpt lat="44.13122384838492" lon="10.99115959246231"><ele>402.0</ele><time>2026-05-03T13:11:12.936Z</time></trkpt><trkpt lat="44.13112396079392" lon="10.991180335753885"><ele>402.0</ele><time>2026-05-03T13:11:13.936Z</time></trkpt><trkpt lat="44.131021670420964" lon="10.991211621949596"><ele>402.0</ele><time>2026-05-03T13:11:14.936Z</time></trkpt><trkpt lat="44.130916072654266" lon="10.991231149408707"><ele>402.0</ele><time>2026-05-03T13:11:15.936Z</time></trkpt><trkpt lat="44.13080441149556" lon="10.9912616213642"><ele>402.0</ele><time>2026-05-03T13:11:16.936Z</time></trkpt><trkpt lat="44.13068479066121" lon="10.9912911714776"><ele>402.0</ele><time>2026-05-03T13:11:17.936Z</time></trkpt><trkpt lat="44.1305699544794" lon="10.991332517510404"><ele>402.6</ele><time>2026-05-03T13:11:18.936Z</time></trkpt><trkpt lat="44.13045423138156" lon="10.991324654576845"><ele>403.20000000000005</ele><time>2026-05-03T13:11:19.936Z</time></trkpt><trkpt lat="44.1303499194109" lon="10.991349465727348"><ele>403.8</ele><time>2026-05-03T13:11:20.936Z</time></trkpt><trkpt lat="44.130244763125326" lon="10.991370985657728"><ele>404.4</ele><time>2026-05-03T13:11:21.936Z</time></trkpt><trkpt lat="44.130138197463445" lon="10.991399521084674"><ele>405.0</ele><time>2026-05-03T13:11:22.936Z</time></trkpt><trkpt lat="44.13002796404461" lon="10.991436103741073"><ele>405.0</ele><time>2026-05-03T13:11:23.936Z</time></trkpt><trkpt lat="44.12991834992247" lon="10.99148350890064"><ele>405.0</ele><time>2026-05-03T13:11:24.936Z</time></trkpt><trkpt lat="44.12982277725053" lon="10.991512721811084"><ele>405.0</ele><time>2026-05-03T13:11:25.936Z</time></trkpt><trkpt lat="44.12972009374632" lon="10.991530467844374"><ele>405.0</ele><time>2026-05-03T13:11:26.936Z</time></trkpt><trkpt lat="44.1296214140251" lon="10.9915566001372"><ele>405.0</ele><time>2026-05-03T13:11:27.936Z</time></trkpt><trkpt lat="44.129525599732155" lon="10.991570476770118"><ele>404.0</ele><time>2026-05-03T13:11:28.936Z</time></trkpt><trkpt lat="44.12943670643709" lon="10.991592088186245"><ele>403.0</ele><time>2026-05-03T13:11:29.936Z</time></trkpt><trkpt lat="44.12937120862252" lon="10.9916066565566"><ele>402.0</ele><time>2026-05-03T13:11:30.936Z</time></trkpt><trkpt lat="44.12927855307802" lon="10.99159904054559"><ele>401.0</ele><time>2026-05-03T13:11:32.936Z</time></trkpt><trkpt lat="44.129239880954536" lon="10.991528774716206"><ele>400.0</ele><time>2026-05-03T13:11:33.936Z</time></trkpt><trkpt lat="44.129235265506594" lon="10.99141850479261"><ele>399.0</ele><time>2026-05-03T13:11:34.936Z</time></trkpt><trkpt lat="44.129189972276684" lon="10.991295630808601"><ele>399.0</ele><time>2026-05-03T13:11:35.936Z</time></trkpt><trkpt lat="44.129160011943696" lon="10.991150187604436"><ele>399.0</ele><time>2026-05-03T13:11:36.936Z</time></trkpt><trkpt lat="44.12912799153626" lon="10.990990514535133"><ele>399.0</ele><time>2026-05-03T13:11:37.936Z</time></trkpt><trkpt lat="44.129083406962195" lon="10.990817667244189"><ele>399.0</ele><time>2026-05-03T13:11:38.936Z</time></trkpt><trkpt lat="44.12901997348669" lon="10.990636235207596"><ele>398.0</ele><time>2026-05-03T13:11:39.936Z</time></trkpt><trkpt lat="44.1289561239453" lon="10.990450807857162"><ele>397.0</ele><time>2026-05-03T13:11:40.936Z</time></trkpt><trkpt lat="44.1288830903299" lon="10.9902651935585"><ele>396.0</ele><time>2026-05-03T13:11:41.936Z</time></trkpt><trkpt lat="44.12881737132713" lon="10.99007107710986"><ele>395.66666666666663</ele><time>2026-05-03T13:11:42.936Z</time></trkpt><trkpt lat="44.12873937050269" lon="10.989871092762032"><ele>395.3333333333333</ele><time>2026-05-03T13:11:43.936Z</time></trkpt><trkpt lat="44.12865482774219" lon="10.989668124899472"><ele>395.0</ele><time>2026-05-03T13:11:44.935Z</time></trkpt><trkpt lat="44.12856858048597" lon="10.989464684022266"><ele>395.0</ele><time>2026-05-03T13:11:45.935Z</time></trkpt><trkpt lat="44.12847274714792" lon="10.989263282509603"><ele>395.0</ele><time>2026-05-03T13:11:46.935Z</time></trkpt><trkpt lat="44.128385584497664" lon="10.989048551861506"><ele>395.0</ele><time>2026-05-03T13:11:47.935Z</time></trkpt><trkpt lat="44.12830095250071" lon="10.988828599078373"><ele>396.3333333333333</ele><time>2026-05-03T13:11:48.935Z</time></trkpt><trkpt lat="44.128219575514684" lon="10.988624493781808"><ele>397.66666666666663</ele><time>2026-05-03T13:11:49.935Z</time></trkpt><trkpt lat="44.128146884747615" lon="10.988423221495122"><ele>399.0</ele><time>2026-05-03T13:11:50.936Z</time></trkpt><trkpt lat="44.128061789248186" lon="10.988240983251355"><ele>399.33333333333337</ele><time>2026-05-03T13:11:51.935Z</time></trkpt><trkpt lat="44.12796795753013" lon="10.988067066227547"><ele>399.6666666666667</ele><time>2026-05-03T13:11:52.935Z</time></trkpt><trkpt lat="44.12782982737954" lon="10.987943662205632"><ele>400.0</ele><time>2026-05-03T13:11:53.935Z</time></trkpt><trkpt lat="44.12769328839868" lon="10.987823050455823"><ele>400.0</ele><time>2026-05-03T13:11:54.935Z</time></trkpt><trkpt lat="44.12755413454631" lon="10.987698830996248"><ele>400.0</ele><time>2026-05-03T13:11:55.935Z</time></trkpt><trkpt lat="44.127428533853866" lon="10.987554668417744"><ele>400.0</ele><time>2026-05-03T13:11:56.935Z</time></trkpt><trkpt lat="44.127316770830994" lon="10.987390098395695"><ele>401.33333333333337</ele><time>2026-05-03T13:11:57.935Z</time></trkpt><trkpt lat="44.12720558867706" lon="10.987215442078861"><ele>402.66666666666663</ele><time>2026-05-03T13:11:58.935Z</time></trkpt><trkpt lat="44.12709110476495" lon="10.987063318787351"><ele>404.0</ele><time>2026-05-03T13:11:59.935Z</time></trkpt><trkpt lat="44.126970604969955" lon="10.986926782180756"><ele>404.0</ele><time>2026-05-03T13:12:00.935Z</time></trkpt><trkpt lat="44.12683456535436" lon="10.98680627437218"><ele>404.0</ele><time>2026-05-03T13:12:01.935Z</time></trkpt><trkpt lat="44.12669581173631" lon="10.986691524181476"><ele>404.0</ele><time>2026-05-03T13:12:02.935Z</time></trkpt><trkpt lat="44.126567659342165" lon="10.98654280533836"><ele>406.0</ele><time>2026-05-03T13:12:03.935Z</time></trkpt><trkpt lat="44.12643484447304" lon="10.986408457295454"><ele>408.0</ele><time>2026-05-03T13:12:04.934Z</time></trkpt><trkpt lat="44.126301456130506" lon="10.986305982443135"><ele>410.0</ele><time>2026-05-03T13:12:05.934Z</time></trkpt><trkpt lat="44.12619696658836" lon="10.986182461624283"><ele>410.0</ele><time>2026-05-03T13:12:06.934Z</time></trkpt><trkpt lat="44.126092606480576" lon="10.986079124711248"><ele>410.0</ele><time>2026-05-03T13:12:07.934Z</time></trkpt><trkpt lat="44.12599997368075" lon="10.985954028509857"><ele>410.0</ele><time>2026-05-03T13:12:08.934Z</time></trkpt><trkpt lat="44.125932408643855" lon="10.985812598276373"><ele>410.0</ele><time>2026-05-03T13:12:09.934Z</time></trkpt><trkpt lat="44.12584978022793" lon="10.985671847240777"><ele>412.0</ele><time>2026-05-03T13:12:10.934Z</time></trkpt><trkpt lat="44.125807195620126" lon="10.985478859156178"><ele>414.0</ele><time>2026-05-03T13:12:11.934Z</time></trkpt><trkpt lat="44.125770087687236" lon="10.985280341637395"><ele>416.0</ele><time>2026-05-03T13:12:12.934Z</time></trkpt><trkpt lat="44.12573181888146" lon="10.985076782988534"><ele>418.0</ele><time>2026-05-03T13:12:13.934Z</time></trkpt><trkpt lat="44.125713643179225" lon="10.984855792549785"><ele>429.0</ele><time>2026-05-03T13:12:14.934Z</time></trkpt><trkpt lat="44.12569774990857" lon="10.984646064774148"><ele>440.0</ele><time>2026-05-03T13:12:15.934Z</time></trkpt><trkpt lat="44.12567657419654" lon="10.984424713867018"><ele>451.0</ele><time>2026-05-03T13:12:16.934Z</time></trkpt><trkpt lat="44.12567716529102" lon="10.98420142208413"><ele>447.0</ele><time>2026-05-03T13:12:17.934Z</time></trkpt><trkpt lat="44.12567050463107" lon="10.984007864357823"><ele>443.0</ele><time>2026-05-03T13:12:18.934Z</time></trkpt><trkpt lat="44.125691299892054" lon="10.983856605002716"><ele>439.0</ele><time>2026-05-03T13:12:19.934Z</time></trkpt><trkpt lat="44.12571020147498" lon="10.98372139609782"><ele>435.0</ele><time>2026-05-03T13:12:20.934Z</time></trkpt><trkpt lat="44.125705853388546" lon="10.9836217343281"><ele>431.0</ele><time>2026-05-03T13:12:21.934Z</time></trkpt><trkpt lat="44.12565520363305" lon="10.983493088318943"><ele>431.0</ele><time>2026-05-03T13:12:22.934Z</time></trkpt><trkpt lat="44.125533887999865" lon="10.983394563743968"><ele>431.0</ele><time>2026-05-03T13:12:23.934Z</time></trkpt><trkpt lat="44.12541586105536" lon="10.983300987547068"><ele>431.0</ele><time>2026-05-03T13:12:24.934Z</time></trkpt><trkpt lat="44.125353978069384" lon="10.983176247842808"><ele>431.0</ele><time>2026-05-03T13:12:25.934Z</time></trkpt><trkpt lat="44.12531935993214" lon="10.983020678780571"><ele>432.5</ele><time>2026-05-03T13:12:26.934Z</time></trkpt><trkpt lat="44.125285439950474" lon="10.982837821915872"><ele>434.0</ele><time>2026-05-03T13:12:27.934Z</time></trkpt><trkpt lat="44.12524134071985" lon="10.982650108194935"><ele>435.5</ele><time>2026-05-03T13:12:28.934Z</time></trkpt><trkpt lat="44.12518928703772" lon="10.982487627834807"><ele>437.0</ele><time>2026-05-03T13:12:29.934Z</time></trkpt><trkpt lat="44.125139127236025" lon="10.982354203408317"><ele>437.0</ele><time>2026-05-03T13:12:30.934Z</time></trkpt><trkpt lat="44.125084429077425" lon="10.982256419126408"><ele>437.0</ele><time>2026-05-03T13:12:31.934Z</time></trkpt><trkpt lat="44.12500014525779" lon="10.982171435018298"><ele>437.0</ele><time>2026-05-03T13:12:32.934Z</time></trkpt><trkpt lat="44.124886561464464" lon="10.982100588840366"><ele>437.0</ele><time>2026-05-03T13:12:33.934Z</time></trkpt><trkpt lat="44.124762854901064" lon="10.982020894780987"><ele>439.0</ele><time>2026-05-03T13:12:34.934Z</time></trkpt><trkpt lat="44.1246368999543" lon="10.981927409200345"><ele>441.0</ele><time>2026-05-03T13:12:35.934Z</time></trkpt><trkpt lat="44.124506626910986" lon="10.981890429063776"><ele>443.0</ele><time>2026-05-03T13:12:36.934Z</time></trkpt><trkpt lat="44.12438472323532" lon="10.981771393299429"><ele>445.0</ele><time>2026-05-03T13:12:37.934Z</time></trkpt><trkpt lat="44.12426106113683" lon="10.981672460974423"><ele>445.0</ele><time>2026-05-03T13:12:38.934Z</time></trkpt><trkpt lat="44.12414320457914" lon="10.981559999933351"><ele>445.0</ele><time>2026-05-03T13:12:39.934Z</time></trkpt><trkpt lat="44.12401186551939" lon="10.981456547825868"><ele>445.0</ele><time>2026-05-03T13:12:40.934Z</time></trkpt><trkpt lat="44.123922578897236" lon="10.981336947698024"><ele>445.0</ele><time>2026-05-03T13:12:41.934Z</time></trkpt><trkpt lat="44.1238430862321" lon="10.98123121121309"><ele>441.4</ele><time>2026-05-03T13:12:42.934Z</time></trkpt><trkpt lat="44.1237973119338" lon="10.981132708987642"><ele>437.8</ele><time>2026-05-03T13:12:43.934Z</time></trkpt><trkpt lat="44.123797635580644" lon="10.981003092039511"><ele>434.20000000000005</ele><time>2026-05-03T13:12:44.934Z</time></trkpt><trkpt lat="44.123811727567606" lon="10.980872076163578"><ele>430.6</ele><time>2026-05-03T13:12:45.934Z</time></trkpt><trkpt lat="44.12384821394535" lon="10.980722835675813"><ele>427.0</ele><time>2026-05-03T13:12:46.934Z</time></trkpt><trkpt lat="44.12387910932912" lon="10.98057935731664"><ele>427.0</ele><time>2026-05-03T13:12:47.934Z</time></trkpt><trkpt lat="44.12392120043499" lon="10.980432673120974"><ele>427.0</ele><time>2026-05-03T13:12:48.934Z</time></trkpt><trkpt lat="44.12395721111064" lon="10.98027109729467"><ele>427.0</ele><time>2026-05-03T13:12:49.934Z</time></trkpt><trkpt lat="44.123987276637706" lon="10.980092445317355"><ele>427.0</ele><time>2026-05-03T13:12:50.934Z</time></trkpt><trkpt lat="44.124006637248975" lon="10.979918475684727"><ele>427.0</ele><time>2026-05-03T13:12:51.934Z</time></trkpt><trkpt lat="44.124024544261665" lon="10.979733010073524"><ele>427.0</ele><time>2026-05-03T13:12:52.934Z</time></trkpt><trkpt lat="44.124026105937844" lon="10.979534138119293"><ele>427.0</ele><time>2026-05-03T13:12:53.934Z</time></trkpt><trkpt lat="44.12401116441559" lon="10.979320428155269"><ele>427.0</ele><time>2026-05-03T13:12:54.934Z</time></trkpt><trkpt lat="44.123999355995394" lon="10.979074240043452"><ele>427.0</ele><time>2026-05-03T13:12:55.934Z</time></trkpt><trkpt lat="44.12398263971889" lon="10.978853310497485"><ele>427.0</ele><time>2026-05-03T13:12:56.934Z</time></trkpt><trkpt lat="44.123974361066175" lon="10.978649323002143"><ele>427.0</ele><time>2026-05-03T13:12:57.934Z</time></trkpt><trkpt lat="44.123968341641785" lon="10.978471776032398"><ele>427.0</ele><time>2026-05-03T13:12:58.934Z</time></trkpt><trkpt lat="44.1239661352685" lon="10.978299710135298"><ele>427.40000000000003</ele><time>2026-05-03T13:12:59.934Z</time></trkpt><trkpt lat="44.12399901775112" lon="10.978149635941138"><ele>427.80000000000007</ele><time>2026-05-03T13:13:00.934Z</time></trkpt><trkpt lat="44.12407306786067" lon="10.978042838968921"><ele>428.2</ele><time>2026-05-03T13:13:01.934Z</time></trkpt><trkpt lat="44.12415380183659" lon="10.977929838201726"><ele>428.6</ele><time>2026-05-03T13:13:02.934Z</time></trkpt><trkpt lat="44.12422287674327" lon="10.977815453726393"><ele>429.0</ele><time>2026-05-03T13:13:03.934Z</time></trkpt><trkpt lat="44.12427080929493" lon="10.97766932009022"><ele>438.2</ele><time>2026-05-03T13:13:04.934Z</time></trkpt><trkpt lat="44.124306715605485" lon="10.977514086263449"><ele>447.4</ele><time>2026-05-03T13:13:05.934Z</time></trkpt><trkpt lat="44.1243300075138" lon="10.977397527539173"><ele>456.6</ele><time>2026-05-03T13:13:06.934Z</time></trkpt><trkpt lat="44.12434594822479" lon="10.97726748134432"><ele>465.8</ele><time>2026-05-03T13:13:07.934Z</time></trkpt><trkpt lat="44.12433487759752" lon="10.977180571217938"><ele>475.0</ele><time>2026-05-03T13:13:08.933Z</time></trkpt><trkpt lat="44.124203078347364" lon="10.977130712355205"><ele>475.0</ele><time>2026-05-03T13:13:09.933Z</time></trkpt><trkpt lat="44.12411579873591" lon="10.97709938560048"><ele>475.0</ele><time>2026-05-03T13:13:10.933Z</time></trkpt><trkpt lat="44.12402402407962" lon="10.97708553276614"><ele>475.0</ele><time>2026-05-03T13:13:11.933Z</time></trkpt><trkpt lat="44.123902673669214" lon="10.977146315651737"><ele>475.0</ele><time>2026-05-03T13:13:12.933Z</time></trkpt><trkpt lat="44.12378970411079" lon="10.97722236372206"><ele>475.0</ele><time>2026-05-03T13:13:13.933Z</time></trkpt><trkpt lat="44.12367946656645" lon="10.977225484265993"><ele>467.5</ele><time>2026-05-03T13:13:14.933Z</time></trkpt><trkpt lat="44.12358878072344" lon="10.977158901730208"><ele>460.0</ele><time>2026-05-03T13:13:15.933Z</time></trkpt><trkpt lat="44.12348874366674" lon="10.977023821917964"><ele>452.5</ele><time>2026-05-03T13:13:16.933Z</time></trkpt><trkpt lat="44.12337321419873" lon="10.976915182817367"><ele>445.0</ele><time>2026-05-03T13:13:17.933Z</time></trkpt><trkpt lat="44.123223565822556" lon="10.976838040881411"><ele>444.0</ele><time>2026-05-03T13:13:18.933Z</time></trkpt><trkpt lat="44.12307717114721" lon="10.976771264918911"><ele>443.0</ele><time>2026-05-03T13:13:19.933Z</time></trkpt><trkpt lat="44.12293705386358" lon="10.976701249855584"><ele>442.0</ele><time>2026-05-03T13:13:20.933Z</time></trkpt><trkpt lat="44.122807000173935" lon="10.97664269382796"><ele>441.0</ele><time>2026-05-03T13:13:21.933Z</time></trkpt><trkpt lat="44.12265398441124" lon="10.976627823857353"><ele>449.75</ele><time>2026-05-03T13:13:22.933Z</time></trkpt><trkpt lat="44.12249900189135" lon="10.976660409188238"><ele>458.5</ele><time>2026-05-03T13:13:23.933Z</time></trkpt><trkpt lat="44.12236115499678" lon="10.976683181088918"><ele>467.25</ele><time>2026-05-03T13:13:24.933Z</time></trkpt><trkpt lat="44.122253026197484" lon="10.976726826586171"><ele>476.0</ele><time>2026-05-03T13:13:25.933Z</time></trkpt><trkpt lat="44.12213087935529" lon="10.976834953903747"><ele>476.0</ele><time>2026-05-03T13:13:26.933Z</time></trkpt><trkpt lat="44.12202370120767" lon="10.976929039642423"><ele>476.0</ele><time>2026-05-03T13:13:27.933Z</time></trkpt><trkpt lat="44.12190548608188" lon="10.97707402072706"><ele>476.0</ele><time>2026-05-03T13:13:28.933Z</time></trkpt><trkpt lat="44.12179278442172" lon="10.977207609203663"><ele>476.0</ele><time>2026-05-03T13:13:29.933Z</time></trkpt><trkpt lat="44.12169389515955" lon="10.977344008963001"><ele>476.0</ele><time>2026-05-03T13:13:30.933Z</time></trkpt><trkpt lat="44.12161833367143" lon="10.977480097573299"><ele>476.0</ele><time>2026-05-03T13:13:31.933Z</time></trkpt><trkpt lat="44.121548025949295" lon="10.977580331951213"><ele>476.0</ele><time>2026-05-03T13:13:32.933Z</time></trkpt><trkpt lat="44.12146730049137" lon="10.977644955989984"><ele>476.0</ele><time>2026-05-03T13:13:33.933Z</time></trkpt><trkpt lat="44.12136400689218" lon="10.977640276948357"><ele>476.0</ele><time>2026-05-03T13:13:34.933Z</time></trkpt><trkpt lat="44.121270602180246" lon="10.977560367241441"><ele>472.75</ele><time>2026-05-03T13:13:35.933Z</time></trkpt><trkpt lat="44.12118019274127" lon="10.977455880421147"><ele>469.5</ele><time>2026-05-03T13:13:36.933Z</time></trkpt><trkpt lat="44.12108686709865" lon="10.97736407154682"><ele>466.25</ele><time>2026-05-03T13:13:37.933Z</time></trkpt><trkpt lat="44.12100003723351" lon="10.977239988972956"><ele>463.0</ele><time>2026-05-03T13:13:38.933Z</time></trkpt><trkpt lat="44.120911137352856" lon="10.977102385018638"><ele>463.0</ele><time>2026-05-03T13:13:39.933Z</time></trkpt><trkpt lat="44.12082989584309" lon="10.976958768411851"><ele>463.0</ele><time>2026-05-03T13:13:40.933Z</time></trkpt><trkpt lat="44.120763763716646" lon="10.976771422155924"><ele>463.0</ele><time>2026-05-03T13:13:41.933Z</time></trkpt><trkpt lat="44.12070917987833" lon="10.9765580602403"><ele>463.0</ele><time>2026-05-03T13:13:42.933Z</time></trkpt><trkpt lat="44.12067491836268" lon="10.976388496482954"><ele>461.0</ele><time>2026-05-03T13:13:43.933Z</time></trkpt><trkpt lat="44.12067018171102" lon="10.976204806483029"><ele>459.0</ele><time>2026-05-03T13:13:44.933Z</time></trkpt><trkpt lat="44.120687586075995" lon="10.976024897461347"><ele>457.0</ele><time>2026-05-03T13:13:45.933Z</time></trkpt><trkpt lat="44.12072024933026" lon="10.975817154734756"><ele>455.0</ele><time>2026-05-03T13:13:46.933Z</time></trkpt><trkpt lat="44.120764068166004" lon="10.97563510255381"><ele>455.0</ele><time>2026-05-03T13:13:47.933Z</time></trkpt><trkpt lat="44.12080931902734" lon="10.97548158785133"><ele>455.0</ele><time>2026-05-03T13:13:48.933Z</time></trkpt><trkpt lat="44.12080545536605" lon="10.975358737338443"><ele>455.0</ele><time>2026-05-03T13:13:49.933Z</time></trkpt><trkpt lat="44.12073375327629" lon="10.975289674141615"><ele>455.0</ele><time>2026-05-03T13:13:50.933Z</time></trkpt><trkpt lat="44.12066244845098" lon="10.975216949741283"><ele>455.0</ele><time>2026-05-03T13:13:51.933Z</time></trkpt><trkpt lat="44.12057142716346" lon="10.975146881370945"><ele>455.0</ele><time>2026-05-03T13:13:52.933Z</time></trkpt><trkpt lat="44.12047545068794" lon="10.97506426405137"><ele>455.0</ele><time>2026-05-03T13:13:53.933Z</time></trkpt><trkpt lat="44.120375690131276" lon="10.974965246244132"><ele>455.0</ele><time>2026-05-03T13:13:54.933Z</time></trkpt><trkpt lat="44.12030044033056" lon="10.974824739931917"><ele>455.0</ele><time>2026-05-03T13:13:55.933Z</time></trkpt><trkpt lat="44.12024986375041" lon="10.974720469966982"><ele>459.0</ele><time>2026-05-03T13:13:56.933Z</time></trkpt><trkpt lat="44.12017653864481" lon="10.974668292316743"><ele>463.0</ele><time>2026-05-03T13:13:57.932Z</time></trkpt><trkpt lat="44.12005794698349" lon="10.974641524851698"><ele>467.0</ele><time>2026-05-03T13:13:58.932Z</time></trkpt><trkpt lat="44.11992050960563" lon="10.974637303854177"><ele>471.0</ele><time>2026-05-03T13:13:59.933Z</time></trkpt><trkpt lat="44.11977065935072" lon="10.974604794652759"><ele>471.0</ele><time>2026-05-03T13:14:00.932Z</time></trkpt><trkpt lat="44.11961148242258" lon="10.97455571458241"><ele>471.0</ele><time>2026-05-03T13:14:01.932Z</time></trkpt><trkpt lat="44.11944004802852" lon="10.974510642315312"><ele>471.0</ele><time>2026-05-03T13:14:02.933Z</time></trkpt><trkpt lat="44.119269456457594" lon="10.974487066511488"><ele>471.0</ele><time>2026-05-03T13:14:03.933Z</time></trkpt><trkpt lat="44.11913749245753" lon="10.974448220894335"><ele>471.0</ele><time>2026-05-03T13:14:04.933Z</time></trkpt><trkpt lat="44.11904314795441" lon="10.9743710466776"><ele>471.0</ele><time>2026-05-03T13:14:05.933Z</time></trkpt><trkpt lat="44.11896703171602" lon="10.974245619807881"><ele>471.0</ele><time>2026-05-03T13:14:06.933Z</time></trkpt><trkpt lat="44.118910204340594" lon="10.974072043184574"><ele>471.0</ele><time>2026-05-03T13:14:07.933Z</time></trkpt><trkpt lat="44.11889716713264" lon="10.97387272669804"><ele>471.0</ele><time>2026-05-03T13:14:08.932Z</time></trkpt><trkpt lat="44.11889989834333" lon="10.973657402825905"><ele>471.0</ele><time>2026-05-03T13:14:09.932Z</time></trkpt><trkpt lat="44.11889158596742" lon="10.973476551042433"><ele>471.0</ele><time>2026-05-03T13:14:10.932Z</time></trkpt><trkpt lat="44.11884564883542" lon="10.97329637433986"><ele>475.0</ele><time>2026-05-03T13:14:11.932Z</time></trkpt><trkpt lat="44.118773979758046" lon="10.973141103027471"><ele>479.0</ele><time>2026-05-03T13:14:12.932Z</time></trkpt><trkpt lat="44.1186892611578" lon="10.972976513053455"><ele>483.0</ele><time>2026-05-03T13:14:13.932Z</time></trkpt><trkpt lat="44.118550709179516" lon="10.972893789291547"><ele>487.0</ele><time>2026-05-03T13:14:14.932Z</time></trkpt><trkpt lat="44.11838949392202" lon="10.972813601532483"><ele>479.0</ele><time>2026-05-03T13:14:15.932Z</time></trkpt><trkpt lat="44.11820651117819" lon="10.97275857445117"><ele>471.0</ele><time>2026-05-03T13:14:16.932Z</time></trkpt><trkpt lat="44.11802116574313" lon="10.97266833397557"><ele>463.0</ele><time>2026-05-03T13:14:17.932Z</time></trkpt><trkpt lat="44.11783773739519" lon="10.972578542194485"><ele>474.33333333333337</ele><time>2026-05-03T13:14:18.932Z</time></trkpt><trkpt lat="44.11766759273333" lon="10.972485908164717"><ele>485.66666666666663</ele><time>2026-05-03T13:14:19.932Z</time></trkpt><trkpt lat="44.11752155161733" lon="10.972370753658314"><ele>497.0</ele><time>2026-05-03T13:14:20.932Z</time></trkpt><trkpt lat="44.11740306648354" lon="10.97224668975272"><ele>491.5</ele><time>2026-05-03T13:14:21.932Z</time></trkpt><trkpt lat="44.11731692722985" lon="10.972123893444486"><ele>486.0</ele><time>2026-05-03T13:14:22.932Z</time></trkpt><trkpt lat="44.11723905322815" lon="10.971981498786558"><ele>480.5</ele><time>2026-05-03T13:14:23.932Z</time></trkpt><trkpt lat="44.11718324319664" lon="10.971806496846243"><ele>475.0</ele><time>2026-05-03T13:14:24.932Z</time></trkpt><trkpt lat="44.117160148415515" lon="10.971605229574905"><ele>475.0</ele><time>2026-05-03T13:14:25.932Z</time></trkpt><trkpt lat="44.11715215102028" lon="10.971381210369955"><ele>475.0</ele><time>2026-05-03T13:14:26.932Z</time></trkpt><trkpt lat="44.11715676662765" lon="10.971140300872504"><ele>475.0</ele><time>2026-05-03T13:14:27.932Z</time></trkpt><trkpt lat="44.117154973948715" lon="10.97089921163859"><ele>478.33333333333337</ele><time>2026-05-03T13:14:28.932Z</time></trkpt><trkpt lat="44.11711614207963" lon="10.970671597454444"><ele>481.66666666666663</ele><time>2026-05-03T13:14:29.932Z</time></trkpt><trkpt lat="44.117070306596815" lon="10.970439289573417"><ele>485.0</ele><time>2026-05-03T13:14:30.932Z</time></trkpt><trkpt lat="44.116991028913596" lon="10.9702191019392"><ele>485.0</ele><time>2026-05-03T13:14:31.932Z</time></trkpt><trkpt lat="44.116934297141036" lon="10.970048402544544"><ele>485.0</ele><time>2026-05-03T13:14:32.932Z</time></trkpt><trkpt lat="44.11685363227623" lon="10.96991066966381"><ele>485.0</ele><time>2026-05-03T13:14:33.932Z</time></trkpt><trkpt lat="44.11675121635052" lon="10.969781918764667"><ele>485.0</ele><time>2026-05-03T13:14:34.932Z</time></trkpt><trkpt lat="44.11664391984192" lon="10.969658425479693"><ele>482.3333333333333</ele><time>2026-05-03T13:14:35.932Z</time></trkpt><trkpt lat="44.11651126221914" lon="10.96953225172255"><ele>479.66666666666663</ele><time>2026-05-03T13:14:36.932Z</time></trkpt><trkpt lat="44.116385300435574" lon="10.969416428002598"><ele>477.0</ele><time>2026-05-03T13:14:37.932Z</time></trkpt><trkpt lat="44.11623645293548" lon="10.9693185149277"><ele>477.0</ele><time>2026-05-03T13:14:38.932Z</time></trkpt><trkpt lat="44.1160992046052" lon="10.969252068775837"><ele>477.0</ele><time>2026-05-03T13:14:39.932Z</time></trkpt><trkpt lat="44.1159950882534" lon="10.969200537223365"><ele>477.0</ele><time>2026-05-03T13:14:40.932Z</time></trkpt><trkpt lat="44.11591922285533" lon="10.969113253442947"><ele>477.0</ele><time>2026-05-03T13:14:41.932Z</time></trkpt><trkpt lat="44.115854580345825" lon="10.969001320433721"><ele>480.40000000000003</ele><time>2026-05-03T13:14:42.932Z</time></trkpt><trkpt lat="44.11583410036435" lon="10.968857171120428"><ele>483.80000000000007</ele><time>2026-05-03T13:14:43.932Z</time></trkpt><trkpt lat="44.115807110381546" lon="10.968736432836513"><ele>487.2</ele><time>2026-05-03T13:14:44.932Z</time></trkpt><trkpt lat="44.115734653946895" lon="10.9687037354796"><ele>490.6</ele><time>2026-05-03T13:14:45.932Z</time></trkpt><trkpt lat="44.11565306736642" lon="10.968726646326031"><ele>494.0</ele><time>2026-05-03T13:14:46.932Z</time></trkpt><trkpt lat="44.11554879085241" lon="10.968796604151168"><ele>494.0</ele><time>2026-05-03T13:14:47.932Z</time></trkpt><trkpt lat="44.11542153521876" lon="10.968920660550225"><ele>494.0</ele><time>2026-05-03T13:14:48.932Z</time></trkpt><trkpt lat="44.11529178993479" lon="10.969052277693216"><ele>494.0</ele><time>2026-05-03T13:14:49.932Z</time></trkpt><trkpt lat="44.115153027312125" lon="10.969125456300507"><ele>494.0</ele><time>2026-05-03T13:14:50.932Z</time></trkpt><trkpt lat="44.115043446800115" lon="10.96917018627519"><ele>494.0</ele><time>2026-05-03T13:14:51.932Z</time></trkpt><trkpt lat="44.11495080445674" lon="10.96917594871996"><ele>494.0</ele><time>2026-05-03T13:14:52.932Z</time></trkpt><trkpt lat="44.114880636345255" lon="10.969140316899"><ele>494.0</ele><time>2026-05-03T13:14:53.932Z</time></trkpt><trkpt lat="44.114825674117334" lon="10.969059632573462"><ele>494.0</ele><time>2026-05-03T13:14:54.932Z</time></trkpt><trkpt lat="44.11479590798879" lon="10.96892880565857"><ele>491.5</ele><time>2026-05-03T13:14:55.932Z</time></trkpt><trkpt lat="44.11478538188357" lon="10.968738702645323"><ele>489.0</ele><time>2026-05-03T13:14:56.932Z</time></trkpt><trkpt lat="44.114756746734315" lon="10.968589654901434"><ele>486.5</ele><time>2026-05-03T13:14:57.932Z</time></trkpt><trkpt lat="44.114692023182" lon="10.96844968974989"><ele>484.0</ele><time>2026-05-03T13:14:58.932Z</time></trkpt><trkpt lat="44.11463699168519" lon="10.968307314110657"><ele>484.0</ele><time>2026-05-03T13:14:59.932Z</time></trkpt><trkpt lat="44.114618475518014" lon="10.968116911343209"><ele>484.0</ele><time>2026-05-03T13:15:00.932Z</time></trkpt><trkpt lat="44.11459347270241" lon="10.967953909430204"><ele>484.0</ele><time>2026-05-03T13:15:01.932Z</time></trkpt><trkpt lat="44.11459326503332" lon="10.96778373754931"><ele>484.0</ele><time>2026-05-03T13:15:02.932Z</time></trkpt><trkpt lat="44.11458358719739" lon="10.967612391780465"><ele>492.75</ele><time>2026-05-03T13:15:03.932Z</time></trkpt><trkpt lat="44.11453969098118" lon="10.96743980460579"><ele>501.5</ele><time>2026-05-03T13:15:04.932Z</time></trkpt><trkpt lat="44.114486785165454" lon="10.967256229706438"><ele>510.25</ele><time>2026-05-03T13:15:05.932Z</time></trkpt><trkpt lat="44.11441685150096" lon="10.967101241598433"><ele>519.0</ele><time>2026-05-03T13:15:06.932Z</time></trkpt><trkpt lat="44.114359078900435" lon="10.966952829906196"><ele>519.0</ele><time>2026-05-03T13:15:07.931Z</time></trkpt><trkpt lat="44.1143029867134" lon="10.966810565852464"><ele>519.0</ele><time>2026-05-03T13:15:08.931Z</time></trkpt><trkpt lat="44.11428825402908" lon="10.966663280656654"><ele>519.0</ele><time>2026-05-03T13:15:09.931Z</time></trkpt><trkpt lat="44.11427914501677" lon="10.966538811465085"><ele>519.0</ele><time>2026-05-03T13:15:10.931Z</time></trkpt><trkpt lat="44.11427488789877" lon="10.966423486241968"><ele>519.0</ele><time>2026-05-03T13:15:11.931Z</time></trkpt><trkpt lat="44.11419559734915" lon="10.966271842421515"><ele>523.5</ele><time>2026-05-03T13:15:13.931Z</time></trkpt><trkpt lat="44.11410965471338" lon="10.966276294234886"><ele>528.0</ele><time>2026-05-03T13:15:14.931Z</time></trkpt><trkpt lat="44.114017674878184" lon="10.966319064187346"><ele>532.5</ele><time>2026-05-03T13:15:15.931Z</time></trkpt><trkpt lat="44.113906204588865" lon="10.966434320916314"><ele>537.0</ele><time>2026-05-03T13:15:16.931Z</time></trkpt><trkpt lat="44.11378716069055" lon="10.96657614078778"><ele>532.25</ele><time>2026-05-03T13:15:17.931Z</time></trkpt><trkpt lat="44.11367881043846" lon="10.966702992673573"><ele>527.5</ele><time>2026-05-03T13:15:18.931Z</time></trkpt><trkpt lat="44.113577906872614" lon="10.966828419892371"><ele>522.75</ele><time>2026-05-03T13:15:19.931Z</time></trkpt><trkpt lat="44.113485545421256" lon="10.96694926511801"><ele>518.0</ele><time>2026-05-03T13:15:20.931Z</time></trkpt><trkpt lat="44.11339357558996" lon="10.967000652621572"><ele>518.0</ele><time>2026-05-03T13:15:21.931Z</time></trkpt><trkpt lat="44.113282985657214" lon="10.967047610222009"><ele>518.0</ele><time>2026-05-03T13:15:22.931Z</time></trkpt><trkpt lat="44.11315067411604" lon="10.967071793471563"><ele>518.0</ele><time>2026-05-03T13:15:23.931Z</time></trkpt><trkpt lat="44.11302226162937" lon="10.96707915199161"><ele>518.0</ele><time>2026-05-03T13:15:24.931Z</time></trkpt><trkpt lat="44.11287786906199" lon="10.967084823725289"><ele>518.25</ele><time>2026-05-03T13:15:25.931Z</time></trkpt><trkpt lat="44.112727483732385" lon="10.967105304975131"><ele>518.5</ele><time>2026-05-03T13:15:26.931Z</time></trkpt><trkpt lat="44.11259281274491" lon="10.967187779285046"><ele>518.75</ele><time>2026-05-03T13:15:27.931Z</time></trkpt><trkpt lat="44.11248094097713" lon="10.96722006055613"><ele>519.0</ele><time>2026-05-03T13:15:28.931Z</time></trkpt><trkpt lat="44.11237547131296" lon="10.967265518093892"><ele>520.5</ele><time>2026-05-03T13:15:29.931Z</time></trkpt><trkpt lat="44.11225100968288" lon="10.96725524636296"><ele>522.0</ele><time>2026-05-03T13:15:30.931Z</time></trkpt><trkpt lat="44.11211561987827" lon="10.967239636401475"><ele>523.5</ele><time>2026-05-03T13:15:31.931Z</time></trkpt><trkpt lat="44.11198673265287" lon="10.967218533819958"><ele>525.0</ele><time>2026-05-03T13:15:32.931Z</time></trkpt><trkpt lat="44.11188037598708" lon="10.967180363960475"><ele>525.0</ele><time>2026-05-03T13:15:33.931Z</time></trkpt><trkpt lat="44.1117781220429" lon="10.967183999334797"><ele>525.0</ele><time>2026-05-03T13:15:34.931Z</time></trkpt><trkpt lat="44.11167937056891" lon="10.96723480519991"><ele>525.0</ele><time>2026-05-03T13:15:35.931Z</time></trkpt><trkpt lat="44.11158123003235" lon="10.967371590731485"><ele>525.0</ele><time>2026-05-03T13:15:36.931Z</time></trkpt><trkpt lat="44.11149775780958" lon="10.967513926525521"><ele>522.0</ele><time>2026-05-03T13:15:37.931Z</time></trkpt><trkpt lat="44.111417433543835" lon="10.967670291904446"><ele>519.0</ele><time>2026-05-03T13:15:38.931Z</time></trkpt><trkpt lat="44.11135757696093" lon="10.967869433139033"><ele>516.0</ele><time>2026-05-03T13:15:39.931Z</time></trkpt><trkpt lat="44.11128762856975" lon="10.967994584978635"><ele>513.0</ele><time>2026-05-03T13:15:40.931Z</time></trkpt><trkpt lat="44.11121004787583" lon="10.968106338417899"><ele>513.0</ele><time>2026-05-03T13:15:41.931Z</time></trkpt><trkpt lat="44.111152929182005" lon="10.968201313305554"><ele>513.0</ele><time>2026-05-03T13:15:42.931Z</time></trkpt><trkpt lat="44.11102936839561" lon="10.968205931883675"><ele>513.0</ele><time>2026-05-03T13:15:44.931Z</time></trkpt><trkpt lat="44.11094530647143" lon="10.968150990711207"><ele>513.0</ele><time>2026-05-03T13:15:45.931Z</time></trkpt><trkpt lat="44.11085469318407" lon="10.96804220061336"><ele>513.0</ele><time>2026-05-03T13:15:46.931Z</time></trkpt><trkpt lat="44.110773900432335" lon="10.96790724974577"><ele>504.0</ele><time>2026-05-03T13:15:47.931Z</time></trkpt><trkpt lat="44.11070821793504" lon="10.967730060768817"><ele>495.0</ele><time>2026-05-03T13:15:48.931Z</time></trkpt><trkpt lat="44.11064543888425" lon="10.967551497373826"><ele>486.0</ele><time>2026-05-03T13:15:49.931Z</time></trkpt><trkpt lat="44.110588743427016" lon="10.96732574102536"><ele>486.0</ele><time>2026-05-03T13:15:50.931Z</time></trkpt><trkpt lat="44.11052486800827" lon="10.967123787050076"><ele>486.0</ele><time>2026-05-03T13:15:51.931Z</time></trkpt><trkpt lat="44.11048517640737" lon="10.966934934250208"><ele>486.0</ele><time>2026-05-03T13:15:52.931Z</time></trkpt><trkpt lat="44.11043862196528" lon="10.966788207460148"><ele>486.0</ele><time>2026-05-03T13:15:53.931Z</time></trkpt><trkpt lat="44.11034290036635" lon="10.966686773004175"><ele>491.0</ele><time>2026-05-03T13:15:54.931Z</time></trkpt><trkpt lat="44.11020447962998" lon="10.966623808877262"><ele>496.0</ele><time>2026-05-03T13:15:55.931Z</time></trkpt><trkpt lat="44.11007142704864" lon="10.966533204442612"><ele>501.0</ele><time>2026-05-03T13:15:56.931Z</time></trkpt><trkpt lat="44.109968286530375" lon="10.966413472709956"><ele>506.0</ele><time>2026-05-03T13:15:57.931Z</time></trkpt><trkpt lat="44.10985870943212" lon="10.966340182715012"><ele>506.0</ele><time>2026-05-03T13:15:58.931Z</time></trkpt><trkpt lat="44.109747949192624" lon="10.966321366388398"><ele>506.0</ele><time>2026-05-03T13:15:59.931Z</time></trkpt><trkpt lat="44.10966263626114" lon="10.966309419614701"><ele>506.0</ele><time>2026-05-03T13:16:00.931Z</time></trkpt><trkpt lat="44.10959528947637" lon="10.966307926677933"><ele>506.0</ele><time>2026-05-03T13:16:01.931Z</time></trkpt><trkpt lat="44.109514227686844" lon="10.966349088392969"><ele>506.0</ele><time>2026-05-03T13:16:02.93Z</time></trkpt><trkpt lat="44.10941470746394" lon="10.966470439210614"><ele>506.0</ele><time>2026-05-03T13:16:03.93Z</time></trkpt><trkpt lat="44.10929896089435" lon="10.966591103272178"><ele>506.0</ele><time>2026-05-03T13:16:04.93Z</time></trkpt><trkpt lat="44.10920138705154" lon="10.96658628407144"><ele>506.0</ele><time>2026-05-03T13:16:05.93Z</time></trkpt><trkpt lat="44.10912488151743" lon="10.96656106792521"><ele>506.0</ele><time>2026-05-03T13:16:06.93Z</time></trkpt><trkpt lat="44.109057558334484" lon="10.966514900625354"><ele>506.0</ele><time>2026-05-03T13:16:07.93Z</time></trkpt><trkpt lat="44.10900878512401" lon="10.96640989814396"><ele>509.25</ele><time>2026-05-03T13:16:08.93Z</time></trkpt><trkpt lat="44.10897405807887" lon="10.966296979609917"><ele>512.5</ele><time>2026-05-03T13:16:09.93Z</time></trkpt><trkpt lat="44.10895564330135" lon="10.966118201650279"><ele>515.75</ele><time>2026-05-03T13:16:10.93Z</time></trkpt><trkpt lat="44.108944714772115" lon="10.965931120716307"><ele>519.0</ele><time>2026-05-03T13:16:11.93Z</time></trkpt><trkpt lat="44.10890794109535" lon="10.965762533640993"><ele>524.6</ele><time>2026-05-03T13:16:12.93Z</time></trkpt><trkpt lat="44.10887022406329" lon="10.965601684192903"><ele>530.2</ele><time>2026-05-03T13:16:13.93Z</time></trkpt><trkpt lat="44.10884161035489" lon="10.965479343490454"><ele>535.8000000000001</ele><time>2026-05-03T13:16:14.93Z</time></trkpt><trkpt lat="44.10880200637867" lon="10.965370487176331"><ele>541.4</ele><time>2026-05-03T13:16:15.93Z</time></trkpt><trkpt lat="44.108743539479974" lon="10.965301816592342"><ele>547.0</ele><time>2026-05-03T13:16:16.93Z</time></trkpt><trkpt lat="44.10866338599307" lon="10.96529368436891"><ele>547.0</ele><time>2026-05-03T13:16:17.93Z</time></trkpt><trkpt lat="44.10857903652805" lon="10.965309782285617"><ele>547.0</ele><time>2026-05-03T13:16:18.93Z</time></trkpt><trkpt lat="44.10850107124163" lon="10.96533893962201"><ele>547.0</ele><time>2026-05-03T13:16:19.93Z</time></trkpt><trkpt lat="44.108419868719004" lon="10.965452151166684"><ele>547.0</ele><time>2026-05-03T13:16:20.93Z</time></trkpt><trkpt lat="44.10841653639615" lon="10.96564766905189"><ele>547.0</ele><time>2026-05-03T13:16:21.93Z</time></trkpt><trkpt lat="44.108402106534825" lon="10.96579597945411"><ele>550.5</ele><time>2026-05-03T13:16:22.93Z</time></trkpt><trkpt lat="44.10837847165758" lon="10.965953709231057"><ele>554.0</ele><time>2026-05-03T13:16:23.93Z</time></trkpt><trkpt lat="44.10831918802286" lon="10.966113843541585"><ele>557.5</ele><time>2026-05-03T13:16:24.93Z</time></trkpt><trkpt lat="44.10823830020487" lon="10.96626027876748"><ele>561.0</ele><time>2026-05-03T13:16:25.93Z</time></trkpt><trkpt lat="44.1081533312364" lon="10.96641814555372"><ele>561.0</ele><time>2026-05-03T13:16:26.93Z</time></trkpt><trkpt lat="44.10807428728565" lon="10.966584972830747"><ele>561.0</ele><time>2026-05-03T13:16:27.93Z</time></trkpt><trkpt lat="44.10799114597966" lon="10.966777949407696"><ele>561.0</ele><time>2026-05-03T13:16:28.93Z</time></trkpt><trkpt lat="44.10793400255862" lon="10.966976892413573"><ele>551.3333333333334</ele><time>2026-05-03T13:16:29.93Z</time></trkpt><trkpt lat="44.10789092682127" lon="10.967169931442086"><ele>541.6666666666667</ele><time>2026-05-03T13:16:30.93Z</time></trkpt><trkpt lat="44.107857949971695" lon="10.967385869453812"><ele>532.0</ele><time>2026-05-03T13:16:31.93Z</time></trkpt><trkpt lat="44.10783568760608" lon="10.967587368666193"><ele>526.25</ele><time>2026-05-03T13:16:32.93Z</time></trkpt><trkpt lat="44.10780165574358" lon="10.967758684023709"><ele>520.5</ele><time>2026-05-03T13:16:33.93Z</time></trkpt><trkpt lat="44.10774249512114" lon="10.967919902010841"><ele>514.75</ele><time>2026-05-03T13:16:34.93Z</time></trkpt><trkpt lat="44.107669368326754" lon="10.968088486805769"><ele>509.0</ele><time>2026-05-03T13:16:35.93Z</time></trkpt><trkpt lat="44.1076057506117" lon="10.968240104930732"><ele>504.4</ele><time>2026-05-03T13:16:36.93Z</time></trkpt><trkpt lat="44.10754639010409" lon="10.968369915320213"><ele>499.79999999999995</ele><time>2026-05-03T13:16:37.93Z</time></trkpt><trkpt lat="44.10749279010778" lon="10.968449028153222"><ele>495.20000000000005</ele><time>2026-05-03T13:16:38.93Z</time></trkpt><trkpt lat="44.10737334669844" lon="10.96850689291882"><ele>490.6</ele><time>2026-05-03T13:16:40.93Z</time></trkpt><trkpt lat="44.10728998459446" lon="10.968453846204559"><ele>486.0</ele><time>2026-05-03T13:16:41.929Z</time></trkpt><trkpt lat="44.10723089114919" lon="10.968339350157708"><ele>486.0</ele><time>2026-05-03T13:16:42.929Z</time></trkpt><trkpt lat="44.1071859193905" lon="10.968182996894802"><ele>486.0</ele><time>2026-05-03T13:16:43.929Z</time></trkpt><trkpt lat="44.10714728096638" lon="10.968007583248026"><ele>486.0</ele><time>2026-05-03T13:16:44.929Z</time></trkpt><trkpt lat="44.10708944731504" lon="10.96781160936681"><ele>486.0</ele><time>2026-05-03T13:16:45.929Z</time></trkpt><trkpt lat="44.107023641127284" lon="10.967588309759645"><ele>491.0</ele><time>2026-05-03T13:16:46.929Z</time></trkpt><trkpt lat="44.10695131145034" lon="10.967360218459673"><ele>496.0</ele><time>2026-05-03T13:16:47.929Z</time></trkpt><trkpt lat="44.106876392423025" lon="10.967124143220431"><ele>501.0</ele><time>2026-05-03T13:16:48.929Z</time></trkpt><trkpt lat="44.1067779649573" lon="10.966926324192942"><ele>501.0</ele><time>2026-05-03T13:16:49.929Z</time></trkpt><trkpt lat="44.10666470058424" lon="10.96674331459528"><ele>501.0</ele><time>2026-05-03T13:16:50.929Z</time></trkpt><trkpt lat="44.106551535356125" lon="10.966577500964792"><ele>501.0</ele><time>2026-05-03T13:16:51.929Z</time></trkpt><trkpt lat="44.106429928001006" lon="10.966440642507438"><ele>500.75</ele><time>2026-05-03T13:16:52.929Z</time></trkpt><trkpt lat="44.106292753390655" lon="10.966344847851346"><ele>500.5</ele><time>2026-05-03T13:16:53.929Z</time></trkpt><trkpt lat="44.106167256084724" lon="10.966229490394554"><ele>500.25</ele><time>2026-05-03T13:16:54.929Z</time></trkpt><trkpt lat="44.1060492451801" lon="10.966122348498248"><ele>500.0</ele><time>2026-05-03T13:16:55.929Z</time></trkpt><trkpt lat="44.10593456898493" lon="10.96604092863373"><ele>500.0</ele><time>2026-05-03T13:16:56.929Z</time></trkpt><trkpt lat="44.10582626972797" lon="10.966002500172513"><ele>500.0</ele><time>2026-05-03T13:16:57.929Z</time></trkpt><trkpt lat="44.10570919438743" lon="10.965990739128694"><ele>500.0</ele><time>2026-05-03T13:16:58.929Z</time></trkpt><trkpt lat="44.10557152809866" lon="10.966011616295953"><ele>500.0</ele><time>2026-05-03T13:16:59.929Z</time></trkpt><trkpt lat="44.10541455107874" lon="10.966033650750095"><ele>498.0</ele><time>2026-05-03T13:17:00.929Z</time></trkpt><trkpt lat="44.105266966578846" lon="10.96596643383785"><ele>496.0</ele><time>2026-05-03T13:17:01.929Z</time></trkpt><trkpt lat="44.10509484149981" lon="10.965972798760705"><ele>494.0</ele><time>2026-05-03T13:17:02.929Z</time></trkpt><trkpt lat="44.10492553050254" lon="10.966021272084419"><ele>491.3333333333333</ele><time>2026-05-03T13:17:03.929Z</time></trkpt><trkpt lat="44.104753622296414" lon="10.96606698369745"><ele>488.66666666666663</ele><time>2026-05-03T13:17:04.929Z</time></trkpt><trkpt lat="44.10459119467162" lon="10.966037701395352"><ele>486.0</ele><time>2026-05-03T13:17:05.929Z</time></trkpt><trkpt lat="44.10442182098854" lon="10.966022162909544"><ele>486.0</ele><time>2026-05-03T13:17:06.929Z</time></trkpt><trkpt lat="44.104256970772056" lon="10.966027465605395"><ele>486.0</ele><time>2026-05-03T13:17:07.929Z</time></trkpt><trkpt lat="44.104114474276116" lon="10.966036936682794"><ele>486.0</ele><time>2026-05-03T13:17:08.929Z</time></trkpt><trkpt lat="44.10399520368883" lon="10.96604486400569"><ele>486.0</ele><time>2026-05-03T13:17:09.929Z</time></trkpt><trkpt lat="44.103890319959696" lon="10.96604439393266"><ele>486.8</ele><time>2026-05-03T13:17:10.929Z</time></trkpt><trkpt lat="44.103798658910655" lon="10.966031109901166"><ele>487.6</ele><time>2026-05-03T13:17:11.929Z</time></trkpt><trkpt lat="44.10373120463929" lon="10.965941791374906"><ele>488.4</ele><time>2026-05-03T13:17:12.929Z</time></trkpt><trkpt lat="44.10371812931196" lon="10.965818065251929"><ele>489.2</ele><time>2026-05-03T13:17:13.929Z</time></trkpt><trkpt lat="44.1036867738816" lon="10.965671528491658"><ele>490.0</ele><time>2026-05-03T13:17:14.929Z</time></trkpt><trkpt lat="44.10363912115041" lon="10.965553842177387"><ele>489.25</ele><time>2026-05-03T13:17:15.929Z</time></trkpt><trkpt lat="44.10355558349226" lon="10.96545653865274"><ele>488.5</ele><time>2026-05-03T13:17:16.929Z</time></trkpt><trkpt lat="44.103443651392524" lon="10.965371280963636"><ele>487.75</ele><time>2026-05-03T13:17:17.929Z</time></trkpt><trkpt lat="44.10332034004614" lon="10.965306499076771"><ele>487.0</ele><time>2026-05-03T13:17:18.929Z</time></trkpt><trkpt lat="44.103205188911296" lon="10.965312978234802"><ele>487.0</ele><time>2026-05-03T13:17:19.929Z</time></trkpt><trkpt lat="44.10310242745236" lon="10.965280598092537"><ele>487.0</ele><time>2026-05-03T13:17:20.929Z</time></trkpt><trkpt lat="44.103008047854516" lon="10.965199632383811"><ele>487.0</ele><time>2026-05-03T13:17:21.929Z</time></trkpt><trkpt lat="44.10292874923792" lon="10.965061466010699"><ele>487.0</ele><time>2026-05-03T13:17:22.929Z</time></trkpt><trkpt lat="44.10286490417394" lon="10.964882388261703"><ele>488.0</ele><time>2026-05-03T13:17:23.929Z</time></trkpt><trkpt lat="44.10280316137734" lon="10.964703519526493"><ele>489.0</ele><time>2026-05-03T13:17:24.929Z</time></trkpt><trkpt lat="44.10273328358825" lon="10.964515129522896"><ele>490.0</ele><time>2026-05-03T13:17:25.929Z</time></trkpt><trkpt lat="44.102673010774566" lon="10.964351113104067"><ele>491.0</ele><time>2026-05-03T13:17:26.929Z</time></trkpt><trkpt lat="44.10262173885578" lon="10.964205518284734"><ele>492.8</ele><time>2026-05-03T13:17:27.929Z</time></trkpt><trkpt lat="44.10256983838445" lon="10.9640683942771"><ele>494.6</ele><time>2026-05-03T13:17:28.929Z</time></trkpt><trkpt lat="44.102547422106525" lon="10.963928457891758"><ele>496.4</ele><time>2026-05-03T13:17:29.929Z</time></trkpt><trkpt lat="44.102515432934645" lon="10.96378500471895"><ele>498.2</ele><time>2026-05-03T13:17:30.929Z</time></trkpt><trkpt lat="44.1024864844894" lon="10.963629892777229"><ele>500.0</ele><time>2026-05-03T13:17:31.929Z</time></trkpt><trkpt lat="44.1024440560931" lon="10.963463434421845"><ele>495.66666666666663</ele><time>2026-05-03T13:17:32.929Z</time></trkpt><trkpt lat="44.10237951660376" lon="10.963294550797446"><ele>491.33333333333337</ele><time>2026-05-03T13:17:33.929Z</time></trkpt><trkpt lat="44.10229639286768" lon="10.96311939820409"><ele>487.0</ele><time>2026-05-03T13:17:34.929Z</time></trkpt><trkpt lat="44.10221994734505" lon="10.962917703300562"><ele>487.0</ele><time>2026-05-03T13:17:35.929Z</time></trkpt><trkpt lat="44.10210604755967" lon="10.962713353612292"><ele>487.0</ele><time>2026-05-03T13:17:36.929Z</time></trkpt><trkpt lat="44.10197556354941" lon="10.962529950579082"><ele>487.0</ele><time>2026-05-03T13:17:37.929Z</time></trkpt><trkpt lat="44.10184965834166" lon="10.962330851397212"><ele>488.33333333333337</ele><time>2026-05-03T13:17:38.929Z</time></trkpt><trkpt lat="44.10172311407339" lon="10.962147432309685"><ele>489.66666666666663</ele><time>2026-05-03T13:17:39.929Z</time></trkpt><trkpt lat="44.10160127095594" lon="10.961993008622729"><ele>491.0</ele><time>2026-05-03T13:17:40.929Z</time></trkpt><trkpt lat="44.10149577650973" lon="10.961834785792492"><ele>491.0</ele><time>2026-05-03T13:17:41.929Z</time></trkpt><trkpt lat="44.10137512553846" lon="10.961705375840022"><ele>491.0</ele><time>2026-05-03T13:17:42.929Z</time></trkpt><trkpt lat="44.1012400768527" lon="10.961630013208632"><ele>491.0</ele><time>2026-05-03T13:17:43.929Z</time></trkpt><trkpt lat="44.10110308434842" lon="10.961556496379941"><ele>491.0</ele><time>2026-05-03T13:17:44.929Z</time></trkpt><trkpt lat="44.100952665650716" lon="10.961466600100088"><ele>491.75</ele><time>2026-05-03T13:17:45.928Z</time></trkpt><trkpt lat="44.100802455731625" lon="10.961381442031309"><ele>492.5</ele><time>2026-05-03T13:17:46.928Z</time></trkpt><trkpt lat="44.100687307462444" lon="10.961268246870972"><ele>493.25</ele><time>2026-05-03T13:17:47.928Z</time></trkpt><trkpt lat="44.10056235027909" lon="10.961175436241838"><ele>494.0</ele><time>2026-05-03T13:17:48.928Z</time></trkpt><trkpt lat="44.10043237000048" lon="10.961143786795375"><ele>492.5</ele><time>2026-05-03T13:17:49.928Z</time></trkpt><trkpt lat="44.100345400402446" lon="10.961012301046013"><ele>491.0</ele><time>2026-05-03T13:17:50.928Z</time></trkpt><trkpt lat="44.10028012488329" lon="10.960896050231643"><ele>489.5</ele><time>2026-05-03T13:17:51.928Z</time></trkpt><trkpt lat="44.10017698082863" lon="10.960832605547122"><ele>488.0</ele><time>2026-05-03T13:17:52.928Z</time></trkpt><trkpt lat="44.1000623363415" lon="10.960768344264629"><ele>489.25</ele><time>2026-05-03T13:17:53.928Z</time></trkpt><trkpt lat="44.09993907549706" lon="10.960695885381453"><ele>490.5</ele><time>2026-05-03T13:17:54.928Z</time></trkpt><trkpt lat="44.09981935457645" lon="10.960610793486435"><ele>491.75</ele><time>2026-05-03T13:17:55.928Z</time></trkpt><trkpt lat="44.099699062814345" lon="10.960532925604848"><ele>493.0</ele><time>2026-05-03T13:17:56.928Z</time></trkpt><trkpt lat="44.09956813927493" lon="10.960466256366626"><ele>493.0</ele><time>2026-05-03T13:17:57.928Z</time></trkpt><trkpt lat="44.09943324571558" lon="10.96039592871319"><ele>493.0</ele><time>2026-05-03T13:17:58.928Z</time></trkpt><trkpt lat="44.099289917139515" lon="10.960332719772662"><ele>493.0</ele><time>2026-05-03T13:17:59.928Z</time></trkpt><trkpt lat="44.099149407389476" lon="10.960260135887596"><ele>493.0</ele><time>2026-05-03T13:18:00.928Z</time></trkpt><trkpt lat="44.09899481915978" lon="10.960201262434271"><ele>493.33333333333337</ele><time>2026-05-03T13:18:01.928Z</time></trkpt><trkpt lat="44.098825108160725" lon="10.960171175292974"><ele>493.66666666666663</ele><time>2026-05-03T13:18:02.928Z</time></trkpt><trkpt lat="44.09865401675285" lon="10.96014108086932"><ele>494.0</ele><time>2026-05-03T13:18:03.928Z</time></trkpt><trkpt lat="44.09847776317296" lon="10.960125053475856"><ele>494.0</ele><time>2026-05-03T13:18:04.928Z</time></trkpt><trkpt lat="44.09829959165989" lon="10.960105269804648"><ele>494.0</ele><time>2026-05-03T13:18:05.928Z</time></trkpt><trkpt lat="44.09812501059278" lon="10.960059166301"><ele>494.0</ele><time>2026-05-03T13:18:06.928Z</time></trkpt><trkpt lat="44.09794907485055" lon="10.95998488378134"><ele>495.0</ele><time>2026-05-03T13:18:07.928Z</time></trkpt><trkpt lat="44.09776997518508" lon="10.959878981877523"><ele>496.0</ele><time>2026-05-03T13:18:08.928Z</time></trkpt><trkpt lat="44.09758380694272" lon="10.959767676612884"><ele>497.0</ele><time>2026-05-03T13:18:09.928Z</time></trkpt><trkpt lat="44.097402595095126" lon="10.959638011386783"><ele>497.0</ele><time>2026-05-03T13:18:10.928Z</time></trkpt><trkpt lat="44.09721869343668" lon="10.959526391534308"><ele>497.0</ele><time>2026-05-03T13:18:11.928Z</time></trkpt><trkpt lat="44.09701944441102" lon="10.959421427714624"><ele>497.0</ele><time>2026-05-03T13:18:12.928Z</time></trkpt><trkpt lat="44.0968240892201" lon="10.959301077187009"><ele>499.0</ele><time>2026-05-03T13:18:13.928Z</time></trkpt><trkpt lat="44.09663083859182" lon="10.959175020454671"><ele>501.0</ele><time>2026-05-03T13:18:14.928Z</time></trkpt><trkpt lat="44.09644146769846" lon="10.959055454308627"><ele>503.0</ele><time>2026-05-03T13:18:15.927Z</time></trkpt><trkpt lat="44.09625349702851" lon="10.958922503170161"><ele>503.0</ele><time>2026-05-03T13:18:16.927Z</time></trkpt><trkpt lat="44.096063891362256" lon="10.958785625599624"><ele>503.0</ele><time>2026-05-03T13:18:17.927Z</time></trkpt><trkpt lat="44.095891430201995" lon="10.958625066070908"><ele>503.0</ele><time>2026-05-03T13:18:18.927Z</time></trkpt><trkpt lat="44.095727676536505" lon="10.958463243114489"><ele>503.3333333333333</ele><time>2026-05-03T13:18:19.927Z</time></trkpt><trkpt lat="44.09557598491578" lon="10.95832400445058"><ele>503.66666666666663</ele><time>2026-05-03T13:18:20.927Z</time></trkpt><trkpt lat="44.095435766673425" lon="10.958191116627196"><ele>504.0</ele><time>2026-05-03T13:18:21.928Z</time></trkpt><trkpt lat="44.09532796169139" lon="10.958066975714065"><ele>504.0</ele><time>2026-05-03T13:18:22.928Z</time></trkpt><trkpt lat="44.0952511859799" lon="10.957934452504318"><ele>504.0</ele><time>2026-05-03T13:18:23.928Z</time></trkpt><trkpt lat="44.095189217485334" lon="10.95780043523701"><ele>504.0</ele><time>2026-05-03T13:18:24.928Z</time></trkpt><trkpt lat="44.09515691662937" lon="10.957645329276655"><ele>504.0</ele><time>2026-05-03T13:18:25.928Z</time></trkpt><trkpt lat="44.09516405410006" lon="10.957461822939836"><ele>505.0</ele><time>2026-05-03T13:18:26.928Z</time></trkpt><trkpt lat="44.095135792803774" lon="10.957278124690145"><ele>506.0</ele><time>2026-05-03T13:18:27.928Z</time></trkpt><trkpt lat="44.09506880895513" lon="10.957108795847699"><ele>507.0</ele><time>2026-05-03T13:18:28.928Z</time></trkpt><trkpt lat="44.095021476545355" lon="10.956905348784622"><ele>508.0</ele><time>2026-05-03T13:18:29.928Z</time></trkpt><trkpt lat="44.094997556294196" lon="10.95667012339075"><ele>507.0</ele><time>2026-05-03T13:18:30.928Z</time></trkpt><trkpt lat="44.09499591121256" lon="10.956436795011822"><ele>506.0</ele><time>2026-05-03T13:18:31.928Z</time></trkpt><trkpt lat="44.09496896171723" lon="10.956242646070695"><ele>505.0</ele><time>2026-05-03T13:18:32.928Z</time></trkpt><trkpt lat="44.09492203055115" lon="10.956064035995809"><ele>504.0</ele><time>2026-05-03T13:18:33.927Z</time></trkpt><trkpt lat="44.09484891933649" lon="10.955908924899303"><ele>506.66666666666663</ele><time>2026-05-03T13:18:34.927Z</time></trkpt><trkpt lat="44.09473118999337" lon="10.95577634047259"><ele>509.3333333333333</ele><time>2026-05-03T13:18:35.927Z</time></trkpt><trkpt lat="44.09457030278374" lon="10.955659307513127"><ele>512.0</ele><time>2026-05-03T13:18:36.927Z</time></trkpt><trkpt lat="44.09441598899355" lon="10.955528141196957"><ele>512.0</ele><time>2026-05-03T13:18:37.927Z</time></trkpt><trkpt lat="44.09426198365611" lon="10.955399643762586"><ele>512.0</ele><time>2026-05-03T13:18:38.927Z</time></trkpt><trkpt lat="44.09410111037527" lon="10.955293956065463"><ele>512.0</ele><time>2026-05-03T13:18:39.927Z</time></trkpt><trkpt lat="44.09393582145586" lon="10.955212605349308"><ele>510.3333333333333</ele><time>2026-05-03T13:18:40.927Z</time></trkpt><trkpt lat="44.09377694475844" lon="10.95512196579684"><ele>508.66666666666663</ele><time>2026-05-03T13:18:41.927Z</time></trkpt><trkpt lat="44.09360678377342" lon="10.95505408205706"><ele>507.0</ele><time>2026-05-03T13:18:42.927Z</time></trkpt><trkpt lat="44.09342635674521" lon="10.955029419504873"><ele>514.6666666666666</ele><time>2026-05-03T13:18:43.927Z</time></trkpt><trkpt lat="44.09324403798914" lon="10.95500017036994"><ele>522.3333333333333</ele><time>2026-05-03T13:18:44.927Z</time></trkpt><trkpt lat="44.09306911665454" lon="10.954997614503068"><ele>530.0</ele><time>2026-05-03T13:18:45.927Z</time></trkpt><trkpt lat="44.0928844369471" lon="10.9550112693215"><ele>525.0</ele><time>2026-05-03T13:18:46.927Z</time></trkpt><trkpt lat="44.09268586322115" lon="10.955041982913157"><ele>520.0</ele><time>2026-05-03T13:18:47.927Z</time></trkpt><trkpt lat="44.09247711751128" lon="10.955070214321976"><ele>515.0</ele><time>2026-05-03T13:18:48.927Z</time></trkpt><trkpt lat="44.092287086000475" lon="10.955094086860527"><ele>515.0</ele><time>2026-05-03T13:18:49.927Z</time></trkpt><trkpt lat="44.09209820431489" lon="10.955116141048048"><ele>515.0</ele><time>2026-05-03T13:18:50.927Z</time></trkpt><trkpt lat="44.091930419837574" lon="10.955140242238583"><ele>515.0</ele><time>2026-05-03T13:18:51.927Z</time></trkpt><trkpt lat="44.09178669350257" lon="10.955176601996307"><ele>515.0</ele><time>2026-05-03T13:18:52.927Z</time></trkpt><trkpt lat="44.09162185058464" lon="10.955194716232462"><ele>515.0</ele><time>2026-05-03T13:18:53.927Z</time></trkpt><trkpt lat="44.09145995986869" lon="10.955171828264985"><ele>515.0</ele><time>2026-05-03T13:18:54.927Z</time></trkpt><trkpt lat="44.091284270764405" lon="10.955122681909009"><ele>515.0</ele><time>2026-05-03T13:18:55.927Z</time></trkpt><trkpt lat="44.09109969518367" lon="10.955105438221239"><ele>515.0</ele><time>2026-05-03T13:18:56.927Z</time></trkpt><trkpt lat="44.090927121943665" lon="10.955058306715278"><ele>515.0</ele><time>2026-05-03T13:18:57.927Z</time></trkpt><trkpt lat="44.09074086307686" lon="10.95498642281193"><ele>515.0</ele><time>2026-05-03T13:18:58.927Z</time></trkpt><trkpt lat="44.09056309699317" lon="10.95490462850655"><ele>515.0</ele><time>2026-05-03T13:18:59.927Z</time></trkpt><trkpt lat="44.090401730605414" lon="10.954809452565051"><ele>515.0</ele><time>2026-05-03T13:19:00.927Z</time></trkpt><trkpt lat="44.09025799957621" lon="10.954690810282875"><ele>515.0</ele><time>2026-05-03T13:19:01.927Z</time></trkpt><trkpt lat="44.09011692952781" lon="10.9545607806124"><ele>515.0</ele><time>2026-05-03T13:19:02.927Z</time></trkpt><trkpt lat="44.08997948306465" lon="10.954370551484878"><ele>515.0</ele><time>2026-05-03T13:19:03.927Z</time></trkpt><trkpt lat="44.08985374697003" lon="10.954218631127937"><ele>515.5</ele><time>2026-05-03T13:19:04.927Z</time></trkpt><trkpt lat="44.089718720258695" lon="10.954173901462744"><ele>516.0</ele><time>2026-05-03T13:19:05.927Z</time></trkpt><trkpt lat="44.089616229695906" lon="10.954063790609467"><ele>516.5</ele><time>2026-05-03T13:19:06.927Z</time></trkpt><trkpt lat="44.089516091499554" lon="10.953894629370296"><ele>517.0</ele><time>2026-05-03T13:19:07.927Z</time></trkpt><trkpt lat="44.08944441133049" lon="10.953687685033293"><ele>517.0</ele><time>2026-05-03T13:19:08.927Z</time></trkpt><trkpt lat="44.089378700128734" lon="10.95345540583127"><ele>517.0</ele><time>2026-05-03T13:19:09.927Z</time></trkpt><trkpt lat="44.08932930137876" lon="10.953240027231127"><ele>517.0</ele><time>2026-05-03T13:19:10.927Z</time></trkpt><trkpt lat="44.089282489461546" lon="10.953022211294243"><ele>517.6666666666667</ele><time>2026-05-03T13:19:11.927Z</time></trkpt><trkpt lat="44.08923710147211" lon="10.952817290569708"><ele>518.3333333333334</ele><time>2026-05-03T13:19:12.927Z</time></trkpt><trkpt lat="44.089223396815896" lon="10.952564626663266"><ele>519.0</ele><time>2026-05-03T13:19:13.927Z</time></trkpt><trkpt lat="44.08921377216551" lon="10.952305405063676"><ele>519.3333333333334</ele><time>2026-05-03T13:19:14.927Z</time></trkpt><trkpt lat="44.08920124222521" lon="10.952058860494562"><ele>519.6666666666667</ele><time>2026-05-03T13:19:15.927Z</time></trkpt><trkpt lat="44.089232445520736" lon="10.951845031044632"><ele>520.0</ele><time>2026-05-03T13:19:16.927Z</time></trkpt><trkpt lat="44.089256922311606" lon="10.951660073039003"><ele>519.4</ele><time>2026-05-03T13:19:17.927Z</time></trkpt><trkpt lat="44.089277334672396" lon="10.95150605698233"><ele>518.8</ele><time>2026-05-03T13:19:18.927Z</time></trkpt><trkpt lat="44.08930932530238" lon="10.951379539632399"><ele>518.2</ele><time>2026-05-03T13:19:19.927Z</time></trkpt><trkpt lat="44.08937915840909" lon="10.951292130666527"><ele>517.6</ele><time>2026-05-03T13:19:20.927Z</time></trkpt><trkpt lat="44.08947073053795" lon="10.951252015982847"><ele>517.0</ele><time>2026-05-03T13:19:21.927Z</time></trkpt><trkpt lat="44.08953968906053" lon="10.951228784551628"><ele>517.0</ele><time>2026-05-03T13:19:22.927Z</time></trkpt><trkpt lat="44.089577756603134" lon="10.951074640545084"><ele>517.0</ele><time>2026-05-03T13:19:24.927Z</time></trkpt><trkpt lat="44.08953089670348" lon="10.950910412575624"><ele>517.0</ele><time>2026-05-03T13:19:25.927Z</time></trkpt><trkpt lat="44.08945504775626" lon="10.950760449443038"><ele>517.0</ele><time>2026-05-03T13:19:26.927Z</time></trkpt><trkpt lat="44.089368683201826" lon="10.950632751435002"><ele>517.0</ele><time>2026-05-03T13:19:27.927Z</time></trkpt><trkpt lat="44.08926878114936" lon="10.950532014524605"><ele>517.0</ele><time>2026-05-03T13:19:28.927Z</time></trkpt><trkpt lat="44.08914289304947" lon="10.950503245322427"><ele>517.0</ele><time>2026-05-03T13:19:29.927Z</time></trkpt><trkpt lat="44.08902535689582" lon="10.950539859594329"><ele>517.0</ele><time>2026-05-03T13:19:30.927Z</time></trkpt><trkpt lat="44.088929342413955" lon="10.950538334011341"><ele>517.5</ele><time>2026-05-03T13:19:31.927Z</time></trkpt><trkpt lat="44.088852201727846" lon="10.950504266278507"><ele>518.0</ele><time>2026-05-03T13:19:32.927Z</time></trkpt><trkpt lat="44.08879710543429" lon="10.950345060079206"><ele>518.5</ele><time>2026-05-03T13:19:33.927Z</time></trkpt><trkpt lat="44.088673371107895" lon="10.950242993108072"><ele>519.0</ele><time>2026-05-03T13:19:34.927Z</time></trkpt><trkpt lat="44.088531857328434" lon="10.950177650333432"><ele>519.0</ele><time>2026-05-03T13:19:35.927Z</time></trkpt><trkpt lat="44.088386636278855" lon="10.950099814733793"><ele>519.0</ele><time>2026-05-03T13:19:36.927Z</time></trkpt><trkpt lat="44.088245857522864" lon="10.949989975479633"><ele>519.0</ele><time>2026-05-03T13:19:37.926Z</time></trkpt><trkpt lat="44.08810144603427" lon="10.949916705207151"><ele>519.75</ele><time>2026-05-03T13:19:38.926Z</time></trkpt><trkpt lat="44.08795334448844" lon="10.949884636183254"><ele>520.5</ele><time>2026-05-03T13:19:39.926Z</time></trkpt><trkpt lat="44.08780134223602" lon="10.949890760231412"><ele>521.25</ele><time>2026-05-03T13:19:40.926Z</time></trkpt><trkpt lat="44.087660130178925" lon="10.949846773580507"><ele>522.0</ele><time>2026-05-03T13:19:41.926Z</time></trkpt><trkpt lat="44.087543841139464" lon="10.949786060827003"><ele>522.0</ele><time>2026-05-03T13:19:42.926Z</time></trkpt><trkpt lat="44.087437180486056" lon="10.949731122706122"><ele>522.0</ele><time>2026-05-03T13:19:43.926Z</time></trkpt><trkpt lat="44.08736561525407" lon="10.94964136498479"><ele>522.0</ele><time>2026-05-03T13:19:44.926Z</time></trkpt><trkpt lat="44.08733878661554" lon="10.949509149001049"><ele>522.0</ele><time>2026-05-03T13:19:45.926Z</time></trkpt><trkpt lat="44.087341380240936" lon="10.949371984583255"><ele>522.0</ele><time>2026-05-03T13:19:46.926Z</time></trkpt><trkpt lat="44.08736565556155" lon="10.949220793624512"><ele>523.0</ele><time>2026-05-03T13:19:47.926Z</time></trkpt><trkpt lat="44.0873786155064" lon="10.949050766512608"><ele>524.0</ele><time>2026-05-03T13:19:48.926Z</time></trkpt><trkpt lat="44.087361258031315" lon="10.948900785280708"><ele>525.0</ele><time>2026-05-03T13:19:49.926Z</time></trkpt><trkpt lat="44.087312591975085" lon="10.948731914712086"><ele>526.0</ele><time>2026-05-03T13:19:50.926Z</time></trkpt><trkpt lat="44.087238512542214" lon="10.94855274992677"><ele>527.25</ele><time>2026-05-03T13:19:51.926Z</time></trkpt><trkpt lat="44.087166499877505" lon="10.94836052777996"><ele>528.5</ele><time>2026-05-03T13:19:52.926Z</time></trkpt><trkpt lat="44.08710935112777" lon="10.948200167477191"><ele>529.75</ele><time>2026-05-03T13:19:53.926Z</time></trkpt><trkpt lat="44.08703625294797" lon="10.948090697265972"><ele>531.0</ele><time>2026-05-03T13:19:54.926Z</time></trkpt><trkpt lat="44.0869337236163" lon="10.948002388387073"><ele>531.0</ele><time>2026-05-03T13:19:55.926Z</time></trkpt><trkpt lat="44.08681350217133" lon="10.947926247392235"><ele>531.0</ele><time>2026-05-03T13:19:56.926Z</time></trkpt><trkpt lat="44.08668462159627" lon="10.947833747051222"><ele>531.0</ele><time>2026-05-03T13:19:57.926Z</time></trkpt><trkpt lat="44.08656246907474" lon="10.947709825410499"><ele>531.0</ele><time>2026-05-03T13:19:58.926Z</time></trkpt><trkpt lat="44.0864499394735" lon="10.94762111366116"><ele>530.5</ele><time>2026-05-03T13:19:59.926Z</time></trkpt><trkpt lat="44.08633721684092" lon="10.947579539200119"><ele>530.0</ele><time>2026-05-03T13:20:00.926Z</time></trkpt><trkpt lat="44.08620796822393" lon="10.94761344785252"><ele>529.5</ele><time>2026-05-03T13:20:01.926Z</time></trkpt><trkpt lat="44.08606736921298" lon="10.94765250545453"><ele>529.0</ele><time>2026-05-03T13:20:02.926Z</time></trkpt><trkpt lat="44.08591070336475" lon="10.9476908587273"><ele>530.0</ele><time>2026-05-03T13:20:03.926Z</time></trkpt><trkpt lat="44.085752197236246" lon="10.947691161130349"><ele>531.0</ele><time>2026-05-03T13:20:04.926Z</time></trkpt><trkpt lat="44.08559899699354" lon="10.947684470009051"><ele>532.0</ele><time>2026-05-03T13:20:05.926Z</time></trkpt><trkpt lat="44.085465502729456" lon="10.947650825888653"><ele>533.0</ele><time>2026-05-03T13:20:06.926Z</time></trkpt><trkpt lat="44.08535730596773" lon="10.94757655870716"><ele>533.5</ele><time>2026-05-03T13:20:07.926Z</time></trkpt><trkpt lat="44.085253330599556" lon="10.947449992998266"><ele>534.0</ele><time>2026-05-03T13:20:08.926Z</time></trkpt><trkpt lat="44.08515273509805" lon="10.947305837804063"><ele>534.5</ele><time>2026-05-03T13:20:09.926Z</time></trkpt><trkpt lat="44.085036574971824" lon="10.947160384492152"><ele>535.0</ele><time>2026-05-03T13:20:10.926Z</time></trkpt><trkpt lat="44.0849358040403" lon="10.947032603168772"><ele>535.25</ele><time>2026-05-03T13:20:11.926Z</time></trkpt><trkpt lat="44.08487416691151" lon="10.94687818278884"><ele>535.5</ele><time>2026-05-03T13:20:12.926Z</time></trkpt><trkpt lat="44.08484053551928" lon="10.946709702722329"><ele>535.75</ele><time>2026-05-03T13:20:13.926Z</time></trkpt><trkpt lat="44.08483033003955" lon="10.946555094502362"><ele>536.0</ele><time>2026-05-03T13:20:14.925Z</time></trkpt><trkpt lat="44.08480624825571" lon="10.946415975272917"><ele>536.0</ele><time>2026-05-03T13:20:15.925Z</time></trkpt><trkpt lat="44.08475529859126" lon="10.946294516643883"><ele>536.0</ele><time>2026-05-03T13:20:16.925Z</time></trkpt><trkpt lat="44.08465536859149" lon="10.946173688340261"><ele>536.0</ele><time>2026-05-03T13:20:17.925Z</time></trkpt><trkpt lat="44.08460626096655" lon="10.946019127980493"><ele>536.0</ele><time>2026-05-03T13:20:18.925Z</time></trkpt><trkpt lat="44.08458427348702" lon="10.945838371409613"><ele>536.0</ele><time>2026-05-03T13:20:19.925Z</time></trkpt><trkpt lat="44.08455005271465" lon="10.945634636215628"><ele>536.0</ele><time>2026-05-03T13:20:20.925Z</time></trkpt><trkpt lat="44.08449142896761" lon="10.945436193918265"><ele>536.0</ele><time>2026-05-03T13:20:21.924Z</time></trkpt><trkpt lat="44.08441984143339" lon="10.94526572527503"><ele>536.0</ele><time>2026-05-03T13:20:22.924Z</time></trkpt><trkpt lat="44.08432401066657" lon="10.945119141728938"><ele>535.6666666666666</ele><time>2026-05-03T13:20:23.925Z</time></trkpt><trkpt lat="44.08420121756903" lon="10.944973226011426"><ele>535.3333333333334</ele><time>2026-05-03T13:20:24.925Z</time></trkpt><trkpt lat="44.084094620160805" lon="10.944791319047482"><ele>535.0</ele><time>2026-05-03T13:20:25.925Z</time></trkpt><trkpt lat="44.08396994392535" lon="10.94461764843497"><ele>535.0</ele><time>2026-05-03T13:20:26.925Z</time></trkpt><trkpt lat="44.0838498402549" lon="10.944437399155929"><ele>535.0</ele><time>2026-05-03T13:20:27.925Z</time></trkpt><trkpt lat="44.083749412776776" lon="10.944243703107459"><ele>535.0</ele><time>2026-05-03T13:20:28.925Z</time></trkpt><trkpt lat="44.083626062479304" lon="10.944100335995989"><ele>535.5</ele><time>2026-05-03T13:20:29.925Z</time></trkpt><trkpt lat="44.08352503997948" lon="10.943978179473522"><ele>536.0</ele><time>2026-05-03T13:20:30.925Z</time></trkpt><trkpt lat="44.0833916622626" lon="10.943893049553134"><ele>536.5</ele><time>2026-05-03T13:20:31.925Z</time></trkpt><trkpt lat="44.08323668540077" lon="10.943822088344659"><ele>537.0</ele><time>2026-05-03T13:20:32.925Z</time></trkpt><trkpt lat="44.08308567780843" lon="10.943753737460352"><ele>537.0</ele><time>2026-05-03T13:20:33.925Z</time></trkpt><trkpt lat="44.08292656148265" lon="10.94368809323694"><ele>537.0</ele><time>2026-05-03T13:20:34.925Z</time></trkpt><trkpt lat="44.08276161901036" lon="10.943597762543414"><ele>537.0</ele><time>2026-05-03T13:20:35.925Z</time></trkpt><trkpt lat="44.08260373713191" lon="10.943505207907714"><ele>537.0</ele><time>2026-05-03T13:20:36.924Z</time></trkpt><trkpt lat="44.08246583487365" lon="10.94340897428122"><ele>537.0</ele><time>2026-05-03T13:20:37.924Z</time></trkpt><trkpt lat="44.08234407970424" lon="10.943337776442446"><ele>537.0</ele><time>2026-05-03T13:20:38.924Z</time></trkpt><trkpt lat="44.08225730673603" lon="10.943225994278077"><ele>537.0</ele><time>2026-05-03T13:20:39.924Z</time></trkpt><trkpt lat="44.08220220664654" lon="10.943110885963932"><ele>539.4</ele><time>2026-05-03T13:20:40.924Z</time></trkpt><trkpt lat="44.08213762829625" lon="10.94303412286051"><ele>541.8000000000001</ele><time>2026-05-03T13:20:41.924Z</time></trkpt><trkpt lat="44.082052182195085" lon="10.943014094174847"><ele>544.2</ele><time>2026-05-03T13:20:42.924Z</time></trkpt><trkpt lat="44.08194253107023" lon="10.943055372240437"><ele>546.6</ele><time>2026-05-03T13:20:43.924Z</time></trkpt><trkpt lat="44.0818230566164" lon="10.943073840699233"><ele>549.0</ele><time>2026-05-03T13:20:44.924Z</time></trkpt><trkpt lat="44.08169412027888" lon="10.943048094911104"><ele>548.5</ele><time>2026-05-03T13:20:45.924Z</time></trkpt><trkpt lat="44.081572288660354" lon="10.942956605930299"><ele>548.0</ele><time>2026-05-03T13:20:46.924Z</time></trkpt><trkpt lat="44.08145667707881" lon="10.942846426130465"><ele>547.5</ele><time>2026-05-03T13:20:47.924Z</time></trkpt><trkpt lat="44.08134384808466" lon="10.942733793494213"><ele>547.0</ele><time>2026-05-03T13:20:48.924Z</time></trkpt><trkpt lat="44.081220465237664" lon="10.942602183832156"><ele>548.5</ele><time>2026-05-03T13:20:49.924Z</time></trkpt><trkpt lat="44.08110344558147" lon="10.942467326722157"><ele>550.0</ele><time>2026-05-03T13:20:50.924Z</time></trkpt><trkpt lat="44.08098778572146" lon="10.942334059565187"><ele>551.5</ele><time>2026-05-03T13:20:51.924Z</time></trkpt><trkpt lat="44.080893245207506" lon="10.942185278487727"><ele>553.0</ele><time>2026-05-03T13:20:52.924Z</time></trkpt><trkpt lat="44.08081676463336" lon="10.942034867357295"><ele>552.25</ele><time>2026-05-03T13:20:53.924Z</time></trkpt><trkpt lat="44.08074403493267" lon="10.941848179641692"><ele>551.5</ele><time>2026-05-03T13:20:54.924Z</time></trkpt><trkpt lat="44.080681023703555" lon="10.941682914056832"><ele>550.75</ele><time>2026-05-03T13:20:55.924Z</time></trkpt><trkpt lat="44.08064271035986" lon="10.941527564671219"><ele>550.0</ele><time>2026-05-03T13:20:56.924Z</time></trkpt><trkpt lat="44.08063518378587" lon="10.941391771054942"><ele>549.5</ele><time>2026-05-03T13:20:57.924Z</time></trkpt><trkpt lat="44.080651777358234" lon="10.941220803490143"><ele>549.0</ele><time>2026-05-03T13:20:58.924Z</time></trkpt><trkpt lat="44.08066956521127" lon="10.941041924017213"><ele>548.5</ele><time>2026-05-03T13:20:59.924Z</time></trkpt><trkpt lat="44.080681770265784" lon="10.940865507343831"><ele>548.0</ele><time>2026-05-03T13:21:00.924Z</time></trkpt><trkpt lat="44.08069137844246" lon="10.940674915276704"><ele>548.0</ele><time>2026-05-03T13:21:01.924Z</time></trkpt><trkpt lat="44.08070437618016" lon="10.940475137035996"><ele>548.0</ele><time>2026-05-03T13:21:02.924Z</time></trkpt><trkpt lat="44.080694737754804" lon="10.940255874527635"><ele>548.0</ele><time>2026-05-03T13:21:03.924Z</time></trkpt><trkpt lat="44.08066778771182" lon="10.940039327046238"><ele>547.25</ele><time>2026-05-03T13:21:04.924Z</time></trkpt><trkpt lat="44.080641366610415" lon="10.93982482381152"><ele>546.5</ele><time>2026-05-03T13:21:05.924Z</time></trkpt><trkpt lat="44.08061345637896" lon="10.939636009326952"><ele>545.75</ele><time>2026-05-03T13:21:06.924Z</time></trkpt><trkpt lat="44.08058259245505" lon="10.93949670097441"><ele>545.0</ele><time>2026-05-03T13:21:07.924Z</time></trkpt><trkpt lat="44.08058368826015" lon="10.939373809562777"><ele>545.0</ele><time>2026-05-03T13:21:08.924Z</time></trkpt><trkpt lat="44.080628343740024" lon="10.939238285476517"><ele>545.0</ele><time>2026-05-03T13:21:09.924Z</time></trkpt><trkpt lat="44.08068648513859" lon="10.939130676267023"><ele>545.0</ele><time>2026-05-03T13:21:10.924Z</time></trkpt><trkpt lat="44.08070577628489" lon="10.93902142590962"><ele>545.0</ele><time>2026-05-03T13:21:11.924Z</time></trkpt><trkpt lat="44.080636937944796" lon="10.938847917221914"><ele>545.0</ele><time>2026-05-03T13:21:12.924Z</time></trkpt><trkpt lat="44.08055144131988" lon="10.938658678884936"><ele>545.75</ele><time>2026-05-03T13:21:13.924Z</time></trkpt><trkpt lat="44.08052566498903" lon="10.938463754949636"><ele>546.5</ele><time>2026-05-03T13:21:14.924Z</time></trkpt><trkpt lat="44.080502058352316" lon="10.938326221333305"><ele>547.25</ele><time>2026-05-03T13:21:15.924Z</time></trkpt><trkpt lat="44.08044695893926" lon="10.938193123508833"><ele>548.0</ele><time>2026-05-03T13:21:16.924Z</time></trkpt><trkpt lat="44.08033671689755" lon="10.93806862425896"><ele>550.3333333333333</ele><time>2026-05-03T13:21:17.924Z</time></trkpt><trkpt lat="44.08021083347588" lon="10.937951039125283"><ele>552.6666666666666</ele><time>2026-05-03T13:21:18.924Z</time></trkpt><trkpt lat="44.08011438970365" lon="10.937782868243747"><ele>555.0</ele><time>2026-05-03T13:21:19.924Z</time></trkpt><trkpt lat="44.080019305649444" lon="10.93760698147901"><ele>554.0</ele><time>2026-05-03T13:21:20.924Z</time></trkpt><trkpt lat="44.07991177255047" lon="10.937433143989294"><ele>553.0</ele><time>2026-05-03T13:21:21.924Z</time></trkpt><trkpt lat="44.07980026963042" lon="10.937270526515846"><ele>552.0</ele><time>2026-05-03T13:21:22.924Z</time></trkpt><trkpt lat="44.07973276219522" lon="10.937080066916913"><ele>552.0</ele><time>2026-05-03T13:21:23.924Z</time></trkpt><trkpt lat="44.07965825395668" lon="10.936915578161603"><ele>552.0</ele><time>2026-05-03T13:21:24.924Z</time></trkpt><trkpt lat="44.079565652578836" lon="10.936762731537177"><ele>552.0</ele><time>2026-05-03T13:21:25.924Z</time></trkpt><trkpt lat="44.07950102524911" lon="10.936627734478355"><ele>552.0</ele><time>2026-05-03T13:21:26.924Z</time></trkpt><trkpt lat="44.079462176518966" lon="10.936499053877288"><ele>553.0</ele><time>2026-05-03T13:21:27.924Z</time></trkpt><trkpt lat="44.079473484094244" lon="10.936349558059966"><ele>554.0</ele><time>2026-05-03T13:21:28.924Z</time></trkpt><trkpt lat="44.07954105543808" lon="10.936225852123044"><ele>555.0</ele><time>2026-05-03T13:21:29.924Z</time></trkpt><trkpt lat="44.07960445068366" lon="10.936083136806527"><ele>556.0</ele><time>2026-05-03T13:21:31.07Z</time></trkpt><trkpt lat="44.07965968108366" lon="10.93596118058531"><ele>557.0</ele><time>2026-05-03T13:21:31.924Z</time></trkpt><trkpt lat="44.07968507205099" lon="10.935801367813307"><ele>558.6</ele><time>2026-05-03T13:21:32.924Z</time></trkpt><trkpt lat="44.07966737388042" lon="10.935681130554439"><ele>560.2</ele><time>2026-05-03T13:21:33.924Z</time></trkpt><trkpt lat="44.079600425895656" lon="10.93556584510291"><ele>561.8</ele><time>2026-05-03T13:21:34.924Z</time></trkpt><trkpt lat="44.079521538089054" lon="10.935475264314816"><ele>563.4</ele><time>2026-05-03T13:21:35.924Z</time></trkpt><trkpt lat="44.07943496256358" lon="10.93540012338264"><ele>565.0</ele><time>2026-05-03T13:21:36.924Z</time></trkpt><trkpt lat="44.07932084247688" lon="10.935429070741499"><ele>565.0</ele><time>2026-05-03T13:21:37.924Z</time></trkpt><trkpt lat="44.079192808858586" lon="10.935493465391259"><ele>565.0</ele><time>2026-05-03T13:21:38.924Z</time></trkpt><trkpt lat="44.07906149932127" lon="10.935564173783366"><ele>565.0</ele><time>2026-05-03T13:21:39.924Z</time></trkpt><trkpt lat="44.0789650816938" lon="10.935562964172638"><ele>565.0</ele><time>2026-05-03T13:21:40.923Z</time></trkpt><trkpt lat="44.07887899128697" lon="10.935491707736997"><ele>564.0</ele><time>2026-05-03T13:21:41.923Z</time></trkpt><trkpt lat="44.07880366180775" lon="10.93535408770533"><ele>563.0</ele><time>2026-05-03T13:21:42.923Z</time></trkpt><trkpt lat="44.07874068824172" lon="10.935180605488137"><ele>562.0</ele><time>2026-05-03T13:21:43.923Z</time></trkpt><trkpt lat="44.07867289121181" lon="10.934970169257728"><ele>561.0</ele><time>2026-05-03T13:21:44.923Z</time></trkpt><trkpt lat="44.07860290531268" lon="10.934781859971435"><ele>561.0</ele><time>2026-05-03T13:21:45.923Z</time></trkpt><trkpt lat="44.07852912942941" lon="10.93457387041863"><ele>561.0</ele><time>2026-05-03T13:21:46.923Z</time></trkpt><trkpt lat="44.07845392909392" lon="10.934373723614847"><ele>561.0</ele><time>2026-05-03T13:21:47.923Z</time></trkpt><trkpt lat="44.07838818165279" lon="10.934157720492896"><ele>565.0</ele><time>2026-05-03T13:21:48.923Z</time></trkpt><trkpt lat="44.07834526530928" lon="10.933929787319567"><ele>569.0</ele><time>2026-05-03T13:21:49.923Z</time></trkpt><trkpt lat="44.07831675927377" lon="10.933695721993676"><ele>573.0</ele><time>2026-05-03T13:21:50.923Z</time></trkpt><trkpt lat="44.07827879183938" lon="10.933459557544964"><ele>569.0</ele><time>2026-05-03T13:21:51.923Z</time></trkpt><trkpt lat="44.078228280864096" lon="10.933232884565253"><ele>565.0</ele><time>2026-05-03T13:21:52.923Z</time></trkpt><trkpt lat="44.07816367446714" lon="10.933033531998582"><ele>561.0</ele><time>2026-05-03T13:21:53.923Z</time></trkpt><trkpt lat="44.078099032572084" lon="10.932860251681483"><ele>561.0</ele><time>2026-05-03T13:21:54.923Z</time></trkpt><trkpt lat="44.07803382828396" lon="10.932705629967796"><ele>561.0</ele><time>2026-05-03T13:21:55.923Z</time></trkpt><trkpt lat="44.077890894413805" lon="10.932622696118909"><ele>561.0</ele><time>2026-05-03T13:21:56.923Z</time></trkpt><trkpt lat="44.07777943972262" lon="10.932506536807749"><ele>561.0</ele><time>2026-05-03T13:21:57.923Z</time></trkpt><trkpt lat="44.077729784702065" lon="10.93232910786178"><ele>563.75</ele><time>2026-05-03T13:21:58.923Z</time></trkpt><trkpt lat="44.07764600404962" lon="10.932195609438459"><ele>566.5</ele><time>2026-05-03T13:21:59.923Z</time></trkpt><trkpt lat="44.07752169414385" lon="10.932115909873456"><ele>569.25</ele><time>2026-05-03T13:22:00.923Z</time></trkpt><trkpt lat="44.07739584584608" lon="10.93206146408415"><ele>572.0</ele><time>2026-05-03T13:22:01.923Z</time></trkpt><trkpt lat="44.07727190310867" lon="10.931951126514438"><ele>572.0</ele><time>2026-05-03T13:22:02.923Z</time></trkpt><trkpt lat="44.07718461173753" lon="10.931805961313396"><ele>572.0</ele><time>2026-05-03T13:22:03.923Z</time></trkpt><trkpt lat="44.07712076305103" lon="10.931653489909205"><ele>572.0</ele><time>2026-05-03T13:22:04.923Z</time></trkpt><trkpt lat="44.077057200313305" lon="10.931482522677802"><ele>572.0</ele><time>2026-05-03T13:22:05.923Z</time></trkpt><trkpt lat="44.077002919548605" lon="10.93129232798902"><ele>571.0</ele><time>2026-05-03T13:22:06.923Z</time></trkpt><trkpt lat="44.076986010743106" lon="10.93108752592923"><ele>570.0</ele><time>2026-05-03T13:22:07.923Z</time></trkpt><trkpt lat="44.076913550336876" lon="10.93090251461708"><ele>569.0</ele><time>2026-05-03T13:22:08.923Z</time></trkpt><trkpt lat="44.07686319673566" lon="10.930720679224951"><ele>568.0</ele><time>2026-05-03T13:22:09.923Z</time></trkpt><trkpt lat="44.07684288874995" lon="10.930533669251126"><ele>571.6666666666667</ele><time>2026-05-03T13:22:10.923Z</time></trkpt><trkpt lat="44.076839448994036" lon="10.930319394702307"><ele>575.3333333333334</ele><time>2026-05-03T13:22:11.923Z</time></trkpt><trkpt lat="44.07683454277148" lon="10.930083767109304"><ele>579.0</ele><time>2026-05-03T13:22:12.923Z</time></trkpt><trkpt lat="44.07682808268395" lon="10.929840418158557"><ele>580.6666666666666</ele><time>2026-05-03T13:22:13.923Z</time></trkpt><trkpt lat="44.07682257879715" lon="10.929602332182936"><ele>582.3333333333333</ele><time>2026-05-03T13:22:14.923Z</time></trkpt><trkpt lat="44.07681871748941" lon="10.929362131238118"><ele>584.0</ele><time>2026-05-03T13:22:15.923Z</time></trkpt><trkpt lat="44.07682504806206" lon="10.929133618381424"><ele>584.6666666666666</ele><time>2026-05-03T13:22:16.923Z</time></trkpt><trkpt lat="44.0768181825949" lon="10.92889957398448"><ele>585.3333333333334</ele><time>2026-05-03T13:22:17.923Z</time></trkpt><trkpt lat="44.07678575504319" lon="10.928651439810485"><ele>586.0</ele><time>2026-05-03T13:22:18.923Z</time></trkpt><trkpt lat="44.07673549729303" lon="10.928411396737356"><ele>586.0</ele><time>2026-05-03T13:22:19.923Z</time></trkpt><trkpt lat="44.07671325734591" lon="10.92818474938125"><ele>586.0</ele><time>2026-05-03T13:22:20.923Z</time></trkpt><trkpt lat="44.0766999750382" lon="10.927992484814784"><ele>586.0</ele><time>2026-05-03T13:22:21.923Z</time></trkpt><trkpt lat="44.076700651477864" lon="10.92782993847591"><ele>586.0</ele><time>2026-05-03T13:22:22.923Z</time></trkpt><trkpt lat="44.07672391319707" lon="10.927722758753585"><ele>586.0</ele><time>2026-05-03T13:22:23.922Z</time></trkpt><trkpt lat="44.076778220908594" lon="10.927587991816978"><ele>586.0</ele><time>2026-05-03T13:22:24.922Z</time></trkpt><trkpt lat="44.07689431661016" lon="10.927515809895077"><ele>586.0</ele><time>2026-05-03T13:22:25.922Z</time></trkpt><trkpt lat="44.07703032395874" lon="10.927455027923413"><ele>586.0</ele><time>2026-05-03T13:22:26.922Z</time></trkpt><trkpt lat="44.07716831241574" lon="10.927402416329786"><ele>585.0</ele><time>2026-05-03T13:22:27.923Z</time></trkpt><trkpt lat="44.07730220696494" lon="10.927305780384163"><ele>584.0</ele><time>2026-05-03T13:22:28.923Z</time></trkpt><trkpt lat="44.077409231220486" lon="10.927200579128632"><ele>583.0</ele><time>2026-05-03T13:22:29.923Z</time></trkpt><trkpt lat="44.0774781003531" lon="10.927095863907649"><ele>582.0</ele><time>2026-05-03T13:22:30.923Z</time></trkpt><trkpt lat="44.07751286341147" lon="10.926992818038103"><ele>584.2</ele><time>2026-05-03T13:22:31.923Z</time></trkpt><trkpt lat="44.0775105725759" lon="10.926814611224879"><ele>586.4000000000001</ele><time>2026-05-03T13:22:33.922Z</time></trkpt><trkpt lat="44.07745614786877" lon="10.926719256238842"><ele>588.5999999999999</ele><time>2026-05-03T13:22:34.922Z</time></trkpt><trkpt lat="44.07739238670782" lon="10.926630256963522"><ele>590.8</ele><time>2026-05-03T13:22:35.922Z</time></trkpt><trkpt lat="44.077273620426745" lon="10.926609206696261"><ele>593.0</ele><time>2026-05-03T13:22:36.922Z</time></trkpt><trkpt lat="44.077168868501204" lon="10.926666221843838"><ele>593.0</ele><time>2026-05-03T13:22:37.922Z</time></trkpt><trkpt lat="44.077044253590564" lon="10.926741751948619"><ele>593.0</ele><time>2026-05-03T13:22:38.922Z</time></trkpt><trkpt lat="44.07691651353533" lon="10.926788483828162"><ele>593.0</ele><time>2026-05-03T13:22:39.922Z</time></trkpt><trkpt lat="44.07679379243199" lon="10.926765987577017"><ele>593.0</ele><time>2026-05-03T13:22:40.922Z</time></trkpt><trkpt lat="44.07666773893624" lon="10.926720674654565"><ele>590.75</ele><time>2026-05-03T13:22:41.922Z</time></trkpt><trkpt lat="44.07654370085045" lon="10.926742006708668"><ele>588.5</ele><time>2026-05-03T13:22:42.922Z</time></trkpt><trkpt lat="44.07643987508608" lon="10.9267437930088"><ele>586.25</ele><time>2026-05-03T13:22:43.922Z</time></trkpt><trkpt lat="44.07637691427542" lon="10.926636676856614"><ele>584.0</ele><time>2026-05-03T13:22:44.922Z</time></trkpt><trkpt lat="44.07628699769288" lon="10.926518367387956"><ele>582.25</ele><time>2026-05-03T13:22:45.922Z</time></trkpt><trkpt lat="44.07620505547049" lon="10.926393291824407"><ele>580.5</ele><time>2026-05-03T13:22:46.922Z</time></trkpt><trkpt lat="44.07615715868278" lon="10.926247150440028"><ele>578.75</ele><time>2026-05-03T13:22:47.922Z</time></trkpt><trkpt lat="44.07611804717176" lon="10.926105282927137"><ele>577.0</ele><time>2026-05-03T13:22:48.922Z</time></trkpt><trkpt lat="44.07602005389888" lon="10.925995494824587"><ele>577.0</ele><time>2026-05-03T13:22:49.922Z</time></trkpt><trkpt lat="44.07588977835284" lon="10.92595954897523"><ele>577.0</ele><time>2026-05-03T13:22:50.922Z</time></trkpt><trkpt lat="44.07575517724216" lon="10.925909096816563"><ele>577.0</ele><time>2026-05-03T13:22:51.922Z</time></trkpt><trkpt lat="44.07562947752952" lon="10.92584411272045"><ele>577.0</ele><time>2026-05-03T13:22:52.922Z</time></trkpt><trkpt lat="44.07553254029042" lon="10.925740302749768"><ele>579.75</ele><time>2026-05-03T13:22:53.922Z</time></trkpt><trkpt lat="44.07543798895329" lon="10.925635797138742"><ele>582.5</ele><time>2026-05-03T13:22:54.922Z</time></trkpt><trkpt lat="44.07532348546572" lon="10.925589978054049"><ele>585.25</ele><time>2026-05-03T13:22:55.922Z</time></trkpt><trkpt lat="44.07520698469756" lon="10.925649015014166"><ele>588.0</ele><time>2026-05-03T13:22:56.922Z</time></trkpt><trkpt lat="44.0750961115594" lon="10.9256877916558"><ele>588.0</ele><time>2026-05-03T13:22:57.922Z</time></trkpt><trkpt lat="44.07497180235464" lon="10.925678818609635"><ele>588.0</ele><time>2026-05-03T13:22:58.922Z</time></trkpt><trkpt lat="44.07486103362019" lon="10.925629643975014"><ele>588.0</ele><time>2026-05-03T13:22:59.922Z</time></trkpt><trkpt lat="44.074756032428866" lon="10.925556521124392"><ele>588.0</ele><time>2026-05-03T13:23:00.922Z</time></trkpt><trkpt lat="44.07464914759919" lon="10.92550932691326"><ele>585.25</ele><time>2026-05-03T13:23:01.922Z</time></trkpt><trkpt lat="44.074534965404155" lon="10.92551076016098"><ele>582.5</ele><time>2026-05-03T13:23:02.922Z</time></trkpt><trkpt lat="44.074416176736946" lon="10.92551959824706"><ele>579.75</ele><time>2026-05-03T13:23:03.922Z</time></trkpt><trkpt lat="44.074278934997835" lon="10.925519462045674"><ele>577.0</ele><time>2026-05-03T13:23:04.922Z</time></trkpt><trkpt lat="44.07412557553339" lon="10.925487738833473"><ele>576.75</ele><time>2026-05-03T13:23:05.922Z</time></trkpt><trkpt lat="44.07397430801567" lon="10.925467394145588"><ele>576.5</ele><time>2026-05-03T13:23:06.922Z</time></trkpt><trkpt lat="44.07383359364129" lon="10.925437022023692"><ele>576.25</ele><time>2026-05-03T13:23:07.921Z</time></trkpt><trkpt lat="44.073712774970716" lon="10.9254413078007"><ele>576.0</ele><time>2026-05-03T13:23:08.921Z</time></trkpt><trkpt lat="44.07360760135345" lon="10.925463106769016"><ele>576.0</ele><time>2026-05-03T13:23:09.921Z</time></trkpt><trkpt lat="44.07350210676188" lon="10.925456082287367"><ele>576.0</ele><time>2026-05-03T13:23:10.921Z</time></trkpt><trkpt lat="44.07341639142808" lon="10.925409590074047"><ele>576.0</ele><time>2026-05-03T13:23:11.921Z</time></trkpt><trkpt lat="44.07333069340011" lon="10.925316979683268"><ele>576.0</ele><time>2026-05-03T13:23:12.921Z</time></trkpt><trkpt lat="44.07324371793569" lon="10.925175646657756"><ele>576.0</ele><time>2026-05-03T13:23:13.921Z</time></trkpt><trkpt lat="44.0731197576355" lon="10.925034552713004"><ele>576.6666666666666</ele><time>2026-05-03T13:23:14.921Z</time></trkpt><trkpt lat="44.072978173589746" lon="10.924896780314123"><ele>577.3333333333333</ele><time>2026-05-03T13:23:15.921Z</time></trkpt><trkpt lat="44.07282733725845" lon="10.924763251239899"><ele>578.0</ele><time>2026-05-03T13:23:16.921Z</time></trkpt><trkpt lat="44.07268341924696" lon="10.924603249679675"><ele>578.0</ele><time>2026-05-03T13:23:17.921Z</time></trkpt><trkpt lat="44.07253285943144" lon="10.924448982086204"><ele>578.0</ele><time>2026-05-03T13:23:18.921Z</time></trkpt><trkpt lat="44.072381067669504" lon="10.924278590729298"><ele>578.0</ele><time>2026-05-03T13:23:19.921Z</time></trkpt><trkpt lat="44.07222385660382" lon="10.92412459606458"><ele>579.0</ele><time>2026-05-03T13:23:20.921Z</time></trkpt><trkpt lat="44.072059186024696" lon="10.92397242423263"><ele>580.0</ele><time>2026-05-03T13:23:21.921Z</time></trkpt><trkpt lat="44.071885084097055" lon="10.923861898888799"><ele>581.0</ele><time>2026-05-03T13:23:22.921Z</time></trkpt><trkpt lat="44.071707815454346" lon="10.923737458262769"><ele>587.6666666666666</ele><time>2026-05-03T13:23:23.921Z</time></trkpt><trkpt lat="44.07153618382478" lon="10.923624396713484"><ele>594.3333333333334</ele><time>2026-05-03T13:23:24.921Z</time></trkpt><trkpt lat="44.071364230137185" lon="10.923520285770136"><ele>601.0</ele><time>2026-05-03T13:23:25.921Z</time></trkpt><trkpt lat="44.07118625543202" lon="10.923411214567452"><ele>597.6666666666667</ele><time>2026-05-03T13:23:26.921Z</time></trkpt><trkpt lat="44.07099909156559" lon="10.923302261005475"><ele>594.3333333333334</ele><time>2026-05-03T13:23:27.921Z</time></trkpt><trkpt lat="44.07081126512797" lon="10.92318981606783"><ele>591.0</ele><time>2026-05-03T13:23:28.921Z</time></trkpt><trkpt lat="44.0706210717589" lon="10.92307168939889"><ele>591.0</ele><time>2026-05-03T13:23:29.921Z</time></trkpt><trkpt lat="44.07042238970642" lon="10.922968151144339"><ele>591.0</ele><time>2026-05-03T13:23:30.921Z</time></trkpt><trkpt lat="44.070229640702834" lon="10.922856751479216"><ele>591.0</ele><time>2026-05-03T13:23:31.921Z</time></trkpt><trkpt lat="44.07004265962746" lon="10.922729597143782"><ele>591.0</ele><time>2026-05-03T13:23:32.921Z</time></trkpt><trkpt lat="44.06987667068373" lon="10.922585675377835"><ele>591.0</ele><time>2026-05-03T13:23:33.921Z</time></trkpt><trkpt lat="44.069717782600655" lon="10.922471329621446"><ele>591.0</ele><time>2026-05-03T13:23:34.921Z</time></trkpt><trkpt lat="44.069580644473646" lon="10.922325234721903"><ele>591.0</ele><time>2026-05-03T13:23:35.921Z</time></trkpt><trkpt lat="44.069447851520714" lon="10.922155297792832"><ele>591.0</ele><time>2026-05-03T13:23:36.921Z</time></trkpt><trkpt lat="44.06933076120497" lon="10.921962593133042"><ele>591.0</ele><time>2026-05-03T13:23:37.921Z</time></trkpt><trkpt lat="44.06921629912211" lon="10.921772205522492"><ele>593.3333333333334</ele><time>2026-05-03T13:23:38.921Z</time></trkpt><trkpt lat="44.069103491465846" lon="10.921560808121916"><ele>595.6666666666667</ele><time>2026-05-03T13:23:39.921Z</time></trkpt><trkpt lat="44.068991290849105" lon="10.921346942947102"><ele>598.0</ele><time>2026-05-03T13:23:40.921Z</time></trkpt><trkpt lat="44.068859667939975" lon="10.921146667071596"><ele>598.0</ele><time>2026-05-03T13:23:41.921Z</time></trkpt><trkpt lat="44.06871840061235" lon="10.920978980535724"><ele>598.0</ele><time>2026-05-03T13:23:42.921Z</time></trkpt><trkpt lat="44.06857264172686" lon="10.920795674470838"><ele>598.0</ele><time>2026-05-03T13:23:43.921Z</time></trkpt><trkpt lat="44.068425680593805" lon="10.920606136934476"><ele>596.3333333333334</ele><time>2026-05-03T13:23:44.921Z</time></trkpt><trkpt lat="44.06829473145123" lon="10.92043347858968"><ele>594.6666666666666</ele><time>2026-05-03T13:23:45.921Z</time></trkpt><trkpt lat="44.068173346152854" lon="10.920307443112668"><ele>593.0</ele><time>2026-05-03T13:23:46.921Z</time></trkpt><trkpt lat="44.06805760495291" lon="10.920223911585586"><ele>593.0</ele><time>2026-05-03T13:23:47.921Z</time></trkpt><trkpt lat="44.06792754199205" lon="10.920142225898712"><ele>593.0</ele><time>2026-05-03T13:23:48.921Z</time></trkpt><trkpt lat="44.06776854423634" lon="10.920108621020185"><ele>593.0</ele><time>2026-05-03T13:23:49.921Z</time></trkpt><trkpt lat="44.06760286994477" lon="10.920059115844692"><ele>593.0</ele><time>2026-05-03T13:23:50.921Z</time></trkpt><trkpt lat="44.067421309984844" lon="10.920053011603873"><ele>593.0</ele><time>2026-05-03T13:23:51.921Z</time></trkpt><trkpt lat="44.06724602048385" lon="10.920027508677961"><ele>593.0</ele><time>2026-05-03T13:23:52.921Z</time></trkpt><trkpt lat="44.06709242061307" lon="10.919994429875395"><ele>593.0</ele><time>2026-05-03T13:23:53.921Z</time></trkpt><trkpt lat="44.06694027923029" lon="10.91995469119692"><ele>593.0</ele><time>2026-05-03T13:23:54.921Z</time></trkpt><trkpt lat="44.066791301860434" lon="10.919890927210883"><ele>593.0</ele><time>2026-05-03T13:23:55.921Z</time></trkpt><trkpt lat="44.06665187779383" lon="10.919830564902027"><ele>596.25</ele><time>2026-05-03T13:23:56.921Z</time></trkpt><trkpt lat="44.066520195737674" lon="10.919746802697203"><ele>599.5</ele><time>2026-05-03T13:23:57.921Z</time></trkpt><trkpt lat="44.066399247413266" lon="10.91966883096094"><ele>602.75</ele><time>2026-05-03T13:23:58.921Z</time></trkpt><trkpt lat="44.066297720419875" lon="10.919580057229927"><ele>606.0</ele><time>2026-05-03T13:23:59.921Z</time></trkpt><trkpt lat="44.06618660871808" lon="10.919488824067322"><ele>606.0</ele><time>2026-05-03T13:24:00.921Z</time></trkpt><trkpt lat="44.066092169778706" lon="10.91938141508099"><ele>606.0</ele><time>2026-05-03T13:24:01.921Z</time></trkpt><trkpt lat="44.066005260092325" lon="10.91924424108214"><ele>606.0</ele><time>2026-05-03T13:24:02.921Z</time></trkpt><trkpt lat="44.06593231617938" lon="10.919116558691385"><ele>606.0</ele><time>2026-05-03T13:24:03.921Z</time></trkpt><trkpt lat="44.06584562408389" lon="10.918996420934196"><ele>602.6666666666666</ele><time>2026-05-03T13:24:04.921Z</time></trkpt><trkpt lat="44.065745406299854" lon="10.91887564524163"><ele>599.3333333333333</ele><time>2026-05-03T13:24:05.921Z</time></trkpt><trkpt lat="44.06558849339183" lon="10.918808927547694"><ele>596.0</ele><time>2026-05-03T13:24:06.921Z</time></trkpt><trkpt lat="44.06543535547245" lon="10.918692322678837"><ele>596.0</ele><time>2026-05-03T13:24:07.921Z</time></trkpt><trkpt lat="44.06529697831849" lon="10.918607381077852"><ele>596.0</ele><time>2026-05-03T13:24:08.921Z</time></trkpt><trkpt lat="44.06518439019801" lon="10.918492146371936"><ele>596.0</ele><time>2026-05-03T13:24:09.921Z</time></trkpt><trkpt lat="44.06508365085313" lon="10.918372019903144"><ele>596.0</ele><time>2026-05-03T13:24:10.921Z</time></trkpt><trkpt lat="44.064938402334576" lon="10.918280356301093"><ele>595.3333333333333</ele><time>2026-05-03T13:24:11.92Z</time></trkpt><trkpt lat="44.06476266034476" lon="10.918232066885864"><ele>594.6666666666666</ele><time>2026-05-03T13:24:12.92Z</time></trkpt><trkpt lat="44.06460510425043" lon="10.918168518526214"><ele>594.0</ele><time>2026-05-03T13:24:13.92Z</time></trkpt><trkpt lat="44.06445072160584" lon="10.918053623300063"><ele>594.0</ele><time>2026-05-03T13:24:14.92Z</time></trkpt><trkpt lat="44.06428285468768" lon="10.917936102075778"><ele>594.0</ele><time>2026-05-03T13:24:15.92Z</time></trkpt><trkpt lat="44.0641204256754" lon="10.917817756093827"><ele>594.0</ele><time>2026-05-03T13:24:16.92Z</time></trkpt><trkpt lat="44.06396999319947" lon="10.917718331969876"><ele>596.3333333333334</ele><time>2026-05-03T13:24:17.92Z</time></trkpt><trkpt lat="44.06382641761874" lon="10.91762838961209"><ele>598.6666666666667</ele><time>2026-05-03T13:24:18.92Z</time></trkpt><trkpt lat="44.06370841260932" lon="10.917485164579412"><ele>601.0</ele><time>2026-05-03T13:24:19.92Z</time></trkpt><trkpt lat="44.06358217984307" lon="10.9173064673817"><ele>601.0</ele><time>2026-05-03T13:24:20.92Z</time></trkpt><trkpt lat="44.0634483853568" lon="10.917167886716234"><ele>601.0</ele><time>2026-05-03T13:24:21.92Z</time></trkpt><trkpt lat="44.063340061065205" lon="10.91704568478269"><ele>601.0</ele><time>2026-05-03T13:24:22.92Z</time></trkpt><trkpt lat="44.06325442927084" lon="10.916921673547897"><ele>601.0</ele><time>2026-05-03T13:24:23.92Z</time></trkpt><trkpt lat="44.06319348832" lon="10.916804612423801"><ele>601.75</ele><time>2026-05-03T13:24:24.92Z</time></trkpt><trkpt lat="44.063085478852216" lon="10.916754588949344"><ele>602.5</ele><time>2026-05-03T13:24:25.92Z</time></trkpt><trkpt lat="44.062964599302106" lon="10.916802545180392"><ele>603.25</ele><time>2026-05-03T13:24:26.92Z</time></trkpt><trkpt lat="44.06282569602681" lon="10.916869381240994"><ele>604.0</ele><time>2026-05-03T13:24:27.921Z</time></trkpt><trkpt lat="44.062682309203126" lon="10.916930912643295"><ele>604.0</ele><time>2026-05-03T13:24:28.921Z</time></trkpt><trkpt lat="44.062517320764464" lon="10.916921760980358"><ele>604.0</ele><time>2026-05-03T13:24:29.92Z</time></trkpt><trkpt lat="44.06234330744935" lon="10.916909157063277"><ele>604.0</ele><time>2026-05-03T13:24:30.92Z</time></trkpt><trkpt lat="44.06216756895188" lon="10.916912110510724"><ele>605.0</ele><time>2026-05-03T13:24:31.92Z</time></trkpt><trkpt lat="44.06201688830252" lon="10.916933447156842"><ele>606.0</ele><time>2026-05-03T13:24:32.92Z</time></trkpt><trkpt lat="44.061861489110264" lon="10.916930834665822"><ele>607.0</ele><time>2026-05-03T13:24:33.92Z</time></trkpt><trkpt lat="44.06169298447873" lon="10.916892860365957"><ele>611.0</ele><time>2026-05-03T13:24:34.92Z</time></trkpt><trkpt lat="44.061525830348984" lon="10.916865672875758"><ele>615.0</ele><time>2026-05-03T13:24:35.92Z</time></trkpt><trkpt lat="44.06137275720501" lon="10.916845157915782"><ele>619.0</ele><time>2026-05-03T13:24:36.92Z</time></trkpt><trkpt lat="44.061242113019254" lon="10.916827648903572"><ele>619.0</ele><time>2026-05-03T13:24:37.92Z</time></trkpt><trkpt lat="44.061131217280604" lon="10.916807569900513"><ele>619.0</ele><time>2026-05-03T13:24:38.919Z</time></trkpt><trkpt lat="44.061047073851086" lon="10.916767892746703"><ele>619.0</ele><time>2026-05-03T13:24:39.92Z</time></trkpt><trkpt lat="44.06095940442584" lon="10.91673308271509"><ele>619.0</ele><time>2026-05-03T13:24:40.92Z</time></trkpt><trkpt lat="44.06088555656612" lon="10.916630558120838"><ele>619.0</ele><time>2026-05-03T13:24:41.92Z</time></trkpt><trkpt lat="44.060824307637525" lon="10.916489955574471"><ele>619.75</ele><time>2026-05-03T13:24:42.92Z</time></trkpt><trkpt lat="44.06077365472666" lon="10.91635406488645"><ele>620.5</ele><time>2026-05-03T13:24:43.92Z</time></trkpt><trkpt lat="44.06079236912055" lon="10.91617622858925"><ele>621.25</ele><time>2026-05-03T13:24:44.92Z</time></trkpt><trkpt lat="44.060834951200334" lon="10.915963138123669"><ele>622.0</ele><time>2026-05-03T13:24:45.92Z</time></trkpt><trkpt lat="44.06087864542521" lon="10.915766497703553"><ele>622.0</ele><time>2026-05-03T13:24:46.92Z</time></trkpt><trkpt lat="44.06087943072225" lon="10.9155776150022"><ele>622.0</ele><time>2026-05-03T13:24:47.92Z</time></trkpt><trkpt lat="44.060850071069744" lon="10.915400396866517"><ele>622.0</ele><time>2026-05-03T13:24:48.92Z</time></trkpt><trkpt lat="44.060783537726394" lon="10.915246047131355"><ele>622.0</ele><time>2026-05-03T13:24:49.92Z</time></trkpt><trkpt lat="44.06066915439985" lon="10.915079002234993"><ele>619.0</ele><time>2026-05-03T13:24:50.92Z</time></trkpt><trkpt lat="44.060561437250264" lon="10.914889792915345"><ele>616.0</ele><time>2026-05-03T13:24:51.92Z</time></trkpt><trkpt lat="44.06045085725775" lon="10.914718622240471"><ele>613.0</ele><time>2026-05-03T13:24:52.92Z</time></trkpt><trkpt lat="44.06034508357556" lon="10.914536271405796"><ele>613.0</ele><time>2026-05-03T13:24:53.92Z</time></trkpt><trkpt lat="44.06022832209758" lon="10.914328388526211"><ele>613.0</ele><time>2026-05-03T13:24:54.92Z</time></trkpt><trkpt lat="44.06012863519525" lon="10.914149883418228"><ele>613.0</ele><time>2026-05-03T13:24:55.92Z</time></trkpt><trkpt lat="44.060025626694824" lon="10.91396203983734"><ele>615.3333333333334</ele><time>2026-05-03T13:24:56.92Z</time></trkpt><trkpt lat="44.05992360966739" lon="10.91377344898962"><ele>617.6666666666666</ele><time>2026-05-03T13:24:57.92Z</time></trkpt><trkpt lat="44.05982398711903" lon="10.913589644465503"><ele>620.0</ele><time>2026-05-03T13:24:58.92Z</time></trkpt><trkpt lat="44.05972435862583" lon="10.913410986107221"><ele>617.5</ele><time>2026-05-03T13:24:59.92Z</time></trkpt><trkpt lat="44.05962816433178" lon="10.91324723464589"><ele>615.0</ele><time>2026-05-03T13:25:00.92Z</time></trkpt><trkpt lat="44.05953845504102" lon="10.913119941719165"><ele>612.5</ele><time>2026-05-03T13:25:01.92Z</time></trkpt><trkpt lat="44.059474581960174" lon="10.91299409429712"><ele>610.0</ele><time>2026-05-03T13:25:02.92Z</time></trkpt><trkpt lat="44.059424562321354" lon="10.912886719482753"><ele>610.0</ele><time>2026-05-03T13:25:03.92Z</time></trkpt><trkpt lat="44.05939663746291" lon="10.912779732369353"><ele>610.0</ele><time>2026-05-03T13:25:04.92Z</time></trkpt><trkpt lat="44.05935153595005" lon="10.91267399322036"><ele>610.0</ele><time>2026-05-03T13:25:05.92Z</time></trkpt><trkpt lat="44.05931828129594" lon="10.912573260304445"><ele>610.0</ele><time>2026-05-03T13:25:06.92Z</time></trkpt><trkpt lat="44.05928811250777" lon="10.912473788073129"><ele>610.0</ele><time>2026-05-03T13:25:07.92Z</time></trkpt><trkpt lat="44.059252871789276" lon="10.912389722513002"><ele>610.0</ele><time>2026-05-03T13:25:08.92Z</time></trkpt><trkpt lat="44.059230374057556" lon="10.912298201092783"><ele>609.8333333333334</ele><time>2026-05-03T13:25:09.92Z</time></trkpt><trkpt lat="44.059211467792984" lon="10.912213577035397"><ele>609.6666666666667</ele><time>2026-05-03T13:25:10.92Z</time></trkpt><trkpt lat="44.05920905628942" lon="10.912116825451578"><ele>609.5</ele><time>2026-05-03T13:25:11.92Z</time></trkpt><trkpt lat="44.05920597499718" lon="10.912019205268505"><ele>609.3333333333334</ele><time>2026-05-03T13:25:12.92Z</time></trkpt><trkpt lat="44.0592092170096" lon="10.911929701905953"><ele>609.1666666666666</ele><time>2026-05-03T13:25:13.919Z</time></trkpt><trkpt lat="44.05920887222888" lon="10.911782866546499"><ele>609.0</ele><time>2026-05-03T13:25:15.919Z</time></trkpt><trkpt lat="44.059147429179006" lon="10.911632304525586"><ele>609.6666666666666</ele><time>2026-05-03T13:25:17.919Z</time></trkpt><trkpt lat="44.059113896811795" lon="10.9115404605048"><ele>610.3333333333334</ele><time>2026-05-03T13:25:20.919Z</time></trkpt><trkpt lat="44.05908897210622" lon="10.911435446974728"><ele>611.0</ele><time>2026-05-03T13:25:24.919Z</time></trkpt><trkpt lat="44.059000470146046" lon="10.91137697891569"><ele>611.6666666666667</ele><time>2026-05-03T13:25:26.919Z</time></trkpt><trkpt lat="44.05892622924257" lon="10.91136206685559"><ele>612.3333333333334</ele><time>2026-05-03T13:25:28.919Z</time></trkpt><trkpt lat="44.05880818658527" lon="10.91131473257916"><ele>613.0</ele><time>2026-05-03T13:25:30.919Z</time></trkpt><trkpt lat="44.05874577723053" lon="10.911280157506791"><ele>613.0</ele><time>2026-05-03T13:25:31.919Z</time></trkpt><trkpt lat="44.058686081119326" lon="10.91122564354407"><ele>613.0</ele><time>2026-05-03T13:25:32.919Z</time></trkpt><trkpt lat="44.05862689176877" lon="10.91117079824526"><ele>613.0</ele><time>2026-05-03T13:25:33.919Z</time></trkpt><trkpt lat="44.058612130690854" lon="10.911055875805939"><ele>613.0</ele><time>2026-05-03T13:25:34.919Z</time></trkpt><trkpt lat="44.05857786244465" lon="10.910968837353558"><ele>613.0</ele><time>2026-05-03T13:25:35.919Z</time></trkpt><trkpt lat="44.05854555082117" lon="10.910878632840024"><ele>613.0</ele><time>2026-05-03T13:25:36.919Z</time></trkpt><trkpt lat="44.05850165432963" lon="10.910796730085242"><ele>613.0</ele><time>2026-05-03T13:25:37.919Z</time></trkpt><trkpt lat="44.05848913022531" lon="10.910704395289589"><ele>612.8571428571429</ele><time>2026-05-03T13:25:38.919Z</time></trkpt><trkpt lat="44.05846015462572" lon="10.910617523361724"><ele>612.7142857142857</ele><time>2026-05-03T13:25:39.919Z</time></trkpt><trkpt lat="44.05843045683439" lon="10.910535094860132"><ele>612.5714285714286</ele><time>2026-05-03T13:25:40.919Z</time></trkpt><trkpt lat="44.05839901027863" lon="10.910443962981319"><ele>612.4285714285714</ele><time>2026-05-03T13:25:41.919Z</time></trkpt><trkpt lat="44.05836934726411" lon="10.910352305170582"><ele>612.2857142857143</ele><time>2026-05-03T13:25:42.919Z</time></trkpt><trkpt lat="44.058338487204736" lon="10.910264167909613"><ele>612.1428571428571</ele><time>2026-05-03T13:25:43.919Z</time></trkpt><trkpt lat="44.05828916019202" lon="10.910165332132058"><ele>612.0</ele><time>2026-05-03T13:25:44.919Z</time></trkpt><trkpt lat="44.05824035285897" lon="10.910047264190192"><ele>616.5</ele><time>2026-05-03T13:25:45.919Z</time></trkpt><trkpt lat="44.05818033206807" lon="10.90990723398608"><ele>621.0</ele><time>2026-05-03T13:25:46.919Z</time></trkpt><trkpt lat="44.058132191458135" lon="10.909729440768144"><ele>625.5</ele><time>2026-05-03T13:25:47.919Z</time></trkpt><trkpt lat="44.05803164538128" lon="10.909575791325393"><ele>630.0</ele><time>2026-05-03T13:25:48.919Z</time></trkpt><trkpt lat="44.05794777437441" lon="10.909384524911403"><ele>624.6666666666666</ele><time>2026-05-03T13:25:49.919Z</time></trkpt><trkpt lat="44.0578328467869" lon="10.909193450758385"><ele>619.3333333333333</ele><time>2026-05-03T13:25:50.919Z</time></trkpt><trkpt lat="44.05770597155314" lon="10.909013780644774"><ele>614.0</ele><time>2026-05-03T13:25:51.919Z</time></trkpt><trkpt lat="44.05756957115601" lon="10.90884435977668"><ele>613.6666666666666</ele><time>2026-05-03T13:25:52.919Z</time></trkpt><trkpt lat="44.057427761588535" lon="10.908672113100492"><ele>613.3333333333334</ele><time>2026-05-03T13:25:53.919Z</time></trkpt><trkpt lat="44.05728669252873" lon="10.908499736141806"><ele>613.0</ele><time>2026-05-03T13:25:54.919Z</time></trkpt><trkpt lat="44.057131493252406" lon="10.908341072873574"><ele>613.0</ele><time>2026-05-03T13:25:55.919Z</time></trkpt><trkpt lat="44.05699241954306" lon="10.90814953009085"><ele>613.0</ele><time>2026-05-03T13:25:56.919Z</time></trkpt><trkpt lat="44.05684833861494" lon="10.907970760515754"><ele>613.0</ele><time>2026-05-03T13:25:57.919Z</time></trkpt><trkpt lat="44.05669139938817" lon="10.907802088348877"><ele>613.0</ele><time>2026-05-03T13:25:58.919Z</time></trkpt><trkpt lat="44.05652912149773" lon="10.907625981753274"><ele>613.0</ele><time>2026-05-03T13:25:59.919Z</time></trkpt><trkpt lat="44.05635787296039" lon="10.907462485910983"><ele>613.0</ele><time>2026-05-03T13:26:00.919Z</time></trkpt><trkpt lat="44.05619200463286" lon="10.907319286512967"><ele>613.0</ele><time>2026-05-03T13:26:01.919Z</time></trkpt><trkpt lat="44.05600996890639" lon="10.907179685125575"><ele>613.0</ele><time>2026-05-03T13:26:02.919Z</time></trkpt><trkpt lat="44.0558490487208" lon="10.907061014988294"><ele>613.0</ele><time>2026-05-03T13:26:03.919Z</time></trkpt><trkpt lat="44.05570652957026" lon="10.906952757437043"><ele>613.4</ele><time>2026-05-03T13:26:04.919Z</time></trkpt><trkpt lat="44.05559261369895" lon="10.90686175544207"><ele>613.8</ele><time>2026-05-03T13:26:05.919Z</time></trkpt><trkpt lat="44.05550673991591" lon="10.906782750759593"><ele>614.2</ele><time>2026-05-03T13:26:06.919Z</time></trkpt><trkpt lat="44.05543116104549" lon="10.906731733725127"><ele>614.6</ele><time>2026-05-03T13:26:07.919Z</time></trkpt><trkpt lat="44.055385319211275" lon="10.906669684157208"><ele>615.0</ele><time>2026-05-03T13:26:08.919Z</time></trkpt><trkpt lat="44.05539354030598" lon="10.90650810900433"><ele>615.0</ele><time>2026-05-03T13:26:10.919Z</time></trkpt><trkpt lat="44.05543131474932" lon="10.906432715532864"><ele>615.0</ele><time>2026-05-03T13:26:11.919Z</time></trkpt><trkpt lat="44.055390446658535" lon="10.906270128201253"><ele>615.0</ele><time>2026-05-03T13:26:13.919Z</time></trkpt><trkpt lat="44.05530172319092" lon="10.906197809591687"><ele>615.0</ele><time>2026-05-03T13:26:14.919Z</time></trkpt><trkpt lat="44.05519385248063" lon="10.906105575338591"><ele>615.0</ele><time>2026-05-03T13:26:15.919Z</time></trkpt><trkpt lat="44.055064306371186" lon="10.906007967333474"><ele>614.6666666666666</ele><time>2026-05-03T13:26:16.919Z</time></trkpt><trkpt lat="44.05492924905813" lon="10.905907886714953"><ele>614.3333333333333</ele><time>2026-05-03T13:26:17.918Z</time></trkpt><trkpt lat="44.05478655608981" lon="10.905803134195558"><ele>614.0</ele><time>2026-05-03T13:26:18.918Z</time></trkpt><trkpt lat="44.054643961580105" lon="10.905678895270517"><ele>614.0</ele><time>2026-05-03T13:26:19.918Z</time></trkpt><trkpt lat="44.05450934924309" lon="10.90552093154633"><ele>614.0</ele><time>2026-05-03T13:26:20.918Z</time></trkpt><trkpt lat="44.05438549225552" lon="10.90534842410424"><ele>614.0</ele><time>2026-05-03T13:26:21.918Z</time></trkpt><trkpt lat="44.05425840308239" lon="10.90518989143938"><ele>614.3333333333333</ele><time>2026-05-03T13:26:22.918Z</time></trkpt><trkpt lat="44.05413363498079" lon="10.905008720614159"><ele>614.6666666666666</ele><time>2026-05-03T13:26:23.918Z</time></trkpt><trkpt lat="44.05398604675512" lon="10.904847584465887"><ele>615.0</ele><time>2026-05-03T13:26:24.918Z</time></trkpt><trkpt lat="44.05382950137635" lon="10.904694811797802"><ele>615.0</ele><time>2026-05-03T13:26:25.918Z</time></trkpt><trkpt lat="44.0536599622724" lon="10.904561102963054"><ele>615.0</ele><time>2026-05-03T13:26:26.918Z</time></trkpt><trkpt lat="44.053493226727696" lon="10.904438055123544"><ele>615.0</ele><time>2026-05-03T13:26:27.918Z</time></trkpt><trkpt lat="44.05332214421677" lon="10.904334423649262"><ele>617.0</ele><time>2026-05-03T13:26:28.918Z</time></trkpt><trkpt lat="44.05314841378188" lon="10.90424737587609"><ele>619.0</ele><time>2026-05-03T13:26:29.918Z</time></trkpt><trkpt lat="44.05298248453744" lon="10.904174142339956"><ele>621.0</ele><time>2026-05-03T13:26:30.918Z</time></trkpt><trkpt lat="44.05282218981518" lon="10.904104716546959"><ele>621.0</ele><time>2026-05-03T13:26:31.918Z</time></trkpt><trkpt lat="44.05267113697772" lon="10.904053687124462"><ele>621.0</ele><time>2026-05-03T13:26:32.918Z</time></trkpt><trkpt lat="44.05252556370365" lon="10.904014147159218"><ele>621.0</ele><time>2026-05-03T13:26:33.918Z</time></trkpt><trkpt lat="44.052385248107115" lon="10.903975924422978"><ele>621.0</ele><time>2026-05-03T13:26:34.918Z</time></trkpt><trkpt lat="44.0522514710217" lon="10.90394381522076"><ele>622.25</ele><time>2026-05-03T13:26:35.918Z</time></trkpt><trkpt lat="44.05211728009378" lon="10.903917508673114"><ele>623.5</ele><time>2026-05-03T13:26:36.918Z</time></trkpt><trkpt lat="44.05197872336117" lon="10.903877935521713"><ele>624.75</ele><time>2026-05-03T13:26:37.918Z</time></trkpt><trkpt lat="44.05183509024194" lon="10.903834963598348"><ele>626.0</ele><time>2026-05-03T13:26:38.917Z</time></trkpt><trkpt lat="44.05170474859945" lon="10.903785526323306"><ele>628.5</ele><time>2026-05-03T13:26:39.918Z</time></trkpt><trkpt lat="44.05158367787868" lon="10.903745351418426"><ele>631.0</ele><time>2026-05-03T13:26:40.918Z</time></trkpt><trkpt lat="44.05145986535499" lon="10.903698565451306"><ele>633.5</ele><time>2026-05-03T13:26:41.918Z</time></trkpt><trkpt lat="44.05133361265151" lon="10.903636292260796"><ele>636.0</ele><time>2026-05-03T13:26:42.918Z</time></trkpt><trkpt lat="44.05121290688748" lon="10.90357682533974"><ele>636.0</ele><time>2026-05-03T13:26:43.918Z</time></trkpt><trkpt lat="44.05110107576024" lon="10.90350904246247"><ele>636.0</ele><time>2026-05-03T13:26:44.918Z</time></trkpt><trkpt lat="44.05099994320452" lon="10.903437519081965"><ele>636.0</ele><time>2026-05-03T13:26:45.918Z</time></trkpt><trkpt lat="44.050893962637915" lon="10.903372413716387"><ele>636.0</ele><time>2026-05-03T13:26:46.918Z</time></trkpt><trkpt lat="44.05078960360701" lon="10.90332065440887"><ele>635.5</ele><time>2026-05-03T13:26:47.918Z</time></trkpt><trkpt lat="44.050677387905274" lon="10.90327865583563"><ele>635.0</ele><time>2026-05-03T13:26:48.918Z</time></trkpt><trkpt lat="44.050573261177085" lon="10.903216354134662"><ele>634.5</ele><time>2026-05-03T13:26:49.918Z</time></trkpt><trkpt lat="44.05046188924617" lon="10.903171490670344"><ele>634.0</ele><time>2026-05-03T13:26:50.918Z</time></trkpt><trkpt lat="44.05038413911694" lon="10.903070354626708"><ele>634.0</ele><time>2026-05-03T13:26:51.918Z</time></trkpt><trkpt lat="44.050308751871405" lon="10.902932096169039"><ele>634.0</ele><time>2026-05-03T13:26:52.918Z</time></trkpt><trkpt lat="44.050237006475555" lon="10.902783991538417"><ele>634.0</ele><time>2026-05-03T13:26:53.918Z</time></trkpt><trkpt lat="44.05016547973921" lon="10.902647080448148"><ele>634.0</ele><time>2026-05-03T13:26:54.918Z</time></trkpt><trkpt lat="44.05007488347521" lon="10.902496916577142"><ele>632.6666666666667</ele><time>2026-05-03T13:26:55.918Z</time></trkpt><trkpt lat="44.04996301531774" lon="10.902346538521497"><ele>631.3333333333334</ele><time>2026-05-03T13:26:56.917Z</time></trkpt><trkpt lat="44.04984994228121" lon="10.902164419816318"><ele>630.0</ele><time>2026-05-03T13:26:57.917Z</time></trkpt><trkpt lat="44.0497374635933" lon="10.901994617477284"><ele>629.6666666666666</ele><time>2026-05-03T13:26:58.917Z</time></trkpt><trkpt lat="44.04963601242451" lon="10.901747621430665"><ele>629.3333333333333</ele><time>2026-05-03T13:26:59.917Z</time></trkpt><trkpt lat="44.04950741675" lon="10.901572464737281"><ele>629.0</ele><time>2026-05-03T13:27:00.917Z</time></trkpt><trkpt lat="44.04937941873623" lon="10.901400082688436"><ele>629.0</ele><time>2026-05-03T13:27:01.917Z</time></trkpt><trkpt lat="44.049248326149076" lon="10.901237093560631"><ele>629.0</ele><time>2026-05-03T13:27:02.917Z</time></trkpt><trkpt lat="44.04909906520588" lon="10.901070597317707"><ele>629.0</ele><time>2026-05-03T13:27:03.917Z</time></trkpt><trkpt lat="44.04895054353901" lon="10.900935030041188"><ele>630.0</ele><time>2026-05-03T13:27:04.917Z</time></trkpt><trkpt lat="44.04879316866883" lon="10.900804440218907"><ele>631.0</ele><time>2026-05-03T13:27:05.917Z</time></trkpt><trkpt lat="44.04864636284468" lon="10.900676517663152"><ele>632.0</ele><time>2026-05-03T13:27:06.917Z</time></trkpt><trkpt lat="44.048482785863065" lon="10.900567339603441"><ele>632.0</ele><time>2026-05-03T13:27:07.917Z</time></trkpt><trkpt lat="44.04831048038788" lon="10.900490095224784"><ele>632.0</ele><time>2026-05-03T13:27:08.917Z</time></trkpt><trkpt lat="44.048136084317996" lon="10.900421389547668"><ele>632.0</ele><time>2026-05-03T13:27:09.917Z</time></trkpt><trkpt lat="44.047946338814675" lon="10.900360149388847"><ele>633.3333333333333</ele><time>2026-05-03T13:27:10.917Z</time></trkpt><trkpt lat="44.04774571748429" lon="10.900311141880682"><ele>634.6666666666666</ele><time>2026-05-03T13:27:11.917Z</time></trkpt><trkpt lat="44.047541928443515" lon="10.900249462037207"><ele>636.0</ele><time>2026-05-03T13:27:12.917Z</time></trkpt><trkpt lat="44.0473485020904" lon="10.900174966474044"><ele>638.0</ele><time>2026-05-03T13:27:13.917Z</time></trkpt><trkpt lat="44.04716565793235" lon="10.9000848944079"><ele>640.0</ele><time>2026-05-03T13:27:14.917Z</time></trkpt><trkpt lat="44.04699373529873" lon="10.90001515562256"><ele>642.0</ele><time>2026-05-03T13:27:15.917Z</time></trkpt><trkpt lat="44.04683577832196" lon="10.899972064251264"><ele>642.0</ele><time>2026-05-03T13:27:16.917Z</time></trkpt><trkpt lat="44.04669112759757" lon="10.899890228967845"><ele>642.0</ele><time>2026-05-03T13:27:17.917Z</time></trkpt><trkpt lat="44.04656407460953" lon="10.89977739476889"><ele>642.0</ele><time>2026-05-03T13:27:18.917Z</time></trkpt><trkpt lat="44.046462118012485" lon="10.899613452952083"><ele>644.0</ele><time>2026-05-03T13:27:19.917Z</time></trkpt><trkpt lat="44.04638028431118" lon="10.89944821594018"><ele>646.0</ele><time>2026-05-03T13:27:20.917Z</time></trkpt><trkpt lat="44.04633638106372" lon="10.899251993986118"><ele>648.0</ele><time>2026-05-03T13:27:21.917Z</time></trkpt><trkpt lat="44.04632589567802" lon="10.899023873177462"><ele>648.0</ele><time>2026-05-03T13:27:22.917Z</time></trkpt><trkpt lat="44.046340257924705" lon="10.898787236127774"><ele>648.0</ele><time>2026-05-03T13:27:23.917Z</time></trkpt><trkpt lat="44.046354676029566" lon="10.898543046491572"><ele>648.0</ele><time>2026-05-03T13:27:24.917Z</time></trkpt><trkpt lat="44.046368633739064" lon="10.898291722632004"><ele>646.0</ele><time>2026-05-03T13:27:25.917Z</time></trkpt><trkpt lat="44.04638677099676" lon="10.89802741634725"><ele>644.0</ele><time>2026-05-03T13:27:26.917Z</time></trkpt><trkpt lat="44.04639462358001" lon="10.897775936999908"><ele>642.0</ele><time>2026-05-03T13:27:27.917Z</time></trkpt><trkpt lat="44.04636063568293" lon="10.897569195632837"><ele>641.6666666666666</ele><time>2026-05-03T13:27:28.917Z</time></trkpt><trkpt lat="44.04629987551461" lon="10.897326280795102"><ele>641.3333333333333</ele><time>2026-05-03T13:27:29.917Z</time></trkpt><trkpt lat="44.04622879715982" lon="10.897122230487957"><ele>641.0</ele><time>2026-05-03T13:27:30.917Z</time></trkpt><trkpt lat="44.046141833068106" lon="10.896923167991988"><ele>643.6666666666666</ele><time>2026-05-03T13:27:31.917Z</time></trkpt><trkpt lat="44.04602466400504" lon="10.896750432863021"><ele>646.3333333333334</ele><time>2026-05-03T13:27:32.917Z</time></trkpt><trkpt lat="44.04590324504614" lon="10.896547320477799"><ele>649.0</ele><time>2026-05-03T13:27:33.917Z</time></trkpt><trkpt lat="44.04577694047484" lon="10.896349188060933"><ele>649.6666666666667</ele><time>2026-05-03T13:27:34.917Z</time></trkpt><trkpt lat="44.04563175752664" lon="10.896164795353808"><ele>650.3333333333334</ele><time>2026-05-03T13:27:35.917Z</time></trkpt><trkpt lat="44.045465078911" lon="10.896022397768936"><ele>651.0</ele><time>2026-05-03T13:27:36.917Z</time></trkpt><trkpt lat="44.04530495563901" lon="10.895887094199828"><ele>651.0</ele><time>2026-05-03T13:27:37.917Z</time></trkpt><trkpt lat="44.04517149975573" lon="10.895738359142092"><ele>651.0</ele><time>2026-05-03T13:27:38.917Z</time></trkpt><trkpt lat="44.04506068287798" lon="10.895574078574311"><ele>651.0</ele><time>2026-05-03T13:27:39.917Z</time></trkpt><trkpt lat="44.04496773800468" lon="10.895376649989421"><ele>649.6666666666666</ele><time>2026-05-03T13:27:40.917Z</time></trkpt><trkpt lat="44.04489912869362" lon="10.895136173360253"><ele>648.3333333333333</ele><time>2026-05-03T13:27:41.917Z</time></trkpt><trkpt lat="44.04484735741132" lon="10.894896077297199"><ele>647.0</ele><time>2026-05-03T13:27:42.917Z</time></trkpt><trkpt lat="44.04474792734633" lon="10.894710294004529"><ele>647.0</ele><time>2026-05-03T13:27:43.917Z</time></trkpt><trkpt lat="44.044630223164454" lon="10.894535916902623"><ele>647.0</ele><time>2026-05-03T13:27:44.917Z</time></trkpt><trkpt lat="44.04451077230802" lon="10.894370630473565"><ele>647.0</ele><time>2026-05-03T13:27:45.917Z</time></trkpt><trkpt lat="44.04437381847533" lon="10.894189370688203"><ele>646.6666666666666</ele><time>2026-05-03T13:27:46.917Z</time></trkpt><trkpt lat="44.0442323284472" lon="10.893994863805574"><ele>646.3333333333334</ele><time>2026-05-03T13:27:47.917Z</time></trkpt><trkpt lat="44.04408313087413" lon="10.893806214834083"><ele>646.0</ele><time>2026-05-03T13:27:48.917Z</time></trkpt><trkpt lat="44.04391567342183" lon="10.893647432025796"><ele>647.0</ele><time>2026-05-03T13:27:49.917Z</time></trkpt><trkpt lat="44.04374204834016" lon="10.89349215699501"><ele>648.0</ele><time>2026-05-03T13:27:50.917Z</time></trkpt><trkpt lat="44.04357980504874" lon="10.893309135810872"><ele>649.0</ele><time>2026-05-03T13:27:51.917Z</time></trkpt><trkpt lat="44.04343933184782" lon="10.893091780227216"><ele>649.3333333333334</ele><time>2026-05-03T13:27:52.917Z</time></trkpt><trkpt lat="44.04330101603927" lon="10.892875541043832"><ele>649.6666666666666</ele><time>2026-05-03T13:27:53.917Z</time></trkpt><trkpt lat="44.04317035188434" lon="10.892643735705818"><ele>650.0</ele><time>2026-05-03T13:27:54.917Z</time></trkpt><trkpt lat="44.04302567737065" lon="10.892437106515281"><ele>650.0</ele><time>2026-05-03T13:27:55.917Z</time></trkpt><trkpt lat="44.04286869049378" lon="10.89224389734803"><ele>650.0</ele><time>2026-05-03T13:27:56.917Z</time></trkpt><trkpt lat="44.042721510795296" lon="10.892047499934975"><ele>650.0</ele><time>2026-05-03T13:27:57.917Z</time></trkpt><trkpt lat="44.042577867283356" lon="10.891879167909073"><ele>649.0</ele><time>2026-05-03T13:27:58.917Z</time></trkpt><trkpt lat="44.04247004467081" lon="10.891718856490797"><ele>648.0</ele><time>2026-05-03T13:27:59.917Z</time></trkpt><trkpt lat="44.04240184080794" lon="10.89154286469148"><ele>647.0</ele><time>2026-05-03T13:28:00.916Z</time></trkpt><trkpt lat="44.04238206106418" lon="10.891335423192558"><ele>647.0</ele><time>2026-05-03T13:28:01.916Z</time></trkpt><trkpt lat="44.042407838613926" lon="10.891141708899067"><ele>647.0</ele><time>2026-05-03T13:28:02.916Z</time></trkpt><trkpt lat="44.042468738339366" lon="10.890956176851502"><ele>647.0</ele><time>2026-05-03T13:28:03.916Z</time></trkpt><trkpt lat="44.04254165622739" lon="10.890796082979346"><ele>647.0</ele><time>2026-05-03T13:28:04.916Z</time></trkpt><trkpt lat="44.04263414091601" lon="10.890599051619706"><ele>648.6666666666666</ele><time>2026-05-03T13:28:05.916Z</time></trkpt><trkpt lat="44.04272541041621" lon="10.89040267361121"><ele>650.3333333333334</ele><time>2026-05-03T13:28:06.916Z</time></trkpt><trkpt lat="44.04280779989001" lon="10.890189745703232"><ele>652.0</ele><time>2026-05-03T13:28:07.916Z</time></trkpt><trkpt lat="44.042856120266" lon="10.889964713864183"><ele>652.0</ele><time>2026-05-03T13:28:08.916Z</time></trkpt><trkpt lat="44.04291248103225" lon="10.88974300608236"><ele>652.0</ele><time>2026-05-03T13:28:09.916Z</time></trkpt><trkpt lat="44.04292760962699" lon="10.889511236425138"><ele>652.0</ele><time>2026-05-03T13:28:10.916Z</time></trkpt><trkpt lat="44.04291120706566" lon="10.889263257039076"><ele>651.6666666666667</ele><time>2026-05-03T13:28:11.916Z</time></trkpt><trkpt lat="44.04286504414731" lon="10.889014308185079"><ele>651.3333333333334</ele><time>2026-05-03T13:28:12.916Z</time></trkpt><trkpt lat="44.04281066997556" lon="10.888770467332597"><ele>651.0</ele><time>2026-05-03T13:28:13.916Z</time></trkpt><trkpt lat="44.042734670916765" lon="10.888530512124737"><ele>652.0</ele><time>2026-05-03T13:28:14.916Z</time></trkpt><trkpt lat="44.04263160149166" lon="10.888294480067337"><ele>653.0</ele><time>2026-05-03T13:28:15.916Z</time></trkpt><trkpt lat="44.04251064525149" lon="10.8880641607382"><ele>654.0</ele><time>2026-05-03T13:28:16.916Z</time></trkpt><trkpt lat="44.042392427883286" lon="10.887825070886223"><ele>654.6666666666666</ele><time>2026-05-03T13:28:17.916Z</time></trkpt><trkpt lat="44.04227036556235" lon="10.887578220616616"><ele>655.3333333333333</ele><time>2026-05-03T13:28:18.916Z</time></trkpt><trkpt lat="44.04214548415125" lon="10.887343279777097"><ele>656.0</ele><time>2026-05-03T13:28:19.916Z</time></trkpt><trkpt lat="44.042019519514" lon="10.887119972650897"><ele>656.0</ele><time>2026-05-03T13:28:20.916Z</time></trkpt><trkpt lat="44.04189370860005" lon="10.88690806847742"><ele>656.0</ele><time>2026-05-03T13:28:21.916Z</time></trkpt><trkpt lat="44.041748387004425" lon="10.886696333162252"><ele>656.0</ele><time>2026-05-03T13:28:22.916Z</time></trkpt><trkpt lat="44.04160966602259" lon="10.88650898179849"><ele>658.3333333333333</ele><time>2026-05-03T13:28:23.916Z</time></trkpt><trkpt lat="44.041466769516894" lon="10.886347456737044"><ele>660.6666666666666</ele><time>2026-05-03T13:28:24.916Z</time></trkpt><trkpt lat="44.041311795568625" lon="10.886205406848147"><ele>663.0</ele><time>2026-05-03T13:28:25.916Z</time></trkpt><trkpt lat="44.04113741649181" lon="10.886097915832321"><ele>663.0</ele><time>2026-05-03T13:28:26.916Z</time></trkpt><trkpt lat="44.04095917214454" lon="10.88600802551694"><ele>663.0</ele><time>2026-05-03T13:28:27.916Z</time></trkpt><trkpt lat="44.04078568532822" lon="10.885933136382803"><ele>663.0</ele><time>2026-05-03T13:28:28.916Z</time></trkpt><trkpt lat="44.040628675886225" lon="10.88588499921454"><ele>661.75</ele><time>2026-05-03T13:28:29.916Z</time></trkpt><trkpt lat="44.04049967523821" lon="10.8858064399689"><ele>660.5</ele><time>2026-05-03T13:28:30.916Z</time></trkpt><trkpt lat="44.04040478976164" lon="10.885668817276343"><ele>659.25</ele><time>2026-05-03T13:28:31.916Z</time></trkpt><trkpt lat="44.04034548695449" lon="10.885495107045026"><ele>658.0</ele><time>2026-05-03T13:28:32.916Z</time></trkpt><trkpt lat="44.040309386561155" lon="10.885283699904079"><ele>658.0</ele><time>2026-05-03T13:28:33.916Z</time></trkpt><trkpt lat="44.04028753042845" lon="10.885087514401773"><ele>658.0</ele><time>2026-05-03T13:28:34.916Z</time></trkpt><trkpt lat="44.04027675798281" lon="10.884900728545093"><ele>658.0</ele><time>2026-05-03T13:28:35.916Z</time></trkpt><trkpt lat="44.04026564126592" lon="10.884739737332858"><ele>658.0</ele><time>2026-05-03T13:28:36.916Z</time></trkpt><trkpt lat="44.04022666567042" lon="10.884623221478412"><ele>658.0</ele><time>2026-05-03T13:28:37.916Z</time></trkpt><trkpt lat="44.04016692304919" lon="10.884540612171268"><ele>658.0</ele><time>2026-05-03T13:28:38.916Z</time></trkpt><trkpt lat="44.04007388768015" lon="10.88451641199285"><ele>658.0</ele><time>2026-05-03T13:28:39.915Z</time></trkpt><trkpt lat="44.039972451679375" lon="10.884540720038961"><ele>658.0</ele><time>2026-05-03T13:28:40.915Z</time></trkpt><trkpt lat="44.03985283675717" lon="10.884599214037054"><ele>658.0</ele><time>2026-05-03T13:28:41.916Z</time></trkpt><trkpt lat="44.039719102920365" lon="10.88462108552118"><ele>658.25</ele><time>2026-05-03T13:28:42.916Z</time></trkpt><trkpt lat="44.03957586288183" lon="10.884629120390194"><ele>658.5</ele><time>2026-05-03T13:28:43.916Z</time></trkpt><trkpt lat="44.039446255176195" lon="10.884565411983857"><ele>658.75</ele><time>2026-05-03T13:28:44.915Z</time></trkpt><trkpt lat="44.03932193658085" lon="10.884452704009172"><ele>659.0</ele><time>2026-05-03T13:28:45.915Z</time></trkpt><trkpt lat="44.03920616365466" lon="10.884310345948562"><ele>659.3333333333333</ele><time>2026-05-03T13:28:46.915Z</time></trkpt><trkpt lat="44.03909113762711" lon="10.8841459573511"><ele>659.6666666666666</ele><time>2026-05-03T13:28:47.916Z</time></trkpt><trkpt lat="44.03897490449543" lon="10.88396455072715"><ele>660.0</ele><time>2026-05-03T13:28:48.915Z</time></trkpt><trkpt lat="44.038862238183874" lon="10.883782357487712"><ele>660.0</ele><time>2026-05-03T13:28:49.915Z</time></trkpt><trkpt lat="44.03874744214206" lon="10.883601661121048"><ele>660.0</ele><time>2026-05-03T13:28:50.915Z</time></trkpt><trkpt lat="44.038629209855436" lon="10.88341304371584"><ele>660.0</ele><time>2026-05-03T13:28:51.914Z</time></trkpt><trkpt lat="44.038516758711474" lon="10.88323728655773"><ele>660.0</ele><time>2026-05-03T13:28:52.914Z</time></trkpt><trkpt lat="44.03840813569241" lon="10.883084517634124"><ele>660.0</ele><time>2026-05-03T13:28:53.914Z</time></trkpt><trkpt lat="44.03831578901013" lon="10.882949779590053"><ele>660.0</ele><time>2026-05-03T13:28:54.914Z</time></trkpt><trkpt lat="44.0382451757097" lon="10.882825714468302"><ele>660.0</ele><time>2026-05-03T13:28:55.914Z</time></trkpt><trkpt lat="44.038176140262316" lon="10.882742474248362"><ele>660.0</ele><time>2026-05-03T13:28:56.914Z</time></trkpt><trkpt lat="44.038119905639284" lon="10.882655252533452"><ele>660.0</ele><time>2026-05-03T13:28:57.914Z</time></trkpt><trkpt lat="44.038066046661775" lon="10.88259289664273"><ele>660.0</ele><time>2026-05-03T13:28:58.914Z</time></trkpt><trkpt lat="44.038070526715984" lon="10.882432813998038"><ele>660.0</ele><time>2026-05-03T13:28:59.914Z</time></trkpt><trkpt lat="44.03805980994188" lon="10.882281584761428"><ele>660.0</ele><time>2026-05-03T13:29:00.914Z</time></trkpt><trkpt lat="44.03804744026317" lon="10.882103961855751"><ele>662.0</ele><time>2026-05-03T13:29:01.914Z</time></trkpt><trkpt lat="44.038030636384924" lon="10.881907411946004"><ele>664.0</ele><time>2026-05-03T13:29:02.914Z</time></trkpt><trkpt lat="44.03801230824393" lon="10.881690718265034"><ele>666.0</ele><time>2026-05-03T13:29:03.914Z</time></trkpt><trkpt lat="44.03798441297603" lon="10.881451659432154"><ele>669.6666666666666</ele><time>2026-05-03T13:29:04.914Z</time></trkpt><trkpt lat="44.03796090075388" lon="10.881214395117299"><ele>673.3333333333333</ele><time>2026-05-03T13:29:05.914Z</time></trkpt><trkpt lat="44.03793630444877" lon="10.88096755132565"><ele>677.0</ele><time>2026-05-03T13:29:06.914Z</time></trkpt><trkpt lat="44.03791617249814" lon="10.880712665454649"><ele>677.6666666666666</ele><time>2026-05-03T13:29:07.914Z</time></trkpt><trkpt lat="44.03789090957768" lon="10.880472871842105"><ele>678.3333333333334</ele><time>2026-05-03T13:29:08.914Z</time></trkpt><trkpt lat="44.03786900236885" lon="10.880252370789634"><ele>679.0</ele><time>2026-05-03T13:29:09.914Z</time></trkpt><trkpt lat="44.03785118461003" lon="10.88004791852275"><ele>679.25</ele><time>2026-05-03T13:29:10.914Z</time></trkpt><trkpt lat="44.03783398698314" lon="10.879860334164366"><ele>679.5</ele><time>2026-05-03T13:29:11.914Z</time></trkpt><trkpt lat="44.03781782285723" lon="10.879678933246453"><ele>679.75</ele><time>2026-05-03T13:29:12.914Z</time></trkpt><trkpt lat="44.03779984166853" lon="10.87950264910157"><ele>680.0</ele><time>2026-05-03T13:29:13.914Z</time></trkpt><trkpt lat="44.03778786327137" lon="10.87931144811479"><ele>684.3333333333333</ele><time>2026-05-03T13:29:14.914Z</time></trkpt><trkpt lat="44.03778714449158" lon="10.879116298144417"><ele>688.6666666666666</ele><time>2026-05-03T13:29:15.914Z</time></trkpt><trkpt lat="44.03781334645225" lon="10.878905834560724"><ele>693.0</ele><time>2026-05-03T13:29:16.914Z</time></trkpt><trkpt lat="44.03783046023813" lon="10.878670246457084"><ele>694.0</ele><time>2026-05-03T13:29:17.914Z</time></trkpt><trkpt lat="44.037848734836544" lon="10.878412230342326"><ele>695.0</ele><time>2026-05-03T13:29:18.914Z</time></trkpt><trkpt lat="44.03786787465608" lon="10.87814199826125"><ele>696.0</ele><time>2026-05-03T13:29:19.914Z</time></trkpt><trkpt lat="44.03788697652328" lon="10.877864066395633"><ele>696.3333333333334</ele><time>2026-05-03T13:29:20.914Z</time></trkpt><trkpt lat="44.037904693723895" lon="10.877590392504601"><ele>696.6666666666667</ele><time>2026-05-03T13:29:21.914Z</time></trkpt><trkpt lat="44.03790973123583" lon="10.877326578967994"><ele>697.0</ele><time>2026-05-03T13:29:22.914Z</time></trkpt><trkpt lat="44.03793099364344" lon="10.877085881027972"><ele>697.0</ele><time>2026-05-03T13:29:23.914Z</time></trkpt><trkpt lat="44.03794554126528" lon="10.876871936773803"><ele>697.0</ele><time>2026-05-03T13:29:24.914Z</time></trkpt><trkpt lat="44.03796308564054" lon="10.876674256766998"><ele>697.0</ele><time>2026-05-03T13:29:25.914Z</time></trkpt><trkpt lat="44.03798628637901" lon="10.876497795649408"><ele>697.0</ele><time>2026-05-03T13:29:26.914Z</time></trkpt><trkpt lat="44.0380247575113" lon="10.876336781285968"><ele>697.25</ele><time>2026-05-03T13:29:27.914Z</time></trkpt><trkpt lat="44.03810764401614" lon="10.876211669480298"><ele>697.5</ele><time>2026-05-03T13:29:28.914Z</time></trkpt><trkpt lat="44.03822728586738" lon="10.876103716371064"><ele>697.75</ele><time>2026-05-03T13:29:29.914Z</time></trkpt><trkpt lat="44.038359312155634" lon="10.875990414589571"><ele>698.0</ele><time>2026-05-03T13:29:30.914Z</time></trkpt><trkpt lat="44.03846487395057" lon="10.875863072545199"><ele>691.25</ele><time>2026-05-03T13:29:31.914Z</time></trkpt><trkpt lat="44.03854234090605" lon="10.875718555787316"><ele>684.5</ele><time>2026-05-03T13:29:32.914Z</time></trkpt><trkpt lat="44.038584815959084" lon="10.875544202392332"><ele>677.75</ele><time>2026-05-03T13:29:33.914Z</time></trkpt><trkpt lat="44.03859244315399" lon="10.875366433554028"><ele>671.0</ele><time>2026-05-03T13:29:34.914Z</time></trkpt><trkpt lat="44.038561819051274" lon="10.875186853633027"><ele>671.75</ele><time>2026-05-03T13:29:35.914Z</time></trkpt><trkpt lat="44.038496803246794" lon="10.875023019985852"><ele>672.5</ele><time>2026-05-03T13:29:36.914Z</time></trkpt><trkpt lat="44.03839287419792" lon="10.874876963224406"><ele>673.25</ele><time>2026-05-03T13:29:37.914Z</time></trkpt><trkpt lat="44.038262499017776" lon="10.874761054104658"><ele>674.0</ele><time>2026-05-03T13:29:38.914Z</time></trkpt><trkpt lat="44.03812005423295" lon="10.87464368713706"><ele>674.25</ele><time>2026-05-03T13:29:39.914Z</time></trkpt><trkpt lat="44.03800714926323" lon="10.874521311641795"><ele>674.5</ele><time>2026-05-03T13:29:40.914Z</time></trkpt><trkpt lat="44.03796589909332" lon="10.874349644929142"><ele>674.75</ele><time>2026-05-03T13:29:41.914Z</time></trkpt><trkpt lat="44.03794901900783" lon="10.874167103079072"><ele>675.0</ele><time>2026-05-03T13:29:42.914Z</time></trkpt><trkpt lat="44.037933345306406" lon="10.87394976381129"><ele>675.0</ele><time>2026-05-03T13:29:43.914Z</time></trkpt><trkpt lat="44.03791981156793" lon="10.873707625714955"><ele>675.0</ele><time>2026-05-03T13:29:44.914Z</time></trkpt><trkpt lat="44.03790471600819" lon="10.873448249940262"><ele>675.0</ele><time>2026-05-03T13:29:45.914Z</time></trkpt><trkpt lat="44.03788201096972" lon="10.873184039511521"><ele>675.3333333333334</ele><time>2026-05-03T13:29:46.914Z</time></trkpt><trkpt lat="44.03788819582615" lon="10.87291097638809"><ele>675.6666666666667</ele><time>2026-05-03T13:29:47.914Z</time></trkpt><trkpt lat="44.03790431205113" lon="10.872630358774613"><ele>676.0</ele><time>2026-05-03T13:29:48.914Z</time></trkpt><trkpt lat="44.03792643379576" lon="10.872344486097505"><ele>676.6666666666667</ele><time>2026-05-03T13:29:49.914Z</time></trkpt><trkpt lat="44.037953363082195" lon="10.872058771210185"><ele>677.3333333333334</ele><time>2026-05-03T13:29:50.914Z</time></trkpt><trkpt lat="44.037997367715725" lon="10.87177410499443"><ele>678.0</ele><time>2026-05-03T13:29:51.914Z</time></trkpt><trkpt lat="44.038021320750595" lon="10.871500381312405"><ele>678.0</ele><time>2026-05-03T13:29:52.914Z</time></trkpt><trkpt lat="44.038054994920046" lon="10.871230577723336"><ele>678.0</ele><time>2026-05-03T13:29:53.914Z</time></trkpt><trkpt lat="44.03808131174553" lon="10.870950208243821"><ele>678.0</ele><time>2026-05-03T13:29:54.913Z</time></trkpt><trkpt lat="44.03810686377351" lon="10.870669088133663"><ele>678.3333333333334</ele><time>2026-05-03T13:29:55.913Z</time></trkpt><trkpt lat="44.03812975480688" lon="10.870399763977648"><ele>678.6666666666667</ele><time>2026-05-03T13:29:56.913Z</time></trkpt><trkpt lat="44.038154339240016" lon="10.870149254434443"><ele>679.0</ele><time>2026-05-03T13:29:57.913Z</time></trkpt><trkpt lat="44.03816110596269" lon="10.86991410603751"><ele>680.3333333333334</ele><time>2026-05-03T13:29:58.913Z</time></trkpt><trkpt lat="44.03815931758274" lon="10.869694361102543"><ele>681.6666666666666</ele><time>2026-05-03T13:29:59.913Z</time></trkpt><trkpt lat="44.03814449063101" lon="10.86949021329109"><ele>683.0</ele><time>2026-05-03T13:30:00.913Z</time></trkpt><trkpt lat="44.03812131131224" lon="10.869262086057569"><ele>684.0</ele><time>2026-05-03T13:30:01.913Z</time></trkpt><trkpt lat="44.03811213150362" lon="10.869029468334306"><ele>685.0</ele><time>2026-05-03T13:30:02.913Z</time></trkpt><trkpt lat="44.03812629970577" lon="10.868779679683833"><ele>686.0</ele><time>2026-05-03T13:30:03.913Z</time></trkpt><trkpt lat="44.03815651536426" lon="10.868533701522592"><ele>687.3333333333333</ele><time>2026-05-03T13:30:04.913Z</time></trkpt><trkpt lat="44.03817962544425" lon="10.868289024398878"><ele>688.6666666666666</ele><time>2026-05-03T13:30:05.913Z</time></trkpt><trkpt lat="44.038202610434716" lon="10.868048578512145"><ele>690.0</ele><time>2026-05-03T13:30:06.913Z</time></trkpt><trkpt lat="44.03822876647662" lon="10.867817465112442"><ele>691.3333333333334</ele><time>2026-05-03T13:30:07.913Z</time></trkpt><trkpt lat="44.03825998853822" lon="10.867588256286602"><ele>692.6666666666667</ele><time>2026-05-03T13:30:08.913Z</time></trkpt><trkpt lat="44.038297642359225" lon="10.86735350207225"><ele>694.0</ele><time>2026-05-03T13:30:09.913Z</time></trkpt><trkpt lat="44.03833395951802" lon="10.86711751785512"><ele>694.0</ele><time>2026-05-03T13:30:10.913Z</time></trkpt><trkpt lat="44.03835566552202" lon="10.866862701816387"><ele>694.0</ele><time>2026-05-03T13:30:11.913Z</time></trkpt><trkpt lat="44.038371391415936" lon="10.866600930535151"><ele>694.0</ele><time>2026-05-03T13:30:12.913Z</time></trkpt><trkpt lat="44.038410724243604" lon="10.866352224705002"><ele>695.3333333333334</ele><time>2026-05-03T13:30:13.913Z</time></trkpt><trkpt lat="44.03844047281673" lon="10.86609627643378"><ele>696.6666666666666</ele><time>2026-05-03T13:30:14.913Z</time></trkpt><trkpt lat="44.038471370854516" lon="10.86583567111712"><ele>698.0</ele><time>2026-05-03T13:30:15.913Z</time></trkpt><trkpt lat="44.03850133299723" lon="10.865577157513872"><ele>698.0</ele><time>2026-05-03T13:30:16.913Z</time></trkpt><trkpt lat="44.03851660114926" lon="10.865309418830948"><ele>698.0</ele><time>2026-05-03T13:30:17.913Z</time></trkpt><trkpt lat="44.0385476894376" lon="10.865041044266546"><ele>698.0</ele><time>2026-05-03T13:30:18.913Z</time></trkpt><trkpt lat="44.03857906291958" lon="10.864772275154067"><ele>698.0</ele><time>2026-05-03T13:30:19.913Z</time></trkpt><trkpt lat="44.03861079379983" lon="10.864505199412202"><ele>698.0</ele><time>2026-05-03T13:30:20.913Z</time></trkpt><trkpt lat="44.03865707471458" lon="10.864267769767986"><ele>698.0</ele><time>2026-05-03T13:30:21.913Z</time></trkpt><trkpt lat="44.03868669780748" lon="10.864034141821165"><ele>698.0</ele><time>2026-05-03T13:30:22.913Z</time></trkpt><trkpt lat="44.038705645411255" lon="10.863817966979036"><ele>698.0</ele><time>2026-05-03T13:30:23.913Z</time></trkpt><trkpt lat="44.03870644424687" lon="10.863616328160631"><ele>698.0</ele><time>2026-05-03T13:30:24.913Z</time></trkpt><trkpt lat="44.03874188964693" lon="10.863424056309986"><ele>698.0</ele><time>2026-05-03T13:30:25.913Z</time></trkpt><trkpt lat="44.03875857470934" lon="10.86323479248642"><ele>697.5</ele><time>2026-05-03T13:30:26.913Z</time></trkpt><trkpt lat="44.03876674889288" lon="10.863051043052694"><ele>697.0</ele><time>2026-05-03T13:30:27.913Z</time></trkpt><trkpt lat="44.038741518786715" lon="10.862857750173895"><ele>696.5</ele><time>2026-05-03T13:30:28.913Z</time></trkpt><trkpt lat="44.03872645882808" lon="10.862646544848154"><ele>696.0</ele><time>2026-05-03T13:30:29.913Z</time></trkpt><trkpt lat="44.03869848351573" lon="10.86242554082989"><ele>695.5</ele><time>2026-05-03T13:30:30.913Z</time></trkpt><trkpt lat="44.038670958265676" lon="10.862214719583053"><ele>695.0</ele><time>2026-05-03T13:30:31.913Z</time></trkpt><trkpt lat="44.038657867171345" lon="10.86201812889383"><ele>694.5</ele><time>2026-05-03T13:30:32.913Z</time></trkpt><trkpt lat="44.03865278907857" lon="10.861831499197296"><ele>694.0</ele><time>2026-05-03T13:30:33.913Z</time></trkpt><trkpt lat="44.038700802313286" lon="10.861656638469247"><ele>693.75</ele><time>2026-05-03T13:30:34.913Z</time></trkpt><trkpt lat="44.03875695742472" lon="10.861469088449612"><ele>693.5</ele><time>2026-05-03T13:30:35.913Z</time></trkpt><trkpt lat="44.03881720369554" lon="10.861291058969188"><ele>693.25</ele><time>2026-05-03T13:30:36.913Z</time></trkpt><trkpt lat="44.03887329491277" lon="10.861128383133021"><ele>693.0</ele><time>2026-05-03T13:30:37.913Z</time></trkpt><trkpt lat="44.03891508037486" lon="10.86098924653666"><ele>693.0</ele><time>2026-05-03T13:30:38.913Z</time></trkpt><trkpt lat="44.03893349786059" lon="10.860853671241138"><ele>693.0</ele><time>2026-05-03T13:30:39.913Z</time></trkpt><trkpt lat="44.038918951016264" lon="10.86071858772831"><ele>693.0</ele><time>2026-05-03T13:30:40.913Z</time></trkpt><trkpt lat="44.03887301314775" lon="10.860567056238715"><ele>693.0</ele><time>2026-05-03T13:30:41.913Z</time></trkpt><trkpt lat="44.03882411802929" lon="10.860400648741194"><ele>693.0</ele><time>2026-05-03T13:30:42.913Z</time></trkpt><trkpt lat="44.03879374396033" lon="10.86022157641375"><ele>694.75</ele><time>2026-05-03T13:30:43.913Z</time></trkpt><trkpt lat="44.0387815205346" lon="10.860027626434569"><ele>696.5</ele><time>2026-05-03T13:30:44.913Z</time></trkpt><trkpt lat="44.0387939479021" lon="10.859850569312878"><ele>698.25</ele><time>2026-05-03T13:30:45.912Z</time></trkpt><trkpt lat="44.038796864110296" lon="10.859680145994624"><ele>700.0</ele><time>2026-05-03T13:30:46.912Z</time></trkpt><trkpt lat="44.038796737459364" lon="10.859515343446969"><ele>700.0</ele><time>2026-05-03T13:30:47.913Z</time></trkpt><trkpt lat="44.038787167878084" lon="10.859340800808825"><ele>700.0</ele><time>2026-05-03T13:30:48.913Z</time></trkpt><trkpt lat="44.03876335450663" lon="10.859171547772132"><ele>700.0</ele><time>2026-05-03T13:30:49.913Z</time></trkpt><trkpt lat="44.038728615426585" lon="10.85898801398791"><ele>700.0</ele><time>2026-05-03T13:30:50.913Z</time></trkpt><trkpt lat="44.03868935662873" lon="10.858789820261853"><ele>702.6666666666667</ele><time>2026-05-03T13:30:51.913Z</time></trkpt><trkpt lat="44.03864848663283" lon="10.858583492924161"><ele>705.3333333333334</ele><time>2026-05-03T13:30:52.913Z</time></trkpt><trkpt lat="44.0386076281109" lon="10.858379210686904"><ele>708.0</ele><time>2026-05-03T13:30:53.913Z</time></trkpt><trkpt lat="44.03856743341509" lon="10.858183486263393"><ele>708.0</ele><time>2026-05-03T13:30:54.912Z</time></trkpt><trkpt lat="44.038511774340556" lon="10.857990456618735"><ele>708.0</ele><time>2026-05-03T13:30:55.912Z</time></trkpt><trkpt lat="44.038481210480185" lon="10.857803189276689"><ele>708.0</ele><time>2026-05-03T13:30:56.912Z</time></trkpt><trkpt lat="44.03844830241155" lon="10.85762890723321"><ele>708.0</ele><time>2026-05-03T13:30:57.912Z</time></trkpt><trkpt lat="44.0384044222758" lon="10.857473671658292"><ele>707.0</ele><time>2026-05-03T13:30:58.912Z</time></trkpt><trkpt lat="44.03834263272757" lon="10.857337981525752"><ele>706.0</ele><time>2026-05-03T13:30:59.912Z</time></trkpt><trkpt lat="44.038263425885695" lon="10.857231470571598"><ele>705.0</ele><time>2026-05-03T13:31:00.912Z</time></trkpt><trkpt lat="44.038174312905156" lon="10.857155170922292"><ele>704.0</ele><time>2026-05-03T13:31:01.912Z</time></trkpt><trkpt lat="44.0380897930207" lon="10.857096898272816"><ele>703.0</ele><time>2026-05-03T13:31:02.912Z</time></trkpt><trkpt lat="44.03801741146277" lon="10.857017188635812"><ele>705.4</ele><time>2026-05-03T13:31:03.912Z</time></trkpt><trkpt lat="44.037955577990914" lon="10.856942662135813"><ele>707.8</ele><time>2026-05-03T13:31:04.912Z</time></trkpt><trkpt lat="44.037909018212595" lon="10.856845995588667"><ele>710.2</ele><time>2026-05-03T13:31:05.912Z</time></trkpt><trkpt lat="44.037892375779464" lon="10.856715274168348"><ele>712.6</ele><time>2026-05-03T13:31:06.912Z</time></trkpt><trkpt lat="44.0378772495426" lon="10.856567294319358"><ele>715.0</ele><time>2026-05-03T13:31:07.912Z</time></trkpt><trkpt lat="44.03785526576287" lon="10.856401810022787"><ele>715.0</ele><time>2026-05-03T13:31:08.912Z</time></trkpt><trkpt lat="44.037841919027905" lon="10.856229339305331"><ele>715.0</ele><time>2026-05-03T13:31:09.912Z</time></trkpt><trkpt lat="44.03782867497295" lon="10.85605175091278"><ele>715.0</ele><time>2026-05-03T13:31:10.912Z</time></trkpt><trkpt lat="44.0378201492128" lon="10.855869465797275"><ele>715.0</ele><time>2026-05-03T13:31:11.912Z</time></trkpt><trkpt lat="44.03781448318063" lon="10.855701267643182"><ele>715.0</ele><time>2026-05-03T13:31:12.912Z</time></trkpt><trkpt lat="44.0378078497264" lon="10.85554738070849"><ele>715.0</ele><time>2026-05-03T13:31:13.912Z</time></trkpt><trkpt lat="44.037797088848436" lon="10.8553922023829"><ele>715.0</ele><time>2026-05-03T13:31:14.912Z</time></trkpt><trkpt lat="44.03778492477831" lon="10.855236464113245"><ele>715.0</ele><time>2026-05-03T13:31:15.912Z</time></trkpt><trkpt lat="44.03776519063473" lon="10.855089510907357"><ele>715.0</ele><time>2026-05-03T13:31:16.912Z</time></trkpt><trkpt lat="44.03775071583399" lon="10.854950336347596"><ele>714.6</ele><time>2026-05-03T13:31:17.912Z</time></trkpt><trkpt lat="44.037720309419385" lon="10.854813681635965"><ele>714.2</ele><time>2026-05-03T13:31:18.912Z</time></trkpt><trkpt lat="44.03767442004103" lon="10.854700604969986"><ele>713.8</ele><time>2026-05-03T13:31:19.912Z</time></trkpt><trkpt lat="44.03761748016565" lon="10.854586326270988"><ele>713.4</ele><time>2026-05-03T13:31:20.912Z</time></trkpt><trkpt lat="44.03755432468632" lon="10.854461670406943"><ele>713.0</ele><time>2026-05-03T13:31:21.912Z</time></trkpt><trkpt lat="44.03749814610408" lon="10.85433985721656"><ele>714.0</ele><time>2026-05-03T13:31:22.912Z</time></trkpt><trkpt lat="44.037445694530824" lon="10.854218622490448"><ele>715.0</ele><time>2026-05-03T13:31:23.912Z</time></trkpt><trkpt lat="44.03738647549574" lon="10.854108845506927"><ele>716.0</ele><time>2026-05-03T13:31:24.912Z</time></trkpt><trkpt lat="44.037372076402235" lon="10.853960868470658"><ele>717.0</ele><time>2026-05-03T13:31:25.912Z</time></trkpt><trkpt lat="44.0373736478709" lon="10.853832326627062"><ele>718.0</ele><time>2026-05-03T13:31:26.912Z</time></trkpt><trkpt lat="44.03739605433022" lon="10.853709624629456"><ele>718.0</ele><time>2026-05-03T13:31:27.912Z</time></trkpt><trkpt lat="44.037424908334515" lon="10.853580555769462"><ele>718.0</ele><time>2026-05-03T13:31:28.912Z</time></trkpt><trkpt lat="44.03746675186985" lon="10.853458717593183"><ele>718.0</ele><time>2026-05-03T13:31:29.912Z</time></trkpt><trkpt lat="44.037560968718374" lon="10.853393958351747"><ele>718.0</ele><time>2026-05-03T13:31:30.912Z</time></trkpt><trkpt lat="44.03764680782792" lon="10.853312869277586"><ele>718.0</ele><time>2026-05-03T13:31:31.912Z</time></trkpt><trkpt lat="44.037725036623264" lon="10.853223507383776"><ele>715.5</ele><time>2026-05-03T13:31:32.912Z</time></trkpt><trkpt lat="44.03778859540182" lon="10.853109514752218"><ele>713.0</ele><time>2026-05-03T13:31:33.912Z</time></trkpt><trkpt lat="44.03782206868525" lon="10.852953450592324"><ele>710.5</ele><time>2026-05-03T13:31:34.912Z</time></trkpt><trkpt lat="44.037826828906674" lon="10.852785893640148"><ele>708.0</ele><time>2026-05-03T13:31:35.912Z</time></trkpt><trkpt lat="44.037805715101676" lon="10.852634740570517"><ele>709.0</ele><time>2026-05-03T13:31:36.912Z</time></trkpt><trkpt lat="44.037780553283916" lon="10.852481101565996"><ele>710.0</ele><time>2026-05-03T13:31:37.912Z</time></trkpt><trkpt lat="44.037750767562876" lon="10.852312848358293"><ele>711.0</ele><time>2026-05-03T13:31:38.912Z</time></trkpt><trkpt lat="44.03771613909884" lon="10.852135323111494"><ele>712.0</ele><time>2026-05-03T13:31:39.912Z</time></trkpt><trkpt lat="44.03768067385393" lon="10.851951410900341"><ele>712.0</ele><time>2026-05-03T13:31:40.912Z</time></trkpt><trkpt lat="44.03764521003996" lon="10.851767115931285"><ele>712.0</ele><time>2026-05-03T13:31:41.912Z</time></trkpt><trkpt lat="44.03760716163313" lon="10.851609988479323"><ele>712.0</ele><time>2026-05-03T13:31:42.912Z</time></trkpt><trkpt lat="44.0375817037602" lon="10.85146091025763"><ele>712.0</ele><time>2026-05-03T13:31:43.912Z</time></trkpt><trkpt lat="44.03757437694297" lon="10.851324852829245"><ele>712.0</ele><time>2026-05-03T13:31:44.912Z</time></trkpt><trkpt lat="44.03759070340911" lon="10.851185008063165"><ele>712.0</ele><time>2026-05-03T13:31:45.912Z</time></trkpt><trkpt lat="44.03763288898594" lon="10.85104300616037"><ele>712.0</ele><time>2026-05-03T13:31:46.912Z</time></trkpt><trkpt lat="44.03768381467139" lon="10.850899731774744"><ele>712.0</ele><time>2026-05-03T13:31:47.912Z</time></trkpt><trkpt lat="44.037726304136385" lon="10.850734138805583"><ele>712.25</ele><time>2026-05-03T13:31:48.912Z</time></trkpt><trkpt lat="44.03777191449384" lon="10.850565319037278"><ele>712.5</ele><time>2026-05-03T13:31:49.912Z</time></trkpt><trkpt lat="44.037810715055834" lon="10.850388391509902"><ele>712.75</ele><time>2026-05-03T13:31:50.912Z</time></trkpt><trkpt lat="44.037856438097535" lon="10.850221799626933"><ele>713.0</ele><time>2026-05-03T13:31:51.912Z</time></trkpt><trkpt lat="44.03791076762062" lon="10.850049851909738"><ele>713.0</ele><time>2026-05-03T13:31:52.912Z</time></trkpt><trkpt lat="44.037972755602134" lon="10.84987770165563"><ele>713.0</ele><time>2026-05-03T13:31:53.912Z</time></trkpt><trkpt lat="44.038041264514476" lon="10.84972925881956"><ele>713.0</ele><time>2026-05-03T13:31:54.912Z</time></trkpt><trkpt lat="44.03811659126337" lon="10.849576013428882"><ele>713.0</ele><time>2026-05-03T13:31:55.912Z</time></trkpt><trkpt lat="44.03819612431989" lon="10.849419942489705"><ele>712.75</ele><time>2026-05-03T13:31:56.912Z</time></trkpt><trkpt lat="44.03826333594012" lon="10.84926768447271"><ele>712.5</ele><time>2026-05-03T13:31:57.911Z</time></trkpt><trkpt lat="44.03834126367418" lon="10.84912274669745"><ele>712.25</ele><time>2026-05-03T13:31:58.911Z</time></trkpt><trkpt lat="44.038415309704185" lon="10.848983139162442"><ele>712.0</ele><time>2026-05-03T13:31:59.911Z</time></trkpt><trkpt lat="44.038486447482676" lon="10.848841757861585"><ele>713.75</ele><time>2026-05-03T13:32:00.911Z</time></trkpt><trkpt lat="44.03856467690039" lon="10.848689929736155"><ele>715.5</ele><time>2026-05-03T13:32:01.911Z</time></trkpt><trkpt lat="44.038643139420664" lon="10.848545385674393"><ele>717.25</ele><time>2026-05-03T13:32:02.911Z</time></trkpt><trkpt lat="44.038713568656505" lon="10.84840003962355"><ele>719.0</ele><time>2026-05-03T13:32:03.911Z</time></trkpt><trkpt lat="44.03878384767018" lon="10.848266391421813"><ele>719.0</ele><time>2026-05-03T13:32:04.911Z</time></trkpt><trkpt lat="44.03884583090296" lon="10.8481427260195"><ele>719.0</ele><time>2026-05-03T13:32:05.911Z</time></trkpt><trkpt lat="44.03889510796806" lon="10.848034504151677"><ele>719.0</ele><time>2026-05-03T13:32:06.911Z</time></trkpt><trkpt lat="44.03894533867683" lon="10.847948327344522"><ele>719.0</ele><time>2026-05-03T13:32:07.911Z</time></trkpt><trkpt lat="44.03899299383361" lon="10.847867833762262"><ele>719.0</ele><time>2026-05-03T13:32:08.911Z</time></trkpt><trkpt lat="44.039073171063784" lon="10.847743194411436"><ele>719.0</ele><time>2026-05-03T13:32:10.911Z</time></trkpt><trkpt lat="44.03912310926141" lon="10.847683496359176"><ele>719.0</ele><time>2026-05-03T13:32:11.911Z</time></trkpt><trkpt lat="44.03909245206715" lon="10.847538677583866"><ele>719.0</ele><time>2026-05-03T13:32:12.911Z</time></trkpt><trkpt lat="44.03911326050402" lon="10.847407181945831"><ele>719.0</ele><time>2026-05-03T13:32:13.911Z</time></trkpt><trkpt lat="44.03916643048204" lon="10.84729009631975"><ele>719.0</ele><time>2026-05-03T13:32:14.911Z</time></trkpt><trkpt lat="44.03923704038094" lon="10.847197328771209"><ele>720.2</ele><time>2026-05-03T13:32:15.911Z</time></trkpt><trkpt lat="44.03929830760367" lon="10.847100343699854"><ele>721.4000000000001</ele><time>2026-05-03T13:32:16.911Z</time></trkpt><trkpt lat="44.03936614308896" lon="10.846997788631864"><ele>722.6</ele><time>2026-05-03T13:32:17.911Z</time></trkpt><trkpt lat="44.03942616898488" lon="10.846886275248991"><ele>723.8</ele><time>2026-05-03T13:32:18.911Z</time></trkpt><trkpt lat="44.039492485320395" lon="10.84679980751347"><ele>725.0</ele><time>2026-05-03T13:32:19.911Z</time></trkpt><trkpt lat="44.03955660023137" lon="10.846721057877831"><ele>725.0</ele><time>2026-05-03T13:32:20.911Z</time></trkpt><trkpt lat="44.03962366776798" lon="10.846638887579312"><ele>725.0</ele><time>2026-05-03T13:32:21.911Z</time></trkpt><trkpt lat="44.03969325385603" lon="10.84653818978257"><ele>725.0</ele><time>2026-05-03T13:32:22.911Z</time></trkpt><trkpt lat="44.03975849294659" lon="10.846413062075106"><ele>725.0</ele><time>2026-05-03T13:32:23.911Z</time></trkpt><trkpt lat="44.03981818490941" lon="10.846265490209179"><ele>725.0</ele><time>2026-05-03T13:32:24.911Z</time></trkpt><trkpt lat="44.039878196649326" lon="10.846103736069704"><ele>725.75</ele><time>2026-05-03T13:32:25.911Z</time></trkpt><trkpt lat="44.03994228175073" lon="10.845935692312837"><ele>726.5</ele><time>2026-05-03T13:32:26.911Z</time></trkpt><trkpt lat="44.040017536699914" lon="10.845764923063475"><ele>727.25</ele><time>2026-05-03T13:32:27.911Z</time></trkpt><trkpt lat="44.040103986553646" lon="10.845594479511503"><ele>728.0</ele><time>2026-05-03T13:32:28.911Z</time></trkpt><trkpt lat="44.04018968266239" lon="10.845443070436849"><ele>728.75</ele><time>2026-05-03T13:32:29.911Z</time></trkpt><trkpt lat="44.040264559446086" lon="10.845294801694157"><ele>729.5</ele><time>2026-05-03T13:32:30.911Z</time></trkpt><trkpt lat="44.040349507706225" lon="10.845159137606604"><ele>730.25</ele><time>2026-05-03T13:32:31.911Z</time></trkpt><trkpt lat="44.04040772366662" lon="10.845006015667053"><ele>731.0</ele><time>2026-05-03T13:32:32.911Z</time></trkpt><trkpt lat="44.040450189955465" lon="10.84484207944913"><ele>731.0</ele><time>2026-05-03T13:32:33.911Z</time></trkpt><trkpt lat="44.040481451381204" lon="10.844683461022006"><ele>731.0</ele><time>2026-05-03T13:32:34.911Z</time></trkpt><trkpt lat="44.040502469944734" lon="10.844523369357303"><ele>731.0</ele><time>2026-05-03T13:32:35.911Z</time></trkpt><trkpt lat="44.0404925611223" lon="10.844354790171204"><ele>731.0</ele><time>2026-05-03T13:32:36.911Z</time></trkpt><trkpt lat="44.04044782671687" lon="10.84418939545453"><ele>732.0</ele><time>2026-05-03T13:32:37.911Z</time></trkpt><trkpt lat="44.04037683952816" lon="10.844038919148353"><ele>733.0</ele><time>2026-05-03T13:32:38.911Z</time></trkpt><trkpt lat="44.04034926683331" lon="10.84386376294056"><ele>734.0</ele><time>2026-05-03T13:32:39.911Z</time></trkpt><trkpt lat="44.0403248576894" lon="10.843706820231226"><ele>735.0</ele><time>2026-05-03T13:32:40.911Z</time></trkpt><trkpt lat="44.040309270476314" lon="10.843575559991551"><ele>735.4</ele><time>2026-05-03T13:32:41.911Z</time></trkpt><trkpt lat="44.04028133815001" lon="10.843442951380405"><ele>735.8</ele><time>2026-05-03T13:32:42.911Z</time></trkpt><trkpt lat="44.04024605247759" lon="10.843333798733614"><ele>736.2</ele><time>2026-05-03T13:32:43.911Z</time></trkpt><trkpt lat="44.04018616724743" lon="10.843231533982602"><ele>736.6</ele><time>2026-05-03T13:32:44.911Z</time></trkpt><trkpt lat="44.04011190928287" lon="10.843141045433716"><ele>737.0</ele><time>2026-05-03T13:32:45.911Z</time></trkpt><trkpt lat="44.04003258809147" lon="10.843053724833917"><ele>737.0</ele><time>2026-05-03T13:32:46.911Z</time></trkpt><trkpt lat="44.03997331597849" lon="10.842964712585232"><ele>737.0</ele><time>2026-05-03T13:32:47.911Z</time></trkpt><trkpt lat="44.039942626286404" lon="10.842865236367233"><ele>737.0</ele><time>2026-05-03T13:32:48.911Z</time></trkpt><trkpt lat="44.039951413617416" lon="10.842748385722704"><ele>737.0</ele><time>2026-05-03T13:32:49.911Z</time></trkpt><trkpt lat="44.03998663369313" lon="10.84262206099121"><ele>737.0</ele><time>2026-05-03T13:32:50.91Z</time></trkpt><trkpt lat="44.040021220639154" lon="10.84252365548021"><ele>737.0</ele><time>2026-05-03T13:32:51.91Z</time></trkpt><trkpt lat="44.04005334375858" lon="10.842434794007238"><ele>738.0</ele><time>2026-05-03T13:32:52.91Z</time></trkpt><trkpt lat="44.040020787013056" lon="10.842338321343522"><ele>739.0</ele><time>2026-05-03T13:32:53.91Z</time></trkpt><trkpt lat="44.03993891406797" lon="10.842247517237446"><ele>740.0</ele><time>2026-05-03T13:32:54.91Z</time></trkpt><trkpt lat="44.03983090429599" lon="10.8421815580365"><ele>741.0</ele><time>2026-05-03T13:32:55.91Z</time></trkpt><trkpt lat="44.03972293089422" lon="10.842120186117882"><ele>742.0</ele><time>2026-05-03T13:32:56.91Z</time></trkpt><trkpt lat="44.03965957020632" lon="10.842023297572135"><ele>744.8</ele><time>2026-05-03T13:32:57.91Z</time></trkpt><trkpt lat="44.03961967658937" lon="10.841916144116706"><ele>747.6</ele><time>2026-05-03T13:32:58.91Z</time></trkpt><trkpt lat="44.03960307232372" lon="10.841794897300401"><ele>750.4</ele><time>2026-05-03T13:32:59.91Z</time></trkpt><trkpt lat="44.039589171727165" lon="10.841654001914028"><ele>753.1999999999999</ele><time>2026-05-03T13:33:00.91Z</time></trkpt><trkpt lat="44.039583362807406" lon="10.84152245488955"><ele>756.0</ele><time>2026-05-03T13:33:01.91Z</time></trkpt><trkpt lat="44.03956645624084" lon="10.841394569350722"><ele>757.0</ele><time>2026-05-03T13:33:02.91Z</time></trkpt><trkpt lat="44.03952971647784" lon="10.841237941666861"><ele>758.0</ele><time>2026-05-03T13:33:03.91Z</time></trkpt><trkpt lat="44.039480168330115" lon="10.841058510043025"><ele>759.0</ele><time>2026-05-03T13:33:04.91Z</time></trkpt><trkpt lat="44.039433589372386" lon="10.840859000355834"><ele>760.0</ele><time>2026-05-03T13:33:05.91Z</time></trkpt><trkpt lat="44.039400162532324" lon="10.840645566996875"><ele>761.3333333333334</ele><time>2026-05-03T13:33:06.91Z</time></trkpt><trkpt lat="44.03936796995015" lon="10.840447937977403"><ele>762.6666666666666</ele><time>2026-05-03T13:33:07.91Z</time></trkpt><trkpt lat="44.03932889741982" lon="10.840227694182921"><ele>764.0</ele><time>2026-05-03T13:33:08.91Z</time></trkpt><trkpt lat="44.03928177292085" lon="10.840018389819681"><ele>764.6</ele><time>2026-05-03T13:33:09.91Z</time></trkpt><trkpt lat="44.0392410060873" lon="10.839862466088968"><ele>765.2</ele><time>2026-05-03T13:33:10.91Z</time></trkpt><trkpt lat="44.03921043651988" lon="10.839745975644812"><ele>765.8000000000001</ele><time>2026-05-03T13:33:11.91Z</time></trkpt><trkpt lat="44.03917673039246" lon="10.839659977715064"><ele>766.4000000000001</ele><time>2026-05-03T13:33:12.91Z</time></trkpt><trkpt lat="44.03908671295817" lon="10.839598280096377"><ele>767.0</ele><time>2026-05-03T13:33:14.91Z</time></trkpt><trkpt lat="44.0390067835925" lon="10.839727135393304"><ele>771.2</ele><time>2026-05-03T13:33:16.91Z</time></trkpt><trkpt lat="44.03899960507039" lon="10.839853863119583"><ele>775.4000000000001</ele><time>2026-05-03T13:33:17.91Z</time></trkpt><trkpt lat="44.03901737446934" lon="10.839957287480896"><ele>779.5999999999999</ele><time>2026-05-03T13:33:18.91Z</time></trkpt><trkpt lat="44.03905861303001" lon="10.840069786400985"><ele>783.8</ele><time>2026-05-03T13:33:19.91Z</time></trkpt><trkpt lat="44.03907742115593" lon="10.840213772880576"><ele>788.0</ele><time>2026-05-03T13:33:20.91Z</time></trkpt><trkpt lat="44.03909238348837" lon="10.840403265910851"><ele>788.0</ele><time>2026-05-03T13:33:21.91Z</time></trkpt><trkpt lat="44.03906981375202" lon="10.8405644553978"><ele>788.0</ele><time>2026-05-03T13:33:22.91Z</time></trkpt><trkpt lat="44.0390317388458" lon="10.84072398430456"><ele>788.0</ele><time>2026-05-03T13:33:23.91Z</time></trkpt><trkpt lat="44.038967587799206" lon="10.840866762647378"><ele>788.0</ele><time>2026-05-03T13:33:24.91Z</time></trkpt><trkpt lat="44.03888571958974" lon="10.840991361752181"><ele>785.25</ele><time>2026-05-03T13:33:25.91Z</time></trkpt><trkpt lat="44.038799842649226" lon="10.84112252841223"><ele>782.5</ele><time>2026-05-03T13:33:26.91Z</time></trkpt><trkpt lat="44.03870890343109" lon="10.841231857474664"><ele>779.75</ele><time>2026-05-03T13:33:27.91Z</time></trkpt><trkpt lat="44.038624952652036" lon="10.841337491602786"><ele>777.0</ele><time>2026-05-03T13:33:28.91Z</time></trkpt><trkpt lat="44.03853288011338" lon="10.841430856523722"><ele>777.0</ele><time>2026-05-03T13:33:29.91Z</time></trkpt><trkpt lat="44.03842832880305" lon="10.841514109207417"><ele>777.0</ele><time>2026-05-03T13:33:30.91Z</time></trkpt><trkpt lat="44.03833485964423" lon="10.841582300933242"><ele>777.0</ele><time>2026-05-03T13:33:31.91Z</time></trkpt><trkpt lat="44.03823725765544" lon="10.84164225275999"><ele>777.0</ele><time>2026-05-03T13:33:32.91Z</time></trkpt><trkpt lat="44.03813637381919" lon="10.84171164389269"><ele>777.0</ele><time>2026-05-03T13:33:33.91Z</time></trkpt><trkpt lat="44.03804955188421" lon="10.841783969604977"><ele>779.0</ele><time>2026-05-03T13:33:34.91Z</time></trkpt><trkpt lat="44.0379626486301" lon="10.84183947477767"><ele>781.0</ele><time>2026-05-03T13:33:35.91Z</time></trkpt><trkpt lat="44.03788625095793" lon="10.84189748871007"><ele>783.0</ele><time>2026-05-03T13:33:36.91Z</time></trkpt><trkpt lat="44.037820781248875" lon="10.841991853338536"><ele>785.0</ele><time>2026-05-03T13:33:37.91Z</time></trkpt><trkpt lat="44.03778765852968" lon="10.8421036997347"><ele>787.0</ele><time>2026-05-03T13:33:38.91Z</time></trkpt><trkpt lat="44.0377620612486" lon="10.842223371615185"><ele>786.9999999999999</ele><time>2026-05-03T13:33:39.91Z</time></trkpt><trkpt lat="44.03771072990645" lon="10.84231072112338"><ele>787.0</ele><time>2026-05-03T13:33:40.91Z</time></trkpt><trkpt lat="44.03764083558515" lon="10.84234947640674"><ele>787.0</ele><time>2026-05-03T13:33:41.91Z</time></trkpt><trkpt lat="44.03756972890867" lon="10.84235859380106"><ele>787.0</ele><time>2026-05-03T13:33:42.91Z</time></trkpt><trkpt lat="44.037502478930655" lon="10.842383507116532"><ele>786.9999999999999</ele><time>2026-05-03T13:33:44.91Z</time></trkpt><trkpt lat="44.03749765678827" lon="10.84248863741584"><ele>787.0</ele><time>2026-05-03T13:33:46.91Z</time></trkpt><trkpt lat="44.037489084425324" lon="10.842615339071308"><ele>787.0</ele><time>2026-05-03T13:33:48.91Z</time></trkpt><trkpt lat="44.03742725210955" lon="10.842642451036529"><ele>796.0</ele><time>2026-05-03T13:34:52.909Z</time></trkpt></trkseg></trk></gpx>